<?xml version="1.0" encoding="UTF-8" standalone="no" ?>
<gpx xmlns="http://www.topografix.com/GPX/1/1" xmlns:xsi="http://www.w3.org/2001/XMLSchema-instance" xsi:schemaLocation="http://www.topografix.com/GPX/1/1 http://www.topografix.com/GPX/1/1/gpx.xsd" version="1.1" creator="VisuGPX - https://www.visugpx.com">
  <metadata>
    <name>CAMINO PRIMITIVO &quot;BODENAYA CAMPIELLO&quot;</name>
    <desc><![CDATA[ Ne surtout pas manquer l'Albergue de Bodenaya ou les 2 hospitaliers font tout pour que vous vous sentiez comme chez vous, ils lavent votre linge que vous retrouvez plié le matin, ils nous ont préparé un repas excellent et le matin après un réveil musical en douceur, le petit déjeuner est pret. et tout cela pour le donativo. Souvenir gravé à jamais dans notre mémoire. Cette étape ne présente que peu de difficulté, on peut éviter le détour vers le monastère de Santa Maria de Obona bien qu'il soit intérressant. L'albergue Santa Hermina à Campiello est confortable et a ètè refaite entierement récemment. Les repas sont copieux et de bonne qualité.]]></desc>
  </metadata>
  <trk>
    <name><![CDATA[2016-07-08-01]]></name>
    <trkseg>
      <trkpt lat="43.40036" lon="-6.32399">
        <ele>645.5</ele>
        <time>2016-07-08T06:18:11Z</time>
      </trkpt>
      <trkpt lat="43.40037" lon="-6.324">
        <ele>645.5</ele>
        <time>2016-07-08T06:18:12Z</time>
      </trkpt>
      <trkpt lat="43.40044" lon="-6.32408">
        <ele>651</ele>
        <time>2016-07-08T06:18:23Z</time>
      </trkpt>
      <trkpt lat="43.4005" lon="-6.32419">
        <ele>652.8</ele>
        <time>2016-07-08T06:18:34Z</time>
      </trkpt>
      <trkpt lat="43.40051" lon="-6.32432">
        <ele>655.7</ele>
        <time>2016-07-08T06:18:45Z</time>
      </trkpt>
      <trkpt lat="43.4005" lon="-6.32445">
        <ele>657</ele>
        <time>2016-07-08T06:18:54Z</time>
      </trkpt>
      <trkpt lat="43.40048" lon="-6.32459">
        <ele>657.8</ele>
        <time>2016-07-08T06:19:02Z</time>
      </trkpt>
      <trkpt lat="43.40046" lon="-6.32472">
        <ele>658.3</ele>
        <time>2016-07-08T06:19:10Z</time>
      </trkpt>
      <trkpt lat="43.40044" lon="-6.32485">
        <ele>658.8</ele>
        <time>2016-07-08T06:19:18Z</time>
      </trkpt>
      <trkpt lat="43.40041" lon="-6.32498">
        <ele>659.5</ele>
        <time>2016-07-08T06:19:27Z</time>
      </trkpt>
      <trkpt lat="43.40036" lon="-6.32509">
        <ele>659.9</ele>
        <time>2016-07-08T06:19:34Z</time>
      </trkpt>
      <trkpt lat="43.40031" lon="-6.32519">
        <ele>660.2</ele>
        <time>2016-07-08T06:19:42Z</time>
      </trkpt>
      <trkpt lat="43.40027" lon="-6.32531">
        <ele>660.6</ele>
        <time>2016-07-08T06:19:50Z</time>
      </trkpt>
      <trkpt lat="43.40024" lon="-6.32543">
        <ele>660.9</ele>
        <time>2016-07-08T06:19:58Z</time>
      </trkpt>
      <trkpt lat="43.40021" lon="-6.32555">
        <ele>661.3</ele>
        <time>2016-07-08T06:20:06Z</time>
      </trkpt>
      <trkpt lat="43.40017" lon="-6.32568">
        <ele>661.7</ele>
        <time>2016-07-08T06:20:14Z</time>
      </trkpt>
      <trkpt lat="43.40014" lon="-6.3258">
        <ele>662</ele>
        <time>2016-07-08T06:20:22Z</time>
      </trkpt>
      <trkpt lat="43.40011" lon="-6.32592">
        <ele>662.3</ele>
        <time>2016-07-08T06:20:30Z</time>
      </trkpt>
      <trkpt lat="43.40009" lon="-6.32606">
        <ele>662.8</ele>
        <time>2016-07-08T06:20:39Z</time>
      </trkpt>
      <trkpt lat="43.40004" lon="-6.32618">
        <ele>663.1</ele>
        <time>2016-07-08T06:20:51Z</time>
      </trkpt>
      <trkpt lat="43.39998" lon="-6.32628">
        <ele>663.6</ele>
        <time>2016-07-08T06:21:00Z</time>
      </trkpt>
      <trkpt lat="43.39993" lon="-6.32639">
        <ele>663.9</ele>
        <time>2016-07-08T06:21:08Z</time>
      </trkpt>
      <trkpt lat="43.39988" lon="-6.32651">
        <ele>664.9</ele>
        <time>2016-07-08T06:21:16Z</time>
      </trkpt>
      <trkpt lat="43.39984" lon="-6.32663">
        <ele>665.2</ele>
        <time>2016-07-08T06:21:24Z</time>
      </trkpt>
      <trkpt lat="43.39981" lon="-6.32676">
        <ele>665.4</ele>
        <time>2016-07-08T06:21:33Z</time>
      </trkpt>
      <trkpt lat="43.39978" lon="-6.32688">
        <ele>665.3</ele>
        <time>2016-07-08T06:21:40Z</time>
      </trkpt>
      <trkpt lat="43.39975" lon="-6.327">
        <ele>665.2</ele>
        <time>2016-07-08T06:21:47Z</time>
      </trkpt>
      <trkpt lat="43.3997" lon="-6.32713">
        <ele>665.5</ele>
        <time>2016-07-08T06:21:55Z</time>
      </trkpt>
      <trkpt lat="43.39965" lon="-6.32725">
        <ele>665.9</ele>
        <time>2016-07-08T06:22:03Z</time>
      </trkpt>
      <trkpt lat="43.39959" lon="-6.32736">
        <ele>666.2</ele>
        <time>2016-07-08T06:22:11Z</time>
      </trkpt>
      <trkpt lat="43.39953" lon="-6.32748">
        <ele>666.7</ele>
        <time>2016-07-08T06:22:20Z</time>
      </trkpt>
      <trkpt lat="43.39947" lon="-6.32758">
        <ele>667</ele>
        <time>2016-07-08T06:22:28Z</time>
      </trkpt>
      <trkpt lat="43.39942" lon="-6.32769">
        <ele>667.5</ele>
        <time>2016-07-08T06:22:36Z</time>
      </trkpt>
      <trkpt lat="43.39936" lon="-6.3278">
        <ele>668.3</ele>
        <time>2016-07-08T06:22:44Z</time>
      </trkpt>
      <trkpt lat="43.39932" lon="-6.32792">
        <ele>668.6</ele>
        <time>2016-07-08T06:22:52Z</time>
      </trkpt>
      <trkpt lat="43.39927" lon="-6.32804">
        <ele>669.3</ele>
        <time>2016-07-08T06:23:01Z</time>
      </trkpt>
      <trkpt lat="43.39924" lon="-6.32818">
        <ele>669.6</ele>
        <time>2016-07-08T06:23:09Z</time>
      </trkpt>
      <trkpt lat="43.39923" lon="-6.32832">
        <ele>669.9</ele>
        <time>2016-07-08T06:23:17Z</time>
      </trkpt>
      <trkpt lat="43.39924" lon="-6.32844">
        <ele>670.1</ele>
        <time>2016-07-08T06:23:25Z</time>
      </trkpt>
      <trkpt lat="43.39927" lon="-6.32858">
        <ele>670.3</ele>
        <time>2016-07-08T06:23:34Z</time>
      </trkpt>
      <trkpt lat="43.39925" lon="-6.32871">
        <ele>671.2</ele>
        <time>2016-07-08T06:23:43Z</time>
      </trkpt>
      <trkpt lat="43.39921" lon="-6.32883">
        <ele>672.6</ele>
        <time>2016-07-08T06:23:52Z</time>
      </trkpt>
      <trkpt lat="43.39916" lon="-6.32894">
        <ele>673.3</ele>
        <time>2016-07-08T06:24:01Z</time>
      </trkpt>
      <trkpt lat="43.39912" lon="-6.32906">
        <ele>673.7</ele>
        <time>2016-07-08T06:24:09Z</time>
      </trkpt>
      <trkpt lat="43.39909" lon="-6.32918">
        <ele>673.9</ele>
        <time>2016-07-08T06:24:17Z</time>
      </trkpt>
      <trkpt lat="43.39906" lon="-6.32931">
        <ele>674</ele>
        <time>2016-07-08T06:24:25Z</time>
      </trkpt>
      <trkpt lat="43.399" lon="-6.32941">
        <ele>674.1</ele>
        <time>2016-07-08T06:24:33Z</time>
      </trkpt>
      <trkpt lat="43.39893" lon="-6.3295">
        <ele>674.2</ele>
        <time>2016-07-08T06:24:42Z</time>
      </trkpt>
      <trkpt lat="43.39887" lon="-6.3296">
        <ele>674.8</ele>
        <time>2016-07-08T06:24:52Z</time>
      </trkpt>
      <trkpt lat="43.39882" lon="-6.32972">
        <ele>676</ele>
        <time>2016-07-08T06:25:01Z</time>
      </trkpt>
      <trkpt lat="43.39876" lon="-6.32983">
        <ele>676.4</ele>
        <time>2016-07-08T06:25:10Z</time>
      </trkpt>
      <trkpt lat="43.3987" lon="-6.32993">
        <ele>676.8</ele>
        <time>2016-07-08T06:25:18Z</time>
      </trkpt>
      <trkpt lat="43.39865" lon="-6.33004">
        <ele>677.5</ele>
        <time>2016-07-08T06:25:26Z</time>
      </trkpt>
      <trkpt lat="43.39859" lon="-6.33014">
        <ele>678.3</ele>
        <time>2016-07-08T06:25:34Z</time>
      </trkpt>
      <trkpt lat="43.39853" lon="-6.33024">
        <ele>678.8</ele>
        <time>2016-07-08T06:25:42Z</time>
      </trkpt>
      <trkpt lat="43.39848" lon="-6.33034">
        <ele>679.1</ele>
        <time>2016-07-08T06:25:50Z</time>
      </trkpt>
      <trkpt lat="43.39842" lon="-6.33045">
        <ele>679.2</ele>
        <time>2016-07-08T06:25:58Z</time>
      </trkpt>
      <trkpt lat="43.39836" lon="-6.33054">
        <ele>679.3</ele>
        <time>2016-07-08T06:26:06Z</time>
      </trkpt>
      <trkpt lat="43.39829" lon="-6.33063">
        <ele>679.1</ele>
        <time>2016-07-08T06:26:14Z</time>
      </trkpt>
      <trkpt lat="43.39822" lon="-6.33072">
        <ele>678.9</ele>
        <time>2016-07-08T06:26:23Z</time>
      </trkpt>
      <trkpt lat="43.39817" lon="-6.33081">
        <ele>679.2</ele>
        <time>2016-07-08T06:26:30Z</time>
      </trkpt>
      <trkpt lat="43.39809" lon="-6.3309">
        <ele>679.2</ele>
        <time>2016-07-08T06:26:38Z</time>
      </trkpt>
      <trkpt lat="43.39802" lon="-6.33098">
        <ele>679.2</ele>
        <time>2016-07-08T06:26:46Z</time>
      </trkpt>
      <trkpt lat="43.39794" lon="-6.33106">
        <ele>679.1</ele>
        <time>2016-07-08T06:26:54Z</time>
      </trkpt>
      <trkpt lat="43.39786" lon="-6.33115">
        <ele>679.3</ele>
        <time>2016-07-08T06:27:02Z</time>
      </trkpt>
      <trkpt lat="43.39779" lon="-6.33123">
        <ele>678.9</ele>
        <time>2016-07-08T06:27:10Z</time>
      </trkpt>
      <trkpt lat="43.39771" lon="-6.33132">
        <ele>679</ele>
        <time>2016-07-08T06:27:18Z</time>
      </trkpt>
      <trkpt lat="43.39764" lon="-6.33142">
        <ele>679.4</ele>
        <time>2016-07-08T06:27:27Z</time>
      </trkpt>
      <trkpt lat="43.39756" lon="-6.33151">
        <ele>679.7</ele>
        <time>2016-07-08T06:27:36Z</time>
      </trkpt>
      <trkpt lat="43.3975" lon="-6.3316">
        <ele>680</ele>
        <time>2016-07-08T06:27:43Z</time>
      </trkpt>
      <trkpt lat="43.39742" lon="-6.33168">
        <ele>680.3</ele>
        <time>2016-07-08T06:27:50Z</time>
      </trkpt>
      <trkpt lat="43.39735" lon="-6.33176">
        <ele>680.3</ele>
        <time>2016-07-08T06:27:57Z</time>
      </trkpt>
      <trkpt lat="43.39727" lon="-6.33185">
        <ele>680.9</ele>
        <time>2016-07-08T06:28:05Z</time>
      </trkpt>
      <trkpt lat="43.39722" lon="-6.33195">
        <ele>681</ele>
        <time>2016-07-08T06:28:12Z</time>
      </trkpt>
      <trkpt lat="43.39716" lon="-6.33205">
        <ele>681.1</ele>
        <time>2016-07-08T06:28:20Z</time>
      </trkpt>
      <trkpt lat="43.39709" lon="-6.33215">
        <ele>681.2</ele>
        <time>2016-07-08T06:28:29Z</time>
      </trkpt>
      <trkpt lat="43.39702" lon="-6.33225">
        <ele>681.3</ele>
        <time>2016-07-08T06:28:37Z</time>
      </trkpt>
      <trkpt lat="43.39695" lon="-6.33234">
        <ele>681.3</ele>
        <time>2016-07-08T06:28:44Z</time>
      </trkpt>
      <trkpt lat="43.39689" lon="-6.33245">
        <ele>681.4</ele>
        <time>2016-07-08T06:28:51Z</time>
      </trkpt>
      <trkpt lat="43.39683" lon="-6.33255">
        <ele>681.1</ele>
        <time>2016-07-08T06:28:59Z</time>
      </trkpt>
      <trkpt lat="43.39677" lon="-6.33266">
        <ele>681</ele>
        <time>2016-07-08T06:29:06Z</time>
      </trkpt>
      <trkpt lat="43.39671" lon="-6.33275">
        <ele>681.1</ele>
        <time>2016-07-08T06:29:13Z</time>
      </trkpt>
      <trkpt lat="43.39664" lon="-6.33285">
        <ele>681.1</ele>
        <time>2016-07-08T06:29:21Z</time>
      </trkpt>
      <trkpt lat="43.39659" lon="-6.33296">
        <ele>681</ele>
        <time>2016-07-08T06:29:28Z</time>
      </trkpt>
      <trkpt lat="43.39652" lon="-6.33307">
        <ele>680.5</ele>
        <time>2016-07-08T06:29:36Z</time>
      </trkpt>
      <trkpt lat="43.39644" lon="-6.33316">
        <ele>680.3</ele>
        <time>2016-07-08T06:29:45Z</time>
      </trkpt>
      <trkpt lat="43.3964" lon="-6.33327">
        <ele>680.2</ele>
        <time>2016-07-08T06:29:52Z</time>
      </trkpt>
      <trkpt lat="43.39637" lon="-6.3334">
        <ele>680.1</ele>
        <time>2016-07-08T06:30:00Z</time>
      </trkpt>
      <trkpt lat="43.39638" lon="-6.33353">
        <ele>680.1</ele>
        <time>2016-07-08T06:30:08Z</time>
      </trkpt>
      <trkpt lat="43.39636" lon="-6.33366">
        <ele>680.1</ele>
        <time>2016-07-08T06:30:15Z</time>
      </trkpt>
      <trkpt lat="43.39634" lon="-6.33378">
        <ele>680</ele>
        <time>2016-07-08T06:30:22Z</time>
      </trkpt>
      <trkpt lat="43.39631" lon="-6.33391">
        <ele>679.6</ele>
        <time>2016-07-08T06:30:31Z</time>
      </trkpt>
      <trkpt lat="43.39628" lon="-6.33403">
        <ele>679.3</ele>
        <time>2016-07-08T06:30:40Z</time>
      </trkpt>
      <trkpt lat="43.39625" lon="-6.33416">
        <ele>679</ele>
        <time>2016-07-08T06:30:47Z</time>
      </trkpt>
      <trkpt lat="43.39624" lon="-6.3343">
        <ele>678.9</ele>
        <time>2016-07-08T06:30:55Z</time>
      </trkpt>
      <trkpt lat="43.39618" lon="-6.3344">
        <ele>678.7</ele>
        <time>2016-07-08T06:31:03Z</time>
      </trkpt>
      <trkpt lat="43.39613" lon="-6.33451">
        <ele>678.6</ele>
        <time>2016-07-08T06:31:10Z</time>
      </trkpt>
      <trkpt lat="43.39608" lon="-6.33462">
        <ele>678.4</ele>
        <time>2016-07-08T06:31:17Z</time>
      </trkpt>
      <trkpt lat="43.39603" lon="-6.33473">
        <ele>677.9</ele>
        <time>2016-07-08T06:31:26Z</time>
      </trkpt>
      <trkpt lat="43.39594" lon="-6.33476">
        <ele>677.5</ele>
        <time>2016-07-08T06:31:33Z</time>
      </trkpt>
      <trkpt lat="43.39584" lon="-6.33472">
        <ele>676.7</ele>
        <time>2016-07-08T06:31:41Z</time>
      </trkpt>
      <trkpt lat="43.39576" lon="-6.33466">
        <ele>676.3</ele>
        <time>2016-07-08T06:31:48Z</time>
      </trkpt>
      <trkpt lat="43.39568" lon="-6.33459">
        <ele>675.9</ele>
        <time>2016-07-08T06:31:55Z</time>
      </trkpt>
      <trkpt lat="43.39559" lon="-6.33463">
        <ele>675.3</ele>
        <time>2016-07-08T06:32:02Z</time>
      </trkpt>
      <trkpt lat="43.39551" lon="-6.33469">
        <ele>674.8</ele>
        <time>2016-07-08T06:32:09Z</time>
      </trkpt>
      <trkpt lat="43.39543" lon="-6.33476">
        <ele>674.6</ele>
        <time>2016-07-08T06:32:16Z</time>
      </trkpt>
      <trkpt lat="43.39537" lon="-6.33486">
        <ele>674.3</ele>
        <time>2016-07-08T06:32:23Z</time>
      </trkpt>
      <trkpt lat="43.39532" lon="-6.33498">
        <ele>674.1</ele>
        <time>2016-07-08T06:32:31Z</time>
      </trkpt>
      <trkpt lat="43.39528" lon="-6.3351">
        <ele>673.7</ele>
        <time>2016-07-08T06:32:39Z</time>
      </trkpt>
      <trkpt lat="43.39523" lon="-6.33521">
        <ele>673.4</ele>
        <time>2016-07-08T06:32:47Z</time>
      </trkpt>
      <trkpt lat="43.39518" lon="-6.33531">
        <ele>673.3</ele>
        <time>2016-07-08T06:32:55Z</time>
      </trkpt>
      <trkpt lat="43.39512" lon="-6.33541">
        <ele>673.5</ele>
        <time>2016-07-08T06:33:03Z</time>
      </trkpt>
      <trkpt lat="43.39506" lon="-6.33551">
        <ele>673.4</ele>
        <time>2016-07-08T06:33:12Z</time>
      </trkpt>
      <trkpt lat="43.39501" lon="-6.33563">
        <ele>673.2</ele>
        <time>2016-07-08T06:33:20Z</time>
      </trkpt>
      <trkpt lat="43.39497" lon="-6.33575">
        <ele>672.9</ele>
        <time>2016-07-08T06:33:27Z</time>
      </trkpt>
      <trkpt lat="43.39496" lon="-6.33588">
        <ele>672.9</ele>
        <time>2016-07-08T06:33:35Z</time>
      </trkpt>
      <trkpt lat="43.39493" lon="-6.336">
        <ele>672.9</ele>
        <time>2016-07-08T06:33:46Z</time>
      </trkpt>
      <trkpt lat="43.39485" lon="-6.33606">
        <ele>671.7</ele>
        <time>2016-07-08T06:34:07Z</time>
      </trkpt>
      <trkpt lat="43.39476" lon="-6.33611">
        <ele>672</ele>
        <time>2016-07-08T06:34:36Z</time>
      </trkpt>
      <trkpt lat="43.39474" lon="-6.33624">
        <ele>671.9</ele>
        <time>2016-07-08T06:34:45Z</time>
      </trkpt>
      <trkpt lat="43.39471" lon="-6.33636">
        <ele>671.8</ele>
        <time>2016-07-08T06:34:58Z</time>
      </trkpt>
      <trkpt lat="43.39466" lon="-6.33647">
        <ele>671.9</ele>
        <time>2016-07-08T06:35:05Z</time>
      </trkpt>
      <trkpt lat="43.39463" lon="-6.33659">
        <ele>672</ele>
        <time>2016-07-08T06:35:12Z</time>
      </trkpt>
      <trkpt lat="43.39459" lon="-6.33671">
        <ele>671.9</ele>
        <time>2016-07-08T06:35:19Z</time>
      </trkpt>
      <trkpt lat="43.39453" lon="-6.33682">
        <ele>671.7</ele>
        <time>2016-07-08T06:35:26Z</time>
      </trkpt>
      <trkpt lat="43.39447" lon="-6.33692">
        <ele>671.6</ele>
        <time>2016-07-08T06:35:33Z</time>
      </trkpt>
      <trkpt lat="43.39442" lon="-6.33703">
        <ele>671.4</ele>
        <time>2016-07-08T06:35:42Z</time>
      </trkpt>
      <trkpt lat="43.3944" lon="-6.33715">
        <ele>671.3</ele>
        <time>2016-07-08T06:35:50Z</time>
      </trkpt>
      <trkpt lat="43.39435" lon="-6.33727">
        <ele>671.1</ele>
        <time>2016-07-08T06:35:58Z</time>
      </trkpt>
      <trkpt lat="43.39429" lon="-6.33736">
        <ele>671.3</ele>
        <time>2016-07-08T06:36:05Z</time>
      </trkpt>
      <trkpt lat="43.39423" lon="-6.33747">
        <ele>671.3</ele>
        <time>2016-07-08T06:36:11Z</time>
      </trkpt>
      <trkpt lat="43.39416" lon="-6.33758">
        <ele>671.3</ele>
        <time>2016-07-08T06:36:18Z</time>
      </trkpt>
      <trkpt lat="43.39409" lon="-6.33766">
        <ele>671.3</ele>
        <time>2016-07-08T06:36:24Z</time>
      </trkpt>
      <trkpt lat="43.39402" lon="-6.33776">
        <ele>671.4</ele>
        <time>2016-07-08T06:36:31Z</time>
      </trkpt>
      <trkpt lat="43.39395" lon="-6.33785">
        <ele>671.5</ele>
        <time>2016-07-08T06:36:39Z</time>
      </trkpt>
      <trkpt lat="43.3939" lon="-6.33795">
        <ele>671.1</ele>
        <time>2016-07-08T06:36:46Z</time>
      </trkpt>
      <trkpt lat="43.39385" lon="-6.33806">
        <ele>670.9</ele>
        <time>2016-07-08T06:36:55Z</time>
      </trkpt>
      <trkpt lat="43.39381" lon="-6.33817">
        <ele>671.6</ele>
        <time>2016-07-08T06:37:08Z</time>
      </trkpt>
      <trkpt lat="43.39376" lon="-6.33827">
        <ele>672</ele>
        <time>2016-07-08T06:37:15Z</time>
      </trkpt>
      <trkpt lat="43.39374" lon="-6.33841">
        <ele>672.3</ele>
        <time>2016-07-08T06:37:23Z</time>
      </trkpt>
      <trkpt lat="43.39371" lon="-6.33854">
        <ele>672.5</ele>
        <time>2016-07-08T06:37:30Z</time>
      </trkpt>
      <trkpt lat="43.39367" lon="-6.33866">
        <ele>672.7</ele>
        <time>2016-07-08T06:37:37Z</time>
      </trkpt>
      <trkpt lat="43.39366" lon="-6.33879">
        <ele>673</ele>
        <time>2016-07-08T06:37:50Z</time>
      </trkpt>
      <trkpt lat="43.39362" lon="-6.3389">
        <ele>673.1</ele>
        <time>2016-07-08T06:37:57Z</time>
      </trkpt>
      <trkpt lat="43.3936" lon="-6.33904">
        <ele>673.2</ele>
        <time>2016-07-08T06:38:05Z</time>
      </trkpt>
      <trkpt lat="43.39357" lon="-6.33917">
        <ele>673.3</ele>
        <time>2016-07-08T06:38:13Z</time>
      </trkpt>
      <trkpt lat="43.39354" lon="-6.3393">
        <ele>673.3</ele>
        <time>2016-07-08T06:38:21Z</time>
      </trkpt>
      <trkpt lat="43.39354" lon="-6.33943">
        <ele>673.8</ele>
        <time>2016-07-08T06:38:29Z</time>
      </trkpt>
      <trkpt lat="43.39355" lon="-6.33955">
        <ele>674.3</ele>
        <time>2016-07-08T06:38:39Z</time>
      </trkpt>
      <trkpt lat="43.39355" lon="-6.33968">
        <ele>674.8</ele>
        <time>2016-07-08T06:38:47Z</time>
      </trkpt>
      <trkpt lat="43.39352" lon="-6.33982">
        <ele>675.1</ele>
        <time>2016-07-08T06:38:55Z</time>
      </trkpt>
      <trkpt lat="43.39347" lon="-6.33992">
        <ele>675.2</ele>
        <time>2016-07-08T06:39:03Z</time>
      </trkpt>
      <trkpt lat="43.3934" lon="-6.34002">
        <ele>675.3</ele>
        <time>2016-07-08T06:39:11Z</time>
      </trkpt>
      <trkpt lat="43.39333" lon="-6.3401">
        <ele>675.1</ele>
        <time>2016-07-08T06:39:19Z</time>
      </trkpt>
      <trkpt lat="43.39328" lon="-6.34023">
        <ele>675</ele>
        <time>2016-07-08T06:39:29Z</time>
      </trkpt>
      <trkpt lat="43.39325" lon="-6.34035">
        <ele>675.5</ele>
        <time>2016-07-08T06:39:38Z</time>
      </trkpt>
      <trkpt lat="43.39321" lon="-6.34046">
        <ele>675.9</ele>
        <time>2016-07-08T06:39:48Z</time>
      </trkpt>
      <trkpt lat="43.39316" lon="-6.34057">
        <ele>676.1</ele>
        <time>2016-07-08T06:39:57Z</time>
      </trkpt>
      <trkpt lat="43.39314" lon="-6.3407">
        <ele>676.9</ele>
        <time>2016-07-08T06:40:06Z</time>
      </trkpt>
      <trkpt lat="43.39311" lon="-6.34083">
        <ele>677.7</ele>
        <time>2016-07-08T06:40:15Z</time>
      </trkpt>
      <trkpt lat="43.39308" lon="-6.34096">
        <ele>678.2</ele>
        <time>2016-07-08T06:40:23Z</time>
      </trkpt>
      <trkpt lat="43.39305" lon="-6.34109">
        <ele>678.8</ele>
        <time>2016-07-08T06:40:31Z</time>
      </trkpt>
      <trkpt lat="43.393" lon="-6.3412">
        <ele>679.8</ele>
        <time>2016-07-08T06:40:40Z</time>
      </trkpt>
      <trkpt lat="43.39294" lon="-6.3413">
        <ele>680.1</ele>
        <time>2016-07-08T06:40:48Z</time>
      </trkpt>
      <trkpt lat="43.39288" lon="-6.34139">
        <ele>680.5</ele>
        <time>2016-07-08T06:40:56Z</time>
      </trkpt>
      <trkpt lat="43.39282" lon="-6.34148">
        <ele>680.9</ele>
        <time>2016-07-08T06:41:06Z</time>
      </trkpt>
      <trkpt lat="43.39276" lon="-6.3416">
        <ele>681.2</ele>
        <time>2016-07-08T06:41:15Z</time>
      </trkpt>
      <trkpt lat="43.3927" lon="-6.34169">
        <ele>681.2</ele>
        <time>2016-07-08T06:41:23Z</time>
      </trkpt>
      <trkpt lat="43.39264" lon="-6.34178">
        <ele>681.3</ele>
        <time>2016-07-08T06:41:31Z</time>
      </trkpt>
      <trkpt lat="43.39257" lon="-6.34188">
        <ele>681.7</ele>
        <time>2016-07-08T06:41:40Z</time>
      </trkpt>
      <trkpt lat="43.39251" lon="-6.34198">
        <ele>682</ele>
        <time>2016-07-08T06:41:48Z</time>
      </trkpt>
      <trkpt lat="43.39245" lon="-6.34207">
        <ele>682.4</ele>
        <time>2016-07-08T06:41:59Z</time>
      </trkpt>
      <trkpt lat="43.39239" lon="-6.34217">
        <ele>682.6</ele>
        <time>2016-07-08T06:42:08Z</time>
      </trkpt>
      <trkpt lat="43.39233" lon="-6.34226">
        <ele>683</ele>
        <time>2016-07-08T06:42:16Z</time>
      </trkpt>
      <trkpt lat="43.39229" lon="-6.34238">
        <ele>683.4</ele>
        <time>2016-07-08T06:42:28Z</time>
      </trkpt>
      <trkpt lat="43.39222" lon="-6.34246">
        <ele>683.6</ele>
        <time>2016-07-08T06:42:41Z</time>
      </trkpt>
      <trkpt lat="43.39215" lon="-6.34254">
        <ele>684.1</ele>
        <time>2016-07-08T06:42:51Z</time>
      </trkpt>
      <trkpt lat="43.39207" lon="-6.34264">
        <ele>684.6</ele>
        <time>2016-07-08T06:42:59Z</time>
      </trkpt>
      <trkpt lat="43.392" lon="-6.34274">
        <ele>685</ele>
        <time>2016-07-08T06:43:06Z</time>
      </trkpt>
      <trkpt lat="43.39193" lon="-6.34284">
        <ele>685.3</ele>
        <time>2016-07-08T06:43:15Z</time>
      </trkpt>
      <trkpt lat="43.39187" lon="-6.34294">
        <ele>685.6</ele>
        <time>2016-07-08T06:43:24Z</time>
      </trkpt>
      <trkpt lat="43.39181" lon="-6.34303">
        <ele>686.1</ele>
        <time>2016-07-08T06:43:38Z</time>
      </trkpt>
      <trkpt lat="43.39174" lon="-6.34311">
        <ele>687.1</ele>
        <time>2016-07-08T06:44:06Z</time>
      </trkpt>
      <trkpt lat="43.39167" lon="-6.3432">
        <ele>687.2</ele>
        <time>2016-07-08T06:44:22Z</time>
      </trkpt>
      <trkpt lat="43.39159" lon="-6.34328">
        <ele>687.4</ele>
        <time>2016-07-08T06:44:32Z</time>
      </trkpt>
      <trkpt lat="43.39152" lon="-6.34337">
        <ele>687.7</ele>
        <time>2016-07-08T06:44:43Z</time>
      </trkpt>
      <trkpt lat="43.39144" lon="-6.34345">
        <ele>687.8</ele>
        <time>2016-07-08T06:44:59Z</time>
      </trkpt>
      <trkpt lat="43.39136" lon="-6.34354">
        <ele>688</ele>
        <time>2016-07-08T06:45:10Z</time>
      </trkpt>
      <trkpt lat="43.39127" lon="-6.34356">
        <ele>688.2</ele>
        <time>2016-07-08T06:45:20Z</time>
      </trkpt>
      <trkpt lat="43.39118" lon="-6.34351">
        <ele>688.5</ele>
        <time>2016-07-08T06:45:29Z</time>
      </trkpt>
      <trkpt lat="43.3911" lon="-6.34342">
        <ele>688.8</ele>
        <time>2016-07-08T06:45:38Z</time>
      </trkpt>
      <trkpt lat="43.39102" lon="-6.34334">
        <ele>689</ele>
        <time>2016-07-08T06:45:48Z</time>
      </trkpt>
      <trkpt lat="43.39096" lon="-6.34324">
        <ele>689.2</ele>
        <time>2016-07-08T06:45:57Z</time>
      </trkpt>
      <trkpt lat="43.39089" lon="-6.34315">
        <ele>689.9</ele>
        <time>2016-07-08T06:46:05Z</time>
      </trkpt>
      <trkpt lat="43.39081" lon="-6.34307">
        <ele>691.2</ele>
        <time>2016-07-08T06:46:14Z</time>
      </trkpt>
      <trkpt lat="43.39073" lon="-6.34301">
        <ele>692</ele>
        <time>2016-07-08T06:46:22Z</time>
      </trkpt>
      <trkpt lat="43.39064" lon="-6.34297">
        <ele>692.7</ele>
        <time>2016-07-08T06:46:31Z</time>
      </trkpt>
      <trkpt lat="43.39055" lon="-6.34294">
        <ele>693.2</ele>
        <time>2016-07-08T06:46:38Z</time>
      </trkpt>
      <trkpt lat="43.39046" lon="-6.34291">
        <ele>693.6</ele>
        <time>2016-07-08T06:46:46Z</time>
      </trkpt>
      <trkpt lat="43.39037" lon="-6.34289">
        <ele>694.2</ele>
        <time>2016-07-08T06:46:54Z</time>
      </trkpt>
      <trkpt lat="43.39028" lon="-6.34288">
        <ele>694.6</ele>
        <time>2016-07-08T06:47:01Z</time>
      </trkpt>
      <trkpt lat="43.39019" lon="-6.3429">
        <ele>695</ele>
        <time>2016-07-08T06:47:10Z</time>
      </trkpt>
      <trkpt lat="43.39011" lon="-6.34297">
        <ele>695.2</ele>
        <time>2016-07-08T06:47:21Z</time>
      </trkpt>
      <trkpt lat="43.39003" lon="-6.34304">
        <ele>695.3</ele>
        <time>2016-07-08T06:47:30Z</time>
      </trkpt>
      <trkpt lat="43.39003" lon="-6.34317">
        <ele>696</ele>
        <time>2016-07-08T06:48:10Z</time>
      </trkpt>
      <trkpt lat="43.3901" lon="-6.34326">
        <ele>696</ele>
        <time>2016-07-08T06:51:15Z</time>
      </trkpt>
      <trkpt lat="43.39005" lon="-6.34336">
        <ele>696.2</ele>
        <time>2016-07-08T06:51:24Z</time>
      </trkpt>
      <trkpt lat="43.38999" lon="-6.34347">
        <ele>697.2</ele>
        <time>2016-07-08T06:51:33Z</time>
      </trkpt>
      <trkpt lat="43.38997" lon="-6.34359">
        <ele>698.1</ele>
        <time>2016-07-08T06:51:43Z</time>
      </trkpt>
      <trkpt lat="43.38997" lon="-6.34373">
        <ele>700.3</ele>
        <time>2016-07-08T06:51:56Z</time>
      </trkpt>
      <trkpt lat="43.38996" lon="-6.34386">
        <ele>702</ele>
        <time>2016-07-08T06:52:07Z</time>
      </trkpt>
      <trkpt lat="43.38993" lon="-6.34399">
        <ele>703.9</ele>
        <time>2016-07-08T06:52:20Z</time>
      </trkpt>
      <trkpt lat="43.38991" lon="-6.34411">
        <ele>705.6</ele>
        <time>2016-07-08T06:52:30Z</time>
      </trkpt>
      <trkpt lat="43.38988" lon="-6.34424">
        <ele>707.2</ele>
        <time>2016-07-08T06:52:40Z</time>
      </trkpt>
      <trkpt lat="43.38983" lon="-6.34435">
        <ele>708.5</ele>
        <time>2016-07-08T06:52:50Z</time>
      </trkpt>
      <trkpt lat="43.38984" lon="-6.34447">
        <ele>710.8</ele>
        <time>2016-07-08T06:53:05Z</time>
      </trkpt>
      <trkpt lat="43.3898" lon="-6.34459">
        <ele>712</ele>
        <time>2016-07-08T06:53:14Z</time>
      </trkpt>
      <trkpt lat="43.3898" lon="-6.34471">
        <ele>712.9</ele>
        <time>2016-07-08T06:53:27Z</time>
      </trkpt>
      <trkpt lat="43.38981" lon="-6.34458">
        <ele>713.5</ele>
        <time>2016-07-08T06:53:42Z</time>
      </trkpt>
      <trkpt lat="43.38988" lon="-6.34451">
        <ele>713.4</ele>
        <time>2016-07-08T06:54:19Z</time>
      </trkpt>
      <trkpt lat="43.38981" lon="-6.34461">
        <ele>713</ele>
        <time>2016-07-08T06:54:49Z</time>
      </trkpt>
      <trkpt lat="43.38978" lon="-6.34473">
        <ele>713.3</ele>
        <time>2016-07-08T06:54:59Z</time>
      </trkpt>
      <trkpt lat="43.3898" lon="-6.34485">
        <ele>713.7</ele>
        <time>2016-07-08T06:55:07Z</time>
      </trkpt>
      <trkpt lat="43.38981" lon="-6.34498">
        <ele>713.9</ele>
        <time>2016-07-08T06:55:16Z</time>
      </trkpt>
      <trkpt lat="43.38982" lon="-6.34511">
        <ele>714</ele>
        <time>2016-07-08T06:55:23Z</time>
      </trkpt>
      <trkpt lat="43.38981" lon="-6.34524">
        <ele>713.8</ele>
        <time>2016-07-08T06:55:31Z</time>
      </trkpt>
      <trkpt lat="43.38978" lon="-6.34535">
        <ele>713.8</ele>
        <time>2016-07-08T06:55:38Z</time>
      </trkpt>
      <trkpt lat="43.38971" lon="-6.34545">
        <ele>714.1</ele>
        <time>2016-07-08T06:55:46Z</time>
      </trkpt>
      <trkpt lat="43.38965" lon="-6.34555">
        <ele>714.5</ele>
        <time>2016-07-08T06:55:55Z</time>
      </trkpt>
      <trkpt lat="43.38959" lon="-6.34566">
        <ele>714.7</ele>
        <time>2016-07-08T06:56:03Z</time>
      </trkpt>
      <trkpt lat="43.38953" lon="-6.34576">
        <ele>714.8</ele>
        <time>2016-07-08T06:56:10Z</time>
      </trkpt>
      <trkpt lat="43.38948" lon="-6.34587">
        <ele>714.8</ele>
        <time>2016-07-08T06:56:17Z</time>
      </trkpt>
      <trkpt lat="43.38943" lon="-6.34598">
        <ele>714.9</ele>
        <time>2016-07-08T06:56:24Z</time>
      </trkpt>
      <trkpt lat="43.38937" lon="-6.34609">
        <ele>714.9</ele>
        <time>2016-07-08T06:56:31Z</time>
      </trkpt>
      <trkpt lat="43.38933" lon="-6.34621">
        <ele>714.9</ele>
        <time>2016-07-08T06:56:38Z</time>
      </trkpt>
      <trkpt lat="43.38931" lon="-6.34633">
        <ele>714.9</ele>
        <time>2016-07-08T06:56:46Z</time>
      </trkpt>
      <trkpt lat="43.38927" lon="-6.34646">
        <ele>714.5</ele>
        <time>2016-07-08T06:56:54Z</time>
      </trkpt>
      <trkpt lat="43.38922" lon="-6.34658">
        <ele>714.3</ele>
        <time>2016-07-08T06:57:02Z</time>
      </trkpt>
      <trkpt lat="43.38922" lon="-6.3467">
        <ele>714.2</ele>
        <time>2016-07-08T06:57:10Z</time>
      </trkpt>
      <trkpt lat="43.38918" lon="-6.34683">
        <ele>714.5</ele>
        <time>2016-07-08T06:57:21Z</time>
      </trkpt>
      <trkpt lat="43.38916" lon="-6.34697">
        <ele>714.8</ele>
        <time>2016-07-08T06:57:29Z</time>
      </trkpt>
      <trkpt lat="43.38914" lon="-6.3471">
        <ele>715.5</ele>
        <time>2016-07-08T06:57:37Z</time>
      </trkpt>
      <trkpt lat="43.38914" lon="-6.34724">
        <ele>716</ele>
        <time>2016-07-08T06:57:45Z</time>
      </trkpt>
      <trkpt lat="43.38915" lon="-6.34737">
        <ele>716.4</ele>
        <time>2016-07-08T06:57:53Z</time>
      </trkpt>
      <trkpt lat="43.38916" lon="-6.3475">
        <ele>717.2</ele>
        <time>2016-07-08T06:58:02Z</time>
      </trkpt>
      <trkpt lat="43.38913" lon="-6.34762">
        <ele>717.8</ele>
        <time>2016-07-08T06:58:10Z</time>
      </trkpt>
      <trkpt lat="43.38908" lon="-6.34773">
        <ele>718.8</ele>
        <time>2016-07-08T06:58:20Z</time>
      </trkpt>
      <trkpt lat="43.38902" lon="-6.34784">
        <ele>719.5</ele>
        <time>2016-07-08T06:58:30Z</time>
      </trkpt>
      <trkpt lat="43.38896" lon="-6.34796">
        <ele>720.2</ele>
        <time>2016-07-08T06:58:39Z</time>
      </trkpt>
      <trkpt lat="43.38891" lon="-6.34806">
        <ele>720.8</ele>
        <time>2016-07-08T06:58:47Z</time>
      </trkpt>
      <trkpt lat="43.38886" lon="-6.34817">
        <ele>721.5</ele>
        <time>2016-07-08T06:58:55Z</time>
      </trkpt>
      <trkpt lat="43.38878" lon="-6.34825">
        <ele>722</ele>
        <time>2016-07-08T06:59:03Z</time>
      </trkpt>
      <trkpt lat="43.38871" lon="-6.34833">
        <ele>722.4</ele>
        <time>2016-07-08T06:59:10Z</time>
      </trkpt>
      <trkpt lat="43.38865" lon="-6.34842">
        <ele>723</ele>
        <time>2016-07-08T06:59:17Z</time>
      </trkpt>
      <trkpt lat="43.38859" lon="-6.34853">
        <ele>723.6</ele>
        <time>2016-07-08T06:59:25Z</time>
      </trkpt>
      <trkpt lat="43.38856" lon="-6.34866">
        <ele>724</ele>
        <time>2016-07-08T06:59:33Z</time>
      </trkpt>
      <trkpt lat="43.38854" lon="-6.34878">
        <ele>724.5</ele>
        <time>2016-07-08T06:59:42Z</time>
      </trkpt>
      <trkpt lat="43.38848" lon="-6.34888">
        <ele>724.6</ele>
        <time>2016-07-08T06:59:50Z</time>
      </trkpt>
      <trkpt lat="43.3884" lon="-6.34896">
        <ele>724.6</ele>
        <time>2016-07-08T06:59:58Z</time>
      </trkpt>
      <trkpt lat="43.38832" lon="-6.34904">
        <ele>724.7</ele>
        <time>2016-07-08T07:00:05Z</time>
      </trkpt>
      <trkpt lat="43.38825" lon="-6.34914">
        <ele>724.7</ele>
        <time>2016-07-08T07:00:13Z</time>
      </trkpt>
      <trkpt lat="43.38816" lon="-6.34921">
        <ele>724.6</ele>
        <time>2016-07-08T07:00:21Z</time>
      </trkpt>
      <trkpt lat="43.38809" lon="-6.34929">
        <ele>724.1</ele>
        <time>2016-07-08T07:00:28Z</time>
      </trkpt>
      <trkpt lat="43.38801" lon="-6.34936">
        <ele>723.5</ele>
        <time>2016-07-08T07:00:36Z</time>
      </trkpt>
      <trkpt lat="43.38793" lon="-6.34942">
        <ele>723.3</ele>
        <time>2016-07-08T07:00:44Z</time>
      </trkpt>
      <trkpt lat="43.38784" lon="-6.34946">
        <ele>723.2</ele>
        <time>2016-07-08T07:00:52Z</time>
      </trkpt>
      <trkpt lat="43.38776" lon="-6.34951">
        <ele>723.2</ele>
        <time>2016-07-08T07:01:00Z</time>
      </trkpt>
      <trkpt lat="43.38767" lon="-6.34957">
        <ele>723.3</ele>
        <time>2016-07-08T07:01:09Z</time>
      </trkpt>
      <trkpt lat="43.38758" lon="-6.34962">
        <ele>723.3</ele>
        <time>2016-07-08T07:01:16Z</time>
      </trkpt>
      <trkpt lat="43.38751" lon="-6.34969">
        <ele>723.3</ele>
        <time>2016-07-08T07:01:24Z</time>
      </trkpt>
      <trkpt lat="43.38743" lon="-6.34978">
        <ele>723.3</ele>
        <time>2016-07-08T07:01:32Z</time>
      </trkpt>
      <trkpt lat="43.38738" lon="-6.34988">
        <ele>723.3</ele>
        <time>2016-07-08T07:01:41Z</time>
      </trkpt>
      <trkpt lat="43.38731" lon="-6.34997">
        <ele>723.4</ele>
        <time>2016-07-08T07:01:49Z</time>
      </trkpt>
      <trkpt lat="43.38721" lon="-6.34999">
        <ele>722.7</ele>
        <time>2016-07-08T07:01:58Z</time>
      </trkpt>
      <trkpt lat="43.38712" lon="-6.34997">
        <ele>722.3</ele>
        <time>2016-07-08T07:02:06Z</time>
      </trkpt>
      <trkpt lat="43.38703" lon="-6.34994">
        <ele>722.2</ele>
        <time>2016-07-08T07:02:15Z</time>
      </trkpt>
      <trkpt lat="43.38694" lon="-6.3499">
        <ele>722.4</ele>
        <time>2016-07-08T07:02:24Z</time>
      </trkpt>
      <trkpt lat="43.38685" lon="-6.34984">
        <ele>723</ele>
        <time>2016-07-08T07:02:33Z</time>
      </trkpt>
      <trkpt lat="43.38678" lon="-6.34976">
        <ele>723.2</ele>
        <time>2016-07-08T07:02:42Z</time>
      </trkpt>
      <trkpt lat="43.38673" lon="-6.34965">
        <ele>723.6</ele>
        <time>2016-07-08T07:02:50Z</time>
      </trkpt>
      <trkpt lat="43.38666" lon="-6.34956">
        <ele>724.2</ele>
        <time>2016-07-08T07:02:58Z</time>
      </trkpt>
      <trkpt lat="43.38657" lon="-6.34952">
        <ele>724.7</ele>
        <time>2016-07-08T07:03:06Z</time>
      </trkpt>
      <trkpt lat="43.38647" lon="-6.34951">
        <ele>725.4</ele>
        <time>2016-07-08T07:03:15Z</time>
      </trkpt>
      <trkpt lat="43.38639" lon="-6.34958">
        <ele>726.4</ele>
        <time>2016-07-08T07:03:29Z</time>
      </trkpt>
      <trkpt lat="43.38631" lon="-6.34965">
        <ele>727.4</ele>
        <time>2016-07-08T07:03:41Z</time>
      </trkpt>
      <trkpt lat="43.38625" lon="-6.34975">
        <ele>728.9</ele>
        <time>2016-07-08T07:03:53Z</time>
      </trkpt>
      <trkpt lat="43.38619" lon="-6.34985">
        <ele>731.4</ele>
        <time>2016-07-08T07:04:10Z</time>
      </trkpt>
      <trkpt lat="43.38614" lon="-6.34996">
        <ele>732.3</ele>
        <time>2016-07-08T07:04:20Z</time>
      </trkpt>
      <trkpt lat="43.38609" lon="-6.35006">
        <ele>733.9</ele>
        <time>2016-07-08T07:04:31Z</time>
      </trkpt>
      <trkpt lat="43.38605" lon="-6.35018">
        <ele>735.4</ele>
        <time>2016-07-08T07:04:41Z</time>
      </trkpt>
      <trkpt lat="43.38602" lon="-6.35031">
        <ele>737.2</ele>
        <time>2016-07-08T07:04:52Z</time>
      </trkpt>
      <trkpt lat="43.38599" lon="-6.35042">
        <ele>738.9</ele>
        <time>2016-07-08T07:05:01Z</time>
      </trkpt>
      <trkpt lat="43.38595" lon="-6.35054">
        <ele>740.6</ele>
        <time>2016-07-08T07:05:12Z</time>
      </trkpt>
      <trkpt lat="43.38588" lon="-6.35064">
        <ele>743.1</ele>
        <time>2016-07-08T07:05:28Z</time>
      </trkpt>
      <trkpt lat="43.38582" lon="-6.35075">
        <ele>744</ele>
        <time>2016-07-08T07:05:38Z</time>
      </trkpt>
      <trkpt lat="43.38578" lon="-6.35087">
        <ele>745.1</ele>
        <time>2016-07-08T07:05:47Z</time>
      </trkpt>
      <trkpt lat="43.38574" lon="-6.35099">
        <ele>746.3</ele>
        <time>2016-07-08T07:05:57Z</time>
      </trkpt>
      <trkpt lat="43.38574" lon="-6.35111">
        <ele>749.5</ele>
        <time>2016-07-08T07:08:27Z</time>
      </trkpt>
      <trkpt lat="43.38569" lon="-6.35122">
        <ele>749.6</ele>
        <time>2016-07-08T07:08:37Z</time>
      </trkpt>
      <trkpt lat="43.38565" lon="-6.35135">
        <ele>750.3</ele>
        <time>2016-07-08T07:08:48Z</time>
      </trkpt>
      <trkpt lat="43.38561" lon="-6.35146">
        <ele>751.7</ele>
        <time>2016-07-08T07:08:58Z</time>
      </trkpt>
      <trkpt lat="43.38556" lon="-6.35157">
        <ele>753.3</ele>
        <time>2016-07-08T07:09:11Z</time>
      </trkpt>
      <trkpt lat="43.38551" lon="-6.35168">
        <ele>754.8</ele>
        <time>2016-07-08T07:09:21Z</time>
      </trkpt>
      <trkpt lat="43.38548" lon="-6.35181">
        <ele>756.5</ele>
        <time>2016-07-08T07:09:30Z</time>
      </trkpt>
      <trkpt lat="43.38546" lon="-6.35194">
        <ele>758</ele>
        <time>2016-07-08T07:09:40Z</time>
      </trkpt>
      <trkpt lat="43.38544" lon="-6.35206">
        <ele>758.8</ele>
        <time>2016-07-08T07:09:48Z</time>
      </trkpt>
      <trkpt lat="43.38542" lon="-6.35219">
        <ele>760.1</ele>
        <time>2016-07-08T07:09:57Z</time>
      </trkpt>
      <trkpt lat="43.38541" lon="-6.35232">
        <ele>761.6</ele>
        <time>2016-07-08T07:10:07Z</time>
      </trkpt>
      <trkpt lat="43.38542" lon="-6.35244">
        <ele>763.8</ele>
        <time>2016-07-08T07:10:17Z</time>
      </trkpt>
      <trkpt lat="43.38544" lon="-6.35257">
        <ele>767.4</ele>
        <time>2016-07-08T07:10:36Z</time>
      </trkpt>
      <trkpt lat="43.38545" lon="-6.35269">
        <ele>769.1</ele>
        <time>2016-07-08T07:10:47Z</time>
      </trkpt>
      <trkpt lat="43.38545" lon="-6.35283">
        <ele>770.2</ele>
        <time>2016-07-08T07:10:59Z</time>
      </trkpt>
      <trkpt lat="43.38544" lon="-6.35296">
        <ele>771.6</ele>
        <time>2016-07-08T07:11:11Z</time>
      </trkpt>
      <trkpt lat="43.38542" lon="-6.35308">
        <ele>774.6</ele>
        <time>2016-07-08T07:11:37Z</time>
      </trkpt>
      <trkpt lat="43.38536" lon="-6.35317">
        <ele>775.8</ele>
        <time>2016-07-08T07:11:56Z</time>
      </trkpt>
      <trkpt lat="43.38528" lon="-6.35324">
        <ele>776.2</ele>
        <time>2016-07-08T07:12:16Z</time>
      </trkpt>
      <trkpt lat="43.38521" lon="-6.35333">
        <ele>776</ele>
        <time>2016-07-08T07:12:26Z</time>
      </trkpt>
      <trkpt lat="43.38514" lon="-6.35341">
        <ele>775.4</ele>
        <time>2016-07-08T07:12:36Z</time>
      </trkpt>
      <trkpt lat="43.38507" lon="-6.35351">
        <ele>774.7</ele>
        <time>2016-07-08T07:12:45Z</time>
      </trkpt>
      <trkpt lat="43.385" lon="-6.3536">
        <ele>774.1</ele>
        <time>2016-07-08T07:12:54Z</time>
      </trkpt>
      <trkpt lat="43.38492" lon="-6.35367">
        <ele>773.8</ele>
        <time>2016-07-08T07:13:03Z</time>
      </trkpt>
      <trkpt lat="43.38486" lon="-6.35378">
        <ele>773.3</ele>
        <time>2016-07-08T07:13:12Z</time>
      </trkpt>
      <trkpt lat="43.38481" lon="-6.35388">
        <ele>772.8</ele>
        <time>2016-07-08T07:13:23Z</time>
      </trkpt>
      <trkpt lat="43.38475" lon="-6.35399">
        <ele>772</ele>
        <time>2016-07-08T07:13:33Z</time>
      </trkpt>
      <trkpt lat="43.38469" lon="-6.35409">
        <ele>770.9</ele>
        <time>2016-07-08T07:13:43Z</time>
      </trkpt>
      <trkpt lat="43.38462" lon="-6.35417">
        <ele>770.4</ele>
        <time>2016-07-08T07:13:51Z</time>
      </trkpt>
      <trkpt lat="43.38454" lon="-6.35425">
        <ele>769.7</ele>
        <time>2016-07-08T07:14:00Z</time>
      </trkpt>
      <trkpt lat="43.38447" lon="-6.35434">
        <ele>769.3</ele>
        <time>2016-07-08T07:14:10Z</time>
      </trkpt>
      <trkpt lat="43.38441" lon="-6.35444">
        <ele>768.8</ele>
        <time>2016-07-08T07:14:20Z</time>
      </trkpt>
      <trkpt lat="43.38436" lon="-6.35455">
        <ele>768.1</ele>
        <time>2016-07-08T07:14:29Z</time>
      </trkpt>
      <trkpt lat="43.38429" lon="-6.35464">
        <ele>767.7</ele>
        <time>2016-07-08T07:14:38Z</time>
      </trkpt>
      <trkpt lat="43.38422" lon="-6.35474">
        <ele>767.2</ele>
        <time>2016-07-08T07:14:46Z</time>
      </trkpt>
      <trkpt lat="43.38415" lon="-6.35483">
        <ele>767</ele>
        <time>2016-07-08T07:14:54Z</time>
      </trkpt>
      <trkpt lat="43.38409" lon="-6.35493">
        <ele>766.8</ele>
        <time>2016-07-08T07:15:02Z</time>
      </trkpt>
      <trkpt lat="43.38402" lon="-6.35503">
        <ele>766.8</ele>
        <time>2016-07-08T07:15:12Z</time>
      </trkpt>
      <trkpt lat="43.38396" lon="-6.35512">
        <ele>766.6</ele>
        <time>2016-07-08T07:15:22Z</time>
      </trkpt>
      <trkpt lat="43.3839" lon="-6.35523">
        <ele>766</ele>
        <time>2016-07-08T07:15:32Z</time>
      </trkpt>
      <trkpt lat="43.38382" lon="-6.3553">
        <ele>765.7</ele>
        <time>2016-07-08T07:15:40Z</time>
      </trkpt>
      <trkpt lat="43.38374" lon="-6.3554">
        <ele>765.5</ele>
        <time>2016-07-08T07:15:48Z</time>
      </trkpt>
      <trkpt lat="43.38368" lon="-6.35551">
        <ele>765.4</ele>
        <time>2016-07-08T07:15:56Z</time>
      </trkpt>
      <trkpt lat="43.38362" lon="-6.35561">
        <ele>765.5</ele>
        <time>2016-07-08T07:16:04Z</time>
      </trkpt>
      <trkpt lat="43.38358" lon="-6.35573">
        <ele>766</ele>
        <time>2016-07-08T07:16:12Z</time>
      </trkpt>
      <trkpt lat="43.38353" lon="-6.35583">
        <ele>766.4</ele>
        <time>2016-07-08T07:16:20Z</time>
      </trkpt>
      <trkpt lat="43.38347" lon="-6.35593">
        <ele>766.5</ele>
        <time>2016-07-08T07:16:30Z</time>
      </trkpt>
      <trkpt lat="43.3834" lon="-6.35603">
        <ele>766.9</ele>
        <time>2016-07-08T07:16:38Z</time>
      </trkpt>
      <trkpt lat="43.38333" lon="-6.35612">
        <ele>767.2</ele>
        <time>2016-07-08T07:16:47Z</time>
      </trkpt>
      <trkpt lat="43.38327" lon="-6.3562">
        <ele>767.1</ele>
        <time>2016-07-08T07:17:02Z</time>
      </trkpt>
      <trkpt lat="43.3832" lon="-6.35628">
        <ele>766.8</ele>
        <time>2016-07-08T07:17:21Z</time>
      </trkpt>
      <trkpt lat="43.38313" lon="-6.35638">
        <ele>766.4</ele>
        <time>2016-07-08T07:17:34Z</time>
      </trkpt>
      <trkpt lat="43.38307" lon="-6.35648">
        <ele>765.8</ele>
        <time>2016-07-08T07:17:47Z</time>
      </trkpt>
      <trkpt lat="43.38298" lon="-6.35653">
        <ele>765</ele>
        <time>2016-07-08T07:17:57Z</time>
      </trkpt>
      <trkpt lat="43.38289" lon="-6.35654">
        <ele>764</ele>
        <time>2016-07-08T07:18:06Z</time>
      </trkpt>
      <trkpt lat="43.38281" lon="-6.35659">
        <ele>762.8</ele>
        <time>2016-07-08T07:18:22Z</time>
      </trkpt>
      <trkpt lat="43.38272" lon="-6.35663">
        <ele>763</ele>
        <time>2016-07-08T07:18:35Z</time>
      </trkpt>
      <trkpt lat="43.38263" lon="-6.35668">
        <ele>764.5</ele>
        <time>2016-07-08T07:18:50Z</time>
      </trkpt>
      <trkpt lat="43.38253" lon="-6.35667">
        <ele>764.7</ele>
        <time>2016-07-08T07:19:03Z</time>
      </trkpt>
      <trkpt lat="43.38244" lon="-6.35665">
        <ele>765.2</ele>
        <time>2016-07-08T07:19:11Z</time>
      </trkpt>
      <trkpt lat="43.38235" lon="-6.35664">
        <ele>765.5</ele>
        <time>2016-07-08T07:19:19Z</time>
      </trkpt>
      <trkpt lat="43.38225" lon="-6.35664">
        <ele>765.3</ele>
        <time>2016-07-08T07:19:27Z</time>
      </trkpt>
      <trkpt lat="43.38216" lon="-6.35663">
        <ele>765</ele>
        <time>2016-07-08T07:19:35Z</time>
      </trkpt>
      <trkpt lat="43.38207" lon="-6.35661">
        <ele>764.2</ele>
        <time>2016-07-08T07:19:43Z</time>
      </trkpt>
      <trkpt lat="43.38197" lon="-6.35659">
        <ele>762.8</ele>
        <time>2016-07-08T07:19:50Z</time>
      </trkpt>
      <trkpt lat="43.38188" lon="-6.35661">
        <ele>761.7</ele>
        <time>2016-07-08T07:19:57Z</time>
      </trkpt>
      <trkpt lat="43.38179" lon="-6.35665">
        <ele>760.7</ele>
        <time>2016-07-08T07:20:04Z</time>
      </trkpt>
      <trkpt lat="43.3817" lon="-6.3567">
        <ele>759.8</ele>
        <time>2016-07-08T07:20:12Z</time>
      </trkpt>
      <trkpt lat="43.38161" lon="-6.35676">
        <ele>759.2</ele>
        <time>2016-07-08T07:20:19Z</time>
      </trkpt>
      <trkpt lat="43.38152" lon="-6.3568">
        <ele>758</ele>
        <time>2016-07-08T07:20:27Z</time>
      </trkpt>
      <trkpt lat="43.38146" lon="-6.35689">
        <ele>755.4</ele>
        <time>2016-07-08T07:20:54Z</time>
      </trkpt>
      <trkpt lat="43.38137" lon="-6.35696">
        <ele>754.8</ele>
        <time>2016-07-08T07:21:02Z</time>
      </trkpt>
      <trkpt lat="43.38129" lon="-6.35702">
        <ele>754.3</ele>
        <time>2016-07-08T07:21:10Z</time>
      </trkpt>
      <trkpt lat="43.38122" lon="-6.35711">
        <ele>753.8</ele>
        <time>2016-07-08T07:21:17Z</time>
      </trkpt>
      <trkpt lat="43.38116" lon="-6.35721">
        <ele>753.5</ele>
        <time>2016-07-08T07:21:24Z</time>
      </trkpt>
      <trkpt lat="43.38109" lon="-6.35728">
        <ele>753.3</ele>
        <time>2016-07-08T07:21:30Z</time>
      </trkpt>
      <trkpt lat="43.38102" lon="-6.35737">
        <ele>752.8</ele>
        <time>2016-07-08T07:21:37Z</time>
      </trkpt>
      <trkpt lat="43.38094" lon="-6.35746">
        <ele>751.9</ele>
        <time>2016-07-08T07:21:44Z</time>
      </trkpt>
      <trkpt lat="43.38088" lon="-6.35757">
        <ele>751.2</ele>
        <time>2016-07-08T07:21:52Z</time>
      </trkpt>
      <trkpt lat="43.38082" lon="-6.35766">
        <ele>750.6</ele>
        <time>2016-07-08T07:22:00Z</time>
      </trkpt>
      <trkpt lat="43.38077" lon="-6.35777">
        <ele>749.5</ele>
        <time>2016-07-08T07:22:09Z</time>
      </trkpt>
      <trkpt lat="43.3807" lon="-6.35787">
        <ele>748.6</ele>
        <time>2016-07-08T07:22:16Z</time>
      </trkpt>
      <trkpt lat="43.38062" lon="-6.35794">
        <ele>747.4</ele>
        <time>2016-07-08T07:22:24Z</time>
      </trkpt>
      <trkpt lat="43.38056" lon="-6.35804">
        <ele>746.2</ele>
        <time>2016-07-08T07:22:33Z</time>
      </trkpt>
      <trkpt lat="43.38049" lon="-6.35814">
        <ele>745.3</ele>
        <time>2016-07-08T07:22:42Z</time>
      </trkpt>
      <trkpt lat="43.38041" lon="-6.35822">
        <ele>743.8</ele>
        <time>2016-07-08T07:22:50Z</time>
      </trkpt>
      <trkpt lat="43.38034" lon="-6.35829">
        <ele>742.7</ele>
        <time>2016-07-08T07:22:57Z</time>
      </trkpt>
      <trkpt lat="43.38026" lon="-6.35837">
        <ele>741.2</ele>
        <time>2016-07-08T07:23:05Z</time>
      </trkpt>
      <trkpt lat="43.38017" lon="-6.35843">
        <ele>740</ele>
        <time>2016-07-08T07:23:12Z</time>
      </trkpt>
      <trkpt lat="43.3801" lon="-6.3585">
        <ele>737.8</ele>
        <time>2016-07-08T07:23:23Z</time>
      </trkpt>
      <trkpt lat="43.38004" lon="-6.3586">
        <ele>736.1</ele>
        <time>2016-07-08T07:23:32Z</time>
      </trkpt>
      <trkpt lat="43.38002" lon="-6.35872">
        <ele>734.4</ele>
        <time>2016-07-08T07:23:45Z</time>
      </trkpt>
      <trkpt lat="43.38" lon="-6.35885">
        <ele>733.2</ele>
        <time>2016-07-08T07:24:12Z</time>
      </trkpt>
      <trkpt lat="43.37995" lon="-6.35898">
        <ele>732.8</ele>
        <time>2016-07-08T07:24:21Z</time>
      </trkpt>
      <trkpt lat="43.3799" lon="-6.35908">
        <ele>732.6</ele>
        <time>2016-07-08T07:24:28Z</time>
      </trkpt>
      <trkpt lat="43.37985" lon="-6.35919">
        <ele>732.6</ele>
        <time>2016-07-08T07:24:37Z</time>
      </trkpt>
      <trkpt lat="43.37982" lon="-6.35931">
        <ele>732.6</ele>
        <time>2016-07-08T07:24:45Z</time>
      </trkpt>
      <trkpt lat="43.37978" lon="-6.35942">
        <ele>732.8</ele>
        <time>2016-07-08T07:24:53Z</time>
      </trkpt>
      <trkpt lat="43.37976" lon="-6.35955">
        <ele>732.6</ele>
        <time>2016-07-08T07:25:01Z</time>
      </trkpt>
      <trkpt lat="43.37974" lon="-6.35967">
        <ele>732.2</ele>
        <time>2016-07-08T07:25:09Z</time>
      </trkpt>
      <trkpt lat="43.37972" lon="-6.35981">
        <ele>732.6</ele>
        <time>2016-07-08T07:25:17Z</time>
      </trkpt>
      <trkpt lat="43.3797" lon="-6.35993">
        <ele>732.7</ele>
        <time>2016-07-08T07:25:24Z</time>
      </trkpt>
      <trkpt lat="43.37967" lon="-6.36006">
        <ele>732.6</ele>
        <time>2016-07-08T07:25:31Z</time>
      </trkpt>
      <trkpt lat="43.37964" lon="-6.36018">
        <ele>732.6</ele>
        <time>2016-07-08T07:25:38Z</time>
      </trkpt>
      <trkpt lat="43.37962" lon="-6.36032">
        <ele>732.6</ele>
        <time>2016-07-08T07:25:47Z</time>
      </trkpt>
      <trkpt lat="43.37959" lon="-6.36045">
        <ele>732.1</ele>
        <time>2016-07-08T07:25:55Z</time>
      </trkpt>
      <trkpt lat="43.37954" lon="-6.36056">
        <ele>732.4</ele>
        <time>2016-07-08T07:26:03Z</time>
      </trkpt>
      <trkpt lat="43.37949" lon="-6.36067">
        <ele>732.2</ele>
        <time>2016-07-08T07:26:10Z</time>
      </trkpt>
      <trkpt lat="43.37943" lon="-6.36077">
        <ele>731.9</ele>
        <time>2016-07-08T07:26:18Z</time>
      </trkpt>
      <trkpt lat="43.37936" lon="-6.36086">
        <ele>732</ele>
        <time>2016-07-08T07:26:26Z</time>
      </trkpt>
      <trkpt lat="43.37933" lon="-6.36098">
        <ele>732.3</ele>
        <time>2016-07-08T07:26:33Z</time>
      </trkpt>
      <trkpt lat="43.37924" lon="-6.36103">
        <ele>732.3</ele>
        <time>2016-07-08T07:26:41Z</time>
      </trkpt>
      <trkpt lat="43.37915" lon="-6.36104">
        <ele>732.2</ele>
        <time>2016-07-08T07:26:48Z</time>
      </trkpt>
      <trkpt lat="43.37906" lon="-6.36109">
        <ele>732</ele>
        <time>2016-07-08T07:26:57Z</time>
      </trkpt>
      <trkpt lat="43.37898" lon="-6.36115">
        <ele>731.2</ele>
        <time>2016-07-08T07:27:06Z</time>
      </trkpt>
      <trkpt lat="43.3789" lon="-6.3612">
        <ele>730.7</ele>
        <time>2016-07-08T07:27:13Z</time>
      </trkpt>
      <trkpt lat="43.37883" lon="-6.36129">
        <ele>730.2</ele>
        <time>2016-07-08T07:27:20Z</time>
      </trkpt>
      <trkpt lat="43.37878" lon="-6.36141">
        <ele>729.5</ele>
        <time>2016-07-08T07:27:28Z</time>
      </trkpt>
      <trkpt lat="43.37874" lon="-6.36152">
        <ele>729</ele>
        <time>2016-07-08T07:27:35Z</time>
      </trkpt>
      <trkpt lat="43.37869" lon="-6.36164">
        <ele>727.8</ele>
        <time>2016-07-08T07:27:43Z</time>
      </trkpt>
      <trkpt lat="43.37863" lon="-6.36174">
        <ele>726.8</ele>
        <time>2016-07-08T07:27:52Z</time>
      </trkpt>
      <trkpt lat="43.37854" lon="-6.3618">
        <ele>726.2</ele>
        <time>2016-07-08T07:27:59Z</time>
      </trkpt>
      <trkpt lat="43.37844" lon="-6.36181">
        <ele>725.5</ele>
        <time>2016-07-08T07:28:06Z</time>
      </trkpt>
      <trkpt lat="43.37835" lon="-6.36178">
        <ele>724.7</ele>
        <time>2016-07-08T07:28:13Z</time>
      </trkpt>
      <trkpt lat="43.37827" lon="-6.36171">
        <ele>724.1</ele>
        <time>2016-07-08T07:28:20Z</time>
      </trkpt>
      <trkpt lat="43.37818" lon="-6.36164">
        <ele>723.9</ele>
        <time>2016-07-08T07:28:27Z</time>
      </trkpt>
      <trkpt lat="43.3781" lon="-6.36158">
        <ele>723.8</ele>
        <time>2016-07-08T07:28:34Z</time>
      </trkpt>
      <trkpt lat="43.378" lon="-6.36152">
        <ele>723.7</ele>
        <time>2016-07-08T07:28:41Z</time>
      </trkpt>
      <trkpt lat="43.37791" lon="-6.36148">
        <ele>723.9</ele>
        <time>2016-07-08T07:28:49Z</time>
      </trkpt>
      <trkpt lat="43.37781" lon="-6.36147">
        <ele>724.7</ele>
        <time>2016-07-08T07:28:57Z</time>
      </trkpt>
      <trkpt lat="43.37772" lon="-6.36148">
        <ele>724.5</ele>
        <time>2016-07-08T07:29:07Z</time>
      </trkpt>
      <trkpt lat="43.37762" lon="-6.36146">
        <ele>724.1</ele>
        <time>2016-07-08T07:29:16Z</time>
      </trkpt>
      <trkpt lat="43.37753" lon="-6.36146">
        <ele>724</ele>
        <time>2016-07-08T07:29:22Z</time>
      </trkpt>
      <trkpt lat="43.37743" lon="-6.36148">
        <ele>723.6</ele>
        <time>2016-07-08T07:29:29Z</time>
      </trkpt>
      <trkpt lat="43.37736" lon="-6.36155">
        <ele>723.4</ele>
        <time>2016-07-08T07:29:35Z</time>
      </trkpt>
      <trkpt lat="43.37729" lon="-6.36165">
        <ele>723.1</ele>
        <time>2016-07-08T07:29:42Z</time>
      </trkpt>
      <trkpt lat="43.37722" lon="-6.36173">
        <ele>723.5</ele>
        <time>2016-07-08T07:29:50Z</time>
      </trkpt>
      <trkpt lat="43.37716" lon="-6.36184">
        <ele>723.7</ele>
        <time>2016-07-08T07:29:57Z</time>
      </trkpt>
      <trkpt lat="43.37711" lon="-6.36196">
        <ele>723.9</ele>
        <time>2016-07-08T07:30:05Z</time>
      </trkpt>
      <trkpt lat="43.37705" lon="-6.36207">
        <ele>724</ele>
        <time>2016-07-08T07:30:13Z</time>
      </trkpt>
      <trkpt lat="43.377" lon="-6.36217">
        <ele>724.3</ele>
        <time>2016-07-08T07:30:20Z</time>
      </trkpt>
      <trkpt lat="43.37693" lon="-6.36228">
        <ele>724.7</ele>
        <time>2016-07-08T07:30:27Z</time>
      </trkpt>
      <trkpt lat="43.37687" lon="-6.36238">
        <ele>725</ele>
        <time>2016-07-08T07:30:34Z</time>
      </trkpt>
      <trkpt lat="43.37681" lon="-6.36247">
        <ele>725.2</ele>
        <time>2016-07-08T07:30:41Z</time>
      </trkpt>
      <trkpt lat="43.37673" lon="-6.36256">
        <ele>725</ele>
        <time>2016-07-08T07:30:50Z</time>
      </trkpt>
      <trkpt lat="43.37667" lon="-6.36266">
        <ele>724.8</ele>
        <time>2016-07-08T07:30:58Z</time>
      </trkpt>
      <trkpt lat="43.37661" lon="-6.36276">
        <ele>724.7</ele>
        <time>2016-07-08T07:31:07Z</time>
      </trkpt>
      <trkpt lat="43.37655" lon="-6.36286">
        <ele>724.5</ele>
        <time>2016-07-08T07:31:14Z</time>
      </trkpt>
      <trkpt lat="43.37649" lon="-6.36296">
        <ele>724.2</ele>
        <time>2016-07-08T07:31:22Z</time>
      </trkpt>
      <trkpt lat="43.37643" lon="-6.36305">
        <ele>723.6</ele>
        <time>2016-07-08T07:31:29Z</time>
      </trkpt>
      <trkpt lat="43.37635" lon="-6.36314">
        <ele>722.9</ele>
        <time>2016-07-08T07:31:37Z</time>
      </trkpt>
      <trkpt lat="43.37627" lon="-6.36321">
        <ele>722.5</ele>
        <time>2016-07-08T07:31:45Z</time>
      </trkpt>
      <trkpt lat="43.3762" lon="-6.36328">
        <ele>722.5</ele>
        <time>2016-07-08T07:31:53Z</time>
      </trkpt>
      <trkpt lat="43.37612" lon="-6.36336">
        <ele>721.6</ele>
        <time>2016-07-08T07:32:01Z</time>
      </trkpt>
      <trkpt lat="43.37605" lon="-6.36345">
        <ele>721</ele>
        <time>2016-07-08T07:32:09Z</time>
      </trkpt>
      <trkpt lat="43.37599" lon="-6.36356">
        <ele>720.5</ele>
        <time>2016-07-08T07:32:18Z</time>
      </trkpt>
      <trkpt lat="43.37593" lon="-6.36365">
        <ele>720.6</ele>
        <time>2016-07-08T07:32:26Z</time>
      </trkpt>
      <trkpt lat="43.37586" lon="-6.36375">
        <ele>720.6</ele>
        <time>2016-07-08T07:32:34Z</time>
      </trkpt>
      <trkpt lat="43.37579" lon="-6.36385">
        <ele>720.4</ele>
        <time>2016-07-08T07:32:42Z</time>
      </trkpt>
      <trkpt lat="43.37572" lon="-6.36393">
        <ele>719.9</ele>
        <time>2016-07-08T07:32:50Z</time>
      </trkpt>
      <trkpt lat="43.37564" lon="-6.36401">
        <ele>719.3</ele>
        <time>2016-07-08T07:32:58Z</time>
      </trkpt>
      <trkpt lat="43.37556" lon="-6.36409">
        <ele>718.6</ele>
        <time>2016-07-08T07:33:06Z</time>
      </trkpt>
      <trkpt lat="43.37548" lon="-6.36415">
        <ele>718</ele>
        <time>2016-07-08T07:33:14Z</time>
      </trkpt>
      <trkpt lat="43.37539" lon="-6.3642">
        <ele>717.4</ele>
        <time>2016-07-08T07:33:22Z</time>
      </trkpt>
      <trkpt lat="43.37531" lon="-6.36425">
        <ele>716.4</ele>
        <time>2016-07-08T07:33:30Z</time>
      </trkpt>
      <trkpt lat="43.37523" lon="-6.36433">
        <ele>715.3</ele>
        <time>2016-07-08T07:33:38Z</time>
      </trkpt>
      <trkpt lat="43.37515" lon="-6.3644">
        <ele>714.4</ele>
        <time>2016-07-08T07:33:46Z</time>
      </trkpt>
      <trkpt lat="43.37506" lon="-6.36445">
        <ele>713.8</ele>
        <time>2016-07-08T07:33:53Z</time>
      </trkpt>
      <trkpt lat="43.37496" lon="-6.3645">
        <ele>713.3</ele>
        <time>2016-07-08T07:34:01Z</time>
      </trkpt>
      <trkpt lat="43.37487" lon="-6.36453">
        <ele>713.1</ele>
        <time>2016-07-08T07:34:08Z</time>
      </trkpt>
      <trkpt lat="43.37478" lon="-6.36459">
        <ele>713</ele>
        <time>2016-07-08T07:34:16Z</time>
      </trkpt>
      <trkpt lat="43.37471" lon="-6.36466">
        <ele>713.5</ele>
        <time>2016-07-08T07:34:25Z</time>
      </trkpt>
      <trkpt lat="43.37463" lon="-6.36473">
        <ele>714.3</ele>
        <time>2016-07-08T07:34:34Z</time>
      </trkpt>
      <trkpt lat="43.37455" lon="-6.36481">
        <ele>714.7</ele>
        <time>2016-07-08T07:34:42Z</time>
      </trkpt>
      <trkpt lat="43.37447" lon="-6.36488">
        <ele>715.3</ele>
        <time>2016-07-08T07:34:51Z</time>
      </trkpt>
      <trkpt lat="43.37438" lon="-6.36494">
        <ele>715.5</ele>
        <time>2016-07-08T07:35:00Z</time>
      </trkpt>
      <trkpt lat="43.37428" lon="-6.36496">
        <ele>714.9</ele>
        <time>2016-07-08T07:35:08Z</time>
      </trkpt>
      <trkpt lat="43.37421" lon="-6.36504">
        <ele>713.9</ele>
        <time>2016-07-08T07:35:20Z</time>
      </trkpt>
      <trkpt lat="43.37417" lon="-6.36515">
        <ele>713.3</ele>
        <time>2016-07-08T07:35:27Z</time>
      </trkpt>
      <trkpt lat="43.37408" lon="-6.3652">
        <ele>712.7</ele>
        <time>2016-07-08T07:35:39Z</time>
      </trkpt>
      <trkpt lat="43.37397" lon="-6.36519">
        <ele>711.9</ele>
        <time>2016-07-08T07:35:47Z</time>
      </trkpt>
      <trkpt lat="43.37388" lon="-6.36524">
        <ele>710.9</ele>
        <time>2016-07-08T07:35:54Z</time>
      </trkpt>
      <trkpt lat="43.37379" lon="-6.3653">
        <ele>710.4</ele>
        <time>2016-07-08T07:36:00Z</time>
      </trkpt>
      <trkpt lat="43.37371" lon="-6.36536">
        <ele>710</ele>
        <time>2016-07-08T07:36:06Z</time>
      </trkpt>
      <trkpt lat="43.37362" lon="-6.36543">
        <ele>709.7</ele>
        <time>2016-07-08T07:36:13Z</time>
      </trkpt>
      <trkpt lat="43.37354" lon="-6.36548">
        <ele>709.9</ele>
        <time>2016-07-08T07:36:20Z</time>
      </trkpt>
      <trkpt lat="43.37345" lon="-6.36555">
        <ele>710.3</ele>
        <time>2016-07-08T07:36:28Z</time>
      </trkpt>
      <trkpt lat="43.37336" lon="-6.36561">
        <ele>710.9</ele>
        <time>2016-07-08T07:36:36Z</time>
      </trkpt>
      <trkpt lat="43.37327" lon="-6.36565">
        <ele>710.8</ele>
        <time>2016-07-08T07:36:44Z</time>
      </trkpt>
      <trkpt lat="43.37318" lon="-6.36571">
        <ele>710.8</ele>
        <time>2016-07-08T07:36:52Z</time>
      </trkpt>
      <trkpt lat="43.37309" lon="-6.36577">
        <ele>711.6</ele>
        <time>2016-07-08T07:37:00Z</time>
      </trkpt>
      <trkpt lat="43.37302" lon="-6.36584">
        <ele>712.4</ele>
        <time>2016-07-08T07:37:08Z</time>
      </trkpt>
      <trkpt lat="43.37294" lon="-6.36592">
        <ele>712.8</ele>
        <time>2016-07-08T07:37:16Z</time>
      </trkpt>
      <trkpt lat="43.37285" lon="-6.366">
        <ele>713.5</ele>
        <time>2016-07-08T07:37:25Z</time>
      </trkpt>
      <trkpt lat="43.37276" lon="-6.36603">
        <ele>714.1</ele>
        <time>2016-07-08T07:37:33Z</time>
      </trkpt>
      <trkpt lat="43.37267" lon="-6.36604">
        <ele>714.4</ele>
        <time>2016-07-08T07:37:40Z</time>
      </trkpt>
      <trkpt lat="43.37258" lon="-6.36604">
        <ele>714.5</ele>
        <time>2016-07-08T07:37:48Z</time>
      </trkpt>
      <trkpt lat="43.37249" lon="-6.36604">
        <ele>714.8</ele>
        <time>2016-07-08T07:37:58Z</time>
      </trkpt>
      <trkpt lat="43.37239" lon="-6.36604">
        <ele>715.3</ele>
        <time>2016-07-08T07:38:07Z</time>
      </trkpt>
      <trkpt lat="43.37229" lon="-6.36604">
        <ele>715.6</ele>
        <time>2016-07-08T07:38:15Z</time>
      </trkpt>
      <trkpt lat="43.3722" lon="-6.36602">
        <ele>716.3</ele>
        <time>2016-07-08T07:38:24Z</time>
      </trkpt>
      <trkpt lat="43.37211" lon="-6.366">
        <ele>716.9</ele>
        <time>2016-07-08T07:38:36Z</time>
      </trkpt>
      <trkpt lat="43.37201" lon="-6.36602">
        <ele>717.3</ele>
        <time>2016-07-08T07:38:47Z</time>
      </trkpt>
      <trkpt lat="43.37191" lon="-6.36602">
        <ele>717.7</ele>
        <time>2016-07-08T07:38:55Z</time>
      </trkpt>
      <trkpt lat="43.37181" lon="-6.36603">
        <ele>718</ele>
        <time>2016-07-08T07:39:03Z</time>
      </trkpt>
      <trkpt lat="43.37173" lon="-6.36609">
        <ele>718.5</ele>
        <time>2016-07-08T07:39:11Z</time>
      </trkpt>
      <trkpt lat="43.37166" lon="-6.36618">
        <ele>718.9</ele>
        <time>2016-07-08T07:39:18Z</time>
      </trkpt>
      <trkpt lat="43.37161" lon="-6.36629">
        <ele>719.1</ele>
        <time>2016-07-08T07:39:25Z</time>
      </trkpt>
      <trkpt lat="43.37153" lon="-6.36638">
        <ele>719.4</ele>
        <time>2016-07-08T07:39:32Z</time>
      </trkpt>
      <trkpt lat="43.37148" lon="-6.36649">
        <ele>720.5</ele>
        <time>2016-07-08T07:39:41Z</time>
      </trkpt>
      <trkpt lat="43.37139" lon="-6.36655">
        <ele>721.5</ele>
        <time>2016-07-08T07:39:52Z</time>
      </trkpt>
      <trkpt lat="43.37134" lon="-6.36667">
        <ele>722</ele>
        <time>2016-07-08T07:40:00Z</time>
      </trkpt>
      <trkpt lat="43.37128" lon="-6.36677">
        <ele>722.2</ele>
        <time>2016-07-08T07:40:07Z</time>
      </trkpt>
      <trkpt lat="43.37122" lon="-6.36687">
        <ele>722.5</ele>
        <time>2016-07-08T07:40:14Z</time>
      </trkpt>
      <trkpt lat="43.37117" lon="-6.36697">
        <ele>722.8</ele>
        <time>2016-07-08T07:40:21Z</time>
      </trkpt>
      <trkpt lat="43.37111" lon="-6.36709">
        <ele>723.2</ele>
        <time>2016-07-08T07:40:29Z</time>
      </trkpt>
      <trkpt lat="43.37105" lon="-6.36718">
        <ele>723.5</ele>
        <time>2016-07-08T07:40:36Z</time>
      </trkpt>
      <trkpt lat="43.37098" lon="-6.36727">
        <ele>723.8</ele>
        <time>2016-07-08T07:40:44Z</time>
      </trkpt>
      <trkpt lat="43.37092" lon="-6.36739">
        <ele>724.2</ele>
        <time>2016-07-08T07:40:53Z</time>
      </trkpt>
      <trkpt lat="43.37087" lon="-6.3675">
        <ele>724.7</ele>
        <time>2016-07-08T07:41:01Z</time>
      </trkpt>
      <trkpt lat="43.37082" lon="-6.3676">
        <ele>725.2</ele>
        <time>2016-07-08T07:41:09Z</time>
      </trkpt>
      <trkpt lat="43.37076" lon="-6.36771">
        <ele>725.3</ele>
        <time>2016-07-08T07:41:17Z</time>
      </trkpt>
      <trkpt lat="43.37071" lon="-6.36782">
        <ele>725.4</ele>
        <time>2016-07-08T07:41:26Z</time>
      </trkpt>
      <trkpt lat="43.37074" lon="-6.36795">
        <ele>725.6</ele>
        <time>2016-07-08T07:41:34Z</time>
      </trkpt>
      <trkpt lat="43.37081" lon="-6.36803">
        <ele>725.9</ele>
        <time>2016-07-08T07:41:43Z</time>
      </trkpt>
      <trkpt lat="43.37088" lon="-6.36812">
        <ele>726.7</ele>
        <time>2016-07-08T07:41:52Z</time>
      </trkpt>
      <trkpt lat="43.37095" lon="-6.36822">
        <ele>727.6</ele>
        <time>2016-07-08T07:42:03Z</time>
      </trkpt>
      <trkpt lat="43.37102" lon="-6.36831">
        <ele>728.4</ele>
        <time>2016-07-08T07:42:13Z</time>
      </trkpt>
      <trkpt lat="43.37111" lon="-6.36834">
        <ele>731</ele>
        <time>2016-07-08T07:42:45Z</time>
      </trkpt>
      <trkpt lat="43.3712" lon="-6.36835">
        <ele>731.5</ele>
        <time>2016-07-08T07:42:56Z</time>
      </trkpt>
      <trkpt lat="43.3713" lon="-6.36834">
        <ele>732.7</ele>
        <time>2016-07-08T07:43:09Z</time>
      </trkpt>
      <trkpt lat="43.37139" lon="-6.36832">
        <ele>735</ele>
        <time>2016-07-08T07:43:22Z</time>
      </trkpt>
      <trkpt lat="43.37148" lon="-6.36835">
        <ele>737.1</ele>
        <time>2016-07-08T07:43:33Z</time>
      </trkpt>
      <trkpt lat="43.37154" lon="-6.36846">
        <ele>738.2</ele>
        <time>2016-07-08T07:43:42Z</time>
      </trkpt>
      <trkpt lat="43.37154" lon="-6.3686">
        <ele>739</ele>
        <time>2016-07-08T07:43:52Z</time>
      </trkpt>
      <trkpt lat="43.37153" lon="-6.36873">
        <ele>739.7</ele>
        <time>2016-07-08T07:44:02Z</time>
      </trkpt>
      <trkpt lat="43.37152" lon="-6.36886">
        <ele>740.1</ele>
        <time>2016-07-08T07:44:13Z</time>
      </trkpt>
      <trkpt lat="43.3715" lon="-6.36898">
        <ele>740.9</ele>
        <time>2016-07-08T07:44:22Z</time>
      </trkpt>
      <trkpt lat="43.37147" lon="-6.36911">
        <ele>741.4</ele>
        <time>2016-07-08T07:44:31Z</time>
      </trkpt>
      <trkpt lat="43.37143" lon="-6.36923">
        <ele>742</ele>
        <time>2016-07-08T07:44:40Z</time>
      </trkpt>
      <trkpt lat="43.3714" lon="-6.36935">
        <ele>742.7</ele>
        <time>2016-07-08T07:44:49Z</time>
      </trkpt>
      <trkpt lat="43.37136" lon="-6.36947">
        <ele>743.6</ele>
        <time>2016-07-08T07:45:00Z</time>
      </trkpt>
      <trkpt lat="43.37132" lon="-6.36958">
        <ele>744.1</ele>
        <time>2016-07-08T07:45:09Z</time>
      </trkpt>
      <trkpt lat="43.37126" lon="-6.3697">
        <ele>745.1</ele>
        <time>2016-07-08T07:45:18Z</time>
      </trkpt>
      <trkpt lat="43.37122" lon="-6.36981">
        <ele>746.6</ele>
        <time>2016-07-08T07:45:27Z</time>
      </trkpt>
      <trkpt lat="43.3712" lon="-6.36993">
        <ele>748.1</ele>
        <time>2016-07-08T07:45:40Z</time>
      </trkpt>
      <trkpt lat="43.37113" lon="-6.37003">
        <ele>750.1</ele>
        <time>2016-07-08T07:46:11Z</time>
      </trkpt>
      <trkpt lat="43.37109" lon="-6.37014">
        <ele>750.8</ele>
        <time>2016-07-08T07:46:25Z</time>
      </trkpt>
      <trkpt lat="43.37105" lon="-6.37025">
        <ele>750.9</ele>
        <time>2016-07-08T07:46:37Z</time>
      </trkpt>
      <trkpt lat="43.37101" lon="-6.37036">
        <ele>751.3</ele>
        <time>2016-07-08T07:46:47Z</time>
      </trkpt>
      <trkpt lat="43.37097" lon="-6.37049">
        <ele>751.3</ele>
        <time>2016-07-08T07:47:16Z</time>
      </trkpt>
      <trkpt lat="43.37095" lon="-6.37062">
        <ele>750.9</ele>
        <time>2016-07-08T07:47:55Z</time>
      </trkpt>
      <trkpt lat="43.37091" lon="-6.37073">
        <ele>750.8</ele>
        <time>2016-07-08T07:48:06Z</time>
      </trkpt>
      <trkpt lat="43.37086" lon="-6.37085">
        <ele>751.1</ele>
        <time>2016-07-08T07:48:15Z</time>
      </trkpt>
      <trkpt lat="43.37083" lon="-6.37097">
        <ele>751.6</ele>
        <time>2016-07-08T07:48:24Z</time>
      </trkpt>
      <trkpt lat="43.37081" lon="-6.37109">
        <ele>752.1</ele>
        <time>2016-07-08T07:48:34Z</time>
      </trkpt>
      <trkpt lat="43.37077" lon="-6.37121">
        <ele>752.6</ele>
        <time>2016-07-08T07:48:44Z</time>
      </trkpt>
      <trkpt lat="43.37075" lon="-6.37134">
        <ele>753.3</ele>
        <time>2016-07-08T07:48:56Z</time>
      </trkpt>
      <trkpt lat="43.37069" lon="-6.37145">
        <ele>753.3</ele>
        <time>2016-07-08T07:49:08Z</time>
      </trkpt>
      <trkpt lat="43.37065" lon="-6.37156">
        <ele>753.5</ele>
        <time>2016-07-08T07:49:18Z</time>
      </trkpt>
      <trkpt lat="43.37062" lon="-6.37168">
        <ele>753.6</ele>
        <time>2016-07-08T07:49:27Z</time>
      </trkpt>
      <trkpt lat="43.37059" lon="-6.37181">
        <ele>753.7</ele>
        <time>2016-07-08T07:49:38Z</time>
      </trkpt>
      <trkpt lat="43.37056" lon="-6.37193">
        <ele>753.9</ele>
        <time>2016-07-08T07:49:48Z</time>
      </trkpt>
      <trkpt lat="43.37052" lon="-6.37206">
        <ele>754.2</ele>
        <time>2016-07-08T07:49:57Z</time>
      </trkpt>
      <trkpt lat="43.37047" lon="-6.37216">
        <ele>754.6</ele>
        <time>2016-07-08T07:50:07Z</time>
      </trkpt>
      <trkpt lat="43.37042" lon="-6.37227">
        <ele>755</ele>
        <time>2016-07-08T07:50:17Z</time>
      </trkpt>
      <trkpt lat="43.37038" lon="-6.3724">
        <ele>755.7</ele>
        <time>2016-07-08T07:50:27Z</time>
      </trkpt>
      <trkpt lat="43.37034" lon="-6.37251">
        <ele>756.1</ele>
        <time>2016-07-08T07:50:39Z</time>
      </trkpt>
      <trkpt lat="43.3703" lon="-6.37262">
        <ele>756.2</ele>
        <time>2016-07-08T07:50:55Z</time>
      </trkpt>
      <trkpt lat="43.37026" lon="-6.37274">
        <ele>757.1</ele>
        <time>2016-07-08T07:51:05Z</time>
      </trkpt>
      <trkpt lat="43.37022" lon="-6.37285">
        <ele>757.6</ele>
        <time>2016-07-08T07:51:14Z</time>
      </trkpt>
      <trkpt lat="43.37018" lon="-6.37297">
        <ele>757.9</ele>
        <time>2016-07-08T07:51:22Z</time>
      </trkpt>
      <trkpt lat="43.37013" lon="-6.37307">
        <ele>758.3</ele>
        <time>2016-07-08T07:51:32Z</time>
      </trkpt>
      <trkpt lat="43.3701" lon="-6.37319">
        <ele>758.5</ele>
        <time>2016-07-08T07:51:42Z</time>
      </trkpt>
      <trkpt lat="43.37006" lon="-6.37332">
        <ele>758.4</ele>
        <time>2016-07-08T07:51:52Z</time>
      </trkpt>
      <trkpt lat="43.37001" lon="-6.37342">
        <ele>758.8</ele>
        <time>2016-07-08T07:52:02Z</time>
      </trkpt>
      <trkpt lat="43.36996" lon="-6.37353">
        <ele>759.1</ele>
        <time>2016-07-08T07:52:14Z</time>
      </trkpt>
      <trkpt lat="43.3699" lon="-6.37363">
        <ele>759.7</ele>
        <time>2016-07-08T07:52:24Z</time>
      </trkpt>
      <trkpt lat="43.36982" lon="-6.37371">
        <ele>759.5</ele>
        <time>2016-07-08T07:52:33Z</time>
      </trkpt>
      <trkpt lat="43.36975" lon="-6.3738">
        <ele>759.2</ele>
        <time>2016-07-08T07:52:42Z</time>
      </trkpt>
      <trkpt lat="43.3697" lon="-6.3739">
        <ele>758.8</ele>
        <time>2016-07-08T07:52:53Z</time>
      </trkpt>
      <trkpt lat="43.36962" lon="-6.37398">
        <ele>758</ele>
        <time>2016-07-08T07:53:05Z</time>
      </trkpt>
      <trkpt lat="43.36953" lon="-6.37399">
        <ele>757.9</ele>
        <time>2016-07-08T07:53:21Z</time>
      </trkpt>
      <trkpt lat="43.36944" lon="-6.37393">
        <ele>757.9</ele>
        <time>2016-07-08T07:53:29Z</time>
      </trkpt>
      <trkpt lat="43.36935" lon="-6.3739">
        <ele>757.8</ele>
        <time>2016-07-08T07:53:38Z</time>
      </trkpt>
      <trkpt lat="43.36926" lon="-6.37388">
        <ele>758.2</ele>
        <time>2016-07-08T07:53:49Z</time>
      </trkpt>
      <trkpt lat="43.36919" lon="-6.37397">
        <ele>758.5</ele>
        <time>2016-07-08T07:53:58Z</time>
      </trkpt>
      <trkpt lat="43.36912" lon="-6.37407">
        <ele>760.2</ele>
        <time>2016-07-08T07:54:09Z</time>
      </trkpt>
      <trkpt lat="43.36904" lon="-6.37413">
        <ele>762.1</ele>
        <time>2016-07-08T07:54:20Z</time>
      </trkpt>
      <trkpt lat="43.36898" lon="-6.37422">
        <ele>763.4</ele>
        <time>2016-07-08T07:54:28Z</time>
      </trkpt>
      <trkpt lat="43.36891" lon="-6.37431">
        <ele>764.2</ele>
        <time>2016-07-08T07:54:36Z</time>
      </trkpt>
      <trkpt lat="43.36883" lon="-6.37439">
        <ele>765.4</ele>
        <time>2016-07-08T07:54:47Z</time>
      </trkpt>
      <trkpt lat="43.36877" lon="-6.37448">
        <ele>766.3</ele>
        <time>2016-07-08T07:54:58Z</time>
      </trkpt>
      <trkpt lat="43.36868" lon="-6.37454">
        <ele>767.8</ele>
        <time>2016-07-08T07:55:09Z</time>
      </trkpt>
      <trkpt lat="43.36862" lon="-6.37463">
        <ele>768.4</ele>
        <time>2016-07-08T07:55:19Z</time>
      </trkpt>
      <trkpt lat="43.36853" lon="-6.37469">
        <ele>769.5</ele>
        <time>2016-07-08T07:55:30Z</time>
      </trkpt>
      <trkpt lat="43.36846" lon="-6.37477">
        <ele>770.7</ele>
        <time>2016-07-08T07:55:41Z</time>
      </trkpt>
      <trkpt lat="43.36837" lon="-6.37482">
        <ele>771.7</ele>
        <time>2016-07-08T07:55:49Z</time>
      </trkpt>
      <trkpt lat="43.3683" lon="-6.37489">
        <ele>773.6</ele>
        <time>2016-07-08T07:56:01Z</time>
      </trkpt>
      <trkpt lat="43.36822" lon="-6.37496">
        <ele>775.5</ele>
        <time>2016-07-08T07:56:18Z</time>
      </trkpt>
      <trkpt lat="43.36816" lon="-6.37505">
        <ele>776.5</ele>
        <time>2016-07-08T07:56:29Z</time>
      </trkpt>
      <trkpt lat="43.36811" lon="-6.37515">
        <ele>778</ele>
        <time>2016-07-08T07:56:42Z</time>
      </trkpt>
      <trkpt lat="43.36805" lon="-6.37526">
        <ele>779</ele>
        <time>2016-07-08T07:56:51Z</time>
      </trkpt>
      <trkpt lat="43.368" lon="-6.37536">
        <ele>780.1</ele>
        <time>2016-07-08T07:56:59Z</time>
      </trkpt>
      <trkpt lat="43.36793" lon="-6.37546">
        <ele>781.1</ele>
        <time>2016-07-08T07:57:08Z</time>
      </trkpt>
      <trkpt lat="43.36787" lon="-6.37556">
        <ele>781.9</ele>
        <time>2016-07-08T07:57:17Z</time>
      </trkpt>
      <trkpt lat="43.36786" lon="-6.37568">
        <ele>784.5</ele>
        <time>2016-07-08T07:57:47Z</time>
      </trkpt>
      <trkpt lat="43.36781" lon="-6.37578">
        <ele>784.3</ele>
        <time>2016-07-08T07:58:01Z</time>
      </trkpt>
      <trkpt lat="43.36773" lon="-6.37586">
        <ele>784.1</ele>
        <time>2016-07-08T07:58:11Z</time>
      </trkpt>
      <trkpt lat="43.36766" lon="-6.37594">
        <ele>784.8</ele>
        <time>2016-07-08T07:58:30Z</time>
      </trkpt>
      <trkpt lat="43.36761" lon="-6.37605">
        <ele>784.8</ele>
        <time>2016-07-08T07:58:47Z</time>
      </trkpt>
      <trkpt lat="43.36755" lon="-6.37616">
        <ele>785.1</ele>
        <time>2016-07-08T07:59:02Z</time>
      </trkpt>
      <trkpt lat="43.36749" lon="-6.37626">
        <ele>785.2</ele>
        <time>2016-07-08T07:59:12Z</time>
      </trkpt>
      <trkpt lat="43.36743" lon="-6.37637">
        <ele>785.2</ele>
        <time>2016-07-08T07:59:22Z</time>
      </trkpt>
      <trkpt lat="43.36737" lon="-6.37648">
        <ele>785.2</ele>
        <time>2016-07-08T07:59:34Z</time>
      </trkpt>
      <trkpt lat="43.36732" lon="-6.37659">
        <ele>784.9</ele>
        <time>2016-07-08T07:59:45Z</time>
      </trkpt>
      <trkpt lat="43.36727" lon="-6.37671">
        <ele>784.5</ele>
        <time>2016-07-08T07:59:55Z</time>
      </trkpt>
      <trkpt lat="43.36722" lon="-6.37682">
        <ele>784.7</ele>
        <time>2016-07-08T08:00:04Z</time>
      </trkpt>
      <trkpt lat="43.36719" lon="-6.37695">
        <ele>784.2</ele>
        <time>2016-07-08T08:00:17Z</time>
      </trkpt>
      <trkpt lat="43.36713" lon="-6.37706">
        <ele>784.4</ele>
        <time>2016-07-08T08:00:26Z</time>
      </trkpt>
      <trkpt lat="43.36709" lon="-6.37717">
        <ele>784.2</ele>
        <time>2016-07-08T08:00:32Z</time>
      </trkpt>
      <trkpt lat="43.36705" lon="-6.37729">
        <ele>784.1</ele>
        <time>2016-07-08T08:00:40Z</time>
      </trkpt>
      <trkpt lat="43.36702" lon="-6.37741">
        <ele>784.2</ele>
        <time>2016-07-08T08:00:47Z</time>
      </trkpt>
      <trkpt lat="43.36697" lon="-6.37751">
        <ele>784.3</ele>
        <time>2016-07-08T08:00:55Z</time>
      </trkpt>
      <trkpt lat="43.36692" lon="-6.37763">
        <ele>784.3</ele>
        <time>2016-07-08T08:01:03Z</time>
      </trkpt>
      <trkpt lat="43.36688" lon="-6.37776">
        <ele>784.3</ele>
        <time>2016-07-08T08:01:11Z</time>
      </trkpt>
      <trkpt lat="43.36685" lon="-6.37787">
        <ele>783.8</ele>
        <time>2016-07-08T08:01:19Z</time>
      </trkpt>
      <trkpt lat="43.36678" lon="-6.37797">
        <ele>783.6</ele>
        <time>2016-07-08T08:01:29Z</time>
      </trkpt>
      <trkpt lat="43.36672" lon="-6.37808">
        <ele>783.4</ele>
        <time>2016-07-08T08:01:40Z</time>
      </trkpt>
      <trkpt lat="43.36666" lon="-6.37817">
        <ele>783.2</ele>
        <time>2016-07-08T08:01:52Z</time>
      </trkpt>
      <trkpt lat="43.3666" lon="-6.37828">
        <ele>783.1</ele>
        <time>2016-07-08T08:02:03Z</time>
      </trkpt>
      <trkpt lat="43.36654" lon="-6.37837">
        <ele>783.2</ele>
        <time>2016-07-08T08:02:14Z</time>
      </trkpt>
      <trkpt lat="43.36648" lon="-6.37848">
        <ele>783.3</ele>
        <time>2016-07-08T08:03:32Z</time>
      </trkpt>
      <trkpt lat="43.36642" lon="-6.37857">
        <ele>783.2</ele>
        <time>2016-07-08T08:04:14Z</time>
      </trkpt>
      <trkpt lat="43.36636" lon="-6.37867">
        <ele>783.7</ele>
        <time>2016-07-08T08:04:27Z</time>
      </trkpt>
      <trkpt lat="43.3663" lon="-6.37878">
        <ele>784.2</ele>
        <time>2016-07-08T08:04:39Z</time>
      </trkpt>
      <trkpt lat="43.36625" lon="-6.37888">
        <ele>783.3</ele>
        <time>2016-07-08T08:04:50Z</time>
      </trkpt>
      <trkpt lat="43.36625" lon="-6.37901">
        <ele>782.5</ele>
        <time>2016-07-08T08:05:00Z</time>
      </trkpt>
      <trkpt lat="43.36617" lon="-6.3791">
        <ele>782.6</ele>
        <time>2016-07-08T08:05:10Z</time>
      </trkpt>
      <trkpt lat="43.36609" lon="-6.37917">
        <ele>783.1</ele>
        <time>2016-07-08T08:05:21Z</time>
      </trkpt>
      <trkpt lat="43.36602" lon="-6.37926">
        <ele>784.2</ele>
        <time>2016-07-08T08:05:33Z</time>
      </trkpt>
      <trkpt lat="43.36596" lon="-6.37936">
        <ele>785.2</ele>
        <time>2016-07-08T08:05:43Z</time>
      </trkpt>
      <trkpt lat="43.36588" lon="-6.37943">
        <ele>786.6</ele>
        <time>2016-07-08T08:05:53Z</time>
      </trkpt>
      <trkpt lat="43.36581" lon="-6.37951">
        <ele>788.1</ele>
        <time>2016-07-08T08:06:05Z</time>
      </trkpt>
      <trkpt lat="43.36571" lon="-6.37955">
        <ele>789.1</ele>
        <time>2016-07-08T08:06:17Z</time>
      </trkpt>
      <trkpt lat="43.36562" lon="-6.37959">
        <ele>790.3</ele>
        <time>2016-07-08T08:06:29Z</time>
      </trkpt>
      <trkpt lat="43.36552" lon="-6.37962">
        <ele>791.3</ele>
        <time>2016-07-08T08:06:39Z</time>
      </trkpt>
      <trkpt lat="43.36543" lon="-6.37965">
        <ele>791.7</ele>
        <time>2016-07-08T08:06:48Z</time>
      </trkpt>
      <trkpt lat="43.36534" lon="-6.37964">
        <ele>791.1</ele>
        <time>2016-07-08T08:06:56Z</time>
      </trkpt>
      <trkpt lat="43.36524" lon="-6.37962">
        <ele>790.2</ele>
        <time>2016-07-08T08:07:04Z</time>
      </trkpt>
      <trkpt lat="43.36515" lon="-6.37962">
        <ele>788.5</ele>
        <time>2016-07-08T08:07:13Z</time>
      </trkpt>
      <trkpt lat="43.36505" lon="-6.37961">
        <ele>786.7</ele>
        <time>2016-07-08T08:07:22Z</time>
      </trkpt>
      <trkpt lat="43.36496" lon="-6.37959">
        <ele>785.7</ele>
        <time>2016-07-08T08:07:30Z</time>
      </trkpt>
      <trkpt lat="43.36486" lon="-6.3796">
        <ele>783.8</ele>
        <time>2016-07-08T08:07:40Z</time>
      </trkpt>
      <trkpt lat="43.36477" lon="-6.37964">
        <ele>782.1</ele>
        <time>2016-07-08T08:07:50Z</time>
      </trkpt>
      <trkpt lat="43.36468" lon="-6.37967">
        <ele>781</ele>
        <time>2016-07-08T08:07:58Z</time>
      </trkpt>
      <trkpt lat="43.36458" lon="-6.37969">
        <ele>779.7</ele>
        <time>2016-07-08T08:08:08Z</time>
      </trkpt>
      <trkpt lat="43.36449" lon="-6.37975">
        <ele>778.8</ele>
        <time>2016-07-08T08:08:17Z</time>
      </trkpt>
      <trkpt lat="43.36439" lon="-6.37977">
        <ele>777.9</ele>
        <time>2016-07-08T08:08:25Z</time>
      </trkpt>
      <trkpt lat="43.36429" lon="-6.3798">
        <ele>776.5</ele>
        <time>2016-07-08T08:08:36Z</time>
      </trkpt>
      <trkpt lat="43.36421" lon="-6.37984">
        <ele>775</ele>
        <time>2016-07-08T08:08:44Z</time>
      </trkpt>
      <trkpt lat="43.36411" lon="-6.37987">
        <ele>773.2</ele>
        <time>2016-07-08T08:08:55Z</time>
      </trkpt>
      <trkpt lat="43.36402" lon="-6.37992">
        <ele>771.8</ele>
        <time>2016-07-08T08:09:03Z</time>
      </trkpt>
      <trkpt lat="43.36393" lon="-6.37997">
        <ele>770.8</ele>
        <time>2016-07-08T08:09:11Z</time>
      </trkpt>
      <trkpt lat="43.36384" lon="-6.38001">
        <ele>770</ele>
        <time>2016-07-08T08:09:18Z</time>
      </trkpt>
      <trkpt lat="43.36375" lon="-6.38006">
        <ele>769.1</ele>
        <time>2016-07-08T08:09:25Z</time>
      </trkpt>
      <trkpt lat="43.36366" lon="-6.38011">
        <ele>768.2</ele>
        <time>2016-07-08T08:09:33Z</time>
      </trkpt>
      <trkpt lat="43.36356" lon="-6.38013">
        <ele>767.2</ele>
        <time>2016-07-08T08:09:41Z</time>
      </trkpt>
      <trkpt lat="43.36346" lon="-6.38017">
        <ele>766.4</ele>
        <time>2016-07-08T08:09:48Z</time>
      </trkpt>
      <trkpt lat="43.36337" lon="-6.38017">
        <ele>764.9</ele>
        <time>2016-07-08T08:09:56Z</time>
      </trkpt>
      <trkpt lat="43.36328" lon="-6.38018">
        <ele>763.4</ele>
        <time>2016-07-08T08:10:05Z</time>
      </trkpt>
      <trkpt lat="43.36318" lon="-6.3802">
        <ele>761.7</ele>
        <time>2016-07-08T08:10:15Z</time>
      </trkpt>
      <trkpt lat="43.36309" lon="-6.3802">
        <ele>760</ele>
        <time>2016-07-08T08:10:23Z</time>
      </trkpt>
      <trkpt lat="43.36299" lon="-6.38021">
        <ele>758.3</ele>
        <time>2016-07-08T08:10:32Z</time>
      </trkpt>
      <trkpt lat="43.3629" lon="-6.38022">
        <ele>757</ele>
        <time>2016-07-08T08:10:41Z</time>
      </trkpt>
      <trkpt lat="43.36281" lon="-6.38024">
        <ele>755.5</ele>
        <time>2016-07-08T08:10:52Z</time>
      </trkpt>
      <trkpt lat="43.36271" lon="-6.38024">
        <ele>754.1</ele>
        <time>2016-07-08T08:11:01Z</time>
      </trkpt>
      <trkpt lat="43.36261" lon="-6.38024">
        <ele>752.8</ele>
        <time>2016-07-08T08:11:09Z</time>
      </trkpt>
      <trkpt lat="43.36252" lon="-6.38026">
        <ele>752</ele>
        <time>2016-07-08T08:11:16Z</time>
      </trkpt>
      <trkpt lat="43.36244" lon="-6.38032">
        <ele>751.5</ele>
        <time>2016-07-08T08:11:24Z</time>
      </trkpt>
      <trkpt lat="43.36236" lon="-6.38039">
        <ele>751.2</ele>
        <time>2016-07-08T08:11:33Z</time>
      </trkpt>
      <trkpt lat="43.36229" lon="-6.38047">
        <ele>750.6</ele>
        <time>2016-07-08T08:11:40Z</time>
      </trkpt>
      <trkpt lat="43.36225" lon="-6.38059">
        <ele>750</ele>
        <time>2016-07-08T08:11:52Z</time>
      </trkpt>
      <trkpt lat="43.36222" lon="-6.38071">
        <ele>750.4</ele>
        <time>2016-07-08T08:12:02Z</time>
      </trkpt>
      <trkpt lat="43.36223" lon="-6.38084">
        <ele>750.1</ele>
        <time>2016-07-08T08:12:11Z</time>
      </trkpt>
      <trkpt lat="43.36223" lon="-6.38098">
        <ele>750.8</ele>
        <time>2016-07-08T08:12:21Z</time>
      </trkpt>
      <trkpt lat="43.36219" lon="-6.38111">
        <ele>751.1</ele>
        <time>2016-07-08T08:12:31Z</time>
      </trkpt>
      <trkpt lat="43.36217" lon="-6.38124">
        <ele>751</ele>
        <time>2016-07-08T08:12:39Z</time>
      </trkpt>
      <trkpt lat="43.36214" lon="-6.38135">
        <ele>751.1</ele>
        <time>2016-07-08T08:12:46Z</time>
      </trkpt>
      <trkpt lat="43.36209" lon="-6.38147">
        <ele>751.7</ele>
        <time>2016-07-08T08:12:54Z</time>
      </trkpt>
      <trkpt lat="43.36202" lon="-6.38157">
        <ele>751.3</ele>
        <time>2016-07-08T08:13:03Z</time>
      </trkpt>
      <trkpt lat="43.36197" lon="-6.38168">
        <ele>751.2</ele>
        <time>2016-07-08T08:13:14Z</time>
      </trkpt>
      <trkpt lat="43.36193" lon="-6.3818">
        <ele>751.2</ele>
        <time>2016-07-08T08:13:24Z</time>
      </trkpt>
      <trkpt lat="43.36188" lon="-6.38191">
        <ele>751.2</ele>
        <time>2016-07-08T08:13:33Z</time>
      </trkpt>
      <trkpt lat="43.36184" lon="-6.38203">
        <ele>751.2</ele>
        <time>2016-07-08T08:13:41Z</time>
      </trkpt>
      <trkpt lat="43.36179" lon="-6.38214">
        <ele>751.2</ele>
        <time>2016-07-08T08:13:49Z</time>
      </trkpt>
      <trkpt lat="43.36174" lon="-6.38225">
        <ele>751.3</ele>
        <time>2016-07-08T08:13:57Z</time>
      </trkpt>
      <trkpt lat="43.36169" lon="-6.38236">
        <ele>751.5</ele>
        <time>2016-07-08T08:14:06Z</time>
      </trkpt>
      <trkpt lat="43.36167" lon="-6.38249">
        <ele>751.3</ele>
        <time>2016-07-08T08:14:15Z</time>
      </trkpt>
      <trkpt lat="43.36164" lon="-6.38261">
        <ele>751.5</ele>
        <time>2016-07-08T08:14:24Z</time>
      </trkpt>
      <trkpt lat="43.3616" lon="-6.38273">
        <ele>751.9</ele>
        <time>2016-07-08T08:14:33Z</time>
      </trkpt>
      <trkpt lat="43.36156" lon="-6.38285">
        <ele>752.3</ele>
        <time>2016-07-08T08:14:43Z</time>
      </trkpt>
      <trkpt lat="43.36151" lon="-6.38295">
        <ele>752.8</ele>
        <time>2016-07-08T08:14:51Z</time>
      </trkpt>
      <trkpt lat="43.36144" lon="-6.38305">
        <ele>752.6</ele>
        <time>2016-07-08T08:15:00Z</time>
      </trkpt>
      <trkpt lat="43.36139" lon="-6.38317">
        <ele>752.3</ele>
        <time>2016-07-08T08:15:08Z</time>
      </trkpt>
      <trkpt lat="43.36135" lon="-6.38328">
        <ele>752.2</ele>
        <time>2016-07-08T08:15:18Z</time>
      </trkpt>
      <trkpt lat="43.36131" lon="-6.3834">
        <ele>751.8</ele>
        <time>2016-07-08T08:15:26Z</time>
      </trkpt>
      <trkpt lat="43.36125" lon="-6.38349">
        <ele>751.8</ele>
        <time>2016-07-08T08:15:35Z</time>
      </trkpt>
      <trkpt lat="43.36118" lon="-6.38359">
        <ele>751.7</ele>
        <time>2016-07-08T08:15:44Z</time>
      </trkpt>
      <trkpt lat="43.36112" lon="-6.38369">
        <ele>750.9</ele>
        <time>2016-07-08T08:15:52Z</time>
      </trkpt>
      <trkpt lat="43.36107" lon="-6.3838">
        <ele>750.3</ele>
        <time>2016-07-08T08:15:59Z</time>
      </trkpt>
      <trkpt lat="43.36103" lon="-6.38392">
        <ele>749.8</ele>
        <time>2016-07-08T08:16:07Z</time>
      </trkpt>
      <trkpt lat="43.36097" lon="-6.38403">
        <ele>749.4</ele>
        <time>2016-07-08T08:16:15Z</time>
      </trkpt>
      <trkpt lat="43.36089" lon="-6.38411">
        <ele>748.4</ele>
        <time>2016-07-08T08:16:22Z</time>
      </trkpt>
      <trkpt lat="43.3608" lon="-6.38417">
        <ele>747.3</ele>
        <time>2016-07-08T08:16:31Z</time>
      </trkpt>
      <trkpt lat="43.36072" lon="-6.38423">
        <ele>746.6</ele>
        <time>2016-07-08T08:16:41Z</time>
      </trkpt>
      <trkpt lat="43.36064" lon="-6.38431">
        <ele>746.1</ele>
        <time>2016-07-08T08:16:50Z</time>
      </trkpt>
      <trkpt lat="43.36056" lon="-6.38439">
        <ele>745.2</ele>
        <time>2016-07-08T08:16:59Z</time>
      </trkpt>
      <trkpt lat="43.36048" lon="-6.38444">
        <ele>744.6</ele>
        <time>2016-07-08T08:17:07Z</time>
      </trkpt>
      <trkpt lat="43.36039" lon="-6.38448">
        <ele>744.4</ele>
        <time>2016-07-08T08:17:15Z</time>
      </trkpt>
      <trkpt lat="43.3603" lon="-6.38454">
        <ele>744.2</ele>
        <time>2016-07-08T08:17:23Z</time>
      </trkpt>
      <trkpt lat="43.36022" lon="-6.38459">
        <ele>744</ele>
        <time>2016-07-08T08:17:31Z</time>
      </trkpt>
      <trkpt lat="43.36014" lon="-6.38464">
        <ele>743.5</ele>
        <time>2016-07-08T08:17:41Z</time>
      </trkpt>
      <trkpt lat="43.36005" lon="-6.3847">
        <ele>742.6</ele>
        <time>2016-07-08T08:17:49Z</time>
      </trkpt>
      <trkpt lat="43.35997" lon="-6.38477">
        <ele>741.8</ele>
        <time>2016-07-08T08:17:58Z</time>
      </trkpt>
      <trkpt lat="43.35988" lon="-6.38482">
        <ele>741.2</ele>
        <time>2016-07-08T08:18:06Z</time>
      </trkpt>
      <trkpt lat="43.35979" lon="-6.38486">
        <ele>740.5</ele>
        <time>2016-07-08T08:18:13Z</time>
      </trkpt>
      <trkpt lat="43.3597" lon="-6.38492">
        <ele>739.8</ele>
        <time>2016-07-08T08:18:21Z</time>
      </trkpt>
      <trkpt lat="43.35962" lon="-6.38498">
        <ele>739.4</ele>
        <time>2016-07-08T08:18:28Z</time>
      </trkpt>
      <trkpt lat="43.35954" lon="-6.38506">
        <ele>738.4</ele>
        <time>2016-07-08T08:18:37Z</time>
      </trkpt>
      <trkpt lat="43.35947" lon="-6.38515">
        <ele>738.1</ele>
        <time>2016-07-08T08:18:44Z</time>
      </trkpt>
      <trkpt lat="43.3594" lon="-6.38524">
        <ele>738.1</ele>
        <time>2016-07-08T08:18:55Z</time>
      </trkpt>
      <trkpt lat="43.35933" lon="-6.38532">
        <ele>738.1</ele>
        <time>2016-07-08T08:19:04Z</time>
      </trkpt>
      <trkpt lat="43.35925" lon="-6.38538">
        <ele>737.9</ele>
        <time>2016-07-08T08:19:12Z</time>
      </trkpt>
      <trkpt lat="43.35917" lon="-6.38544">
        <ele>737</ele>
        <time>2016-07-08T08:19:21Z</time>
      </trkpt>
      <trkpt lat="43.35907" lon="-6.38545">
        <ele>736.3</ele>
        <time>2016-07-08T08:19:28Z</time>
      </trkpt>
      <trkpt lat="43.35898" lon="-6.38551">
        <ele>735.8</ele>
        <time>2016-07-08T08:19:35Z</time>
      </trkpt>
      <trkpt lat="43.3589" lon="-6.38556">
        <ele>735.4</ele>
        <time>2016-07-08T08:19:42Z</time>
      </trkpt>
      <trkpt lat="43.35882" lon="-6.38562">
        <ele>735</ele>
        <time>2016-07-08T08:19:50Z</time>
      </trkpt>
      <trkpt lat="43.35876" lon="-6.38572">
        <ele>734.8</ele>
        <time>2016-07-08T08:19:58Z</time>
      </trkpt>
      <trkpt lat="43.35871" lon="-6.38582">
        <ele>734.6</ele>
        <time>2016-07-08T08:20:05Z</time>
      </trkpt>
      <trkpt lat="43.35866" lon="-6.38593">
        <ele>734.4</ele>
        <time>2016-07-08T08:20:13Z</time>
      </trkpt>
      <trkpt lat="43.35864" lon="-6.38605">
        <ele>734.2</ele>
        <time>2016-07-08T08:20:21Z</time>
      </trkpt>
      <trkpt lat="43.35864" lon="-6.38618">
        <ele>734.5</ele>
        <time>2016-07-08T08:20:32Z</time>
      </trkpt>
      <trkpt lat="43.35864" lon="-6.38631">
        <ele>734.4</ele>
        <time>2016-07-08T08:20:40Z</time>
      </trkpt>
      <trkpt lat="43.35865" lon="-6.38645">
        <ele>734.7</ele>
        <time>2016-07-08T08:20:48Z</time>
      </trkpt>
      <trkpt lat="43.35865" lon="-6.38657">
        <ele>734.5</ele>
        <time>2016-07-08T08:20:55Z</time>
      </trkpt>
      <trkpt lat="43.35863" lon="-6.3867">
        <ele>734.3</ele>
        <time>2016-07-08T08:21:03Z</time>
      </trkpt>
      <trkpt lat="43.35858" lon="-6.38681">
        <ele>734.1</ele>
        <time>2016-07-08T08:21:11Z</time>
      </trkpt>
      <trkpt lat="43.3585" lon="-6.3869">
        <ele>733.3</ele>
        <time>2016-07-08T08:21:20Z</time>
      </trkpt>
      <trkpt lat="43.35847" lon="-6.38703">
        <ele>732</ele>
        <time>2016-07-08T08:21:29Z</time>
      </trkpt>
      <trkpt lat="43.35846" lon="-6.38715">
        <ele>730.6</ele>
        <time>2016-07-08T08:21:38Z</time>
      </trkpt>
      <trkpt lat="43.35845" lon="-6.38728">
        <ele>729.7</ele>
        <time>2016-07-08T08:21:45Z</time>
      </trkpt>
      <trkpt lat="43.35843" lon="-6.38741">
        <ele>728.3</ele>
        <time>2016-07-08T08:21:53Z</time>
      </trkpt>
      <trkpt lat="43.35839" lon="-6.38753">
        <ele>726.8</ele>
        <time>2016-07-08T08:22:02Z</time>
      </trkpt>
      <trkpt lat="43.35832" lon="-6.38762">
        <ele>725.6</ele>
        <time>2016-07-08T08:22:11Z</time>
      </trkpt>
      <trkpt lat="43.35824" lon="-6.3877">
        <ele>724.8</ele>
        <time>2016-07-08T08:22:20Z</time>
      </trkpt>
      <trkpt lat="43.35816" lon="-6.38778">
        <ele>724.3</ele>
        <time>2016-07-08T08:22:27Z</time>
      </trkpt>
      <trkpt lat="43.35808" lon="-6.38785">
        <ele>723.6</ele>
        <time>2016-07-08T08:22:35Z</time>
      </trkpt>
      <trkpt lat="43.358" lon="-6.38793">
        <ele>722.7</ele>
        <time>2016-07-08T08:22:43Z</time>
      </trkpt>
      <trkpt lat="43.35792" lon="-6.388">
        <ele>722.2</ele>
        <time>2016-07-08T08:22:51Z</time>
      </trkpt>
      <trkpt lat="43.35784" lon="-6.38809">
        <ele>721.8</ele>
        <time>2016-07-08T08:22:59Z</time>
      </trkpt>
      <trkpt lat="43.35777" lon="-6.38817">
        <ele>721.2</ele>
        <time>2016-07-08T08:23:08Z</time>
      </trkpt>
      <trkpt lat="43.35768" lon="-6.38823">
        <ele>720.6</ele>
        <time>2016-07-08T08:23:19Z</time>
      </trkpt>
      <trkpt lat="43.3576" lon="-6.38828">
        <ele>720.8</ele>
        <time>2016-07-08T08:23:30Z</time>
      </trkpt>
      <trkpt lat="43.35752" lon="-6.38836">
        <ele>721.3</ele>
        <time>2016-07-08T08:23:39Z</time>
      </trkpt>
      <trkpt lat="43.35745" lon="-6.38845">
        <ele>722.1</ele>
        <time>2016-07-08T08:23:47Z</time>
      </trkpt>
      <trkpt lat="43.3574" lon="-6.38857">
        <ele>722.6</ele>
        <time>2016-07-08T08:23:57Z</time>
      </trkpt>
      <trkpt lat="43.35736" lon="-6.38868">
        <ele>722.9</ele>
        <time>2016-07-08T08:24:05Z</time>
      </trkpt>
      <trkpt lat="43.35732" lon="-6.3888">
        <ele>723.2</ele>
        <time>2016-07-08T08:24:13Z</time>
      </trkpt>
      <trkpt lat="43.3573" lon="-6.38892">
        <ele>724.1</ele>
        <time>2016-07-08T08:24:22Z</time>
      </trkpt>
      <trkpt lat="43.35729" lon="-6.38905">
        <ele>725.3</ele>
        <time>2016-07-08T08:24:31Z</time>
      </trkpt>
      <trkpt lat="43.35727" lon="-6.38917">
        <ele>726.5</ele>
        <time>2016-07-08T08:24:40Z</time>
      </trkpt>
      <trkpt lat="43.35722" lon="-6.38929">
        <ele>727</ele>
        <time>2016-07-08T08:24:49Z</time>
      </trkpt>
      <trkpt lat="43.35715" lon="-6.38939">
        <ele>727.5</ele>
        <time>2016-07-08T08:24:58Z</time>
      </trkpt>
      <trkpt lat="43.35709" lon="-6.38949">
        <ele>728.5</ele>
        <time>2016-07-08T08:25:14Z</time>
      </trkpt>
      <trkpt lat="43.35702" lon="-6.38958">
        <ele>728.5</ele>
        <time>2016-07-08T08:25:23Z</time>
      </trkpt>
      <trkpt lat="43.35695" lon="-6.38967">
        <ele>728.7</ele>
        <time>2016-07-08T08:25:31Z</time>
      </trkpt>
      <trkpt lat="43.35687" lon="-6.38974">
        <ele>728.9</ele>
        <time>2016-07-08T08:25:39Z</time>
      </trkpt>
      <trkpt lat="43.35679" lon="-6.38981">
        <ele>728.8</ele>
        <time>2016-07-08T08:25:48Z</time>
      </trkpt>
      <trkpt lat="43.35671" lon="-6.38989">
        <ele>728.7</ele>
        <time>2016-07-08T08:25:57Z</time>
      </trkpt>
      <trkpt lat="43.35663" lon="-6.38998">
        <ele>728.5</ele>
        <time>2016-07-08T08:26:05Z</time>
      </trkpt>
      <trkpt lat="43.35656" lon="-6.39007">
        <ele>728.4</ele>
        <time>2016-07-08T08:26:13Z</time>
      </trkpt>
      <trkpt lat="43.35647" lon="-6.39013">
        <ele>728.3</ele>
        <time>2016-07-08T08:26:23Z</time>
      </trkpt>
      <trkpt lat="43.35645" lon="-6.39025">
        <ele>727.5</ele>
        <time>2016-07-08T08:28:18Z</time>
      </trkpt>
      <trkpt lat="43.35636" lon="-6.39027">
        <ele>727.8</ele>
        <time>2016-07-08T08:32:25Z</time>
      </trkpt>
      <trkpt lat="43.35627" lon="-6.39035">
        <ele>727.3</ele>
        <time>2016-07-08T08:32:35Z</time>
      </trkpt>
      <trkpt lat="43.3562" lon="-6.39043">
        <ele>726.6</ele>
        <time>2016-07-08T08:32:44Z</time>
      </trkpt>
      <trkpt lat="43.35612" lon="-6.3905">
        <ele>726.3</ele>
        <time>2016-07-08T08:32:51Z</time>
      </trkpt>
      <trkpt lat="43.35604" lon="-6.39057">
        <ele>725.7</ele>
        <time>2016-07-08T08:33:01Z</time>
      </trkpt>
      <trkpt lat="43.35599" lon="-6.39068">
        <ele>724.8</ele>
        <time>2016-07-08T08:33:13Z</time>
      </trkpt>
      <trkpt lat="43.35591" lon="-6.39075">
        <ele>724.8</ele>
        <time>2016-07-08T08:33:22Z</time>
      </trkpt>
      <trkpt lat="43.35582" lon="-6.39082">
        <ele>724.7</ele>
        <time>2016-07-08T08:33:30Z</time>
      </trkpt>
      <trkpt lat="43.35573" lon="-6.39086">
        <ele>724.2</ele>
        <time>2016-07-08T08:33:44Z</time>
      </trkpt>
      <trkpt lat="43.35565" lon="-6.39091">
        <ele>724.1</ele>
        <time>2016-07-08T08:33:55Z</time>
      </trkpt>
      <trkpt lat="43.35555" lon="-6.39095">
        <ele>724.6</ele>
        <time>2016-07-08T08:34:08Z</time>
      </trkpt>
      <trkpt lat="43.35546" lon="-6.39095">
        <ele>724.8</ele>
        <time>2016-07-08T08:34:18Z</time>
      </trkpt>
      <trkpt lat="43.35536" lon="-6.39093">
        <ele>725.2</ele>
        <time>2016-07-08T08:34:27Z</time>
      </trkpt>
      <trkpt lat="43.35527" lon="-6.39093">
        <ele>725.4</ele>
        <time>2016-07-08T08:34:36Z</time>
      </trkpt>
      <trkpt lat="43.35518" lon="-6.3909">
        <ele>725.8</ele>
        <time>2016-07-08T08:34:45Z</time>
      </trkpt>
      <trkpt lat="43.35509" lon="-6.39086">
        <ele>726.3</ele>
        <time>2016-07-08T08:34:54Z</time>
      </trkpt>
      <trkpt lat="43.355" lon="-6.39084">
        <ele>726.7</ele>
        <time>2016-07-08T08:35:02Z</time>
      </trkpt>
      <trkpt lat="43.3549" lon="-6.39085">
        <ele>726.9</ele>
        <time>2016-07-08T08:35:11Z</time>
      </trkpt>
      <trkpt lat="43.35481" lon="-6.39087">
        <ele>726.5</ele>
        <time>2016-07-08T08:35:20Z</time>
      </trkpt>
      <trkpt lat="43.35471" lon="-6.39089">
        <ele>726.5</ele>
        <time>2016-07-08T08:35:28Z</time>
      </trkpt>
      <trkpt lat="43.35462" lon="-6.3909">
        <ele>726.5</ele>
        <time>2016-07-08T08:35:36Z</time>
      </trkpt>
      <trkpt lat="43.35452" lon="-6.39093">
        <ele>727.1</ele>
        <time>2016-07-08T08:35:45Z</time>
      </trkpt>
      <trkpt lat="43.35442" lon="-6.39095">
        <ele>727.1</ele>
        <time>2016-07-08T08:35:55Z</time>
      </trkpt>
      <trkpt lat="43.35433" lon="-6.39098">
        <ele>727.2</ele>
        <time>2016-07-08T08:36:04Z</time>
      </trkpt>
      <trkpt lat="43.35424" lon="-6.391">
        <ele>727.6</ele>
        <time>2016-07-08T08:36:12Z</time>
      </trkpt>
      <trkpt lat="43.35414" lon="-6.39104">
        <ele>727.8</ele>
        <time>2016-07-08T08:36:20Z</time>
      </trkpt>
      <trkpt lat="43.35405" lon="-6.39106">
        <ele>728</ele>
        <time>2016-07-08T08:36:28Z</time>
      </trkpt>
      <trkpt lat="43.35396" lon="-6.3911">
        <ele>728.1</ele>
        <time>2016-07-08T08:36:36Z</time>
      </trkpt>
      <trkpt lat="43.35387" lon="-6.39115">
        <ele>727.9</ele>
        <time>2016-07-08T08:36:45Z</time>
      </trkpt>
      <trkpt lat="43.35379" lon="-6.3912">
        <ele>727.4</ele>
        <time>2016-07-08T08:36:53Z</time>
      </trkpt>
      <trkpt lat="43.35371" lon="-6.39127">
        <ele>726.7</ele>
        <time>2016-07-08T08:37:01Z</time>
      </trkpt>
      <trkpt lat="43.35364" lon="-6.39134">
        <ele>726.2</ele>
        <time>2016-07-08T08:37:10Z</time>
      </trkpt>
      <trkpt lat="43.35357" lon="-6.39142">
        <ele>725.4</ele>
        <time>2016-07-08T08:37:22Z</time>
      </trkpt>
      <trkpt lat="43.35349" lon="-6.3915">
        <ele>724.1</ele>
        <time>2016-07-08T08:37:32Z</time>
      </trkpt>
      <trkpt lat="43.3534" lon="-6.39157">
        <ele>722.9</ele>
        <time>2016-07-08T08:37:41Z</time>
      </trkpt>
      <trkpt lat="43.35332" lon="-6.39164">
        <ele>722.1</ele>
        <time>2016-07-08T08:37:49Z</time>
      </trkpt>
      <trkpt lat="43.35324" lon="-6.39172">
        <ele>721.3</ele>
        <time>2016-07-08T08:37:58Z</time>
      </trkpt>
      <trkpt lat="43.35316" lon="-6.39179">
        <ele>720.8</ele>
        <time>2016-07-08T08:38:06Z</time>
      </trkpt>
      <trkpt lat="43.35308" lon="-6.39186">
        <ele>720</ele>
        <time>2016-07-08T08:38:14Z</time>
      </trkpt>
      <trkpt lat="43.35299" lon="-6.39193">
        <ele>718.9</ele>
        <time>2016-07-08T08:38:23Z</time>
      </trkpt>
      <trkpt lat="43.3529" lon="-6.39199">
        <ele>718</ele>
        <time>2016-07-08T08:38:31Z</time>
      </trkpt>
      <trkpt lat="43.35281" lon="-6.39203">
        <ele>717.5</ele>
        <time>2016-07-08T08:38:38Z</time>
      </trkpt>
      <trkpt lat="43.35272" lon="-6.39209">
        <ele>716.6</ele>
        <time>2016-07-08T08:38:47Z</time>
      </trkpt>
      <trkpt lat="43.35264" lon="-6.39216">
        <ele>716.3</ele>
        <time>2016-07-08T08:38:54Z</time>
      </trkpt>
      <trkpt lat="43.35256" lon="-6.39222">
        <ele>716.1</ele>
        <time>2016-07-08T08:39:01Z</time>
      </trkpt>
      <trkpt lat="43.35248" lon="-6.39227">
        <ele>715.8</ele>
        <time>2016-07-08T08:39:08Z</time>
      </trkpt>
      <trkpt lat="43.3524" lon="-6.39235">
        <ele>715</ele>
        <time>2016-07-08T08:39:15Z</time>
      </trkpt>
      <trkpt lat="43.35232" lon="-6.39242">
        <ele>714</ele>
        <time>2016-07-08T08:39:22Z</time>
      </trkpt>
      <trkpt lat="43.35226" lon="-6.39252">
        <ele>713.1</ele>
        <time>2016-07-08T08:39:30Z</time>
      </trkpt>
      <trkpt lat="43.3522" lon="-6.39262">
        <ele>712.1</ele>
        <time>2016-07-08T08:39:38Z</time>
      </trkpt>
      <trkpt lat="43.35217" lon="-6.39274">
        <ele>710.9</ele>
        <time>2016-07-08T08:39:46Z</time>
      </trkpt>
      <trkpt lat="43.35214" lon="-6.39287">
        <ele>709.6</ele>
        <time>2016-07-08T08:39:54Z</time>
      </trkpt>
      <trkpt lat="43.35208" lon="-6.39298">
        <ele>708.9</ele>
        <time>2016-07-08T08:40:02Z</time>
      </trkpt>
      <trkpt lat="43.35201" lon="-6.39307">
        <ele>708.4</ele>
        <time>2016-07-08T08:40:10Z</time>
      </trkpt>
      <trkpt lat="43.35193" lon="-6.39313">
        <ele>708.2</ele>
        <time>2016-07-08T08:40:19Z</time>
      </trkpt>
      <trkpt lat="43.35185" lon="-6.39319">
        <ele>708.2</ele>
        <time>2016-07-08T08:40:27Z</time>
      </trkpt>
      <trkpt lat="43.35176" lon="-6.39323">
        <ele>708.2</ele>
        <time>2016-07-08T08:40:37Z</time>
      </trkpt>
      <trkpt lat="43.35167" lon="-6.39329">
        <ele>708.3</ele>
        <time>2016-07-08T08:40:46Z</time>
      </trkpt>
      <trkpt lat="43.35158" lon="-6.39334">
        <ele>708.4</ele>
        <time>2016-07-08T08:40:53Z</time>
      </trkpt>
      <trkpt lat="43.35149" lon="-6.39337">
        <ele>708.7</ele>
        <time>2016-07-08T08:41:03Z</time>
      </trkpt>
      <trkpt lat="43.3514" lon="-6.39341">
        <ele>709.2</ele>
        <time>2016-07-08T08:41:11Z</time>
      </trkpt>
      <trkpt lat="43.35131" lon="-6.39345">
        <ele>710</ele>
        <time>2016-07-08T08:41:19Z</time>
      </trkpt>
      <trkpt lat="43.35122" lon="-6.39346">
        <ele>710.4</ele>
        <time>2016-07-08T08:41:26Z</time>
      </trkpt>
      <trkpt lat="43.35112" lon="-6.39345">
        <ele>710.7</ele>
        <time>2016-07-08T08:41:35Z</time>
      </trkpt>
      <trkpt lat="43.35103" lon="-6.39344">
        <ele>711.3</ele>
        <time>2016-07-08T08:41:44Z</time>
      </trkpt>
      <trkpt lat="43.35094" lon="-6.39344">
        <ele>711.7</ele>
        <time>2016-07-08T08:41:53Z</time>
      </trkpt>
      <trkpt lat="43.35085" lon="-6.39345">
        <ele>712.5</ele>
        <time>2016-07-08T08:42:03Z</time>
      </trkpt>
      <trkpt lat="43.35076" lon="-6.39339">
        <ele>712.7</ele>
        <time>2016-07-08T08:42:12Z</time>
      </trkpt>
      <trkpt lat="43.35068" lon="-6.39331">
        <ele>712.3</ele>
        <time>2016-07-08T08:42:20Z</time>
      </trkpt>
      <trkpt lat="43.35061" lon="-6.39322">
        <ele>711.7</ele>
        <time>2016-07-08T08:42:28Z</time>
      </trkpt>
      <trkpt lat="43.35054" lon="-6.39312">
        <ele>711</ele>
        <time>2016-07-08T08:42:36Z</time>
      </trkpt>
      <trkpt lat="43.35048" lon="-6.39322">
        <ele>709.9</ele>
        <time>2016-07-08T08:42:48Z</time>
      </trkpt>
      <trkpt lat="43.35048" lon="-6.39335">
        <ele>709.2</ele>
        <time>2016-07-08T08:42:58Z</time>
      </trkpt>
      <trkpt lat="43.35049" lon="-6.39349">
        <ele>708.7</ele>
        <time>2016-07-08T08:43:08Z</time>
      </trkpt>
      <trkpt lat="43.35052" lon="-6.39361">
        <ele>708.1</ele>
        <time>2016-07-08T08:43:17Z</time>
      </trkpt>
      <trkpt lat="43.35059" lon="-6.39371">
        <ele>707.3</ele>
        <time>2016-07-08T08:43:27Z</time>
      </trkpt>
      <trkpt lat="43.35068" lon="-6.39379">
        <ele>706.4</ele>
        <time>2016-07-08T08:43:37Z</time>
      </trkpt>
      <trkpt lat="43.35075" lon="-6.39387">
        <ele>705.5</ele>
        <time>2016-07-08T08:43:46Z</time>
      </trkpt>
      <trkpt lat="43.35082" lon="-6.39396">
        <ele>705</ele>
        <time>2016-07-08T08:43:54Z</time>
      </trkpt>
      <trkpt lat="43.35086" lon="-6.39407">
        <ele>704.6</ele>
        <time>2016-07-08T08:44:02Z</time>
      </trkpt>
      <trkpt lat="43.3508" lon="-6.39417">
        <ele>704.4</ele>
        <time>2016-07-08T08:44:10Z</time>
      </trkpt>
      <trkpt lat="43.35071" lon="-6.39423">
        <ele>704.2</ele>
        <time>2016-07-08T08:44:18Z</time>
      </trkpt>
      <trkpt lat="43.35062" lon="-6.39425">
        <ele>704.2</ele>
        <time>2016-07-08T08:44:26Z</time>
      </trkpt>
      <trkpt lat="43.35052" lon="-6.39427">
        <ele>704.5</ele>
        <time>2016-07-08T08:44:34Z</time>
      </trkpt>
      <trkpt lat="43.35043" lon="-6.39431">
        <ele>705.3</ele>
        <time>2016-07-08T08:44:43Z</time>
      </trkpt>
      <trkpt lat="43.35038" lon="-6.39442">
        <ele>706.2</ele>
        <time>2016-07-08T08:44:53Z</time>
      </trkpt>
      <trkpt lat="43.35036" lon="-6.39455">
        <ele>707.2</ele>
        <time>2016-07-08T08:45:02Z</time>
      </trkpt>
      <trkpt lat="43.35038" lon="-6.39468">
        <ele>708.3</ele>
        <time>2016-07-08T08:45:12Z</time>
      </trkpt>
      <trkpt lat="43.3504" lon="-6.39481">
        <ele>709.3</ele>
        <time>2016-07-08T08:45:22Z</time>
      </trkpt>
      <trkpt lat="43.35042" lon="-6.39494">
        <ele>710.5</ele>
        <time>2016-07-08T08:45:45Z</time>
      </trkpt>
      <trkpt lat="43.35045" lon="-6.39506">
        <ele>711</ele>
        <time>2016-07-08T08:45:54Z</time>
      </trkpt>
      <trkpt lat="43.35048" lon="-6.39519">
        <ele>711.8</ele>
        <time>2016-07-08T08:46:05Z</time>
      </trkpt>
      <trkpt lat="43.35051" lon="-6.39531">
        <ele>712.2</ele>
        <time>2016-07-08T08:46:14Z</time>
      </trkpt>
      <trkpt lat="43.35054" lon="-6.39544">
        <ele>712.6</ele>
        <time>2016-07-08T08:46:24Z</time>
      </trkpt>
      <trkpt lat="43.35056" lon="-6.39557">
        <ele>713.2</ele>
        <time>2016-07-08T08:46:33Z</time>
      </trkpt>
      <trkpt lat="43.3506" lon="-6.39569">
        <ele>713.9</ele>
        <time>2016-07-08T08:46:42Z</time>
      </trkpt>
      <trkpt lat="43.35063" lon="-6.39581">
        <ele>714.9</ele>
        <time>2016-07-08T08:46:52Z</time>
      </trkpt>
      <trkpt lat="43.35067" lon="-6.39593">
        <ele>716.2</ele>
        <time>2016-07-08T08:47:01Z</time>
      </trkpt>
      <trkpt lat="43.35072" lon="-6.39605">
        <ele>717.1</ele>
        <time>2016-07-08T08:47:10Z</time>
      </trkpt>
      <trkpt lat="43.35075" lon="-6.39617">
        <ele>717.7</ele>
        <time>2016-07-08T08:47:18Z</time>
      </trkpt>
      <trkpt lat="43.35079" lon="-6.39629">
        <ele>718.6</ele>
        <time>2016-07-08T08:47:28Z</time>
      </trkpt>
      <trkpt lat="43.35084" lon="-6.3964">
        <ele>719.7</ele>
        <time>2016-07-08T08:47:37Z</time>
      </trkpt>
      <trkpt lat="43.35087" lon="-6.39651">
        <ele>720.8</ele>
        <time>2016-07-08T08:47:45Z</time>
      </trkpt>
      <trkpt lat="43.35091" lon="-6.39663">
        <ele>721.5</ele>
        <time>2016-07-08T08:47:53Z</time>
      </trkpt>
      <trkpt lat="43.35095" lon="-6.39675">
        <ele>722.1</ele>
        <time>2016-07-08T08:48:02Z</time>
      </trkpt>
      <trkpt lat="43.351" lon="-6.39685">
        <ele>722.8</ele>
        <time>2016-07-08T08:48:18Z</time>
      </trkpt>
      <trkpt lat="43.35105" lon="-6.39696">
        <ele>723.4</ele>
        <time>2016-07-08T08:48:27Z</time>
      </trkpt>
      <trkpt lat="43.35109" lon="-6.39708">
        <ele>723.9</ele>
        <time>2016-07-08T08:48:35Z</time>
      </trkpt>
      <trkpt lat="43.35113" lon="-6.3972">
        <ele>724.2</ele>
        <time>2016-07-08T08:48:42Z</time>
      </trkpt>
      <trkpt lat="43.35115" lon="-6.39732">
        <ele>724.8</ele>
        <time>2016-07-08T08:48:52Z</time>
      </trkpt>
      <trkpt lat="43.35116" lon="-6.39745">
        <ele>725.5</ele>
        <time>2016-07-08T08:49:03Z</time>
      </trkpt>
      <trkpt lat="43.35117" lon="-6.39759">
        <ele>726.1</ele>
        <time>2016-07-08T08:49:13Z</time>
      </trkpt>
      <trkpt lat="43.35117" lon="-6.39772">
        <ele>726.8</ele>
        <time>2016-07-08T08:49:23Z</time>
      </trkpt>
      <trkpt lat="43.35117" lon="-6.39784">
        <ele>727.1</ele>
        <time>2016-07-08T08:49:33Z</time>
      </trkpt>
      <trkpt lat="43.35116" lon="-6.39797">
        <ele>727.3</ele>
        <time>2016-07-08T08:49:42Z</time>
      </trkpt>
      <trkpt lat="43.35116" lon="-6.39811">
        <ele>727.4</ele>
        <time>2016-07-08T08:49:50Z</time>
      </trkpt>
      <trkpt lat="43.35116" lon="-6.39824">
        <ele>728</ele>
        <time>2016-07-08T08:50:01Z</time>
      </trkpt>
      <trkpt lat="43.35114" lon="-6.39836">
        <ele>729</ele>
        <time>2016-07-08T08:50:10Z</time>
      </trkpt>
      <trkpt lat="43.35115" lon="-6.39849">
        <ele>729.9</ele>
        <time>2016-07-08T08:50:18Z</time>
      </trkpt>
      <trkpt lat="43.35119" lon="-6.39862">
        <ele>730.4</ele>
        <time>2016-07-08T08:50:26Z</time>
      </trkpt>
      <trkpt lat="43.35126" lon="-6.39873">
        <ele>731</ele>
        <time>2016-07-08T08:50:34Z</time>
      </trkpt>
      <trkpt lat="43.35131" lon="-6.39884">
        <ele>731.3</ele>
        <time>2016-07-08T08:50:44Z</time>
      </trkpt>
      <trkpt lat="43.35138" lon="-6.39892">
        <ele>731.7</ele>
        <time>2016-07-08T08:50:52Z</time>
      </trkpt>
      <trkpt lat="43.35147" lon="-6.39898">
        <ele>731.9</ele>
        <time>2016-07-08T08:51:00Z</time>
      </trkpt>
      <trkpt lat="43.35155" lon="-6.39905">
        <ele>731.5</ele>
        <time>2016-07-08T08:51:08Z</time>
      </trkpt>
      <trkpt lat="43.35159" lon="-6.39917">
        <ele>731.4</ele>
        <time>2016-07-08T08:51:16Z</time>
      </trkpt>
      <trkpt lat="43.3516" lon="-6.39931">
        <ele>732.2</ele>
        <time>2016-07-08T08:51:25Z</time>
      </trkpt>
      <trkpt lat="43.3516" lon="-6.39945">
        <ele>732.5</ele>
        <time>2016-07-08T08:51:35Z</time>
      </trkpt>
      <trkpt lat="43.35155" lon="-6.39955">
        <ele>732.7</ele>
        <time>2016-07-08T08:51:47Z</time>
      </trkpt>
      <trkpt lat="43.35147" lon="-6.39964">
        <ele>733.3</ele>
        <time>2016-07-08T08:51:56Z</time>
      </trkpt>
      <trkpt lat="43.35141" lon="-6.39975">
        <ele>733.3</ele>
        <time>2016-07-08T08:52:08Z</time>
      </trkpt>
      <trkpt lat="43.35134" lon="-6.39981">
        <ele>734.3</ele>
        <time>2016-07-08T08:52:20Z</time>
      </trkpt>
      <trkpt lat="43.35125" lon="-6.39985">
        <ele>735.6</ele>
        <time>2016-07-08T08:52:31Z</time>
      </trkpt>
      <trkpt lat="43.35116" lon="-6.3999">
        <ele>737.1</ele>
        <time>2016-07-08T08:52:40Z</time>
      </trkpt>
      <trkpt lat="43.35108" lon="-6.39996">
        <ele>739</ele>
        <time>2016-07-08T08:52:49Z</time>
      </trkpt>
      <trkpt lat="43.351" lon="-6.40004">
        <ele>740.5</ele>
        <time>2016-07-08T08:52:59Z</time>
      </trkpt>
      <trkpt lat="43.35094" lon="-6.40014">
        <ele>741.6</ele>
        <time>2016-07-08T08:53:08Z</time>
      </trkpt>
      <trkpt lat="43.35088" lon="-6.40025">
        <ele>743</ele>
        <time>2016-07-08T08:53:18Z</time>
      </trkpt>
      <trkpt lat="43.35082" lon="-6.40035">
        <ele>744.1</ele>
        <time>2016-07-08T08:53:30Z</time>
      </trkpt>
      <trkpt lat="43.35078" lon="-6.40047">
        <ele>744.8</ele>
        <time>2016-07-08T08:53:39Z</time>
      </trkpt>
      <trkpt lat="43.35073" lon="-6.40057">
        <ele>746</ele>
        <time>2016-07-08T08:53:49Z</time>
      </trkpt>
      <trkpt lat="43.35066" lon="-6.40067">
        <ele>746.8</ele>
        <time>2016-07-08T08:54:03Z</time>
      </trkpt>
      <trkpt lat="43.35062" lon="-6.40079">
        <ele>747.3</ele>
        <time>2016-07-08T08:54:14Z</time>
      </trkpt>
      <trkpt lat="43.35055" lon="-6.40087">
        <ele>747.8</ele>
        <time>2016-07-08T08:54:26Z</time>
      </trkpt>
      <trkpt lat="43.35047" lon="-6.40093">
        <ele>747.3</ele>
        <time>2016-07-08T08:54:51Z</time>
      </trkpt>
      <trkpt lat="43.35038" lon="-6.40098">
        <ele>746.7</ele>
        <time>2016-07-08T08:55:04Z</time>
      </trkpt>
      <trkpt lat="43.35029" lon="-6.40099">
        <ele>747</ele>
        <time>2016-07-08T08:55:20Z</time>
      </trkpt>
      <trkpt lat="43.3502" lon="-6.40097">
        <ele>747.4</ele>
        <time>2016-07-08T08:55:32Z</time>
      </trkpt>
      <trkpt lat="43.3501" lon="-6.40096">
        <ele>747.7</ele>
        <time>2016-07-08T08:55:45Z</time>
      </trkpt>
      <trkpt lat="43.35" lon="-6.40098">
        <ele>747.6</ele>
        <time>2016-07-08T08:55:54Z</time>
      </trkpt>
      <trkpt lat="43.34991" lon="-6.40096">
        <ele>747.5</ele>
        <time>2016-07-08T08:56:06Z</time>
      </trkpt>
      <trkpt lat="43.34982" lon="-6.40097">
        <ele>747.6</ele>
        <time>2016-07-08T08:56:15Z</time>
      </trkpt>
      <trkpt lat="43.34973" lon="-6.40098">
        <ele>747.7</ele>
        <time>2016-07-08T08:56:23Z</time>
      </trkpt>
      <trkpt lat="43.34963" lon="-6.401">
        <ele>747.9</ele>
        <time>2016-07-08T08:56:31Z</time>
      </trkpt>
      <trkpt lat="43.34954" lon="-6.40102">
        <ele>748.1</ele>
        <time>2016-07-08T08:56:39Z</time>
      </trkpt>
      <trkpt lat="43.34944" lon="-6.40104">
        <ele>748.2</ele>
        <time>2016-07-08T08:56:47Z</time>
      </trkpt>
      <trkpt lat="43.34935" lon="-6.40104">
        <ele>748.3</ele>
        <time>2016-07-08T08:56:55Z</time>
      </trkpt>
      <trkpt lat="43.34926" lon="-6.40105">
        <ele>747.6</ele>
        <time>2016-07-08T08:57:04Z</time>
      </trkpt>
      <trkpt lat="43.34916" lon="-6.40106">
        <ele>747.1</ele>
        <time>2016-07-08T08:57:12Z</time>
      </trkpt>
      <trkpt lat="43.34907" lon="-6.40109">
        <ele>746.5</ele>
        <time>2016-07-08T08:57:20Z</time>
      </trkpt>
      <trkpt lat="43.34897" lon="-6.40113">
        <ele>745.4</ele>
        <time>2016-07-08T08:57:29Z</time>
      </trkpt>
      <trkpt lat="43.34888" lon="-6.40117">
        <ele>745.5</ele>
        <time>2016-07-08T08:57:39Z</time>
      </trkpt>
      <trkpt lat="43.34879" lon="-6.40122">
        <ele>744.3</ele>
        <time>2016-07-08T08:57:50Z</time>
      </trkpt>
      <trkpt lat="43.3487" lon="-6.40125">
        <ele>743.1</ele>
        <time>2016-07-08T08:58:00Z</time>
      </trkpt>
      <trkpt lat="43.3486" lon="-6.40127">
        <ele>742.3</ele>
        <time>2016-07-08T08:58:08Z</time>
      </trkpt>
      <trkpt lat="43.34852" lon="-6.40123">
        <ele>741.8</ele>
        <time>2016-07-08T08:58:16Z</time>
      </trkpt>
      <trkpt lat="43.34843" lon="-6.40121">
        <ele>741.1</ele>
        <time>2016-07-08T08:58:24Z</time>
      </trkpt>
      <trkpt lat="43.34833" lon="-6.40119">
        <ele>740.5</ele>
        <time>2016-07-08T08:58:32Z</time>
      </trkpt>
      <trkpt lat="43.34823" lon="-6.40125">
        <ele>740.3</ele>
        <time>2016-07-08T08:58:41Z</time>
      </trkpt>
      <trkpt lat="43.34816" lon="-6.40132">
        <ele>739.5</ele>
        <time>2016-07-08T08:59:13Z</time>
      </trkpt>
      <trkpt lat="43.34809" lon="-6.4014">
        <ele>739.1</ele>
        <time>2016-07-08T08:59:23Z</time>
      </trkpt>
      <trkpt lat="43.348" lon="-6.40147">
        <ele>738.8</ele>
        <time>2016-07-08T08:59:34Z</time>
      </trkpt>
      <trkpt lat="43.34792" lon="-6.40151">
        <ele>737.8</ele>
        <time>2016-07-08T08:59:50Z</time>
      </trkpt>
      <trkpt lat="43.34783" lon="-6.40154">
        <ele>736.2</ele>
        <time>2016-07-08T09:00:03Z</time>
      </trkpt>
      <trkpt lat="43.34774" lon="-6.40159">
        <ele>735.8</ele>
        <time>2016-07-08T09:00:15Z</time>
      </trkpt>
      <trkpt lat="43.34766" lon="-6.40165">
        <ele>735.1</ele>
        <time>2016-07-08T09:00:43Z</time>
      </trkpt>
      <trkpt lat="43.34757" lon="-6.40169">
        <ele>735</ele>
        <time>2016-07-08T09:01:35Z</time>
      </trkpt>
      <trkpt lat="43.3475" lon="-6.40176">
        <ele>735</ele>
        <time>2016-07-08T09:01:54Z</time>
      </trkpt>
      <trkpt lat="43.34741" lon="-6.40181">
        <ele>734.7</ele>
        <time>2016-07-08T09:02:14Z</time>
      </trkpt>
      <trkpt lat="43.34733" lon="-6.40186">
        <ele>734.6</ele>
        <time>2016-07-08T09:02:29Z</time>
      </trkpt>
      <trkpt lat="43.34724" lon="-6.40191">
        <ele>734.6</ele>
        <time>2016-07-08T09:02:42Z</time>
      </trkpt>
      <trkpt lat="43.34716" lon="-6.40198">
        <ele>734.7</ele>
        <time>2016-07-08T09:02:53Z</time>
      </trkpt>
      <trkpt lat="43.34706" lon="-6.402">
        <ele>734.7</ele>
        <time>2016-07-08T09:03:01Z</time>
      </trkpt>
      <trkpt lat="43.34696" lon="-6.40199">
        <ele>734.6</ele>
        <time>2016-07-08T09:03:10Z</time>
      </trkpt>
      <trkpt lat="43.34687" lon="-6.40197">
        <ele>734.2</ele>
        <time>2016-07-08T09:03:19Z</time>
      </trkpt>
      <trkpt lat="43.34678" lon="-6.40194">
        <ele>733.8</ele>
        <time>2016-07-08T09:03:27Z</time>
      </trkpt>
      <trkpt lat="43.34669" lon="-6.40189">
        <ele>733.3</ele>
        <time>2016-07-08T09:03:35Z</time>
      </trkpt>
      <trkpt lat="43.3466" lon="-6.40184">
        <ele>732.4</ele>
        <time>2016-07-08T09:03:45Z</time>
      </trkpt>
      <trkpt lat="43.3465" lon="-6.40179">
        <ele>731.6</ele>
        <time>2016-07-08T09:03:55Z</time>
      </trkpt>
      <trkpt lat="43.3464" lon="-6.40177">
        <ele>730.8</ele>
        <time>2016-07-08T09:04:03Z</time>
      </trkpt>
      <trkpt lat="43.34631" lon="-6.40174">
        <ele>730.2</ele>
        <time>2016-07-08T09:04:10Z</time>
      </trkpt>
      <trkpt lat="43.34621" lon="-6.40174">
        <ele>729.3</ele>
        <time>2016-07-08T09:04:19Z</time>
      </trkpt>
      <trkpt lat="43.34612" lon="-6.40175">
        <ele>728</ele>
        <time>2016-07-08T09:04:30Z</time>
      </trkpt>
      <trkpt lat="43.34602" lon="-6.40174">
        <ele>726.7</ele>
        <time>2016-07-08T09:04:39Z</time>
      </trkpt>
      <trkpt lat="43.34592" lon="-6.40177">
        <ele>725.6</ele>
        <time>2016-07-08T09:04:48Z</time>
      </trkpt>
      <trkpt lat="43.34583" lon="-6.40181">
        <ele>724.6</ele>
        <time>2016-07-08T09:04:55Z</time>
      </trkpt>
      <trkpt lat="43.34573" lon="-6.40182">
        <ele>723.7</ele>
        <time>2016-07-08T09:05:03Z</time>
      </trkpt>
      <trkpt lat="43.34564" lon="-6.40182">
        <ele>723.2</ele>
        <time>2016-07-08T09:05:10Z</time>
      </trkpt>
      <trkpt lat="43.34555" lon="-6.40181">
        <ele>722.6</ele>
        <time>2016-07-08T09:05:17Z</time>
      </trkpt>
      <trkpt lat="43.34545" lon="-6.40176">
        <ele>722</ele>
        <time>2016-07-08T09:05:25Z</time>
      </trkpt>
      <trkpt lat="43.34538" lon="-6.40168">
        <ele>721.7</ele>
        <time>2016-07-08T09:05:33Z</time>
      </trkpt>
      <trkpt lat="43.34532" lon="-6.40158">
        <ele>721.4</ele>
        <time>2016-07-08T09:05:41Z</time>
      </trkpt>
      <trkpt lat="43.34529" lon="-6.40145">
        <ele>720.7</ele>
        <time>2016-07-08T09:05:50Z</time>
      </trkpt>
      <trkpt lat="43.34519" lon="-6.40141">
        <ele>720.2</ele>
        <time>2016-07-08T09:05:59Z</time>
      </trkpt>
      <trkpt lat="43.3451" lon="-6.40144">
        <ele>719.3</ele>
        <time>2016-07-08T09:06:08Z</time>
      </trkpt>
      <trkpt lat="43.34505" lon="-6.40155">
        <ele>717.8</ele>
        <time>2016-07-08T09:06:19Z</time>
      </trkpt>
      <trkpt lat="43.34504" lon="-6.40169">
        <ele>716.8</ele>
        <time>2016-07-08T09:06:29Z</time>
      </trkpt>
      <trkpt lat="43.34504" lon="-6.40182">
        <ele>715.8</ele>
        <time>2016-07-08T09:06:38Z</time>
      </trkpt>
      <trkpt lat="43.34503" lon="-6.40195">
        <ele>714.6</ele>
        <time>2016-07-08T09:06:50Z</time>
      </trkpt>
      <trkpt lat="43.345" lon="-6.40207">
        <ele>712.6</ele>
        <time>2016-07-08T09:07:02Z</time>
      </trkpt>
      <trkpt lat="43.34496" lon="-6.40219">
        <ele>711.1</ele>
        <time>2016-07-08T09:07:11Z</time>
      </trkpt>
      <trkpt lat="43.34493" lon="-6.40231">
        <ele>710.1</ele>
        <time>2016-07-08T09:07:18Z</time>
      </trkpt>
      <trkpt lat="43.34492" lon="-6.40244">
        <ele>708.1</ele>
        <time>2016-07-08T09:07:28Z</time>
      </trkpt>
      <trkpt lat="43.34495" lon="-6.40257">
        <ele>706.1</ele>
        <time>2016-07-08T09:07:38Z</time>
      </trkpt>
      <trkpt lat="43.34499" lon="-6.40268">
        <ele>704.9</ele>
        <time>2016-07-08T09:07:46Z</time>
      </trkpt>
      <trkpt lat="43.34498" lon="-6.40282">
        <ele>704</ele>
        <time>2016-07-08T09:07:56Z</time>
      </trkpt>
      <trkpt lat="43.34495" lon="-6.40294">
        <ele>703.8</ele>
        <time>2016-07-08T09:08:07Z</time>
      </trkpt>
      <trkpt lat="43.34486" lon="-6.40298">
        <ele>704.5</ele>
        <time>2016-07-08T09:08:19Z</time>
      </trkpt>
      <trkpt lat="43.34477" lon="-6.40297">
        <ele>705.8</ele>
        <time>2016-07-08T09:08:31Z</time>
      </trkpt>
      <trkpt lat="43.34468" lon="-6.40292">
        <ele>707.4</ele>
        <time>2016-07-08T09:08:42Z</time>
      </trkpt>
      <trkpt lat="43.34459" lon="-6.40285">
        <ele>708.9</ele>
        <time>2016-07-08T09:08:53Z</time>
      </trkpt>
      <trkpt lat="43.3445" lon="-6.40281">
        <ele>710.4</ele>
        <time>2016-07-08T09:09:03Z</time>
      </trkpt>
      <trkpt lat="43.34441" lon="-6.40279">
        <ele>711.2</ele>
        <time>2016-07-08T09:09:10Z</time>
      </trkpt>
      <trkpt lat="43.34432" lon="-6.40274">
        <ele>711.9</ele>
        <time>2016-07-08T09:09:19Z</time>
      </trkpt>
      <trkpt lat="43.34424" lon="-6.40267">
        <ele>712.6</ele>
        <time>2016-07-08T09:09:29Z</time>
      </trkpt>
      <trkpt lat="43.34416" lon="-6.40259">
        <ele>713.4</ele>
        <time>2016-07-08T09:09:39Z</time>
      </trkpt>
      <trkpt lat="43.34408" lon="-6.40252">
        <ele>714.4</ele>
        <time>2016-07-08T09:09:49Z</time>
      </trkpt>
      <trkpt lat="43.34402" lon="-6.40243">
        <ele>715</ele>
        <time>2016-07-08T09:09:58Z</time>
      </trkpt>
      <trkpt lat="43.34395" lon="-6.40234">
        <ele>715.6</ele>
        <time>2016-07-08T09:10:07Z</time>
      </trkpt>
      <trkpt lat="43.34386" lon="-6.40231">
        <ele>717</ele>
        <time>2016-07-08T09:10:22Z</time>
      </trkpt>
      <trkpt lat="43.34377" lon="-6.40225">
        <ele>717.5</ele>
        <time>2016-07-08T09:10:32Z</time>
      </trkpt>
      <trkpt lat="43.34368" lon="-6.40222">
        <ele>718.4</ele>
        <time>2016-07-08T09:10:40Z</time>
      </trkpt>
      <trkpt lat="43.34359" lon="-6.40217">
        <ele>719.1</ele>
        <time>2016-07-08T09:10:48Z</time>
      </trkpt>
      <trkpt lat="43.34349" lon="-6.40216">
        <ele>720.2</ele>
        <time>2016-07-08T09:10:56Z</time>
      </trkpt>
      <trkpt lat="43.3434" lon="-6.40215">
        <ele>721.4</ele>
        <time>2016-07-08T09:11:05Z</time>
      </trkpt>
      <trkpt lat="43.3433" lon="-6.40215">
        <ele>722.2</ele>
        <time>2016-07-08T09:11:15Z</time>
      </trkpt>
      <trkpt lat="43.3432" lon="-6.40216">
        <ele>722.7</ele>
        <time>2016-07-08T09:11:26Z</time>
      </trkpt>
      <trkpt lat="43.34311" lon="-6.40218">
        <ele>723.4</ele>
        <time>2016-07-08T09:11:39Z</time>
      </trkpt>
      <trkpt lat="43.34302" lon="-6.4022">
        <ele>724.1</ele>
        <time>2016-07-08T09:11:49Z</time>
      </trkpt>
      <trkpt lat="43.34292" lon="-6.40221">
        <ele>724.7</ele>
        <time>2016-07-08T09:11:59Z</time>
      </trkpt>
      <trkpt lat="43.34282" lon="-6.4022">
        <ele>725</ele>
        <time>2016-07-08T09:12:10Z</time>
      </trkpt>
      <trkpt lat="43.34273" lon="-6.40215">
        <ele>725.6</ele>
        <time>2016-07-08T09:12:21Z</time>
      </trkpt>
      <trkpt lat="43.34264" lon="-6.40211">
        <ele>726.3</ele>
        <time>2016-07-08T09:12:30Z</time>
      </trkpt>
      <trkpt lat="43.34255" lon="-6.40208">
        <ele>727</ele>
        <time>2016-07-08T09:12:37Z</time>
      </trkpt>
      <trkpt lat="43.34246" lon="-6.40203">
        <ele>727.7</ele>
        <time>2016-07-08T09:12:44Z</time>
      </trkpt>
      <trkpt lat="43.34237" lon="-6.40201">
        <ele>727.9</ele>
        <time>2016-07-08T09:12:52Z</time>
      </trkpt>
      <trkpt lat="43.34227" lon="-6.40198">
        <ele>727.9</ele>
        <time>2016-07-08T09:12:59Z</time>
      </trkpt>
      <trkpt lat="43.34217" lon="-6.40197">
        <ele>727.6</ele>
        <time>2016-07-08T09:13:07Z</time>
      </trkpt>
      <trkpt lat="43.34207" lon="-6.40196">
        <ele>727.2</ele>
        <time>2016-07-08T09:13:15Z</time>
      </trkpt>
      <trkpt lat="43.34197" lon="-6.40191">
        <ele>726.6</ele>
        <time>2016-07-08T09:13:23Z</time>
      </trkpt>
      <trkpt lat="43.34188" lon="-6.40185">
        <ele>726.3</ele>
        <time>2016-07-08T09:13:31Z</time>
      </trkpt>
      <trkpt lat="43.34179" lon="-6.40181">
        <ele>726.1</ele>
        <time>2016-07-08T09:13:38Z</time>
      </trkpt>
      <trkpt lat="43.3417" lon="-6.40177">
        <ele>725.6</ele>
        <time>2016-07-08T09:13:54Z</time>
      </trkpt>
      <trkpt lat="43.34161" lon="-6.40172">
        <ele>725.3</ele>
        <time>2016-07-08T09:14:04Z</time>
      </trkpt>
      <trkpt lat="43.34153" lon="-6.40169">
        <ele>725.2</ele>
        <time>2016-07-08T09:14:12Z</time>
      </trkpt>
      <trkpt lat="43.34144" lon="-6.40165">
        <ele>725.2</ele>
        <time>2016-07-08T09:14:21Z</time>
      </trkpt>
      <trkpt lat="43.34136" lon="-6.40158">
        <ele>725.2</ele>
        <time>2016-07-08T09:14:30Z</time>
      </trkpt>
      <trkpt lat="43.34128" lon="-6.40153">
        <ele>725.2</ele>
        <time>2016-07-08T09:14:37Z</time>
      </trkpt>
      <trkpt lat="43.3412" lon="-6.40146">
        <ele>725.1</ele>
        <time>2016-07-08T09:14:44Z</time>
      </trkpt>
      <trkpt lat="43.34111" lon="-6.40141">
        <ele>724.9</ele>
        <time>2016-07-08T09:14:51Z</time>
      </trkpt>
      <trkpt lat="43.34103" lon="-6.40135">
        <ele>724.6</ele>
        <time>2016-07-08T09:14:59Z</time>
      </trkpt>
      <trkpt lat="43.34094" lon="-6.4013">
        <ele>724.4</ele>
        <time>2016-07-08T09:15:15Z</time>
      </trkpt>
      <trkpt lat="43.34085" lon="-6.40125">
        <ele>724.3</ele>
        <time>2016-07-08T09:15:26Z</time>
      </trkpt>
      <trkpt lat="43.34075" lon="-6.40121">
        <ele>723.4</ele>
        <time>2016-07-08T09:15:34Z</time>
      </trkpt>
      <trkpt lat="43.34066" lon="-6.40117">
        <ele>722.9</ele>
        <time>2016-07-08T09:15:42Z</time>
      </trkpt>
      <trkpt lat="43.34056" lon="-6.40113">
        <ele>722.1</ele>
        <time>2016-07-08T09:15:51Z</time>
      </trkpt>
      <trkpt lat="43.34047" lon="-6.40111">
        <ele>720.8</ele>
        <time>2016-07-08T09:16:01Z</time>
      </trkpt>
      <trkpt lat="43.34037" lon="-6.40114">
        <ele>719.8</ele>
        <time>2016-07-08T09:16:10Z</time>
      </trkpt>
      <trkpt lat="43.3403" lon="-6.40122">
        <ele>718.8</ele>
        <time>2016-07-08T09:16:19Z</time>
      </trkpt>
      <trkpt lat="43.34023" lon="-6.4013">
        <ele>717.5</ele>
        <time>2016-07-08T09:16:29Z</time>
      </trkpt>
      <trkpt lat="43.34017" lon="-6.4014">
        <ele>716.7</ele>
        <time>2016-07-08T09:16:38Z</time>
      </trkpt>
      <trkpt lat="43.34013" lon="-6.40151">
        <ele>716.1</ele>
        <time>2016-07-08T09:16:48Z</time>
      </trkpt>
      <trkpt lat="43.34008" lon="-6.40162">
        <ele>715.4</ele>
        <time>2016-07-08T09:16:58Z</time>
      </trkpt>
      <trkpt lat="43.34003" lon="-6.40174">
        <ele>715.5</ele>
        <time>2016-07-08T09:17:07Z</time>
      </trkpt>
      <trkpt lat="43.33997" lon="-6.40185">
        <ele>715.5</ele>
        <time>2016-07-08T09:17:16Z</time>
      </trkpt>
      <trkpt lat="43.3399" lon="-6.40196">
        <ele>715.7</ele>
        <time>2016-07-08T09:17:25Z</time>
      </trkpt>
      <trkpt lat="43.33984" lon="-6.40206">
        <ele>716.1</ele>
        <time>2016-07-08T09:17:34Z</time>
      </trkpt>
      <trkpt lat="43.33977" lon="-6.40215">
        <ele>716.4</ele>
        <time>2016-07-08T09:17:42Z</time>
      </trkpt>
      <trkpt lat="43.33971" lon="-6.40225">
        <ele>716.6</ele>
        <time>2016-07-08T09:17:50Z</time>
      </trkpt>
      <trkpt lat="43.33964" lon="-6.40235">
        <ele>716.9</ele>
        <time>2016-07-08T09:17:58Z</time>
      </trkpt>
      <trkpt lat="43.33956" lon="-6.40245">
        <ele>716.8</ele>
        <time>2016-07-08T09:18:06Z</time>
      </trkpt>
      <trkpt lat="43.33949" lon="-6.40254">
        <ele>716.5</ele>
        <time>2016-07-08T09:18:14Z</time>
      </trkpt>
      <trkpt lat="43.33941" lon="-6.40261">
        <ele>716.8</ele>
        <time>2016-07-08T09:18:22Z</time>
      </trkpt>
      <trkpt lat="43.33933" lon="-6.40266">
        <ele>717</ele>
        <time>2016-07-08T09:18:31Z</time>
      </trkpt>
      <trkpt lat="43.33923" lon="-6.40265">
        <ele>717.2</ele>
        <time>2016-07-08T09:18:40Z</time>
      </trkpt>
      <trkpt lat="43.33914" lon="-6.40262">
        <ele>716.9</ele>
        <time>2016-07-08T09:18:49Z</time>
      </trkpt>
      <trkpt lat="43.33905" lon="-6.40259">
        <ele>718</ele>
        <time>2016-07-08T09:19:00Z</time>
      </trkpt>
      <trkpt lat="43.33896" lon="-6.40255">
        <ele>718.9</ele>
        <time>2016-07-08T09:19:10Z</time>
      </trkpt>
      <trkpt lat="43.33887" lon="-6.40252">
        <ele>720</ele>
        <time>2016-07-08T09:19:22Z</time>
      </trkpt>
      <trkpt lat="43.33878" lon="-6.40249">
        <ele>721.3</ele>
        <time>2016-07-08T09:19:31Z</time>
      </trkpt>
      <trkpt lat="43.33869" lon="-6.40246">
        <ele>722.8</ele>
        <time>2016-07-08T09:19:42Z</time>
      </trkpt>
      <trkpt lat="43.3386" lon="-6.40244">
        <ele>724.3</ele>
        <time>2016-07-08T09:19:51Z</time>
      </trkpt>
      <trkpt lat="43.33851" lon="-6.4024">
        <ele>725.5</ele>
        <time>2016-07-08T09:20:01Z</time>
      </trkpt>
      <trkpt lat="43.33841" lon="-6.40245">
        <ele>726.6</ele>
        <time>2016-07-08T09:20:23Z</time>
      </trkpt>
      <trkpt lat="43.33835" lon="-6.40255">
        <ele>726.9</ele>
        <time>2016-07-08T09:20:31Z</time>
      </trkpt>
      <trkpt lat="43.3383" lon="-6.40265">
        <ele>727.5</ele>
        <time>2016-07-08T09:20:38Z</time>
      </trkpt>
      <trkpt lat="43.33829" lon="-6.40278">
        <ele>727.2</ele>
        <time>2016-07-08T09:21:02Z</time>
      </trkpt>
      <trkpt lat="43.33837" lon="-6.40283">
        <ele>727</ele>
        <time>2016-07-08T09:21:21Z</time>
      </trkpt>
      <trkpt lat="43.33828" lon="-6.40284">
        <ele>726.6</ele>
        <time>2016-07-08T09:22:10Z</time>
      </trkpt>
      <trkpt lat="43.33827" lon="-6.40296">
        <ele>726.2</ele>
        <time>2016-07-08T09:22:25Z</time>
      </trkpt>
      <trkpt lat="43.33823" lon="-6.40307">
        <ele>727.3</ele>
        <time>2016-07-08T09:22:39Z</time>
      </trkpt>
      <trkpt lat="43.33815" lon="-6.40313">
        <ele>727.2</ele>
        <time>2016-07-08T09:23:08Z</time>
      </trkpt>
      <trkpt lat="43.33812" lon="-6.40325">
        <ele>726.8</ele>
        <time>2016-07-08T09:23:22Z</time>
      </trkpt>
      <trkpt lat="43.33804" lon="-6.40331">
        <ele>724.9</ele>
        <time>2016-07-08T09:24:44Z</time>
      </trkpt>
      <trkpt lat="43.33801" lon="-6.40319">
        <ele>726</ele>
        <time>2016-07-08T09:24:55Z</time>
      </trkpt>
      <trkpt lat="43.33806" lon="-6.40308">
        <ele>725.7</ele>
        <time>2016-07-08T09:25:28Z</time>
      </trkpt>
      <trkpt lat="43.3381" lon="-6.40319">
        <ele>726</ele>
        <time>2016-07-08T09:28:39Z</time>
      </trkpt>
      <trkpt lat="43.33809" lon="-6.40307">
        <ele>725.9</ele>
        <time>2016-07-08T09:29:35Z</time>
      </trkpt>
      <trkpt lat="43.33805" lon="-6.40319">
        <ele>725</ele>
        <time>2016-07-08T09:30:33Z</time>
      </trkpt>
      <trkpt lat="43.33802" lon="-6.40331">
        <ele>726.6</ele>
        <time>2016-07-08T09:31:32Z</time>
      </trkpt>
      <trkpt lat="43.33797" lon="-6.40342">
        <ele>726.3</ele>
        <time>2016-07-08T09:32:05Z</time>
      </trkpt>
      <trkpt lat="43.33794" lon="-6.40354">
        <ele>726.3</ele>
        <time>2016-07-08T09:32:15Z</time>
      </trkpt>
      <trkpt lat="43.33789" lon="-6.40366">
        <ele>726.2</ele>
        <time>2016-07-08T09:32:23Z</time>
      </trkpt>
      <trkpt lat="43.33786" lon="-6.40379">
        <ele>726.5</ele>
        <time>2016-07-08T09:32:32Z</time>
      </trkpt>
      <trkpt lat="43.33783" lon="-6.40393">
        <ele>726.3</ele>
        <time>2016-07-08T09:32:41Z</time>
      </trkpt>
      <trkpt lat="43.3378" lon="-6.40404">
        <ele>725.8</ele>
        <time>2016-07-08T09:32:49Z</time>
      </trkpt>
      <trkpt lat="43.33778" lon="-6.40417">
        <ele>725.4</ele>
        <time>2016-07-08T09:32:59Z</time>
      </trkpt>
      <trkpt lat="43.33775" lon="-6.4043">
        <ele>725.2</ele>
        <time>2016-07-08T09:33:07Z</time>
      </trkpt>
      <trkpt lat="43.33772" lon="-6.40443">
        <ele>724.9</ele>
        <time>2016-07-08T09:33:15Z</time>
      </trkpt>
      <trkpt lat="43.3377" lon="-6.40455">
        <ele>724.7</ele>
        <time>2016-07-08T09:33:23Z</time>
      </trkpt>
      <trkpt lat="43.33768" lon="-6.40469">
        <ele>724.6</ele>
        <time>2016-07-08T09:33:32Z</time>
      </trkpt>
      <trkpt lat="43.33767" lon="-6.40481">
        <ele>724.4</ele>
        <time>2016-07-08T09:33:41Z</time>
      </trkpt>
      <trkpt lat="43.33765" lon="-6.40495">
        <ele>724</ele>
        <time>2016-07-08T09:33:51Z</time>
      </trkpt>
      <trkpt lat="43.33763" lon="-6.40508">
        <ele>723</ele>
        <time>2016-07-08T09:34:01Z</time>
      </trkpt>
      <trkpt lat="43.33766" lon="-6.4052">
        <ele>721</ele>
        <time>2016-07-08T09:34:59Z</time>
      </trkpt>
      <trkpt lat="43.33765" lon="-6.40533">
        <ele>720.8</ele>
        <time>2016-07-08T09:35:08Z</time>
      </trkpt>
      <trkpt lat="43.33762" lon="-6.40546">
        <ele>720.9</ele>
        <time>2016-07-08T09:35:15Z</time>
      </trkpt>
      <trkpt lat="43.3376" lon="-6.40559">
        <ele>721.1</ele>
        <time>2016-07-08T09:35:22Z</time>
      </trkpt>
      <trkpt lat="43.33759" lon="-6.40573">
        <ele>720.9</ele>
        <time>2016-07-08T09:35:30Z</time>
      </trkpt>
      <trkpt lat="43.33758" lon="-6.40586">
        <ele>720.2</ele>
        <time>2016-07-08T09:35:37Z</time>
      </trkpt>
      <trkpt lat="43.33755" lon="-6.40599">
        <ele>719.7</ele>
        <time>2016-07-08T09:35:45Z</time>
      </trkpt>
      <trkpt lat="43.33755" lon="-6.40612">
        <ele>719</ele>
        <time>2016-07-08T09:35:56Z</time>
      </trkpt>
      <trkpt lat="43.33753" lon="-6.40625">
        <ele>718.8</ele>
        <time>2016-07-08T09:36:04Z</time>
      </trkpt>
      <trkpt lat="43.33752" lon="-6.40638">
        <ele>718.7</ele>
        <time>2016-07-08T09:36:12Z</time>
      </trkpt>
      <trkpt lat="43.33751" lon="-6.4065">
        <ele>718.3</ele>
        <time>2016-07-08T09:36:19Z</time>
      </trkpt>
      <trkpt lat="43.3375" lon="-6.40664">
        <ele>718</ele>
        <time>2016-07-08T09:36:26Z</time>
      </trkpt>
      <trkpt lat="43.33748" lon="-6.40677">
        <ele>718</ele>
        <time>2016-07-08T09:36:33Z</time>
      </trkpt>
      <trkpt lat="43.33746" lon="-6.4069">
        <ele>718</ele>
        <time>2016-07-08T09:36:40Z</time>
      </trkpt>
      <trkpt lat="43.33744" lon="-6.40703">
        <ele>717.8</ele>
        <time>2016-07-08T09:36:47Z</time>
      </trkpt>
      <trkpt lat="43.3374" lon="-6.40716">
        <ele>717.1</ele>
        <time>2016-07-08T09:36:54Z</time>
      </trkpt>
      <trkpt lat="43.33738" lon="-6.40728">
        <ele>716.5</ele>
        <time>2016-07-08T09:37:03Z</time>
      </trkpt>
      <trkpt lat="43.33737" lon="-6.40742">
        <ele>716.2</ele>
        <time>2016-07-08T09:37:11Z</time>
      </trkpt>
      <trkpt lat="43.33736" lon="-6.40754">
        <ele>716</ele>
        <time>2016-07-08T09:37:19Z</time>
      </trkpt>
      <trkpt lat="43.33734" lon="-6.40767">
        <ele>715.6</ele>
        <time>2016-07-08T09:37:27Z</time>
      </trkpt>
      <trkpt lat="43.33733" lon="-6.4078">
        <ele>715.4</ele>
        <time>2016-07-08T09:37:36Z</time>
      </trkpt>
      <trkpt lat="43.33731" lon="-6.40792">
        <ele>715.1</ele>
        <time>2016-07-08T09:37:44Z</time>
      </trkpt>
      <trkpt lat="43.33731" lon="-6.40806">
        <ele>714.8</ele>
        <time>2016-07-08T09:37:53Z</time>
      </trkpt>
      <trkpt lat="43.33729" lon="-6.40819">
        <ele>714.3</ele>
        <time>2016-07-08T09:38:02Z</time>
      </trkpt>
      <trkpt lat="43.33727" lon="-6.40832">
        <ele>714.1</ele>
        <time>2016-07-08T09:38:10Z</time>
      </trkpt>
      <trkpt lat="43.33727" lon="-6.40846">
        <ele>714</ele>
        <time>2016-07-08T09:38:18Z</time>
      </trkpt>
      <trkpt lat="43.33725" lon="-6.40859">
        <ele>713.5</ele>
        <time>2016-07-08T09:38:25Z</time>
      </trkpt>
      <trkpt lat="43.33723" lon="-6.40872">
        <ele>712.9</ele>
        <time>2016-07-08T09:38:34Z</time>
      </trkpt>
      <trkpt lat="43.3372" lon="-6.40885">
        <ele>712.3</ele>
        <time>2016-07-08T09:38:43Z</time>
      </trkpt>
      <trkpt lat="43.33719" lon="-6.40898">
        <ele>711.7</ele>
        <time>2016-07-08T09:38:50Z</time>
      </trkpt>
      <trkpt lat="43.33717" lon="-6.40911">
        <ele>711.6</ele>
        <time>2016-07-08T09:38:57Z</time>
      </trkpt>
      <trkpt lat="43.33718" lon="-6.40924">
        <ele>710.7</ele>
        <time>2016-07-08T09:39:05Z</time>
      </trkpt>
      <trkpt lat="43.3372" lon="-6.40937">
        <ele>710.4</ele>
        <time>2016-07-08T09:39:15Z</time>
      </trkpt>
      <trkpt lat="43.33723" lon="-6.4095">
        <ele>710.3</ele>
        <time>2016-07-08T09:39:23Z</time>
      </trkpt>
      <trkpt lat="43.33724" lon="-6.40963">
        <ele>710.1</ele>
        <time>2016-07-08T09:39:30Z</time>
      </trkpt>
      <trkpt lat="43.33726" lon="-6.40975">
        <ele>709.8</ele>
        <time>2016-07-08T09:39:38Z</time>
      </trkpt>
      <trkpt lat="43.33726" lon="-6.40988">
        <ele>709.6</ele>
        <time>2016-07-08T09:39:46Z</time>
      </trkpt>
      <trkpt lat="43.33727" lon="-6.41001">
        <ele>709.1</ele>
        <time>2016-07-08T09:39:55Z</time>
      </trkpt>
      <trkpt lat="43.33725" lon="-6.41013">
        <ele>709</ele>
        <time>2016-07-08T09:40:04Z</time>
      </trkpt>
      <trkpt lat="43.33724" lon="-6.41026">
        <ele>709</ele>
        <time>2016-07-08T09:40:11Z</time>
      </trkpt>
      <trkpt lat="43.33723" lon="-6.41039">
        <ele>708.9</ele>
        <time>2016-07-08T09:40:20Z</time>
      </trkpt>
      <trkpt lat="43.33718" lon="-6.41051">
        <ele>709.2</ele>
        <time>2016-07-08T09:40:28Z</time>
      </trkpt>
      <trkpt lat="43.33713" lon="-6.41063">
        <ele>709.1</ele>
        <time>2016-07-08T09:40:36Z</time>
      </trkpt>
      <trkpt lat="43.33708" lon="-6.41074">
        <ele>709.1</ele>
        <time>2016-07-08T09:40:43Z</time>
      </trkpt>
      <trkpt lat="43.337" lon="-6.41084">
        <ele>708.6</ele>
        <time>2016-07-08T09:40:50Z</time>
      </trkpt>
      <trkpt lat="43.33693" lon="-6.41093">
        <ele>708.3</ele>
        <time>2016-07-08T09:40:56Z</time>
      </trkpt>
      <trkpt lat="43.33685" lon="-6.41102">
        <ele>707.9</ele>
        <time>2016-07-08T09:41:03Z</time>
      </trkpt>
      <trkpt lat="43.33678" lon="-6.41111">
        <ele>707.2</ele>
        <time>2016-07-08T09:41:09Z</time>
      </trkpt>
      <trkpt lat="43.33673" lon="-6.41122">
        <ele>706.8</ele>
        <time>2016-07-08T09:41:16Z</time>
      </trkpt>
      <trkpt lat="43.33667" lon="-6.41133">
        <ele>706.4</ele>
        <time>2016-07-08T09:41:24Z</time>
      </trkpt>
      <trkpt lat="43.33664" lon="-6.41146">
        <ele>706.1</ele>
        <time>2016-07-08T09:41:32Z</time>
      </trkpt>
      <trkpt lat="43.33661" lon="-6.41159">
        <ele>705.2</ele>
        <time>2016-07-08T09:41:40Z</time>
      </trkpt>
      <trkpt lat="43.33658" lon="-6.41172">
        <ele>705</ele>
        <time>2016-07-08T09:41:48Z</time>
      </trkpt>
      <trkpt lat="43.33655" lon="-6.41184">
        <ele>704.9</ele>
        <time>2016-07-08T09:41:55Z</time>
      </trkpt>
      <trkpt lat="43.33654" lon="-6.41198">
        <ele>704.7</ele>
        <time>2016-07-08T09:42:03Z</time>
      </trkpt>
      <trkpt lat="43.33652" lon="-6.41211">
        <ele>703.9</ele>
        <time>2016-07-08T09:42:11Z</time>
      </trkpt>
      <trkpt lat="43.33651" lon="-6.41224">
        <ele>702.9</ele>
        <time>2016-07-08T09:42:20Z</time>
      </trkpt>
      <trkpt lat="43.3365" lon="-6.41236">
        <ele>702.5</ele>
        <time>2016-07-08T09:42:28Z</time>
      </trkpt>
      <trkpt lat="43.33648" lon="-6.41248">
        <ele>702.3</ele>
        <time>2016-07-08T09:42:36Z</time>
      </trkpt>
      <trkpt lat="43.33644" lon="-6.4126">
        <ele>701.6</ele>
        <time>2016-07-08T09:42:45Z</time>
      </trkpt>
      <trkpt lat="43.33639" lon="-6.41272">
        <ele>700.6</ele>
        <time>2016-07-08T09:42:54Z</time>
      </trkpt>
      <trkpt lat="43.33634" lon="-6.41283">
        <ele>700</ele>
        <time>2016-07-08T09:43:02Z</time>
      </trkpt>
      <trkpt lat="43.3363" lon="-6.41294">
        <ele>697.6</ele>
        <time>2016-07-08T09:43:25Z</time>
      </trkpt>
      <trkpt lat="43.33623" lon="-6.41303">
        <ele>696.4</ele>
        <time>2016-07-08T09:44:00Z</time>
      </trkpt>
      <trkpt lat="43.3362" lon="-6.41314">
        <ele>696.1</ele>
        <time>2016-07-08T09:44:11Z</time>
      </trkpt>
      <trkpt lat="43.33617" lon="-6.41327">
        <ele>695.6</ele>
        <time>2016-07-08T09:44:21Z</time>
      </trkpt>
      <trkpt lat="43.33613" lon="-6.41338">
        <ele>695.1</ele>
        <time>2016-07-08T09:44:29Z</time>
      </trkpt>
      <trkpt lat="43.33608" lon="-6.4135">
        <ele>694.8</ele>
        <time>2016-07-08T09:44:37Z</time>
      </trkpt>
      <trkpt lat="43.33605" lon="-6.41363">
        <ele>694.3</ele>
        <time>2016-07-08T09:44:46Z</time>
      </trkpt>
      <trkpt lat="43.33599" lon="-6.41373">
        <ele>693.8</ele>
        <time>2016-07-08T09:44:54Z</time>
      </trkpt>
      <trkpt lat="43.33593" lon="-6.41384">
        <ele>693.3</ele>
        <time>2016-07-08T09:45:04Z</time>
      </trkpt>
      <trkpt lat="43.33589" lon="-6.41396">
        <ele>692.8</ele>
        <time>2016-07-08T09:45:13Z</time>
      </trkpt>
      <trkpt lat="43.33584" lon="-6.41407">
        <ele>692.1</ele>
        <time>2016-07-08T09:45:21Z</time>
      </trkpt>
      <trkpt lat="43.3358" lon="-6.41419">
        <ele>690.9</ele>
        <time>2016-07-08T09:45:30Z</time>
      </trkpt>
      <trkpt lat="43.33577" lon="-6.41432">
        <ele>690</ele>
        <time>2016-07-08T09:45:38Z</time>
      </trkpt>
      <trkpt lat="43.33573" lon="-6.41445">
        <ele>689.4</ele>
        <time>2016-07-08T09:45:47Z</time>
      </trkpt>
      <trkpt lat="43.33571" lon="-6.41457">
        <ele>687.2</ele>
        <time>2016-07-08T09:46:03Z</time>
      </trkpt>
      <trkpt lat="43.33567" lon="-6.41469">
        <ele>685.9</ele>
        <time>2016-07-08T09:46:15Z</time>
      </trkpt>
      <trkpt lat="43.33561" lon="-6.41479">
        <ele>685.3</ele>
        <time>2016-07-08T09:46:24Z</time>
      </trkpt>
      <trkpt lat="43.33555" lon="-6.4149">
        <ele>683.6</ele>
        <time>2016-07-08T09:46:34Z</time>
      </trkpt>
      <trkpt lat="43.33548" lon="-6.41498">
        <ele>682.4</ele>
        <time>2016-07-08T09:46:43Z</time>
      </trkpt>
      <trkpt lat="43.33541" lon="-6.41507">
        <ele>679.9</ele>
        <time>2016-07-08T09:46:57Z</time>
      </trkpt>
      <trkpt lat="43.33533" lon="-6.41514">
        <ele>678.7</ele>
        <time>2016-07-08T09:47:07Z</time>
      </trkpt>
      <trkpt lat="43.33524" lon="-6.41515">
        <ele>676.8</ele>
        <time>2016-07-08T09:47:27Z</time>
      </trkpt>
      <trkpt lat="43.33519" lon="-6.41526">
        <ele>675.2</ele>
        <time>2016-07-08T09:50:54Z</time>
      </trkpt>
      <trkpt lat="43.33527" lon="-6.41521">
        <ele>675.4</ele>
        <time>2016-07-08T09:52:02Z</time>
      </trkpt>
      <trkpt lat="43.33518" lon="-6.41525">
        <ele>675.1</ele>
        <time>2016-07-08T09:56:52Z</time>
      </trkpt>
      <trkpt lat="43.3351" lon="-6.41529">
        <ele>673.4</ele>
        <time>2016-07-08T09:57:08Z</time>
      </trkpt>
      <trkpt lat="43.335" lon="-6.4153">
        <ele>672.6</ele>
        <time>2016-07-08T09:57:32Z</time>
      </trkpt>
      <trkpt lat="43.33493" lon="-6.4154">
        <ele>672</ele>
        <time>2016-07-08T09:57:40Z</time>
      </trkpt>
      <trkpt lat="43.33488" lon="-6.4155">
        <ele>671.5</ele>
        <time>2016-07-08T09:57:50Z</time>
      </trkpt>
      <trkpt lat="43.33482" lon="-6.4156">
        <ele>670.2</ele>
        <time>2016-07-08T09:58:02Z</time>
      </trkpt>
      <trkpt lat="43.33477" lon="-6.41572">
        <ele>668.7</ele>
        <time>2016-07-08T09:58:14Z</time>
      </trkpt>
      <trkpt lat="43.3347" lon="-6.4158">
        <ele>668.1</ele>
        <time>2016-07-08T09:58:20Z</time>
      </trkpt>
      <trkpt lat="43.33462" lon="-6.41588">
        <ele>666.8</ele>
        <time>2016-07-08T09:58:28Z</time>
      </trkpt>
      <trkpt lat="43.33454" lon="-6.41595">
        <ele>665.1</ele>
        <time>2016-07-08T09:58:41Z</time>
      </trkpt>
      <trkpt lat="43.33446" lon="-6.41603">
        <ele>664.1</ele>
        <time>2016-07-08T09:58:48Z</time>
      </trkpt>
      <trkpt lat="43.33442" lon="-6.41614">
        <ele>661.6</ele>
        <time>2016-07-08T09:59:04Z</time>
      </trkpt>
      <trkpt lat="43.33437" lon="-6.41625">
        <ele>660.8</ele>
        <time>2016-07-08T09:59:12Z</time>
      </trkpt>
      <trkpt lat="43.33428" lon="-6.41632">
        <ele>660.3</ele>
        <time>2016-07-08T09:59:18Z</time>
      </trkpt>
      <trkpt lat="43.3342" lon="-6.41641">
        <ele>659.5</ele>
        <time>2016-07-08T09:59:25Z</time>
      </trkpt>
      <trkpt lat="43.33412" lon="-6.41645">
        <ele>658.3</ele>
        <time>2016-07-08T09:59:31Z</time>
      </trkpt>
      <trkpt lat="43.33402" lon="-6.41649">
        <ele>656.4</ele>
        <time>2016-07-08T09:59:42Z</time>
      </trkpt>
      <trkpt lat="43.33393" lon="-6.41653">
        <ele>655.3</ele>
        <time>2016-07-08T09:59:50Z</time>
      </trkpt>
      <trkpt lat="43.33386" lon="-6.41662">
        <ele>653.6</ele>
        <time>2016-07-08T10:01:16Z</time>
      </trkpt>
      <trkpt lat="43.33378" lon="-6.41658">
        <ele>653.5</ele>
        <time>2016-07-08T10:02:09Z</time>
      </trkpt>
      <trkpt lat="43.33387" lon="-6.4166">
        <ele>653.1</ele>
        <time>2016-07-08T10:02:34Z</time>
      </trkpt>
      <trkpt lat="43.33377" lon="-6.41661">
        <ele>653</ele>
        <time>2016-07-08T10:02:50Z</time>
      </trkpt>
      <trkpt lat="43.33368" lon="-6.41663">
        <ele>652.4</ele>
        <time>2016-07-08T10:03:00Z</time>
      </trkpt>
      <trkpt lat="43.33359" lon="-6.41666">
        <ele>651.7</ele>
        <time>2016-07-08T10:03:10Z</time>
      </trkpt>
      <trkpt lat="43.33352" lon="-6.41676">
        <ele>650.8</ele>
        <time>2016-07-08T10:03:22Z</time>
      </trkpt>
      <trkpt lat="43.33355" lon="-6.41691">
        <ele>649</ele>
        <time>2016-07-08T10:03:55Z</time>
      </trkpt>
      <trkpt lat="43.33359" lon="-6.41717">
        <ele>649</ele>
        <time>2016-07-08T10:04:22Z</time>
      </trkpt>
      <trkpt lat="43.33369" lon="-6.41698">
        <ele>649</ele>
        <time>2016-07-08T10:04:44Z</time>
      </trkpt>
      <trkpt lat="43.3335" lon="-6.41699">
        <ele>649.1</ele>
        <time>2016-07-08T10:05:07Z</time>
      </trkpt>
      <trkpt lat="43.33335" lon="-6.41704">
        <ele>649</ele>
        <time>2016-07-08T10:05:29Z</time>
      </trkpt>
      <trkpt lat="43.33352" lon="-6.41671">
        <ele>649</ele>
        <time>2016-07-08T10:06:12Z</time>
      </trkpt>
      <trkpt lat="43.33347" lon="-6.41698">
        <ele>649</ele>
        <time>2016-07-08T10:06:43Z</time>
      </trkpt>
      <trkpt lat="43.33359" lon="-6.41696">
        <ele>649.3</ele>
        <time>2016-07-08T10:07:18Z</time>
      </trkpt>
      <trkpt lat="43.33368" lon="-6.41701">
        <ele>649.2</ele>
        <time>2016-07-08T10:07:20Z</time>
      </trkpt>
      <trkpt lat="43.33373" lon="-6.4169">
        <ele>649.7</ele>
        <time>2016-07-08T10:07:32Z</time>
      </trkpt>
      <trkpt lat="43.33376" lon="-6.41678">
        <ele>650.2</ele>
        <time>2016-07-08T10:07:42Z</time>
      </trkpt>
      <trkpt lat="43.33383" lon="-6.41669">
        <ele>650.7</ele>
        <time>2016-07-08T10:07:55Z</time>
      </trkpt>
      <trkpt lat="43.33373" lon="-6.41666">
        <ele>652.1</ele>
        <time>2016-07-08T10:08:14Z</time>
      </trkpt>
      <trkpt lat="43.33381" lon="-6.41674">
        <ele>653.7</ele>
        <time>2016-07-08T10:09:05Z</time>
      </trkpt>
      <trkpt lat="43.3339" lon="-6.41671">
        <ele>653.9</ele>
        <time>2016-07-08T10:09:42Z</time>
      </trkpt>
      <trkpt lat="43.33398" lon="-6.41664">
        <ele>653.6</ele>
        <time>2016-07-08T10:09:58Z</time>
      </trkpt>
      <trkpt lat="43.33407" lon="-6.41664">
        <ele>653.2</ele>
        <time>2016-07-08T10:10:13Z</time>
      </trkpt>
      <trkpt lat="43.33416" lon="-6.41667">
        <ele>653.1</ele>
        <time>2016-07-08T10:10:33Z</time>
      </trkpt>
      <trkpt lat="43.33421" lon="-6.41677">
        <ele>653.3</ele>
        <time>2016-07-08T10:13:43Z</time>
      </trkpt>
      <trkpt lat="43.3343" lon="-6.41673">
        <ele>652.6</ele>
        <time>2016-07-08T10:14:51Z</time>
      </trkpt>
      <trkpt lat="43.33439" lon="-6.41671">
        <ele>652.4</ele>
        <time>2016-07-08T10:15:07Z</time>
      </trkpt>
      <trkpt lat="43.33448" lon="-6.41676">
        <ele>652.6</ele>
        <time>2016-07-08T10:15:16Z</time>
      </trkpt>
      <trkpt lat="43.33458" lon="-6.41681">
        <ele>652.8</ele>
        <time>2016-07-08T10:15:24Z</time>
      </trkpt>
      <trkpt lat="43.33467" lon="-6.41687">
        <ele>652.9</ele>
        <time>2016-07-08T10:15:31Z</time>
      </trkpt>
      <trkpt lat="43.33475" lon="-6.41692">
        <ele>653.2</ele>
        <time>2016-07-08T10:15:38Z</time>
      </trkpt>
      <trkpt lat="43.33485" lon="-6.41692">
        <ele>653.1</ele>
        <time>2016-07-08T10:15:47Z</time>
      </trkpt>
      <trkpt lat="43.33493" lon="-6.41684">
        <ele>652.7</ele>
        <time>2016-07-08T10:15:56Z</time>
      </trkpt>
      <trkpt lat="43.33499" lon="-6.41673">
        <ele>652.5</ele>
        <time>2016-07-08T10:16:05Z</time>
      </trkpt>
      <trkpt lat="43.33504" lon="-6.41662">
        <ele>652.4</ele>
        <time>2016-07-08T10:16:15Z</time>
      </trkpt>
      <trkpt lat="43.33506" lon="-6.4165">
        <ele>653</ele>
        <time>2016-07-08T10:16:28Z</time>
      </trkpt>
      <trkpt lat="43.33515" lon="-6.41646">
        <ele>652.9</ele>
        <time>2016-07-08T10:16:38Z</time>
      </trkpt>
      <trkpt lat="43.33525" lon="-6.41643">
        <ele>652.9</ele>
        <time>2016-07-08T10:16:46Z</time>
      </trkpt>
      <trkpt lat="43.33534" lon="-6.41641">
        <ele>653.3</ele>
        <time>2016-07-08T10:16:52Z</time>
      </trkpt>
      <trkpt lat="43.33545" lon="-6.41642">
        <ele>653.3</ele>
        <time>2016-07-08T10:16:58Z</time>
      </trkpt>
      <trkpt lat="43.33555" lon="-6.4164">
        <ele>653.4</ele>
        <time>2016-07-08T10:17:06Z</time>
      </trkpt>
      <trkpt lat="43.3356" lon="-6.41629">
        <ele>653.2</ele>
        <time>2016-07-08T10:17:27Z</time>
      </trkpt>
      <trkpt lat="43.33568" lon="-6.41622">
        <ele>653.1</ele>
        <time>2016-07-08T10:17:37Z</time>
      </trkpt>
      <trkpt lat="43.33577" lon="-6.41619">
        <ele>653.1</ele>
        <time>2016-07-08T10:17:43Z</time>
      </trkpt>
      <trkpt lat="43.33587" lon="-6.41616">
        <ele>653.1</ele>
        <time>2016-07-08T10:17:52Z</time>
      </trkpt>
      <trkpt lat="43.33596" lon="-6.41615">
        <ele>653.1</ele>
        <time>2016-07-08T10:18:01Z</time>
      </trkpt>
      <trkpt lat="43.33605" lon="-6.41612">
        <ele>653.2</ele>
        <time>2016-07-08T10:18:11Z</time>
      </trkpt>
      <trkpt lat="43.33613" lon="-6.41617">
        <ele>653.6</ele>
        <time>2016-07-08T10:18:22Z</time>
      </trkpt>
      <trkpt lat="43.33623" lon="-6.41616">
        <ele>654.3</ele>
        <time>2016-07-08T10:19:05Z</time>
      </trkpt>
      <trkpt lat="43.33633" lon="-6.41613">
        <ele>653.9</ele>
        <time>2016-07-08T10:19:16Z</time>
      </trkpt>
      <trkpt lat="43.33642" lon="-6.4161">
        <ele>654.4</ele>
        <time>2016-07-08T10:19:30Z</time>
      </trkpt>
      <trkpt lat="43.33651" lon="-6.41605">
        <ele>654.6</ele>
        <time>2016-07-08T10:19:41Z</time>
      </trkpt>
      <trkpt lat="43.3366" lon="-6.41604">
        <ele>655</ele>
        <time>2016-07-08T10:19:50Z</time>
      </trkpt>
      <trkpt lat="43.33669" lon="-6.41604">
        <ele>655.2</ele>
        <time>2016-07-08T10:19:59Z</time>
      </trkpt>
      <trkpt lat="43.33679" lon="-6.41606">
        <ele>654.9</ele>
        <time>2016-07-08T10:20:10Z</time>
      </trkpt>
      <trkpt lat="43.33688" lon="-6.41603">
        <ele>655.4</ele>
        <time>2016-07-08T10:20:21Z</time>
      </trkpt>
      <trkpt lat="43.33698" lon="-6.41601">
        <ele>655.5</ele>
        <time>2016-07-08T10:20:29Z</time>
      </trkpt>
      <trkpt lat="43.33707" lon="-6.41598">
        <ele>655.6</ele>
        <time>2016-07-08T10:20:39Z</time>
      </trkpt>
      <trkpt lat="43.33716" lon="-6.41597">
        <ele>655.8</ele>
        <time>2016-07-08T10:20:49Z</time>
      </trkpt>
      <trkpt lat="43.33725" lon="-6.41601">
        <ele>655.7</ele>
        <time>2016-07-08T10:20:57Z</time>
      </trkpt>
      <trkpt lat="43.33734" lon="-6.41605">
        <ele>655.6</ele>
        <time>2016-07-08T10:21:03Z</time>
      </trkpt>
      <trkpt lat="43.33742" lon="-6.41611">
        <ele>655.6</ele>
        <time>2016-07-08T10:21:09Z</time>
      </trkpt>
      <trkpt lat="43.3375" lon="-6.41619">
        <ele>655.7</ele>
        <time>2016-07-08T10:21:16Z</time>
      </trkpt>
      <trkpt lat="43.33757" lon="-6.41629">
        <ele>655.9</ele>
        <time>2016-07-08T10:21:25Z</time>
      </trkpt>
      <trkpt lat="43.33763" lon="-6.41638">
        <ele>656.4</ele>
        <time>2016-07-08T10:21:44Z</time>
      </trkpt>
      <trkpt lat="43.33773" lon="-6.4164">
        <ele>656.5</ele>
        <time>2016-07-08T10:21:53Z</time>
      </trkpt>
      <trkpt lat="43.33783" lon="-6.41637">
        <ele>656.8</ele>
        <time>2016-07-08T10:22:03Z</time>
      </trkpt>
      <trkpt lat="43.33793" lon="-6.41638">
        <ele>657</ele>
        <time>2016-07-08T10:22:11Z</time>
      </trkpt>
      <trkpt lat="43.33802" lon="-6.41638">
        <ele>657.4</ele>
        <time>2016-07-08T10:22:19Z</time>
      </trkpt>
      <trkpt lat="43.33811" lon="-6.41644">
        <ele>657.7</ele>
        <time>2016-07-08T10:22:30Z</time>
      </trkpt>
      <trkpt lat="43.33818" lon="-6.41652">
        <ele>658.2</ele>
        <time>2016-07-08T10:22:38Z</time>
      </trkpt>
      <trkpt lat="43.33824" lon="-6.41661">
        <ele>658.8</ele>
        <time>2016-07-08T10:22:48Z</time>
      </trkpt>
      <trkpt lat="43.33822" lon="-6.41674">
        <ele>659.5</ele>
        <time>2016-07-08T10:22:59Z</time>
      </trkpt>
      <trkpt lat="43.3382" lon="-6.41686">
        <ele>659.8</ele>
        <time>2016-07-08T10:23:07Z</time>
      </trkpt>
      <trkpt lat="43.33816" lon="-6.41698">
        <ele>660.4</ele>
        <time>2016-07-08T10:23:19Z</time>
      </trkpt>
      <trkpt lat="43.3381" lon="-6.4171">
        <ele>661</ele>
        <time>2016-07-08T10:23:28Z</time>
      </trkpt>
      <trkpt lat="43.33805" lon="-6.41721">
        <ele>661.5</ele>
        <time>2016-07-08T10:23:37Z</time>
      </trkpt>
      <trkpt lat="43.33801" lon="-6.41733">
        <ele>661.7</ele>
        <time>2016-07-08T10:23:51Z</time>
      </trkpt>
      <trkpt lat="43.33795" lon="-6.41744">
        <ele>661.9</ele>
        <time>2016-07-08T10:24:00Z</time>
      </trkpt>
      <trkpt lat="43.33792" lon="-6.41756">
        <ele>662.5</ele>
        <time>2016-07-08T10:24:09Z</time>
      </trkpt>
      <trkpt lat="43.33788" lon="-6.41769">
        <ele>662.8</ele>
        <time>2016-07-08T10:24:19Z</time>
      </trkpt>
      <trkpt lat="43.33786" lon="-6.41782">
        <ele>663.6</ele>
        <time>2016-07-08T10:24:31Z</time>
      </trkpt>
      <trkpt lat="43.33785" lon="-6.41795">
        <ele>664.6</ele>
        <time>2016-07-08T10:24:52Z</time>
      </trkpt>
      <trkpt lat="43.33794" lon="-6.41795">
        <ele>665.3</ele>
        <time>2016-07-08T10:25:12Z</time>
      </trkpt>
      <trkpt lat="43.33801" lon="-6.41803">
        <ele>664.8</ele>
        <time>2016-07-08T10:25:24Z</time>
      </trkpt>
      <trkpt lat="43.33803" lon="-6.41816">
        <ele>665.1</ele>
        <time>2016-07-08T10:25:36Z</time>
      </trkpt>
      <trkpt lat="43.33806" lon="-6.41828">
        <ele>665.3</ele>
        <time>2016-07-08T10:25:45Z</time>
      </trkpt>
      <trkpt lat="43.33815" lon="-6.41833">
        <ele>665.6</ele>
        <time>2016-07-08T10:26:18Z</time>
      </trkpt>
      <trkpt lat="43.33825" lon="-6.41837">
        <ele>665.7</ele>
        <time>2016-07-08T10:26:25Z</time>
      </trkpt>
      <trkpt lat="43.33834" lon="-6.41842">
        <ele>665.7</ele>
        <time>2016-07-08T10:26:30Z</time>
      </trkpt>
      <trkpt lat="43.33843" lon="-6.41848">
        <ele>665.9</ele>
        <time>2016-07-08T10:26:36Z</time>
      </trkpt>
      <trkpt lat="43.33851" lon="-6.41856">
        <ele>666</ele>
        <time>2016-07-08T10:26:42Z</time>
      </trkpt>
      <trkpt lat="43.33856" lon="-6.41868">
        <ele>665.9</ele>
        <time>2016-07-08T10:26:48Z</time>
      </trkpt>
      <trkpt lat="43.33856" lon="-6.41883">
        <ele>666</ele>
        <time>2016-07-08T10:26:55Z</time>
      </trkpt>
      <trkpt lat="43.33852" lon="-6.41894">
        <ele>665.5</ele>
        <time>2016-07-08T10:27:01Z</time>
      </trkpt>
      <trkpt lat="43.33844" lon="-6.41903">
        <ele>665.4</ele>
        <time>2016-07-08T10:27:07Z</time>
      </trkpt>
      <trkpt lat="43.33837" lon="-6.41911">
        <ele>665.5</ele>
        <time>2016-07-08T10:27:15Z</time>
      </trkpt>
      <trkpt lat="43.3383" lon="-6.41919">
        <ele>666.1</ele>
        <time>2016-07-08T10:27:23Z</time>
      </trkpt>
      <trkpt lat="43.33822" lon="-6.41927">
        <ele>666.5</ele>
        <time>2016-07-08T10:27:31Z</time>
      </trkpt>
      <trkpt lat="43.33815" lon="-6.41937">
        <ele>666.3</ele>
        <time>2016-07-08T10:27:40Z</time>
      </trkpt>
      <trkpt lat="43.33809" lon="-6.41946">
        <ele>666.3</ele>
        <time>2016-07-08T10:27:47Z</time>
      </trkpt>
      <trkpt lat="43.33803" lon="-6.41956">
        <ele>666.3</ele>
        <time>2016-07-08T10:27:54Z</time>
      </trkpt>
      <trkpt lat="43.33796" lon="-6.41965">
        <ele>666.4</ele>
        <time>2016-07-08T10:28:02Z</time>
      </trkpt>
      <trkpt lat="43.33788" lon="-6.41972">
        <ele>666.6</ele>
        <time>2016-07-08T10:28:10Z</time>
      </trkpt>
      <trkpt lat="43.33781" lon="-6.41981">
        <ele>667</ele>
        <time>2016-07-08T10:28:19Z</time>
      </trkpt>
      <trkpt lat="43.33777" lon="-6.41993">
        <ele>667.3</ele>
        <time>2016-07-08T10:28:28Z</time>
      </trkpt>
      <trkpt lat="43.33776" lon="-6.42006">
        <ele>667.7</ele>
        <time>2016-07-08T10:28:37Z</time>
      </trkpt>
      <trkpt lat="43.33781" lon="-6.42016">
        <ele>667.7</ele>
        <time>2016-07-08T10:28:46Z</time>
      </trkpt>
      <trkpt lat="43.33788" lon="-6.42027">
        <ele>667.2</ele>
        <time>2016-07-08T10:28:54Z</time>
      </trkpt>
      <trkpt lat="43.33797" lon="-6.42032">
        <ele>666.9</ele>
        <time>2016-07-08T10:29:17Z</time>
      </trkpt>
      <trkpt lat="43.33806" lon="-6.42029">
        <ele>667.8</ele>
        <time>2016-07-08T10:29:30Z</time>
      </trkpt>
      <trkpt lat="43.33814" lon="-6.42026">
        <ele>669.7</ele>
        <time>2016-07-08T10:29:42Z</time>
      </trkpt>
      <trkpt lat="43.33823" lon="-6.42023">
        <ele>671.5</ele>
        <time>2016-07-08T10:29:54Z</time>
      </trkpt>
      <trkpt lat="43.33832" lon="-6.42021">
        <ele>674.3</ele>
        <time>2016-07-08T10:30:11Z</time>
      </trkpt>
      <trkpt lat="43.33841" lon="-6.42019">
        <ele>675.9</ele>
        <time>2016-07-08T10:30:23Z</time>
      </trkpt>
      <trkpt lat="43.3385" lon="-6.42015">
        <ele>677.7</ele>
        <time>2016-07-08T10:30:35Z</time>
      </trkpt>
      <trkpt lat="43.33857" lon="-6.42007">
        <ele>679.5</ele>
        <time>2016-07-08T10:30:47Z</time>
      </trkpt>
      <trkpt lat="43.33864" lon="-6.41999">
        <ele>681</ele>
        <time>2016-07-08T10:30:57Z</time>
      </trkpt>
      <trkpt lat="43.3387" lon="-6.41989">
        <ele>682.2</ele>
        <time>2016-07-08T10:31:08Z</time>
      </trkpt>
      <trkpt lat="43.33875" lon="-6.41977">
        <ele>683.6</ele>
        <time>2016-07-08T10:31:18Z</time>
      </trkpt>
      <trkpt lat="43.33881" lon="-6.41967">
        <ele>684.7</ele>
        <time>2016-07-08T10:31:27Z</time>
      </trkpt>
      <trkpt lat="43.33884" lon="-6.41955">
        <ele>686.5</ele>
        <time>2016-07-08T10:31:38Z</time>
      </trkpt>
      <trkpt lat="43.33889" lon="-6.41944">
        <ele>688.2</ele>
        <time>2016-07-08T10:32:26Z</time>
      </trkpt>
      <trkpt lat="43.33894" lon="-6.41932">
        <ele>688.5</ele>
        <time>2016-07-08T10:32:36Z</time>
      </trkpt>
      <trkpt lat="43.33903" lon="-6.41927">
        <ele>688.4</ele>
        <time>2016-07-08T10:32:46Z</time>
      </trkpt>
      <trkpt lat="43.33912" lon="-6.41927">
        <ele>688.9</ele>
        <time>2016-07-08T10:32:56Z</time>
      </trkpt>
      <trkpt lat="43.33921" lon="-6.41928">
        <ele>689.8</ele>
        <time>2016-07-08T10:33:05Z</time>
      </trkpt>
      <trkpt lat="43.33931" lon="-6.4193">
        <ele>690.5</ele>
        <time>2016-07-08T10:33:16Z</time>
      </trkpt>
      <trkpt lat="43.33941" lon="-6.41932">
        <ele>691.4</ele>
        <time>2016-07-08T10:33:27Z</time>
      </trkpt>
      <trkpt lat="43.3395" lon="-6.41931">
        <ele>692.8</ele>
        <time>2016-07-08T10:33:38Z</time>
      </trkpt>
      <trkpt lat="43.3396" lon="-6.4193">
        <ele>694.4</ele>
        <time>2016-07-08T10:33:51Z</time>
      </trkpt>
      <trkpt lat="43.33958" lon="-6.41943">
        <ele>697.1</ele>
        <time>2016-07-08T10:34:11Z</time>
      </trkpt>
      <trkpt lat="43.33955" lon="-6.41956">
        <ele>698.3</ele>
        <time>2016-07-08T10:34:23Z</time>
      </trkpt>
      <trkpt lat="43.33955" lon="-6.41968">
        <ele>699.5</ele>
        <time>2016-07-08T10:34:35Z</time>
      </trkpt>
      <trkpt lat="43.33956" lon="-6.41981">
        <ele>700.9</ele>
        <time>2016-07-08T10:34:44Z</time>
      </trkpt>
      <trkpt lat="43.33962" lon="-6.4199">
        <ele>701.8</ele>
        <time>2016-07-08T10:35:02Z</time>
      </trkpt>
      <trkpt lat="43.33963" lon="-6.42003">
        <ele>701.7</ele>
        <time>2016-07-08T10:35:13Z</time>
      </trkpt>
      <trkpt lat="43.33954" lon="-6.41998">
        <ele>703.9</ele>
        <time>2016-07-08T10:35:43Z</time>
      </trkpt>
      <trkpt lat="43.33956" lon="-6.42011">
        <ele>705</ele>
        <time>2016-07-08T10:36:16Z</time>
      </trkpt>
      <trkpt lat="43.33958" lon="-6.42023">
        <ele>705.1</ele>
        <time>2016-07-08T10:36:23Z</time>
      </trkpt>
      <trkpt lat="43.3396" lon="-6.42036">
        <ele>705.4</ele>
        <time>2016-07-08T10:36:30Z</time>
      </trkpt>
      <trkpt lat="43.33962" lon="-6.4205">
        <ele>705.8</ele>
        <time>2016-07-08T10:36:37Z</time>
      </trkpt>
      <trkpt lat="43.33963" lon="-6.42062">
        <ele>706</ele>
        <time>2016-07-08T10:36:44Z</time>
      </trkpt>
      <trkpt lat="43.33965" lon="-6.42075">
        <ele>706.1</ele>
        <time>2016-07-08T10:36:52Z</time>
      </trkpt>
      <trkpt lat="43.33967" lon="-6.42088">
        <ele>706.7</ele>
        <time>2016-07-08T10:37:00Z</time>
      </trkpt>
      <trkpt lat="43.33972" lon="-6.421">
        <ele>707</ele>
        <time>2016-07-08T10:37:10Z</time>
      </trkpt>
      <trkpt lat="43.33976" lon="-6.42113">
        <ele>706.9</ele>
        <time>2016-07-08T10:37:18Z</time>
      </trkpt>
      <trkpt lat="43.33979" lon="-6.42125">
        <ele>706.6</ele>
        <time>2016-07-08T10:37:26Z</time>
      </trkpt>
      <trkpt lat="43.33983" lon="-6.42138">
        <ele>706.4</ele>
        <time>2016-07-08T10:37:35Z</time>
      </trkpt>
      <trkpt lat="43.33987" lon="-6.4215">
        <ele>706.9</ele>
        <time>2016-07-08T10:37:44Z</time>
      </trkpt>
      <trkpt lat="43.33991" lon="-6.42161">
        <ele>707.3</ele>
        <time>2016-07-08T10:37:52Z</time>
      </trkpt>
      <trkpt lat="43.33996" lon="-6.42173">
        <ele>707.9</ele>
        <time>2016-07-08T10:38:00Z</time>
      </trkpt>
      <trkpt lat="43.33998" lon="-6.42186">
        <ele>707.7</ele>
        <time>2016-07-08T10:38:09Z</time>
      </trkpt>
      <trkpt lat="43.34003" lon="-6.42197">
        <ele>708</ele>
        <time>2016-07-08T10:38:17Z</time>
      </trkpt>
      <trkpt lat="43.34009" lon="-6.42207">
        <ele>708.7</ele>
        <time>2016-07-08T10:38:26Z</time>
      </trkpt>
      <trkpt lat="43.34017" lon="-6.42214">
        <ele>709.4</ele>
        <time>2016-07-08T10:38:36Z</time>
      </trkpt>
      <trkpt lat="43.34025" lon="-6.4222">
        <ele>710.1</ele>
        <time>2016-07-08T10:38:48Z</time>
      </trkpt>
      <trkpt lat="43.34035" lon="-6.42224">
        <ele>710.8</ele>
        <time>2016-07-08T10:38:56Z</time>
      </trkpt>
      <trkpt lat="43.34043" lon="-6.42228">
        <ele>711.3</ele>
        <time>2016-07-08T10:39:04Z</time>
      </trkpt>
      <trkpt lat="43.34051" lon="-6.42236">
        <ele>711.6</ele>
        <time>2016-07-08T10:39:14Z</time>
      </trkpt>
      <trkpt lat="43.34057" lon="-6.42246">
        <ele>711.7</ele>
        <time>2016-07-08T10:39:26Z</time>
      </trkpt>
      <trkpt lat="43.34062" lon="-6.42257">
        <ele>711.8</ele>
        <time>2016-07-08T10:39:34Z</time>
      </trkpt>
      <trkpt lat="43.34068" lon="-6.42269">
        <ele>712</ele>
        <time>2016-07-08T10:39:42Z</time>
      </trkpt>
      <trkpt lat="43.34073" lon="-6.42281">
        <ele>712.1</ele>
        <time>2016-07-08T10:39:49Z</time>
      </trkpt>
      <trkpt lat="43.34078" lon="-6.42292">
        <ele>712.3</ele>
        <time>2016-07-08T10:39:57Z</time>
      </trkpt>
      <trkpt lat="43.34085" lon="-6.42302">
        <ele>712.6</ele>
        <time>2016-07-08T10:40:05Z</time>
      </trkpt>
      <trkpt lat="43.34093" lon="-6.42308">
        <ele>712.9</ele>
        <time>2016-07-08T10:40:13Z</time>
      </trkpt>
      <trkpt lat="43.34101" lon="-6.42317">
        <ele>713.3</ele>
        <time>2016-07-08T10:40:23Z</time>
      </trkpt>
      <trkpt lat="43.34107" lon="-6.42326">
        <ele>713.5</ele>
        <time>2016-07-08T10:40:31Z</time>
      </trkpt>
      <trkpt lat="43.34115" lon="-6.42333">
        <ele>714.1</ele>
        <time>2016-07-08T10:40:41Z</time>
      </trkpt>
      <trkpt lat="43.34121" lon="-6.42343">
        <ele>714.7</ele>
        <time>2016-07-08T10:40:49Z</time>
      </trkpt>
      <trkpt lat="43.34127" lon="-6.42352">
        <ele>715.6</ele>
        <time>2016-07-08T10:40:57Z</time>
      </trkpt>
      <trkpt lat="43.34132" lon="-6.42363">
        <ele>716.2</ele>
        <time>2016-07-08T10:41:07Z</time>
      </trkpt>
      <trkpt lat="43.34137" lon="-6.42375">
        <ele>715.8</ele>
        <time>2016-07-08T10:41:18Z</time>
      </trkpt>
      <trkpt lat="43.34141" lon="-6.42389">
        <ele>714.9</ele>
        <time>2016-07-08T10:41:30Z</time>
      </trkpt>
      <trkpt lat="43.34143" lon="-6.42401">
        <ele>714</ele>
        <time>2016-07-08T10:41:44Z</time>
      </trkpt>
      <trkpt lat="43.34136" lon="-6.42411">
        <ele>713.6</ele>
        <time>2016-07-08T10:41:57Z</time>
      </trkpt>
      <trkpt lat="43.34129" lon="-6.42419">
        <ele>713.6</ele>
        <time>2016-07-08T10:42:10Z</time>
      </trkpt>
      <trkpt lat="43.34125" lon="-6.4243">
        <ele>714.8</ele>
        <time>2016-07-08T10:42:36Z</time>
      </trkpt>
      <trkpt lat="43.34116" lon="-6.42429">
        <ele>715.1</ele>
        <time>2016-07-08T10:43:12Z</time>
      </trkpt>
      <trkpt lat="43.34107" lon="-6.42434">
        <ele>715.6</ele>
        <time>2016-07-08T10:43:33Z</time>
      </trkpt>
      <trkpt lat="43.34099" lon="-6.42443">
        <ele>716.7</ele>
        <time>2016-07-08T10:43:45Z</time>
      </trkpt>
      <trkpt lat="43.3409" lon="-6.42447">
        <ele>717.7</ele>
        <time>2016-07-08T10:44:42Z</time>
      </trkpt>
      <trkpt lat="43.34082" lon="-6.4245">
        <ele>717.7</ele>
        <time>2016-07-08T10:44:53Z</time>
      </trkpt>
      <trkpt lat="43.34072" lon="-6.4245">
        <ele>717.5</ele>
        <time>2016-07-08T10:45:06Z</time>
      </trkpt>
      <trkpt lat="43.34062" lon="-6.42451">
        <ele>717.5</ele>
        <time>2016-07-08T10:45:14Z</time>
      </trkpt>
      <trkpt lat="43.34053" lon="-6.42453">
        <ele>718</ele>
        <time>2016-07-08T10:45:22Z</time>
      </trkpt>
      <trkpt lat="43.34045" lon="-6.42458">
        <ele>718.2</ele>
        <time>2016-07-08T10:45:30Z</time>
      </trkpt>
      <trkpt lat="43.34037" lon="-6.42463">
        <ele>718.6</ele>
        <time>2016-07-08T10:45:39Z</time>
      </trkpt>
      <trkpt lat="43.34029" lon="-6.42471">
        <ele>719.2</ele>
        <time>2016-07-08T10:45:49Z</time>
      </trkpt>
      <trkpt lat="43.3402" lon="-6.42476">
        <ele>719.4</ele>
        <time>2016-07-08T10:45:58Z</time>
      </trkpt>
      <trkpt lat="43.34011" lon="-6.42481">
        <ele>719.5</ele>
        <time>2016-07-08T10:46:06Z</time>
      </trkpt>
      <trkpt lat="43.34003" lon="-6.42489">
        <ele>719.1</ele>
        <time>2016-07-08T10:46:14Z</time>
      </trkpt>
      <trkpt lat="43.33996" lon="-6.42498">
        <ele>718.8</ele>
        <time>2016-07-08T10:46:22Z</time>
      </trkpt>
      <trkpt lat="43.33989" lon="-6.42507">
        <ele>718.1</ele>
        <time>2016-07-08T10:46:31Z</time>
      </trkpt>
      <trkpt lat="43.33983" lon="-6.42518">
        <ele>716.8</ele>
        <time>2016-07-08T10:46:41Z</time>
      </trkpt>
      <trkpt lat="43.33981" lon="-6.4253">
        <ele>716.1</ele>
        <time>2016-07-08T10:46:50Z</time>
      </trkpt>
      <trkpt lat="43.3398" lon="-6.42543">
        <ele>715.3</ele>
        <time>2016-07-08T10:46:58Z</time>
      </trkpt>
      <trkpt lat="43.33975" lon="-6.42554">
        <ele>714.1</ele>
        <time>2016-07-08T10:47:07Z</time>
      </trkpt>
      <trkpt lat="43.33966" lon="-6.4255">
        <ele>711.6</ele>
        <time>2016-07-08T10:47:31Z</time>
      </trkpt>
      <trkpt lat="43.33958" lon="-6.42543">
        <ele>711.4</ele>
        <time>2016-07-08T10:47:44Z</time>
      </trkpt>
      <trkpt lat="43.3395" lon="-6.42536">
        <ele>711.2</ele>
        <time>2016-07-08T10:47:51Z</time>
      </trkpt>
      <trkpt lat="43.3394" lon="-6.42536">
        <ele>710.1</ele>
        <time>2016-07-08T10:48:00Z</time>
      </trkpt>
      <trkpt lat="43.33931" lon="-6.42536">
        <ele>709.2</ele>
        <time>2016-07-08T10:48:06Z</time>
      </trkpt>
      <trkpt lat="43.33922" lon="-6.42538">
        <ele>708.9</ele>
        <time>2016-07-08T10:48:14Z</time>
      </trkpt>
      <trkpt lat="43.33912" lon="-6.42538">
        <ele>709.3</ele>
        <time>2016-07-08T10:48:23Z</time>
      </trkpt>
      <trkpt lat="43.33903" lon="-6.42538">
        <ele>709.7</ele>
        <time>2016-07-08T10:48:32Z</time>
      </trkpt>
      <trkpt lat="43.33894" lon="-6.42542">
        <ele>710.9</ele>
        <time>2016-07-08T10:48:41Z</time>
      </trkpt>
      <trkpt lat="43.33885" lon="-6.42549">
        <ele>712.1</ele>
        <time>2016-07-08T10:48:51Z</time>
      </trkpt>
      <trkpt lat="43.33878" lon="-6.42557">
        <ele>712.8</ele>
        <time>2016-07-08T10:49:00Z</time>
      </trkpt>
      <trkpt lat="43.3387" lon="-6.42565">
        <ele>713.7</ele>
        <time>2016-07-08T10:49:10Z</time>
      </trkpt>
      <trkpt lat="43.33864" lon="-6.42574">
        <ele>714.4</ele>
        <time>2016-07-08T10:49:20Z</time>
      </trkpt>
      <trkpt lat="43.33856" lon="-6.42582">
        <ele>714.7</ele>
        <time>2016-07-08T10:49:30Z</time>
      </trkpt>
      <trkpt lat="43.33848" lon="-6.42589">
        <ele>714.9</ele>
        <time>2016-07-08T10:49:39Z</time>
      </trkpt>
      <trkpt lat="43.3384" lon="-6.42597">
        <ele>715.4</ele>
        <time>2016-07-08T10:49:48Z</time>
      </trkpt>
      <trkpt lat="43.33835" lon="-6.42608">
        <ele>715.3</ele>
        <time>2016-07-08T10:49:57Z</time>
      </trkpt>
      <trkpt lat="43.33828" lon="-6.42617">
        <ele>714.3</ele>
        <time>2016-07-08T10:50:06Z</time>
      </trkpt>
      <trkpt lat="43.33825" lon="-6.4263">
        <ele>713.2</ele>
        <time>2016-07-08T10:50:19Z</time>
      </trkpt>
      <trkpt lat="43.33817" lon="-6.42637">
        <ele>712.8</ele>
        <time>2016-07-08T10:50:27Z</time>
      </trkpt>
      <trkpt lat="43.33808" lon="-6.42638">
        <ele>712.8</ele>
        <time>2016-07-08T10:50:36Z</time>
      </trkpt>
      <trkpt lat="43.33798" lon="-6.4264">
        <ele>712.8</ele>
        <time>2016-07-08T10:50:44Z</time>
      </trkpt>
      <trkpt lat="43.33788" lon="-6.4264">
        <ele>712.7</ele>
        <time>2016-07-08T10:50:52Z</time>
      </trkpt>
      <trkpt lat="43.33779" lon="-6.4264">
        <ele>712.7</ele>
        <time>2016-07-08T10:51:00Z</time>
      </trkpt>
      <trkpt lat="43.33771" lon="-6.42644">
        <ele>712.7</ele>
        <time>2016-07-08T10:51:09Z</time>
      </trkpt>
      <trkpt lat="43.33765" lon="-6.42654">
        <ele>712.8</ele>
        <time>2016-07-08T10:51:19Z</time>
      </trkpt>
      <trkpt lat="43.33759" lon="-6.42664">
        <ele>714</ele>
        <time>2016-07-08T10:51:30Z</time>
      </trkpt>
      <trkpt lat="43.33756" lon="-6.42677">
        <ele>715</ele>
        <time>2016-07-08T10:51:39Z</time>
      </trkpt>
      <trkpt lat="43.33752" lon="-6.42688">
        <ele>716.7</ele>
        <time>2016-07-08T10:51:50Z</time>
      </trkpt>
      <trkpt lat="43.33747" lon="-6.42699">
        <ele>717.6</ele>
        <time>2016-07-08T10:52:00Z</time>
      </trkpt>
      <trkpt lat="43.33742" lon="-6.4271">
        <ele>718.5</ele>
        <time>2016-07-08T10:52:11Z</time>
      </trkpt>
      <trkpt lat="43.33738" lon="-6.42721">
        <ele>719.3</ele>
        <time>2016-07-08T10:52:23Z</time>
      </trkpt>
      <trkpt lat="43.33733" lon="-6.42732">
        <ele>719.8</ele>
        <time>2016-07-08T10:52:32Z</time>
      </trkpt>
      <trkpt lat="43.33729" lon="-6.42744">
        <ele>720.1</ele>
        <time>2016-07-08T10:52:41Z</time>
      </trkpt>
      <trkpt lat="43.33727" lon="-6.42756">
        <ele>720.5</ele>
        <time>2016-07-08T10:52:49Z</time>
      </trkpt>
      <trkpt lat="43.33721" lon="-6.42767">
        <ele>721.3</ele>
        <time>2016-07-08T10:52:57Z</time>
      </trkpt>
      <trkpt lat="43.33715" lon="-6.42778">
        <ele>722.9</ele>
        <time>2016-07-08T10:53:09Z</time>
      </trkpt>
      <trkpt lat="43.33714" lon="-6.42791">
        <ele>723.8</ele>
        <time>2016-07-08T10:53:18Z</time>
      </trkpt>
      <trkpt lat="43.3371" lon="-6.42804">
        <ele>724.2</ele>
        <time>2016-07-08T10:53:28Z</time>
      </trkpt>
      <trkpt lat="43.33706" lon="-6.42815">
        <ele>725</ele>
        <time>2016-07-08T10:53:36Z</time>
      </trkpt>
      <trkpt lat="43.33702" lon="-6.42827">
        <ele>726.5</ele>
        <time>2016-07-08T10:53:46Z</time>
      </trkpt>
      <trkpt lat="43.33698" lon="-6.4284">
        <ele>726.8</ele>
        <time>2016-07-08T10:53:56Z</time>
      </trkpt>
      <trkpt lat="43.33695" lon="-6.42852">
        <ele>727.8</ele>
        <time>2016-07-08T10:54:09Z</time>
      </trkpt>
      <trkpt lat="43.33691" lon="-6.42864">
        <ele>728.8</ele>
        <time>2016-07-08T10:54:19Z</time>
      </trkpt>
      <trkpt lat="43.33693" lon="-6.42878">
        <ele>729.3</ele>
        <time>2016-07-08T10:54:27Z</time>
      </trkpt>
      <trkpt lat="43.33695" lon="-6.42891">
        <ele>730</ele>
        <time>2016-07-08T10:54:35Z</time>
      </trkpt>
      <trkpt lat="43.33696" lon="-6.42904">
        <ele>730.4</ele>
        <time>2016-07-08T10:54:41Z</time>
      </trkpt>
      <trkpt lat="43.33695" lon="-6.42918">
        <ele>731.1</ele>
        <time>2016-07-08T10:54:50Z</time>
      </trkpt>
      <trkpt lat="43.33695" lon="-6.42931">
        <ele>731.8</ele>
        <time>2016-07-08T10:54:59Z</time>
      </trkpt>
      <trkpt lat="43.33696" lon="-6.42944">
        <ele>732.7</ele>
        <time>2016-07-08T10:55:09Z</time>
      </trkpt>
      <trkpt lat="43.33697" lon="-6.42957">
        <ele>733</ele>
        <time>2016-07-08T10:55:18Z</time>
      </trkpt>
      <trkpt lat="43.33701" lon="-6.42969">
        <ele>733.5</ele>
        <time>2016-07-08T10:55:26Z</time>
      </trkpt>
      <trkpt lat="43.33704" lon="-6.42981">
        <ele>734.3</ele>
        <time>2016-07-08T10:55:35Z</time>
      </trkpt>
      <trkpt lat="43.33707" lon="-6.42993">
        <ele>736.3</ele>
        <time>2016-07-08T10:55:58Z</time>
      </trkpt>
      <trkpt lat="43.33708" lon="-6.43005">
        <ele>737.2</ele>
        <time>2016-07-08T10:56:09Z</time>
      </trkpt>
      <trkpt lat="43.33711" lon="-6.43017">
        <ele>737.8</ele>
        <time>2016-07-08T10:56:23Z</time>
      </trkpt>
      <trkpt lat="43.33716" lon="-6.43029">
        <ele>738.6</ele>
        <time>2016-07-08T10:56:34Z</time>
      </trkpt>
      <trkpt lat="43.33712" lon="-6.43041">
        <ele>740</ele>
        <time>2016-07-08T10:56:47Z</time>
      </trkpt>
      <trkpt lat="43.33704" lon="-6.43049">
        <ele>741.2</ele>
        <time>2016-07-08T10:56:58Z</time>
      </trkpt>
      <trkpt lat="43.33697" lon="-6.43057">
        <ele>742.4</ele>
        <time>2016-07-08T10:57:09Z</time>
      </trkpt>
      <trkpt lat="43.33688" lon="-6.43062">
        <ele>743.5</ele>
        <time>2016-07-08T10:57:20Z</time>
      </trkpt>
      <trkpt lat="43.33678" lon="-6.43064">
        <ele>743.7</ele>
        <time>2016-07-08T10:57:30Z</time>
      </trkpt>
      <trkpt lat="43.33669" lon="-6.4307">
        <ele>744.2</ele>
        <time>2016-07-08T10:57:40Z</time>
      </trkpt>
      <trkpt lat="43.33661" lon="-6.43076">
        <ele>744.8</ele>
        <time>2016-07-08T10:57:48Z</time>
      </trkpt>
      <trkpt lat="43.33653" lon="-6.43083">
        <ele>745.3</ele>
        <time>2016-07-08T10:57:56Z</time>
      </trkpt>
      <trkpt lat="43.33646" lon="-6.43093">
        <ele>746</ele>
        <time>2016-07-08T10:58:05Z</time>
      </trkpt>
      <trkpt lat="43.33639" lon="-6.43101">
        <ele>746.2</ele>
        <time>2016-07-08T10:58:14Z</time>
      </trkpt>
      <trkpt lat="43.33632" lon="-6.4311">
        <ele>746.6</ele>
        <time>2016-07-08T10:58:22Z</time>
      </trkpt>
      <trkpt lat="43.33626" lon="-6.4312">
        <ele>747.3</ele>
        <time>2016-07-08T10:58:31Z</time>
      </trkpt>
      <trkpt lat="43.33618" lon="-6.43128">
        <ele>748</ele>
        <time>2016-07-08T10:58:40Z</time>
      </trkpt>
      <trkpt lat="43.3361" lon="-6.43135">
        <ele>748.4</ele>
        <time>2016-07-08T10:58:50Z</time>
      </trkpt>
      <trkpt lat="43.33606" lon="-6.43148">
        <ele>748.6</ele>
        <time>2016-07-08T10:58:59Z</time>
      </trkpt>
      <trkpt lat="43.336" lon="-6.43158">
        <ele>748.9</ele>
        <time>2016-07-08T10:59:07Z</time>
      </trkpt>
      <trkpt lat="43.33594" lon="-6.43168">
        <ele>749.2</ele>
        <time>2016-07-08T10:59:16Z</time>
      </trkpt>
      <trkpt lat="43.33588" lon="-6.43178">
        <ele>750</ele>
        <time>2016-07-08T10:59:26Z</time>
      </trkpt>
      <trkpt lat="43.33582" lon="-6.43189">
        <ele>750.8</ele>
        <time>2016-07-08T10:59:35Z</time>
      </trkpt>
      <trkpt lat="43.33578" lon="-6.43201">
        <ele>751.2</ele>
        <time>2016-07-08T10:59:43Z</time>
      </trkpt>
      <trkpt lat="43.33573" lon="-6.43213">
        <ele>751.6</ele>
        <time>2016-07-08T10:59:53Z</time>
      </trkpt>
      <trkpt lat="43.3357" lon="-6.43225">
        <ele>752.3</ele>
        <time>2016-07-08T11:00:02Z</time>
      </trkpt>
      <trkpt lat="43.33566" lon="-6.43237">
        <ele>753</ele>
        <time>2016-07-08T11:00:12Z</time>
      </trkpt>
      <trkpt lat="43.33567" lon="-6.43251">
        <ele>753.4</ele>
        <time>2016-07-08T11:00:21Z</time>
      </trkpt>
      <trkpt lat="43.33567" lon="-6.43265">
        <ele>754.2</ele>
        <time>2016-07-08T11:00:30Z</time>
      </trkpt>
      <trkpt lat="43.33568" lon="-6.43277">
        <ele>754.9</ele>
        <time>2016-07-08T11:00:39Z</time>
      </trkpt>
      <trkpt lat="43.33571" lon="-6.4329">
        <ele>756.3</ele>
        <time>2016-07-08T11:01:06Z</time>
      </trkpt>
      <trkpt lat="43.3357" lon="-6.43303">
        <ele>756.8</ele>
        <time>2016-07-08T11:01:16Z</time>
      </trkpt>
      <trkpt lat="43.33569" lon="-6.43316">
        <ele>757.6</ele>
        <time>2016-07-08T11:01:27Z</time>
      </trkpt>
      <trkpt lat="43.33567" lon="-6.4333">
        <ele>758.3</ele>
        <time>2016-07-08T11:01:36Z</time>
      </trkpt>
      <trkpt lat="43.33565" lon="-6.43341">
        <ele>760.7</ele>
        <time>2016-07-08T11:02:39Z</time>
      </trkpt>
      <trkpt lat="43.33565" lon="-6.43354">
        <ele>760.9</ele>
        <time>2016-07-08T11:02:47Z</time>
      </trkpt>
      <trkpt lat="43.33567" lon="-6.43367">
        <ele>761.6</ele>
        <time>2016-07-08T11:02:57Z</time>
      </trkpt>
      <trkpt lat="43.3357" lon="-6.43379">
        <ele>762</ele>
        <time>2016-07-08T11:03:05Z</time>
      </trkpt>
      <trkpt lat="43.33572" lon="-6.43391">
        <ele>762.2</ele>
        <time>2016-07-08T11:03:14Z</time>
      </trkpt>
      <trkpt lat="43.33575" lon="-6.43403">
        <ele>762.8</ele>
        <time>2016-07-08T11:03:23Z</time>
      </trkpt>
      <trkpt lat="43.33579" lon="-6.43415">
        <ele>763.7</ele>
        <time>2016-07-08T11:03:32Z</time>
      </trkpt>
      <trkpt lat="43.33584" lon="-6.43425">
        <ele>764.4</ele>
        <time>2016-07-08T11:03:41Z</time>
      </trkpt>
      <trkpt lat="43.3359" lon="-6.43434">
        <ele>765.4</ele>
        <time>2016-07-08T11:03:52Z</time>
      </trkpt>
      <trkpt lat="43.33596" lon="-6.43444">
        <ele>766.7</ele>
        <time>2016-07-08T11:04:03Z</time>
      </trkpt>
      <trkpt lat="43.33604" lon="-6.43451">
        <ele>768.1</ele>
        <time>2016-07-08T11:04:15Z</time>
      </trkpt>
      <trkpt lat="43.33613" lon="-6.43453">
        <ele>769.7</ele>
        <time>2016-07-08T11:04:26Z</time>
      </trkpt>
      <trkpt lat="43.33622" lon="-6.43452">
        <ele>772.9</ele>
        <time>2016-07-08T11:04:46Z</time>
      </trkpt>
      <trkpt lat="43.33631" lon="-6.43453">
        <ele>773.6</ele>
        <time>2016-07-08T11:04:57Z</time>
      </trkpt>
      <trkpt lat="43.3364" lon="-6.43454">
        <ele>774.2</ele>
        <time>2016-07-08T11:05:09Z</time>
      </trkpt>
      <trkpt lat="43.33648" lon="-6.43458">
        <ele>775.1</ele>
        <time>2016-07-08T11:05:22Z</time>
      </trkpt>
      <trkpt lat="43.33656" lon="-6.43465">
        <ele>775</ele>
        <time>2016-07-08T11:05:31Z</time>
      </trkpt>
      <trkpt lat="43.33664" lon="-6.43473">
        <ele>774.5</ele>
        <time>2016-07-08T11:05:39Z</time>
      </trkpt>
      <trkpt lat="43.33671" lon="-6.43481">
        <ele>774</ele>
        <time>2016-07-08T11:05:47Z</time>
      </trkpt>
      <trkpt lat="43.33679" lon="-6.43489">
        <ele>773.4</ele>
        <time>2016-07-08T11:05:56Z</time>
      </trkpt>
      <trkpt lat="43.33687" lon="-6.43498">
        <ele>772.7</ele>
        <time>2016-07-08T11:06:05Z</time>
      </trkpt>
      <trkpt lat="43.33694" lon="-6.43509">
        <ele>772.2</ele>
        <time>2016-07-08T11:06:16Z</time>
      </trkpt>
      <trkpt lat="43.33697" lon="-6.43522">
        <ele>772.2</ele>
        <time>2016-07-08T11:06:24Z</time>
      </trkpt>
      <trkpt lat="43.33699" lon="-6.43534">
        <ele>772.2</ele>
        <time>2016-07-08T11:06:33Z</time>
      </trkpt>
      <trkpt lat="43.337" lon="-6.43547">
        <ele>772.5</ele>
        <time>2016-07-08T11:06:41Z</time>
      </trkpt>
      <trkpt lat="43.33701" lon="-6.4356">
        <ele>772.6</ele>
        <time>2016-07-08T11:06:50Z</time>
      </trkpt>
      <trkpt lat="43.33703" lon="-6.43574">
        <ele>773.3</ele>
        <time>2016-07-08T11:06:59Z</time>
      </trkpt>
      <trkpt lat="43.33703" lon="-6.43587">
        <ele>773.9</ele>
        <time>2016-07-08T11:07:08Z</time>
      </trkpt>
      <trkpt lat="43.33702" lon="-6.436">
        <ele>774.6</ele>
        <time>2016-07-08T11:07:17Z</time>
      </trkpt>
      <trkpt lat="43.337" lon="-6.43612">
        <ele>775.1</ele>
        <time>2016-07-08T11:07:26Z</time>
      </trkpt>
      <trkpt lat="43.33697" lon="-6.43624">
        <ele>775.8</ele>
        <time>2016-07-08T11:07:34Z</time>
      </trkpt>
      <trkpt lat="43.33696" lon="-6.43636">
        <ele>776.5</ele>
        <time>2016-07-08T11:07:47Z</time>
      </trkpt>
      <trkpt lat="43.33696" lon="-6.43649">
        <ele>776.7</ele>
        <time>2016-07-08T11:07:55Z</time>
      </trkpt>
      <trkpt lat="43.33699" lon="-6.43662">
        <ele>777.1</ele>
        <time>2016-07-08T11:08:05Z</time>
      </trkpt>
      <trkpt lat="43.33703" lon="-6.43673">
        <ele>777.4</ele>
        <time>2016-07-08T11:08:13Z</time>
      </trkpt>
      <trkpt lat="43.33707" lon="-6.43686">
        <ele>778.2</ele>
        <time>2016-07-08T11:08:22Z</time>
      </trkpt>
      <trkpt lat="43.33709" lon="-6.43698">
        <ele>779.2</ele>
        <time>2016-07-08T11:08:32Z</time>
      </trkpt>
      <trkpt lat="43.33707" lon="-6.43711">
        <ele>780.3</ele>
        <time>2016-07-08T11:08:41Z</time>
      </trkpt>
      <trkpt lat="43.3371" lon="-6.43724">
        <ele>781.2</ele>
        <time>2016-07-08T11:08:51Z</time>
      </trkpt>
      <trkpt lat="43.33709" lon="-6.43737">
        <ele>781.8</ele>
        <time>2016-07-08T11:09:00Z</time>
      </trkpt>
      <trkpt lat="43.33708" lon="-6.4375">
        <ele>782.3</ele>
        <time>2016-07-08T11:09:10Z</time>
      </trkpt>
      <trkpt lat="43.33709" lon="-6.43763">
        <ele>782.7</ele>
        <time>2016-07-08T11:09:19Z</time>
      </trkpt>
      <trkpt lat="43.33713" lon="-6.43774">
        <ele>783.2</ele>
        <time>2016-07-08T11:09:27Z</time>
      </trkpt>
      <trkpt lat="43.33718" lon="-6.43785">
        <ele>784.2</ele>
        <time>2016-07-08T11:09:35Z</time>
      </trkpt>
      <trkpt lat="43.33714" lon="-6.43797">
        <ele>786.7</ele>
        <time>2016-07-08T11:10:02Z</time>
      </trkpt>
      <trkpt lat="43.33719" lon="-6.43808">
        <ele>787.4</ele>
        <time>2016-07-08T11:10:18Z</time>
      </trkpt>
      <trkpt lat="43.33727" lon="-6.43817">
        <ele>787.7</ele>
        <time>2016-07-08T11:10:27Z</time>
      </trkpt>
      <trkpt lat="43.33734" lon="-6.43825">
        <ele>788.3</ele>
        <time>2016-07-08T11:10:34Z</time>
      </trkpt>
      <trkpt lat="43.33741" lon="-6.43834">
        <ele>789</ele>
        <time>2016-07-08T11:10:42Z</time>
      </trkpt>
      <trkpt lat="43.33748" lon="-6.43843">
        <ele>789.5</ele>
        <time>2016-07-08T11:10:53Z</time>
      </trkpt>
      <trkpt lat="43.33755" lon="-6.43851">
        <ele>789.7</ele>
        <time>2016-07-08T11:11:02Z</time>
      </trkpt>
      <trkpt lat="43.33761" lon="-6.4386">
        <ele>790</ele>
        <time>2016-07-08T11:11:11Z</time>
      </trkpt>
      <trkpt lat="43.33768" lon="-6.4387">
        <ele>790.5</ele>
        <time>2016-07-08T11:11:20Z</time>
      </trkpt>
      <trkpt lat="43.33774" lon="-6.4388">
        <ele>791</ele>
        <time>2016-07-08T11:11:30Z</time>
      </trkpt>
      <trkpt lat="43.33783" lon="-6.43887">
        <ele>791.9</ele>
        <time>2016-07-08T11:11:40Z</time>
      </trkpt>
      <trkpt lat="43.33791" lon="-6.43894">
        <ele>792.5</ele>
        <time>2016-07-08T11:11:50Z</time>
      </trkpt>
      <trkpt lat="43.33799" lon="-6.439">
        <ele>793</ele>
        <time>2016-07-08T11:12:00Z</time>
      </trkpt>
      <trkpt lat="43.33807" lon="-6.43907">
        <ele>793.5</ele>
        <time>2016-07-08T11:12:09Z</time>
      </trkpt>
      <trkpt lat="43.33815" lon="-6.43912">
        <ele>794</ele>
        <time>2016-07-08T11:12:17Z</time>
      </trkpt>
      <trkpt lat="43.33823" lon="-6.43919">
        <ele>794.5</ele>
        <time>2016-07-08T11:12:25Z</time>
      </trkpt>
      <trkpt lat="43.33831" lon="-6.43926">
        <ele>794.9</ele>
        <time>2016-07-08T11:12:33Z</time>
      </trkpt>
      <trkpt lat="43.3384" lon="-6.43928">
        <ele>795.3</ele>
        <time>2016-07-08T11:12:44Z</time>
      </trkpt>
      <trkpt lat="43.33844" lon="-6.43939">
        <ele>795.7</ele>
        <time>2016-07-08T11:12:56Z</time>
      </trkpt>
      <trkpt lat="43.33849" lon="-6.4395">
        <ele>796.3</ele>
        <time>2016-07-08T11:13:05Z</time>
      </trkpt>
      <trkpt lat="43.33852" lon="-6.43963">
        <ele>796.6</ele>
        <time>2016-07-08T11:13:14Z</time>
      </trkpt>
      <trkpt lat="43.3385" lon="-6.43976">
        <ele>796.7</ele>
        <time>2016-07-08T11:13:23Z</time>
      </trkpt>
      <trkpt lat="43.33848" lon="-6.43988">
        <ele>796.1</ele>
        <time>2016-07-08T11:13:32Z</time>
      </trkpt>
      <trkpt lat="43.33851" lon="-6.44001">
        <ele>795.7</ele>
        <time>2016-07-08T11:13:42Z</time>
      </trkpt>
      <trkpt lat="43.33852" lon="-6.44013">
        <ele>795.7</ele>
        <time>2016-07-08T11:13:51Z</time>
      </trkpt>
      <trkpt lat="43.33854" lon="-6.44025">
        <ele>795.6</ele>
        <time>2016-07-08T11:14:01Z</time>
      </trkpt>
      <trkpt lat="43.33855" lon="-6.44038">
        <ele>795.6</ele>
        <time>2016-07-08T11:14:09Z</time>
      </trkpt>
      <trkpt lat="43.33855" lon="-6.44052">
        <ele>795.5</ele>
        <time>2016-07-08T11:14:19Z</time>
      </trkpt>
      <trkpt lat="43.33854" lon="-6.44064">
        <ele>795.5</ele>
        <time>2016-07-08T11:14:28Z</time>
      </trkpt>
      <trkpt lat="43.33858" lon="-6.44075">
        <ele>795.5</ele>
        <time>2016-07-08T11:14:37Z</time>
      </trkpt>
      <trkpt lat="43.33864" lon="-6.44086">
        <ele>795.2</ele>
        <time>2016-07-08T11:14:45Z</time>
      </trkpt>
      <trkpt lat="43.33868" lon="-6.44098">
        <ele>795.3</ele>
        <time>2016-07-08T11:14:55Z</time>
      </trkpt>
      <trkpt lat="43.33873" lon="-6.44109">
        <ele>795.1</ele>
        <time>2016-07-08T11:15:03Z</time>
      </trkpt>
      <trkpt lat="43.33878" lon="-6.4412">
        <ele>794.5</ele>
        <time>2016-07-08T11:15:14Z</time>
      </trkpt>
      <trkpt lat="43.33883" lon="-6.44132">
        <ele>794.2</ele>
        <time>2016-07-08T11:15:24Z</time>
      </trkpt>
      <trkpt lat="43.33889" lon="-6.44142">
        <ele>794.3</ele>
        <time>2016-07-08T11:15:33Z</time>
      </trkpt>
      <trkpt lat="43.33897" lon="-6.44148">
        <ele>794.5</ele>
        <time>2016-07-08T11:15:46Z</time>
      </trkpt>
      <trkpt lat="43.33902" lon="-6.44159">
        <ele>793.9</ele>
        <time>2016-07-08T11:15:55Z</time>
      </trkpt>
      <trkpt lat="43.33903" lon="-6.44171">
        <ele>793.2</ele>
        <time>2016-07-08T11:16:05Z</time>
      </trkpt>
      <trkpt lat="43.33906" lon="-6.44184">
        <ele>793.5</ele>
        <time>2016-07-08T11:16:16Z</time>
      </trkpt>
      <trkpt lat="43.33913" lon="-6.44193">
        <ele>793.7</ele>
        <time>2016-07-08T11:16:25Z</time>
      </trkpt>
      <trkpt lat="43.33921" lon="-6.44201">
        <ele>794.6</ele>
        <time>2016-07-08T11:16:35Z</time>
      </trkpt>
      <trkpt lat="43.33925" lon="-6.44213">
        <ele>796.8</ele>
        <time>2016-07-08T11:16:48Z</time>
      </trkpt>
      <trkpt lat="43.33929" lon="-6.44225">
        <ele>798.6</ele>
        <time>2016-07-08T11:16:58Z</time>
      </trkpt>
      <trkpt lat="43.33932" lon="-6.44237">
        <ele>799.6</ele>
        <time>2016-07-08T11:17:10Z</time>
      </trkpt>
      <trkpt lat="43.33933" lon="-6.4425">
        <ele>800.9</ele>
        <time>2016-07-08T11:17:27Z</time>
      </trkpt>
      <trkpt lat="43.33929" lon="-6.44261">
        <ele>801</ele>
        <time>2016-07-08T11:17:38Z</time>
      </trkpt>
      <trkpt lat="43.33929" lon="-6.44274">
        <ele>801.1</ele>
        <time>2016-07-08T11:17:46Z</time>
      </trkpt>
      <trkpt lat="43.33931" lon="-6.44285">
        <ele>801.1</ele>
        <time>2016-07-08T11:17:55Z</time>
      </trkpt>
      <trkpt lat="43.33934" lon="-6.44297">
        <ele>801.8</ele>
        <time>2016-07-08T11:18:04Z</time>
      </trkpt>
      <trkpt lat="43.33937" lon="-6.4431">
        <ele>802.2</ele>
        <time>2016-07-08T11:18:14Z</time>
      </trkpt>
      <trkpt lat="43.33943" lon="-6.4432">
        <ele>802.5</ele>
        <time>2016-07-08T11:18:21Z</time>
      </trkpt>
      <trkpt lat="43.33946" lon="-6.44332">
        <ele>802.8</ele>
        <time>2016-07-08T11:18:29Z</time>
      </trkpt>
      <trkpt lat="43.33948" lon="-6.44344">
        <ele>803</ele>
        <time>2016-07-08T11:18:37Z</time>
      </trkpt>
      <trkpt lat="43.33952" lon="-6.44357">
        <ele>803.7</ele>
        <time>2016-07-08T11:18:47Z</time>
      </trkpt>
      <trkpt lat="43.33956" lon="-6.44369">
        <ele>804.9</ele>
        <time>2016-07-08T11:18:56Z</time>
      </trkpt>
      <trkpt lat="43.33959" lon="-6.44382">
        <ele>805.6</ele>
        <time>2016-07-08T11:19:07Z</time>
      </trkpt>
      <trkpt lat="43.33963" lon="-6.44394">
        <ele>806.4</ele>
        <time>2016-07-08T11:19:16Z</time>
      </trkpt>
      <trkpt lat="43.33965" lon="-6.44406">
        <ele>809.8</ele>
        <time>2016-07-08T11:19:45Z</time>
      </trkpt>
      <trkpt lat="43.3397" lon="-6.44417">
        <ele>810.5</ele>
        <time>2016-07-08T11:19:57Z</time>
      </trkpt>
      <trkpt lat="43.33976" lon="-6.44427">
        <ele>812</ele>
        <time>2016-07-08T11:20:09Z</time>
      </trkpt>
      <trkpt lat="43.33981" lon="-6.44438">
        <ele>813.9</ele>
        <time>2016-07-08T11:20:21Z</time>
      </trkpt>
      <trkpt lat="43.33984" lon="-6.4445">
        <ele>815.3</ele>
        <time>2016-07-08T11:20:33Z</time>
      </trkpt>
      <trkpt lat="43.3399" lon="-6.44461">
        <ele>816.3</ele>
        <time>2016-07-08T11:20:49Z</time>
      </trkpt>
      <trkpt lat="43.34" lon="-6.44466">
        <ele>817.3</ele>
        <time>2016-07-08T11:20:59Z</time>
      </trkpt>
      <trkpt lat="43.34009" lon="-6.44468">
        <ele>818.3</ele>
        <time>2016-07-08T11:21:09Z</time>
      </trkpt>
      <trkpt lat="43.34018" lon="-6.44473">
        <ele>819.1</ele>
        <time>2016-07-08T11:21:18Z</time>
      </trkpt>
      <trkpt lat="43.34025" lon="-6.44482">
        <ele>819.6</ele>
        <time>2016-07-08T11:21:30Z</time>
      </trkpt>
      <trkpt lat="43.34033" lon="-6.44488">
        <ele>820.4</ele>
        <time>2016-07-08T11:21:39Z</time>
      </trkpt>
      <trkpt lat="43.34041" lon="-6.44495">
        <ele>821.6</ele>
        <time>2016-07-08T11:21:49Z</time>
      </trkpt>
      <trkpt lat="43.3405" lon="-6.44498">
        <ele>822.5</ele>
        <time>2016-07-08T11:22:06Z</time>
      </trkpt>
      <trkpt lat="43.34057" lon="-6.44505">
        <ele>823.6</ele>
        <time>2016-07-08T11:22:20Z</time>
      </trkpt>
      <trkpt lat="43.34065" lon="-6.44511">
        <ele>824.9</ele>
        <time>2016-07-08T11:22:34Z</time>
      </trkpt>
      <trkpt lat="43.34074" lon="-6.44516">
        <ele>826.1</ele>
        <time>2016-07-08T11:22:46Z</time>
      </trkpt>
      <trkpt lat="43.34082" lon="-6.44523">
        <ele>826.9</ele>
        <time>2016-07-08T11:22:56Z</time>
      </trkpt>
      <trkpt lat="43.34091" lon="-6.4453">
        <ele>827.7</ele>
        <time>2016-07-08T11:23:07Z</time>
      </trkpt>
      <trkpt lat="43.341" lon="-6.44536">
        <ele>829</ele>
        <time>2016-07-08T11:23:18Z</time>
      </trkpt>
      <trkpt lat="43.34108" lon="-6.44541">
        <ele>829.7</ele>
        <time>2016-07-08T11:23:29Z</time>
      </trkpt>
      <trkpt lat="43.34117" lon="-6.44545">
        <ele>830.3</ele>
        <time>2016-07-08T11:23:43Z</time>
      </trkpt>
      <trkpt lat="43.34125" lon="-6.44539">
        <ele>834</ele>
        <time>2016-07-08T11:25:02Z</time>
      </trkpt>
      <trkpt lat="43.34125" lon="-6.44552">
        <ele>833.2</ele>
        <time>2016-07-08T11:25:23Z</time>
      </trkpt>
      <trkpt lat="43.34126" lon="-6.44568">
        <ele>833</ele>
        <time>2016-07-08T11:25:37Z</time>
      </trkpt>
      <trkpt lat="43.34134" lon="-6.44582">
        <ele>834</ele>
        <time>2016-07-08T11:25:49Z</time>
      </trkpt>
      <trkpt lat="43.34142" lon="-6.44592">
        <ele>835</ele>
        <time>2016-07-08T11:26:01Z</time>
      </trkpt>
      <trkpt lat="43.34146" lon="-6.44605">
        <ele>836</ele>
        <time>2016-07-08T11:26:13Z</time>
      </trkpt>
      <trkpt lat="43.34143" lon="-6.44617">
        <ele>837.4</ele>
        <time>2016-07-08T11:26:26Z</time>
      </trkpt>
      <trkpt lat="43.34141" lon="-6.44629">
        <ele>838.6</ele>
        <time>2016-07-08T11:26:37Z</time>
      </trkpt>
      <trkpt lat="43.34138" lon="-6.44641">
        <ele>839.4</ele>
        <time>2016-07-08T11:26:46Z</time>
      </trkpt>
      <trkpt lat="43.34133" lon="-6.44651">
        <ele>840.3</ele>
        <time>2016-07-08T11:26:58Z</time>
      </trkpt>
      <trkpt lat="43.34126" lon="-6.4466">
        <ele>841.6</ele>
        <time>2016-07-08T11:27:08Z</time>
      </trkpt>
      <trkpt lat="43.34118" lon="-6.44666">
        <ele>842.6</ele>
        <time>2016-07-08T11:27:19Z</time>
      </trkpt>
      <trkpt lat="43.34111" lon="-6.44676">
        <ele>844</ele>
        <time>2016-07-08T11:27:29Z</time>
      </trkpt>
      <trkpt lat="43.34108" lon="-6.44688">
        <ele>844.8</ele>
        <time>2016-07-08T11:27:40Z</time>
      </trkpt>
      <trkpt lat="43.34105" lon="-6.447">
        <ele>845.9</ele>
        <time>2016-07-08T11:27:51Z</time>
      </trkpt>
      <trkpt lat="43.34102" lon="-6.44713">
        <ele>846.7</ele>
        <time>2016-07-08T11:28:00Z</time>
      </trkpt>
      <trkpt lat="43.34096" lon="-6.44723">
        <ele>847.7</ele>
        <time>2016-07-08T11:28:09Z</time>
      </trkpt>
      <trkpt lat="43.3409" lon="-6.44734">
        <ele>848.7</ele>
        <time>2016-07-08T11:28:20Z</time>
      </trkpt>
      <trkpt lat="43.34085" lon="-6.44744">
        <ele>849.9</ele>
        <time>2016-07-08T11:28:29Z</time>
      </trkpt>
      <trkpt lat="43.34079" lon="-6.44754">
        <ele>851.3</ele>
        <time>2016-07-08T11:28:39Z</time>
      </trkpt>
      <trkpt lat="43.34072" lon="-6.44763">
        <ele>852.5</ele>
        <time>2016-07-08T11:29:02Z</time>
      </trkpt>
      <trkpt lat="43.34074" lon="-6.44775">
        <ele>852.8</ele>
        <time>2016-07-08T11:29:15Z</time>
      </trkpt>
      <trkpt lat="43.34074" lon="-6.44788">
        <ele>853.4</ele>
        <time>2016-07-08T11:29:27Z</time>
      </trkpt>
      <trkpt lat="43.34072" lon="-6.448">
        <ele>854.1</ele>
        <time>2016-07-08T11:29:40Z</time>
      </trkpt>
      <trkpt lat="43.34067" lon="-6.44811">
        <ele>855.5</ele>
        <time>2016-07-08T11:30:26Z</time>
      </trkpt>
      <trkpt lat="43.34061" lon="-6.44802">
        <ele>856.4</ele>
        <time>2016-07-08T11:34:12Z</time>
      </trkpt>
      <trkpt lat="43.3407" lon="-6.44801">
        <ele>855.1</ele>
        <time>2016-07-08T11:38:22Z</time>
      </trkpt>
      <trkpt lat="43.34065" lon="-6.44811">
        <ele>855.6</ele>
        <time>2016-07-08T11:40:12Z</time>
      </trkpt>
      <trkpt lat="43.3407" lon="-6.44801">
        <ele>854.8</ele>
        <time>2016-07-08T11:44:07Z</time>
      </trkpt>
      <trkpt lat="43.34068" lon="-6.44813">
        <ele>855.5</ele>
        <time>2016-07-08T11:46:29Z</time>
      </trkpt>
      <trkpt lat="43.34061" lon="-6.44805">
        <ele>854.8</ele>
        <time>2016-07-08T11:48:09Z</time>
      </trkpt>
      <trkpt lat="43.34054" lon="-6.44813">
        <ele>855.1</ele>
        <time>2016-07-08T11:49:26Z</time>
      </trkpt>
      <trkpt lat="43.34062" lon="-6.44808">
        <ele>859.2</ele>
        <time>2016-07-08T11:52:37Z</time>
      </trkpt>
      <trkpt lat="43.34071" lon="-6.44803">
        <ele>861.8</ele>
        <time>2016-07-08T11:55:26Z</time>
      </trkpt>
      <trkpt lat="43.34071" lon="-6.44816">
        <ele>866.3</ele>
        <time>2016-07-08T11:59:37Z</time>
      </trkpt>
      <trkpt lat="43.34073" lon="-6.44828">
        <ele>867.1</ele>
        <time>2016-07-08T11:59:49Z</time>
      </trkpt>
      <trkpt lat="43.34074" lon="-6.44841">
        <ele>867.9</ele>
        <time>2016-07-08T12:00:01Z</time>
      </trkpt>
      <trkpt lat="43.34074" lon="-6.44855">
        <ele>869.8</ele>
        <time>2016-07-08T12:00:13Z</time>
      </trkpt>
      <trkpt lat="43.34077" lon="-6.44867">
        <ele>871.4</ele>
        <time>2016-07-08T12:00:24Z</time>
      </trkpt>
      <trkpt lat="43.3408" lon="-6.44879">
        <ele>873.3</ele>
        <time>2016-07-08T12:00:37Z</time>
      </trkpt>
      <trkpt lat="43.34082" lon="-6.44891">
        <ele>875.1</ele>
        <time>2016-07-08T12:00:49Z</time>
      </trkpt>
      <trkpt lat="43.34086" lon="-6.44904">
        <ele>876.1</ele>
        <time>2016-07-08T12:01:01Z</time>
      </trkpt>
      <trkpt lat="43.34089" lon="-6.44916">
        <ele>876.8</ele>
        <time>2016-07-08T12:01:12Z</time>
      </trkpt>
      <trkpt lat="43.34091" lon="-6.44929">
        <ele>877.7</ele>
        <time>2016-07-08T12:01:22Z</time>
      </trkpt>
      <trkpt lat="43.34094" lon="-6.44942">
        <ele>878.5</ele>
        <time>2016-07-08T12:01:32Z</time>
      </trkpt>
      <trkpt lat="43.34095" lon="-6.44954">
        <ele>879</ele>
        <time>2016-07-08T12:01:41Z</time>
      </trkpt>
      <trkpt lat="43.34096" lon="-6.44967">
        <ele>879.8</ele>
        <time>2016-07-08T12:01:50Z</time>
      </trkpt>
      <trkpt lat="43.34097" lon="-6.4498">
        <ele>880.7</ele>
        <time>2016-07-08T12:01:59Z</time>
      </trkpt>
      <trkpt lat="43.34098" lon="-6.44993">
        <ele>881.5</ele>
        <time>2016-07-08T12:02:08Z</time>
      </trkpt>
      <trkpt lat="43.34101" lon="-6.45005">
        <ele>882.4</ele>
        <time>2016-07-08T12:02:17Z</time>
      </trkpt>
      <trkpt lat="43.34104" lon="-6.45018">
        <ele>882.4</ele>
        <time>2016-07-08T12:02:26Z</time>
      </trkpt>
      <trkpt lat="43.34105" lon="-6.4503">
        <ele>882.9</ele>
        <time>2016-07-08T12:02:35Z</time>
      </trkpt>
      <trkpt lat="43.34109" lon="-6.45043">
        <ele>883.8</ele>
        <time>2016-07-08T12:02:45Z</time>
      </trkpt>
      <trkpt lat="43.34113" lon="-6.45055">
        <ele>884.6</ele>
        <time>2016-07-08T12:02:55Z</time>
      </trkpt>
      <trkpt lat="43.34116" lon="-6.45067">
        <ele>885.7</ele>
        <time>2016-07-08T12:03:06Z</time>
      </trkpt>
      <trkpt lat="43.34121" lon="-6.45078">
        <ele>886.5</ele>
        <time>2016-07-08T12:03:16Z</time>
      </trkpt>
      <trkpt lat="43.34123" lon="-6.45092">
        <ele>886.9</ele>
        <time>2016-07-08T12:03:25Z</time>
      </trkpt>
      <trkpt lat="43.3413" lon="-6.451">
        <ele>887.5</ele>
        <time>2016-07-08T12:03:37Z</time>
      </trkpt>
      <trkpt lat="43.34123" lon="-6.45109">
        <ele>888</ele>
        <time>2016-07-08T12:03:48Z</time>
      </trkpt>
      <trkpt lat="43.3412" lon="-6.45122">
        <ele>888.3</ele>
        <time>2016-07-08T12:03:56Z</time>
      </trkpt>
      <trkpt lat="43.3412" lon="-6.45135">
        <ele>888.5</ele>
        <time>2016-07-08T12:04:04Z</time>
      </trkpt>
      <trkpt lat="43.34121" lon="-6.45149">
        <ele>889</ele>
        <time>2016-07-08T12:04:14Z</time>
      </trkpt>
      <trkpt lat="43.34121" lon="-6.45162">
        <ele>889.4</ele>
        <time>2016-07-08T12:04:23Z</time>
      </trkpt>
      <trkpt lat="43.34119" lon="-6.45175">
        <ele>889.6</ele>
        <time>2016-07-08T12:04:32Z</time>
      </trkpt>
      <trkpt lat="43.34114" lon="-6.45187">
        <ele>890</ele>
        <time>2016-07-08T12:04:41Z</time>
      </trkpt>
      <trkpt lat="43.3411" lon="-6.45199">
        <ele>890.3</ele>
        <time>2016-07-08T12:04:50Z</time>
      </trkpt>
      <trkpt lat="43.34105" lon="-6.45211">
        <ele>890.6</ele>
        <time>2016-07-08T12:04:58Z</time>
      </trkpt>
      <trkpt lat="43.34101" lon="-6.45221">
        <ele>890.8</ele>
        <time>2016-07-08T12:05:06Z</time>
      </trkpt>
      <trkpt lat="43.34096" lon="-6.45233">
        <ele>891.3</ele>
        <time>2016-07-08T12:05:15Z</time>
      </trkpt>
      <trkpt lat="43.34098" lon="-6.45245">
        <ele>891.8</ele>
        <time>2016-07-08T12:05:25Z</time>
      </trkpt>
      <trkpt lat="43.34106" lon="-6.45251">
        <ele>892</ele>
        <time>2016-07-08T12:05:34Z</time>
      </trkpt>
      <trkpt lat="43.34116" lon="-6.45254">
        <ele>893.2</ele>
        <time>2016-07-08T12:05:46Z</time>
      </trkpt>
      <trkpt lat="43.34125" lon="-6.45257">
        <ele>894</ele>
        <time>2016-07-08T12:05:55Z</time>
      </trkpt>
      <trkpt lat="43.34132" lon="-6.45265">
        <ele>894.3</ele>
        <time>2016-07-08T12:06:04Z</time>
      </trkpt>
      <trkpt lat="43.34136" lon="-6.45276">
        <ele>894.9</ele>
        <time>2016-07-08T12:06:13Z</time>
      </trkpt>
      <trkpt lat="43.34139" lon="-6.45288">
        <ele>895.4</ele>
        <time>2016-07-08T12:06:21Z</time>
      </trkpt>
      <trkpt lat="43.34142" lon="-6.453">
        <ele>896.1</ele>
        <time>2016-07-08T12:06:29Z</time>
      </trkpt>
      <trkpt lat="43.34145" lon="-6.45313">
        <ele>896.6</ele>
        <time>2016-07-08T12:06:37Z</time>
      </trkpt>
      <trkpt lat="43.34147" lon="-6.45326">
        <ele>897</ele>
        <time>2016-07-08T12:06:45Z</time>
      </trkpt>
      <trkpt lat="43.34149" lon="-6.45338">
        <ele>897.4</ele>
        <time>2016-07-08T12:06:53Z</time>
      </trkpt>
      <trkpt lat="43.3415" lon="-6.45351">
        <ele>898.1</ele>
        <time>2016-07-08T12:07:01Z</time>
      </trkpt>
      <trkpt lat="43.34152" lon="-6.45364">
        <ele>898.5</ele>
        <time>2016-07-08T12:07:09Z</time>
      </trkpt>
      <trkpt lat="43.34153" lon="-6.45377">
        <ele>898.8</ele>
        <time>2016-07-08T12:07:18Z</time>
      </trkpt>
      <trkpt lat="43.34154" lon="-6.4539">
        <ele>899.2</ele>
        <time>2016-07-08T12:07:28Z</time>
      </trkpt>
      <trkpt lat="43.34155" lon="-6.45404">
        <ele>899.6</ele>
        <time>2016-07-08T12:07:39Z</time>
      </trkpt>
      <trkpt lat="43.34158" lon="-6.45416">
        <ele>900</ele>
        <time>2016-07-08T12:07:48Z</time>
      </trkpt>
      <trkpt lat="43.34163" lon="-6.45427">
        <ele>900.9</ele>
        <time>2016-07-08T12:07:57Z</time>
      </trkpt>
      <trkpt lat="43.34168" lon="-6.45438">
        <ele>901.5</ele>
        <time>2016-07-08T12:08:08Z</time>
      </trkpt>
      <trkpt lat="43.34175" lon="-6.45447">
        <ele>902</ele>
        <time>2016-07-08T12:08:17Z</time>
      </trkpt>
      <trkpt lat="43.3418" lon="-6.45458">
        <ele>903.2</ele>
        <time>2016-07-08T12:08:28Z</time>
      </trkpt>
      <trkpt lat="43.34183" lon="-6.4547">
        <ele>903.8</ele>
        <time>2016-07-08T12:08:37Z</time>
      </trkpt>
      <trkpt lat="43.34181" lon="-6.45483">
        <ele>904.2</ele>
        <time>2016-07-08T12:08:46Z</time>
      </trkpt>
      <trkpt lat="43.34178" lon="-6.45495">
        <ele>905.1</ele>
        <time>2016-07-08T12:08:55Z</time>
      </trkpt>
      <trkpt lat="43.34174" lon="-6.45508">
        <ele>906.1</ele>
        <time>2016-07-08T12:09:04Z</time>
      </trkpt>
      <trkpt lat="43.34171" lon="-6.4552">
        <ele>907.3</ele>
        <time>2016-07-08T12:09:13Z</time>
      </trkpt>
      <trkpt lat="43.34166" lon="-6.45532">
        <ele>908.1</ele>
        <time>2016-07-08T12:09:22Z</time>
      </trkpt>
      <trkpt lat="43.34162" lon="-6.45543">
        <ele>908.8</ele>
        <time>2016-07-08T12:09:31Z</time>
      </trkpt>
      <trkpt lat="43.34157" lon="-6.45553">
        <ele>909.8</ele>
        <time>2016-07-08T12:09:40Z</time>
      </trkpt>
      <trkpt lat="43.3415" lon="-6.45563">
        <ele>910.6</ele>
        <time>2016-07-08T12:09:48Z</time>
      </trkpt>
      <trkpt lat="43.34145" lon="-6.45572">
        <ele>911.7</ele>
        <time>2016-07-08T12:09:57Z</time>
      </trkpt>
      <trkpt lat="43.34138" lon="-6.45582">
        <ele>912.2</ele>
        <time>2016-07-08T12:10:06Z</time>
      </trkpt>
      <trkpt lat="43.34131" lon="-6.4559">
        <ele>913.3</ele>
        <time>2016-07-08T12:10:14Z</time>
      </trkpt>
      <trkpt lat="43.34124" lon="-6.45599">
        <ele>914</ele>
        <time>2016-07-08T12:10:22Z</time>
      </trkpt>
      <trkpt lat="43.34118" lon="-6.4561">
        <ele>916</ele>
        <time>2016-07-08T12:10:49Z</time>
      </trkpt>
      <trkpt lat="43.34112" lon="-6.45619">
        <ele>916.1</ele>
        <time>2016-07-08T12:10:58Z</time>
      </trkpt>
      <trkpt lat="43.34105" lon="-6.45628">
        <ele>916.4</ele>
        <time>2016-07-08T12:11:08Z</time>
      </trkpt>
      <trkpt lat="43.34098" lon="-6.45636">
        <ele>916.9</ele>
        <time>2016-07-08T12:11:17Z</time>
      </trkpt>
      <trkpt lat="43.34092" lon="-6.45645">
        <ele>917.6</ele>
        <time>2016-07-08T12:11:26Z</time>
      </trkpt>
      <trkpt lat="43.34085" lon="-6.45654">
        <ele>918.2</ele>
        <time>2016-07-08T12:11:35Z</time>
      </trkpt>
      <trkpt lat="43.34078" lon="-6.45662">
        <ele>918.7</ele>
        <time>2016-07-08T12:11:44Z</time>
      </trkpt>
      <trkpt lat="43.3407" lon="-6.45671">
        <ele>919.6</ele>
        <time>2016-07-08T12:11:53Z</time>
      </trkpt>
      <trkpt lat="43.34062" lon="-6.45679">
        <ele>920.5</ele>
        <time>2016-07-08T12:12:03Z</time>
      </trkpt>
      <trkpt lat="43.34055" lon="-6.45688">
        <ele>921.4</ele>
        <time>2016-07-08T12:12:13Z</time>
      </trkpt>
      <trkpt lat="43.34049" lon="-6.45699">
        <ele>922</ele>
        <time>2016-07-08T12:12:23Z</time>
      </trkpt>
      <trkpt lat="43.34044" lon="-6.45709">
        <ele>923.9</ele>
        <time>2016-07-08T12:12:34Z</time>
      </trkpt>
      <trkpt lat="43.34042" lon="-6.45722">
        <ele>925.7</ele>
        <time>2016-07-08T12:12:45Z</time>
      </trkpt>
      <trkpt lat="43.34045" lon="-6.45734">
        <ele>926.9</ele>
        <time>2016-07-08T12:12:54Z</time>
      </trkpt>
      <trkpt lat="43.3405" lon="-6.45745">
        <ele>928.5</ele>
        <time>2016-07-08T12:13:06Z</time>
      </trkpt>
      <trkpt lat="43.34056" lon="-6.45757">
        <ele>932</ele>
        <time>2016-07-08T12:14:00Z</time>
      </trkpt>
      <trkpt lat="43.3406" lon="-6.45768">
        <ele>933.1</ele>
        <time>2016-07-08T12:14:14Z</time>
      </trkpt>
      <trkpt lat="43.34065" lon="-6.45778">
        <ele>933.6</ele>
        <time>2016-07-08T12:14:36Z</time>
      </trkpt>
      <trkpt lat="43.34068" lon="-6.45791">
        <ele>933.6</ele>
        <time>2016-07-08T12:14:45Z</time>
      </trkpt>
      <trkpt lat="43.3407" lon="-6.45804">
        <ele>933.4</ele>
        <time>2016-07-08T12:14:53Z</time>
      </trkpt>
      <trkpt lat="43.3407" lon="-6.45817">
        <ele>933.3</ele>
        <time>2016-07-08T12:15:01Z</time>
      </trkpt>
      <trkpt lat="43.3407" lon="-6.45831">
        <ele>933.7</ele>
        <time>2016-07-08T12:15:09Z</time>
      </trkpt>
      <trkpt lat="43.3407" lon="-6.45843">
        <ele>934.1</ele>
        <time>2016-07-08T12:15:17Z</time>
      </trkpt>
      <trkpt lat="43.34069" lon="-6.45857">
        <ele>934.3</ele>
        <time>2016-07-08T12:15:32Z</time>
      </trkpt>
      <trkpt lat="43.34065" lon="-6.45869">
        <ele>934.2</ele>
        <time>2016-07-08T12:16:26Z</time>
      </trkpt>
      <trkpt lat="43.34062" lon="-6.45881">
        <ele>934.4</ele>
        <time>2016-07-08T12:16:38Z</time>
      </trkpt>
      <trkpt lat="43.34058" lon="-6.45893">
        <ele>934.4</ele>
        <time>2016-07-08T12:16:46Z</time>
      </trkpt>
      <trkpt lat="43.34055" lon="-6.45905">
        <ele>934.7</ele>
        <time>2016-07-08T12:16:55Z</time>
      </trkpt>
      <trkpt lat="43.3405" lon="-6.45917">
        <ele>935.2</ele>
        <time>2016-07-08T12:17:03Z</time>
      </trkpt>
      <trkpt lat="43.34046" lon="-6.45929">
        <ele>935.4</ele>
        <time>2016-07-08T12:17:11Z</time>
      </trkpt>
      <trkpt lat="43.34042" lon="-6.45941">
        <ele>935.2</ele>
        <time>2016-07-08T12:17:19Z</time>
      </trkpt>
      <trkpt lat="43.3404" lon="-6.45954">
        <ele>935.4</ele>
        <time>2016-07-08T12:17:26Z</time>
      </trkpt>
      <trkpt lat="43.34037" lon="-6.45966">
        <ele>935.6</ele>
        <time>2016-07-08T12:17:33Z</time>
      </trkpt>
      <trkpt lat="43.34035" lon="-6.45978">
        <ele>935.3</ele>
        <time>2016-07-08T12:17:41Z</time>
      </trkpt>
      <trkpt lat="43.34032" lon="-6.45991">
        <ele>935.2</ele>
        <time>2016-07-08T12:17:49Z</time>
      </trkpt>
      <trkpt lat="43.34029" lon="-6.46003">
        <ele>935</ele>
        <time>2016-07-08T12:17:57Z</time>
      </trkpt>
      <trkpt lat="43.34025" lon="-6.46014">
        <ele>934.9</ele>
        <time>2016-07-08T12:18:05Z</time>
      </trkpt>
      <trkpt lat="43.34021" lon="-6.46026">
        <ele>934.7</ele>
        <time>2016-07-08T12:18:13Z</time>
      </trkpt>
      <trkpt lat="43.34016" lon="-6.46037">
        <ele>934.5</ele>
        <time>2016-07-08T12:18:21Z</time>
      </trkpt>
      <trkpt lat="43.34012" lon="-6.46049">
        <ele>931.9</ele>
        <time>2016-07-08T12:18:29Z</time>
      </trkpt>
      <trkpt lat="43.34008" lon="-6.4606">
        <ele>935</ele>
        <time>2016-07-08T12:18:37Z</time>
      </trkpt>
      <trkpt lat="43.34003" lon="-6.46072">
        <ele>934.7</ele>
        <time>2016-07-08T12:18:45Z</time>
      </trkpt>
      <trkpt lat="43.33997" lon="-6.46083">
        <ele>934</ele>
        <time>2016-07-08T12:18:53Z</time>
      </trkpt>
      <trkpt lat="43.33991" lon="-6.46093">
        <ele>933.4</ele>
        <time>2016-07-08T12:19:01Z</time>
      </trkpt>
      <trkpt lat="43.33986" lon="-6.46105">
        <ele>933.9</ele>
        <time>2016-07-08T12:19:10Z</time>
      </trkpt>
      <trkpt lat="43.33983" lon="-6.46117">
        <ele>933.4</ele>
        <time>2016-07-08T12:19:20Z</time>
      </trkpt>
      <trkpt lat="43.3398" lon="-6.46129">
        <ele>932.5</ele>
        <time>2016-07-08T12:19:29Z</time>
      </trkpt>
      <trkpt lat="43.33975" lon="-6.46141">
        <ele>932.1</ele>
        <time>2016-07-08T12:19:36Z</time>
      </trkpt>
      <trkpt lat="43.33971" lon="-6.46152">
        <ele>931.7</ele>
        <time>2016-07-08T12:19:43Z</time>
      </trkpt>
      <trkpt lat="43.33965" lon="-6.46163">
        <ele>931</ele>
        <time>2016-07-08T12:19:51Z</time>
      </trkpt>
      <trkpt lat="43.33959" lon="-6.46174">
        <ele>930.6</ele>
        <time>2016-07-08T12:19:59Z</time>
      </trkpt>
      <trkpt lat="43.33954" lon="-6.46185">
        <ele>930</ele>
        <time>2016-07-08T12:20:07Z</time>
      </trkpt>
      <trkpt lat="43.33948" lon="-6.46195">
        <ele>929.6</ele>
        <time>2016-07-08T12:20:15Z</time>
      </trkpt>
      <trkpt lat="43.33942" lon="-6.46206">
        <ele>929.3</ele>
        <time>2016-07-08T12:20:23Z</time>
      </trkpt>
      <trkpt lat="43.33934" lon="-6.46215">
        <ele>928.8</ele>
        <time>2016-07-08T12:20:32Z</time>
      </trkpt>
      <trkpt lat="43.33927" lon="-6.46222">
        <ele>927.8</ele>
        <time>2016-07-08T12:20:40Z</time>
      </trkpt>
      <trkpt lat="43.33919" lon="-6.46228">
        <ele>926.4</ele>
        <time>2016-07-08T12:20:48Z</time>
      </trkpt>
      <trkpt lat="43.3391" lon="-6.46232">
        <ele>924.8</ele>
        <time>2016-07-08T12:20:57Z</time>
      </trkpt>
      <trkpt lat="43.33901" lon="-6.46238">
        <ele>923.5</ele>
        <time>2016-07-08T12:21:05Z</time>
      </trkpt>
      <trkpt lat="43.33893" lon="-6.46245">
        <ele>922.5</ele>
        <time>2016-07-08T12:21:12Z</time>
      </trkpt>
      <trkpt lat="43.33884" lon="-6.46252">
        <ele>921.4</ele>
        <time>2016-07-08T12:21:20Z</time>
      </trkpt>
      <trkpt lat="43.33876" lon="-6.46259">
        <ele>920.6</ele>
        <time>2016-07-08T12:21:27Z</time>
      </trkpt>
      <trkpt lat="43.33869" lon="-6.46266">
        <ele>919.4</ele>
        <time>2016-07-08T12:21:34Z</time>
      </trkpt>
      <trkpt lat="43.33861" lon="-6.46274">
        <ele>917.8</ele>
        <time>2016-07-08T12:21:48Z</time>
      </trkpt>
      <trkpt lat="43.33854" lon="-6.46284">
        <ele>916.8</ele>
        <time>2016-07-08T12:21:56Z</time>
      </trkpt>
      <trkpt lat="43.33848" lon="-6.46293">
        <ele>915.7</ele>
        <time>2016-07-08T12:22:03Z</time>
      </trkpt>
      <trkpt lat="43.33841" lon="-6.46303">
        <ele>914.8</ele>
        <time>2016-07-08T12:22:11Z</time>
      </trkpt>
      <trkpt lat="43.33835" lon="-6.46313">
        <ele>913.5</ele>
        <time>2016-07-08T12:22:19Z</time>
      </trkpt>
      <trkpt lat="43.33829" lon="-6.46323">
        <ele>912.6</ele>
        <time>2016-07-08T12:22:27Z</time>
      </trkpt>
      <trkpt lat="43.33823" lon="-6.46333">
        <ele>911.4</ele>
        <time>2016-07-08T12:22:35Z</time>
      </trkpt>
      <trkpt lat="43.33817" lon="-6.46343">
        <ele>910.6</ele>
        <time>2016-07-08T12:22:43Z</time>
      </trkpt>
      <trkpt lat="43.33809" lon="-6.46348">
        <ele>907.7</ele>
        <time>2016-07-08T12:24:01Z</time>
      </trkpt>
      <trkpt lat="43.33803" lon="-6.46357">
        <ele>907.9</ele>
        <time>2016-07-08T12:24:09Z</time>
      </trkpt>
      <trkpt lat="43.33796" lon="-6.46366">
        <ele>907.5</ele>
        <time>2016-07-08T12:24:17Z</time>
      </trkpt>
      <trkpt lat="43.33787" lon="-6.46372">
        <ele>907.1</ele>
        <time>2016-07-08T12:24:25Z</time>
      </trkpt>
      <trkpt lat="43.33778" lon="-6.46376">
        <ele>906.2</ele>
        <time>2016-07-08T12:24:32Z</time>
      </trkpt>
      <trkpt lat="43.3377" lon="-6.46383">
        <ele>904.8</ele>
        <time>2016-07-08T12:24:40Z</time>
      </trkpt>
      <trkpt lat="43.33761" lon="-6.46389">
        <ele>903.9</ele>
        <time>2016-07-08T12:24:47Z</time>
      </trkpt>
      <trkpt lat="43.33752" lon="-6.46396">
        <ele>902.9</ele>
        <time>2016-07-08T12:24:55Z</time>
      </trkpt>
      <trkpt lat="43.33744" lon="-6.46403">
        <ele>901.9</ele>
        <time>2016-07-08T12:25:03Z</time>
      </trkpt>
      <trkpt lat="43.33737" lon="-6.46413">
        <ele>900.7</ele>
        <time>2016-07-08T12:25:11Z</time>
      </trkpt>
      <trkpt lat="43.33729" lon="-6.46421">
        <ele>899.8</ele>
        <time>2016-07-08T12:25:19Z</time>
      </trkpt>
      <trkpt lat="43.33722" lon="-6.46429">
        <ele>899.2</ele>
        <time>2016-07-08T12:25:27Z</time>
      </trkpt>
      <trkpt lat="43.33713" lon="-6.46436">
        <ele>898.1</ele>
        <time>2016-07-08T12:25:35Z</time>
      </trkpt>
      <trkpt lat="43.33704" lon="-6.46442">
        <ele>897.1</ele>
        <time>2016-07-08T12:25:43Z</time>
      </trkpt>
      <trkpt lat="43.33695" lon="-6.46449">
        <ele>896.2</ele>
        <time>2016-07-08T12:25:50Z</time>
      </trkpt>
      <trkpt lat="43.33688" lon="-6.46458">
        <ele>895.2</ele>
        <time>2016-07-08T12:25:58Z</time>
      </trkpt>
      <trkpt lat="43.33679" lon="-6.46465">
        <ele>894.2</ele>
        <time>2016-07-08T12:26:06Z</time>
      </trkpt>
      <trkpt lat="43.33671" lon="-6.46474">
        <ele>893.4</ele>
        <time>2016-07-08T12:26:13Z</time>
      </trkpt>
      <trkpt lat="43.33663" lon="-6.46483">
        <ele>892.8</ele>
        <time>2016-07-08T12:26:20Z</time>
      </trkpt>
      <trkpt lat="43.33657" lon="-6.46492">
        <ele>892.3</ele>
        <time>2016-07-08T12:26:27Z</time>
      </trkpt>
      <trkpt lat="43.33649" lon="-6.46502">
        <ele>891.7</ele>
        <time>2016-07-08T12:26:35Z</time>
      </trkpt>
      <trkpt lat="43.33642" lon="-6.46511">
        <ele>890.5</ele>
        <time>2016-07-08T12:26:43Z</time>
      </trkpt>
      <trkpt lat="43.33636" lon="-6.46519">
        <ele>889.8</ele>
        <time>2016-07-08T12:26:50Z</time>
      </trkpt>
      <trkpt lat="43.33627" lon="-6.46525">
        <ele>889.1</ele>
        <time>2016-07-08T12:26:57Z</time>
      </trkpt>
      <trkpt lat="43.33619" lon="-6.46531">
        <ele>888.5</ele>
        <time>2016-07-08T12:27:04Z</time>
      </trkpt>
      <trkpt lat="43.3361" lon="-6.46538">
        <ele>888</ele>
        <time>2016-07-08T12:27:11Z</time>
      </trkpt>
      <trkpt lat="43.33602" lon="-6.46542">
        <ele>887.7</ele>
        <time>2016-07-08T12:27:18Z</time>
      </trkpt>
      <trkpt lat="43.33593" lon="-6.46548">
        <ele>887.4</ele>
        <time>2016-07-08T12:27:27Z</time>
      </trkpt>
      <trkpt lat="43.33585" lon="-6.46555">
        <ele>887.1</ele>
        <time>2016-07-08T12:27:34Z</time>
      </trkpt>
      <trkpt lat="43.33577" lon="-6.46562">
        <ele>886.9</ele>
        <time>2016-07-08T12:27:41Z</time>
      </trkpt>
      <trkpt lat="43.33568" lon="-6.46567">
        <ele>886.7</ele>
        <time>2016-07-08T12:27:49Z</time>
      </trkpt>
      <trkpt lat="43.33559" lon="-6.46571">
        <ele>886.6</ele>
        <time>2016-07-08T12:27:58Z</time>
      </trkpt>
      <trkpt lat="43.3355" lon="-6.46572">
        <ele>886.4</ele>
        <time>2016-07-08T12:28:05Z</time>
      </trkpt>
      <trkpt lat="43.3354" lon="-6.46573">
        <ele>885.8</ele>
        <time>2016-07-08T12:28:13Z</time>
      </trkpt>
      <trkpt lat="43.33531" lon="-6.46574">
        <ele>885.1</ele>
        <time>2016-07-08T12:28:20Z</time>
      </trkpt>
      <trkpt lat="43.33522" lon="-6.46574">
        <ele>884.1</ele>
        <time>2016-07-08T12:28:28Z</time>
      </trkpt>
      <trkpt lat="43.33512" lon="-6.46573">
        <ele>882.8</ele>
        <time>2016-07-08T12:28:36Z</time>
      </trkpt>
      <trkpt lat="43.33502" lon="-6.46572">
        <ele>880.9</ele>
        <time>2016-07-08T12:28:44Z</time>
      </trkpt>
      <trkpt lat="43.33493" lon="-6.46573">
        <ele>879.3</ele>
        <time>2016-07-08T12:28:52Z</time>
      </trkpt>
      <trkpt lat="43.33483" lon="-6.46574">
        <ele>876.9</ele>
        <time>2016-07-08T12:29:03Z</time>
      </trkpt>
      <trkpt lat="43.33474" lon="-6.46575">
        <ele>875.7</ele>
        <time>2016-07-08T12:29:11Z</time>
      </trkpt>
      <trkpt lat="43.33464" lon="-6.46577">
        <ele>874</ele>
        <time>2016-07-08T12:29:20Z</time>
      </trkpt>
      <trkpt lat="43.33455" lon="-6.46581">
        <ele>872.9</ele>
        <time>2016-07-08T12:29:27Z</time>
      </trkpt>
      <trkpt lat="43.33447" lon="-6.46587">
        <ele>872.1</ele>
        <time>2016-07-08T12:29:34Z</time>
      </trkpt>
      <trkpt lat="43.33439" lon="-6.46593">
        <ele>870.7</ele>
        <time>2016-07-08T12:29:42Z</time>
      </trkpt>
      <trkpt lat="43.3343" lon="-6.46599">
        <ele>869.5</ele>
        <time>2016-07-08T12:29:50Z</time>
      </trkpt>
      <trkpt lat="43.33422" lon="-6.46606">
        <ele>868.1</ele>
        <time>2016-07-08T12:29:58Z</time>
      </trkpt>
      <trkpt lat="43.33413" lon="-6.46613">
        <ele>866.6</ele>
        <time>2016-07-08T12:30:06Z</time>
      </trkpt>
      <trkpt lat="43.33405" lon="-6.4662">
        <ele>865.4</ele>
        <time>2016-07-08T12:30:14Z</time>
      </trkpt>
      <trkpt lat="43.33397" lon="-6.46628">
        <ele>863.7</ele>
        <time>2016-07-08T12:30:22Z</time>
      </trkpt>
      <trkpt lat="43.33389" lon="-6.46635">
        <ele>862.2</ele>
        <time>2016-07-08T12:30:30Z</time>
      </trkpt>
      <trkpt lat="43.3338" lon="-6.46643">
        <ele>860.4</ele>
        <time>2016-07-08T12:30:39Z</time>
      </trkpt>
      <trkpt lat="43.33372" lon="-6.4665">
        <ele>859</ele>
        <time>2016-07-08T12:30:47Z</time>
      </trkpt>
      <trkpt lat="43.33364" lon="-6.46657">
        <ele>857.4</ele>
        <time>2016-07-08T12:30:54Z</time>
      </trkpt>
      <trkpt lat="43.33356" lon="-6.46663">
        <ele>855.9</ele>
        <time>2016-07-08T12:31:02Z</time>
      </trkpt>
      <trkpt lat="43.33347" lon="-6.46669">
        <ele>854.3</ele>
        <time>2016-07-08T12:31:10Z</time>
      </trkpt>
      <trkpt lat="43.33338" lon="-6.46673">
        <ele>852.7</ele>
        <time>2016-07-08T12:31:17Z</time>
      </trkpt>
      <trkpt lat="43.33329" lon="-6.46677">
        <ele>850.9</ele>
        <time>2016-07-08T12:31:25Z</time>
      </trkpt>
      <trkpt lat="43.33319" lon="-6.46679">
        <ele>848.7</ele>
        <time>2016-07-08T12:31:33Z</time>
      </trkpt>
      <trkpt lat="43.3331" lon="-6.46682">
        <ele>847.2</ele>
        <time>2016-07-08T12:31:41Z</time>
      </trkpt>
      <trkpt lat="43.333" lon="-6.46683">
        <ele>845.5</ele>
        <time>2016-07-08T12:31:49Z</time>
      </trkpt>
      <trkpt lat="43.33291" lon="-6.46688">
        <ele>844.3</ele>
        <time>2016-07-08T12:31:56Z</time>
      </trkpt>
      <trkpt lat="43.33283" lon="-6.46693">
        <ele>843.2</ele>
        <time>2016-07-08T12:32:03Z</time>
      </trkpt>
      <trkpt lat="43.33274" lon="-6.46698">
        <ele>841.7</ele>
        <time>2016-07-08T12:32:11Z</time>
      </trkpt>
      <trkpt lat="43.33265" lon="-6.46703">
        <ele>840.5</ele>
        <time>2016-07-08T12:32:19Z</time>
      </trkpt>
      <trkpt lat="43.33256" lon="-6.46706">
        <ele>839.1</ele>
        <time>2016-07-08T12:32:27Z</time>
      </trkpt>
      <trkpt lat="43.33247" lon="-6.46709">
        <ele>837.9</ele>
        <time>2016-07-08T12:32:35Z</time>
      </trkpt>
      <trkpt lat="43.33237" lon="-6.46712">
        <ele>836.8</ele>
        <time>2016-07-08T12:32:44Z</time>
      </trkpt>
      <trkpt lat="43.33227" lon="-6.46715">
        <ele>835.8</ele>
        <time>2016-07-08T12:32:52Z</time>
      </trkpt>
      <trkpt lat="43.33219" lon="-6.46719">
        <ele>835</ele>
        <time>2016-07-08T12:32:59Z</time>
      </trkpt>
      <trkpt lat="43.33209" lon="-6.46723">
        <ele>834</ele>
        <time>2016-07-08T12:33:07Z</time>
      </trkpt>
      <trkpt lat="43.332" lon="-6.46727">
        <ele>833.2</ele>
        <time>2016-07-08T12:33:15Z</time>
      </trkpt>
      <trkpt lat="43.3319" lon="-6.46731">
        <ele>832.1</ele>
        <time>2016-07-08T12:33:23Z</time>
      </trkpt>
      <trkpt lat="43.33181" lon="-6.46736">
        <ele>831.4</ele>
        <time>2016-07-08T12:33:31Z</time>
      </trkpt>
      <trkpt lat="43.33173" lon="-6.46742">
        <ele>830.5</ele>
        <time>2016-07-08T12:33:39Z</time>
      </trkpt>
      <trkpt lat="43.33165" lon="-6.46749">
        <ele>829.7</ele>
        <time>2016-07-08T12:33:47Z</time>
      </trkpt>
      <trkpt lat="43.33158" lon="-6.46757">
        <ele>829</ele>
        <time>2016-07-08T12:33:55Z</time>
      </trkpt>
      <trkpt lat="43.33157" lon="-6.46771">
        <ele>828.3</ele>
        <time>2016-07-08T12:34:04Z</time>
      </trkpt>
      <trkpt lat="43.33159" lon="-6.46783">
        <ele>827.6</ele>
        <time>2016-07-08T12:34:12Z</time>
      </trkpt>
      <trkpt lat="43.33163" lon="-6.46794">
        <ele>827</ele>
        <time>2016-07-08T12:34:20Z</time>
      </trkpt>
      <trkpt lat="43.33168" lon="-6.46805">
        <ele>826.7</ele>
        <time>2016-07-08T12:34:28Z</time>
      </trkpt>
      <trkpt lat="43.33174" lon="-6.46815">
        <ele>827.2</ele>
        <time>2016-07-08T12:34:37Z</time>
      </trkpt>
      <trkpt lat="43.33181" lon="-6.46823">
        <ele>827.3</ele>
        <time>2016-07-08T12:34:45Z</time>
      </trkpt>
      <trkpt lat="43.33189" lon="-6.46831">
        <ele>827.3</ele>
        <time>2016-07-08T12:34:54Z</time>
      </trkpt>
      <trkpt lat="43.33196" lon="-6.46839">
        <ele>827.7</ele>
        <time>2016-07-08T12:35:05Z</time>
      </trkpt>
      <trkpt lat="43.33203" lon="-6.46848">
        <ele>828</ele>
        <time>2016-07-08T12:35:13Z</time>
      </trkpt>
      <trkpt lat="43.3321" lon="-6.46856">
        <ele>828.2</ele>
        <time>2016-07-08T12:35:21Z</time>
      </trkpt>
      <trkpt lat="43.33218" lon="-6.46862">
        <ele>828.3</ele>
        <time>2016-07-08T12:35:29Z</time>
      </trkpt>
      <trkpt lat="43.33227" lon="-6.46869">
        <ele>828.3</ele>
        <time>2016-07-08T12:35:38Z</time>
      </trkpt>
      <trkpt lat="43.33236" lon="-6.46875">
        <ele>828.6</ele>
        <time>2016-07-08T12:35:46Z</time>
      </trkpt>
      <trkpt lat="43.33244" lon="-6.4688">
        <ele>828.9</ele>
        <time>2016-07-08T12:35:53Z</time>
      </trkpt>
      <trkpt lat="43.33253" lon="-6.46886">
        <ele>829.1</ele>
        <time>2016-07-08T12:36:01Z</time>
      </trkpt>
      <trkpt lat="43.33261" lon="-6.46894">
        <ele>829.4</ele>
        <time>2016-07-08T12:36:10Z</time>
      </trkpt>
      <trkpt lat="43.33267" lon="-6.46902">
        <ele>829.7</ele>
        <time>2016-07-08T12:36:17Z</time>
      </trkpt>
      <trkpt lat="43.33273" lon="-6.46914">
        <ele>830</ele>
        <time>2016-07-08T12:36:25Z</time>
      </trkpt>
      <trkpt lat="43.33277" lon="-6.46925">
        <ele>830.3</ele>
        <time>2016-07-08T12:36:33Z</time>
      </trkpt>
      <trkpt lat="43.33282" lon="-6.46937">
        <ele>830.8</ele>
        <time>2016-07-08T12:36:41Z</time>
      </trkpt>
      <trkpt lat="43.33288" lon="-6.46947">
        <ele>830.9</ele>
        <time>2016-07-08T12:36:50Z</time>
      </trkpt>
      <trkpt lat="43.33292" lon="-6.46959">
        <ele>830.9</ele>
        <time>2016-07-08T12:36:57Z</time>
      </trkpt>
      <trkpt lat="43.33295" lon="-6.46971">
        <ele>830.8</ele>
        <time>2016-07-08T12:37:04Z</time>
      </trkpt>
      <trkpt lat="43.33297" lon="-6.46984">
        <ele>831.1</ele>
        <time>2016-07-08T12:37:12Z</time>
      </trkpt>
      <trkpt lat="43.33296" lon="-6.46997">
        <ele>831.2</ele>
        <time>2016-07-08T12:37:20Z</time>
      </trkpt>
      <trkpt lat="43.33296" lon="-6.4701">
        <ele>831.3</ele>
        <time>2016-07-08T12:37:27Z</time>
      </trkpt>
      <trkpt lat="43.33295" lon="-6.47023">
        <ele>831.2</ele>
        <time>2016-07-08T12:37:35Z</time>
      </trkpt>
      <trkpt lat="43.33297" lon="-6.47036">
        <ele>831.1</ele>
        <time>2016-07-08T12:37:43Z</time>
      </trkpt>
      <trkpt lat="43.33299" lon="-6.4705">
        <ele>831.2</ele>
        <time>2016-07-08T12:37:51Z</time>
      </trkpt>
      <trkpt lat="43.33303" lon="-6.47062">
        <ele>831.2</ele>
        <time>2016-07-08T12:37:59Z</time>
      </trkpt>
      <trkpt lat="43.33305" lon="-6.47075">
        <ele>830.9</ele>
        <time>2016-07-08T12:38:07Z</time>
      </trkpt>
      <trkpt lat="43.333" lon="-6.47086">
        <ele>830.5</ele>
        <time>2016-07-08T12:38:16Z</time>
      </trkpt>
      <trkpt lat="43.333" lon="-6.47099">
        <ele>830.2</ele>
        <time>2016-07-08T12:38:24Z</time>
      </trkpt>
      <trkpt lat="43.333" lon="-6.47112">
        <ele>830</ele>
        <time>2016-07-08T12:38:32Z</time>
      </trkpt>
      <trkpt lat="43.333" lon="-6.47126">
        <ele>829.2</ele>
        <time>2016-07-08T12:38:40Z</time>
      </trkpt>
      <trkpt lat="43.33301" lon="-6.47139">
        <ele>828.5</ele>
        <time>2016-07-08T12:38:48Z</time>
      </trkpt>
      <trkpt lat="43.33302" lon="-6.47152">
        <ele>827.7</ele>
        <time>2016-07-08T12:38:56Z</time>
      </trkpt>
      <trkpt lat="43.33304" lon="-6.47165">
        <ele>827.3</ele>
        <time>2016-07-08T12:39:05Z</time>
      </trkpt>
      <trkpt lat="43.33304" lon="-6.47178">
        <ele>827</ele>
        <time>2016-07-08T12:39:13Z</time>
      </trkpt>
      <trkpt lat="43.33304" lon="-6.47191">
        <ele>826.6</ele>
        <time>2016-07-08T12:39:21Z</time>
      </trkpt>
      <trkpt lat="43.33305" lon="-6.47205">
        <ele>826.2</ele>
        <time>2016-07-08T12:39:32Z</time>
      </trkpt>
      <trkpt lat="43.33307" lon="-6.47217">
        <ele>825.6</ele>
        <time>2016-07-08T12:39:40Z</time>
      </trkpt>
      <trkpt lat="43.33307" lon="-6.47231">
        <ele>825.1</ele>
        <time>2016-07-08T12:39:48Z</time>
      </trkpt>
      <trkpt lat="43.33309" lon="-6.47245">
        <ele>824.7</ele>
        <time>2016-07-08T12:39:57Z</time>
      </trkpt>
      <trkpt lat="43.33311" lon="-6.47257">
        <ele>824.1</ele>
        <time>2016-07-08T12:40:05Z</time>
      </trkpt>
      <trkpt lat="43.33312" lon="-6.47269">
        <ele>823.3</ele>
        <time>2016-07-08T12:40:14Z</time>
      </trkpt>
      <trkpt lat="43.33314" lon="-6.47281">
        <ele>822.6</ele>
        <time>2016-07-08T12:40:23Z</time>
      </trkpt>
      <trkpt lat="43.33318" lon="-6.47295">
        <ele>822</ele>
        <time>2016-07-08T12:40:33Z</time>
      </trkpt>
      <trkpt lat="43.3332" lon="-6.47308">
        <ele>821.7</ele>
        <time>2016-07-08T12:40:41Z</time>
      </trkpt>
      <trkpt lat="43.3332" lon="-6.47321">
        <ele>821.3</ele>
        <time>2016-07-08T12:40:48Z</time>
      </trkpt>
      <trkpt lat="43.33322" lon="-6.47334">
        <ele>820.5</ele>
        <time>2016-07-08T12:40:55Z</time>
      </trkpt>
      <trkpt lat="43.33323" lon="-6.47347">
        <ele>820</ele>
        <time>2016-07-08T12:41:02Z</time>
      </trkpt>
      <trkpt lat="43.33324" lon="-6.4736">
        <ele>819.6</ele>
        <time>2016-07-08T12:41:11Z</time>
      </trkpt>
      <trkpt lat="43.33326" lon="-6.47372">
        <ele>818.9</ele>
        <time>2016-07-08T12:41:19Z</time>
      </trkpt>
      <trkpt lat="43.33326" lon="-6.47385">
        <ele>818.4</ele>
        <time>2016-07-08T12:41:26Z</time>
      </trkpt>
      <trkpt lat="43.33328" lon="-6.47398">
        <ele>817.8</ele>
        <time>2016-07-08T12:41:34Z</time>
      </trkpt>
      <trkpt lat="43.33329" lon="-6.47412">
        <ele>817</ele>
        <time>2016-07-08T12:41:42Z</time>
      </trkpt>
      <trkpt lat="43.33331" lon="-6.47425">
        <ele>816.2</ele>
        <time>2016-07-08T12:41:49Z</time>
      </trkpt>
      <trkpt lat="43.33331" lon="-6.47439">
        <ele>815.3</ele>
        <time>2016-07-08T12:41:57Z</time>
      </trkpt>
      <trkpt lat="43.33333" lon="-6.47451">
        <ele>813.5</ele>
        <time>2016-07-08T12:42:13Z</time>
      </trkpt>
      <trkpt lat="43.33333" lon="-6.47464">
        <ele>811.4</ele>
        <time>2016-07-08T12:42:25Z</time>
      </trkpt>
      <trkpt lat="43.33334" lon="-6.47476">
        <ele>810.2</ele>
        <time>2016-07-08T12:42:35Z</time>
      </trkpt>
      <trkpt lat="43.33333" lon="-6.47489">
        <ele>808.8</ele>
        <time>2016-07-08T12:42:43Z</time>
      </trkpt>
      <trkpt lat="43.33332" lon="-6.47502">
        <ele>807.1</ele>
        <time>2016-07-08T12:42:52Z</time>
      </trkpt>
      <trkpt lat="43.3333" lon="-6.47516">
        <ele>806</ele>
        <time>2016-07-08T12:43:00Z</time>
      </trkpt>
      <trkpt lat="43.33329" lon="-6.47529">
        <ele>805</ele>
        <time>2016-07-08T12:43:07Z</time>
      </trkpt>
      <trkpt lat="43.33327" lon="-6.47542">
        <ele>803.8</ele>
        <time>2016-07-08T12:43:15Z</time>
      </trkpt>
      <trkpt lat="43.33326" lon="-6.47555">
        <ele>802.2</ele>
        <time>2016-07-08T12:43:23Z</time>
      </trkpt>
      <trkpt lat="43.33326" lon="-6.47569">
        <ele>800.6</ele>
        <time>2016-07-08T12:43:31Z</time>
      </trkpt>
      <trkpt lat="43.33325" lon="-6.47582">
        <ele>799.2</ele>
        <time>2016-07-08T12:43:40Z</time>
      </trkpt>
      <trkpt lat="43.33325" lon="-6.47595">
        <ele>797.8</ele>
        <time>2016-07-08T12:43:48Z</time>
      </trkpt>
      <trkpt lat="43.33324" lon="-6.47608">
        <ele>796.1</ele>
        <time>2016-07-08T12:43:57Z</time>
      </trkpt>
      <trkpt lat="43.33322" lon="-6.47621">
        <ele>794.8</ele>
        <time>2016-07-08T12:44:05Z</time>
      </trkpt>
      <trkpt lat="43.33321" lon="-6.47633">
        <ele>793.1</ele>
        <time>2016-07-08T12:44:13Z</time>
      </trkpt>
      <trkpt lat="43.3332" lon="-6.47646">
        <ele>791.4</ele>
        <time>2016-07-08T12:44:23Z</time>
      </trkpt>
      <trkpt lat="43.33317" lon="-6.47659">
        <ele>789.8</ele>
        <time>2016-07-08T12:44:31Z</time>
      </trkpt>
      <trkpt lat="43.33317" lon="-6.47672">
        <ele>787.9</ele>
        <time>2016-07-08T12:44:40Z</time>
      </trkpt>
      <trkpt lat="43.33317" lon="-6.47686">
        <ele>785.8</ele>
        <time>2016-07-08T12:44:49Z</time>
      </trkpt>
      <trkpt lat="43.33317" lon="-6.47699">
        <ele>783.4</ele>
        <time>2016-07-08T12:45:00Z</time>
      </trkpt>
      <trkpt lat="43.33316" lon="-6.47713">
        <ele>781.3</ele>
        <time>2016-07-08T12:45:10Z</time>
      </trkpt>
      <trkpt lat="43.33316" lon="-6.47726">
        <ele>779.8</ele>
        <time>2016-07-08T12:45:19Z</time>
      </trkpt>
      <trkpt lat="43.33316" lon="-6.47739">
        <ele>778.6</ele>
        <time>2016-07-08T12:45:27Z</time>
      </trkpt>
      <trkpt lat="43.33319" lon="-6.47751">
        <ele>777.3</ele>
        <time>2016-07-08T12:45:35Z</time>
      </trkpt>
      <trkpt lat="43.33321" lon="-6.47765">
        <ele>776.3</ele>
        <time>2016-07-08T12:45:43Z</time>
      </trkpt>
      <trkpt lat="43.33326" lon="-6.47776">
        <ele>775.1</ele>
        <time>2016-07-08T12:45:51Z</time>
      </trkpt>
      <trkpt lat="43.33331" lon="-6.47786">
        <ele>774.3</ele>
        <time>2016-07-08T12:45:58Z</time>
      </trkpt>
      <trkpt lat="43.33336" lon="-6.47797">
        <ele>773.5</ele>
        <time>2016-07-08T12:46:05Z</time>
      </trkpt>
      <trkpt lat="43.33343" lon="-6.47806">
        <ele>772.1</ele>
        <time>2016-07-08T12:46:15Z</time>
      </trkpt>
      <trkpt lat="43.33352" lon="-6.4781">
        <ele>770.8</ele>
        <time>2016-07-08T12:46:25Z</time>
      </trkpt>
      <trkpt lat="43.33361" lon="-6.47814">
        <ele>769.2</ele>
        <time>2016-07-08T12:46:35Z</time>
      </trkpt>
      <trkpt lat="43.33369" lon="-6.4782">
        <ele>768</ele>
        <time>2016-07-08T12:46:44Z</time>
      </trkpt>
      <trkpt lat="43.33377" lon="-6.47826">
        <ele>767</ele>
        <time>2016-07-08T12:46:52Z</time>
      </trkpt>
      <trkpt lat="43.33386" lon="-6.4783">
        <ele>765.6</ele>
        <time>2016-07-08T12:47:02Z</time>
      </trkpt>
      <trkpt lat="43.33395" lon="-6.47835">
        <ele>764.2</ele>
        <time>2016-07-08T12:47:11Z</time>
      </trkpt>
      <trkpt lat="43.33402" lon="-6.47844">
        <ele>763.1</ele>
        <time>2016-07-08T12:47:20Z</time>
      </trkpt>
      <trkpt lat="43.33408" lon="-6.47854">
        <ele>762.2</ele>
        <time>2016-07-08T12:47:28Z</time>
      </trkpt>
      <trkpt lat="43.33414" lon="-6.47863">
        <ele>760.9</ele>
        <time>2016-07-08T12:47:37Z</time>
      </trkpt>
      <trkpt lat="43.33421" lon="-6.47872">
        <ele>759.8</ele>
        <time>2016-07-08T12:47:45Z</time>
      </trkpt>
      <trkpt lat="43.33427" lon="-6.47883">
        <ele>758.8</ele>
        <time>2016-07-08T12:47:53Z</time>
      </trkpt>
      <trkpt lat="43.33431" lon="-6.47894">
        <ele>757.9</ele>
        <time>2016-07-08T12:48:01Z</time>
      </trkpt>
      <trkpt lat="43.33435" lon="-6.47906">
        <ele>757.1</ele>
        <time>2016-07-08T12:48:11Z</time>
      </trkpt>
      <trkpt lat="43.33439" lon="-6.47918">
        <ele>756</ele>
        <time>2016-07-08T12:48:20Z</time>
      </trkpt>
      <trkpt lat="43.33444" lon="-6.4793">
        <ele>754.8</ele>
        <time>2016-07-08T12:48:31Z</time>
      </trkpt>
      <trkpt lat="43.3345" lon="-6.47941">
        <ele>753.4</ele>
        <time>2016-07-08T12:48:40Z</time>
      </trkpt>
      <trkpt lat="43.33457" lon="-6.4795">
        <ele>751.8</ele>
        <time>2016-07-08T12:48:49Z</time>
      </trkpt>
      <trkpt lat="43.33464" lon="-6.47959">
        <ele>750.4</ele>
        <time>2016-07-08T12:48:57Z</time>
      </trkpt>
      <trkpt lat="43.33471" lon="-6.47968">
        <ele>749.2</ele>
        <time>2016-07-08T12:49:04Z</time>
      </trkpt>
      <trkpt lat="43.33477" lon="-6.47979">
        <ele>747.9</ele>
        <time>2016-07-08T12:49:11Z</time>
      </trkpt>
      <trkpt lat="43.33483" lon="-6.47989">
        <ele>746.4</ele>
        <time>2016-07-08T12:49:19Z</time>
      </trkpt>
      <trkpt lat="43.33488" lon="-6.47999">
        <ele>745.4</ele>
        <time>2016-07-08T12:49:28Z</time>
      </trkpt>
      <trkpt lat="43.33494" lon="-6.48009">
        <ele>744.6</ele>
        <time>2016-07-08T12:49:36Z</time>
      </trkpt>
      <trkpt lat="43.33499" lon="-6.48021">
        <ele>743.8</ele>
        <time>2016-07-08T12:49:45Z</time>
      </trkpt>
      <trkpt lat="43.33503" lon="-6.48032">
        <ele>742.6</ele>
        <time>2016-07-08T12:49:54Z</time>
      </trkpt>
      <trkpt lat="43.33503" lon="-6.48046">
        <ele>741.5</ele>
        <time>2016-07-08T12:50:02Z</time>
      </trkpt>
      <trkpt lat="43.33506" lon="-6.48058">
        <ele>739.7</ele>
        <time>2016-07-08T12:50:11Z</time>
      </trkpt>
      <trkpt lat="43.3351" lon="-6.48071">
        <ele>738.4</ele>
        <time>2016-07-08T12:50:20Z</time>
      </trkpt>
      <trkpt lat="43.33512" lon="-6.48083">
        <ele>736.9</ele>
        <time>2016-07-08T12:50:28Z</time>
      </trkpt>
      <trkpt lat="43.33514" lon="-6.48096">
        <ele>735.6</ele>
        <time>2016-07-08T12:50:36Z</time>
      </trkpt>
      <trkpt lat="43.33516" lon="-6.4811">
        <ele>733.1</ele>
        <time>2016-07-08T12:50:47Z</time>
      </trkpt>
      <trkpt lat="43.33516" lon="-6.48123">
        <ele>731.6</ele>
        <time>2016-07-08T12:50:55Z</time>
      </trkpt>
      <trkpt lat="43.33516" lon="-6.48136">
        <ele>730.2</ele>
        <time>2016-07-08T12:51:03Z</time>
      </trkpt>
      <trkpt lat="43.33518" lon="-6.48148">
        <ele>728.3</ele>
        <time>2016-07-08T12:51:12Z</time>
      </trkpt>
      <trkpt lat="43.33518" lon="-6.48161">
        <ele>726.4</ele>
        <time>2016-07-08T12:51:21Z</time>
      </trkpt>
      <trkpt lat="43.33519" lon="-6.48174">
        <ele>724.1</ele>
        <time>2016-07-08T12:51:32Z</time>
      </trkpt>
      <trkpt lat="43.33522" lon="-6.48186">
        <ele>722.6</ele>
        <time>2016-07-08T12:51:40Z</time>
      </trkpt>
      <trkpt lat="43.33525" lon="-6.48198">
        <ele>720.8</ele>
        <time>2016-07-08T12:51:50Z</time>
      </trkpt>
      <trkpt lat="43.33529" lon="-6.48209">
        <ele>719.3</ele>
        <time>2016-07-08T12:51:59Z</time>
      </trkpt>
      <trkpt lat="43.33534" lon="-6.4822">
        <ele>718.3</ele>
        <time>2016-07-08T12:52:06Z</time>
      </trkpt>
      <trkpt lat="43.33539" lon="-6.48232">
        <ele>717</ele>
        <time>2016-07-08T12:52:14Z</time>
      </trkpt>
      <trkpt lat="43.33545" lon="-6.48242">
        <ele>715.6</ele>
        <time>2016-07-08T12:52:22Z</time>
      </trkpt>
      <trkpt lat="43.33552" lon="-6.48252">
        <ele>714.1</ele>
        <time>2016-07-08T12:52:32Z</time>
      </trkpt>
      <trkpt lat="43.33558" lon="-6.48262">
        <ele>712.8</ele>
        <time>2016-07-08T12:52:41Z</time>
      </trkpt>
      <trkpt lat="43.33565" lon="-6.4827">
        <ele>711.2</ele>
        <time>2016-07-08T12:52:51Z</time>
      </trkpt>
      <trkpt lat="43.33571" lon="-6.48279">
        <ele>709.7</ele>
        <time>2016-07-08T12:53:01Z</time>
      </trkpt>
      <trkpt lat="43.33577" lon="-6.48289">
        <ele>708.1</ele>
        <time>2016-07-08T12:53:10Z</time>
      </trkpt>
      <trkpt lat="43.33583" lon="-6.48299">
        <ele>706.2</ele>
        <time>2016-07-08T12:53:19Z</time>
      </trkpt>
      <trkpt lat="43.33589" lon="-6.48309">
        <ele>704.1</ele>
        <time>2016-07-08T12:53:29Z</time>
      </trkpt>
      <trkpt lat="43.33595" lon="-6.48319">
        <ele>702.5</ele>
        <time>2016-07-08T12:53:39Z</time>
      </trkpt>
      <trkpt lat="43.33603" lon="-6.48327">
        <ele>700.7</ele>
        <time>2016-07-08T12:53:48Z</time>
      </trkpt>
      <trkpt lat="43.3361" lon="-6.48335">
        <ele>698.8</ele>
        <time>2016-07-08T12:53:59Z</time>
      </trkpt>
      <trkpt lat="43.33618" lon="-6.48341">
        <ele>697.3</ele>
        <time>2016-07-08T12:54:09Z</time>
      </trkpt>
      <trkpt lat="43.33626" lon="-6.48347">
        <ele>695.9</ele>
        <time>2016-07-08T12:54:18Z</time>
      </trkpt>
      <trkpt lat="43.33635" lon="-6.48352">
        <ele>694.9</ele>
        <time>2016-07-08T12:54:26Z</time>
      </trkpt>
      <trkpt lat="43.33644" lon="-6.48357">
        <ele>693.1</ele>
        <time>2016-07-08T12:54:36Z</time>
      </trkpt>
      <trkpt lat="43.33652" lon="-6.48361">
        <ele>691</ele>
        <time>2016-07-08T12:54:48Z</time>
      </trkpt>
      <trkpt lat="43.3366" lon="-6.48368">
        <ele>689.2</ele>
        <time>2016-07-08T12:54:57Z</time>
      </trkpt>
      <trkpt lat="43.33669" lon="-6.48374">
        <ele>687.4</ele>
        <time>2016-07-08T12:55:07Z</time>
      </trkpt>
      <trkpt lat="43.33678" lon="-6.48377">
        <ele>685.8</ele>
        <time>2016-07-08T12:55:17Z</time>
      </trkpt>
      <trkpt lat="43.33687" lon="-6.48379">
        <ele>684.2</ele>
        <time>2016-07-08T12:55:28Z</time>
      </trkpt>
      <trkpt lat="43.33697" lon="-6.48379">
        <ele>683.1</ele>
        <time>2016-07-08T12:55:38Z</time>
      </trkpt>
      <trkpt lat="43.33705" lon="-6.48375">
        <ele>682.3</ele>
        <time>2016-07-08T12:55:46Z</time>
      </trkpt>
      <trkpt lat="43.33714" lon="-6.48368">
        <ele>681.1</ele>
        <time>2016-07-08T12:55:56Z</time>
      </trkpt>
      <trkpt lat="43.33723" lon="-6.48362">
        <ele>680.1</ele>
        <time>2016-07-08T12:56:03Z</time>
      </trkpt>
      <trkpt lat="43.3373" lon="-6.48354">
        <ele>678.8</ele>
        <time>2016-07-08T12:56:12Z</time>
      </trkpt>
      <trkpt lat="43.33734" lon="-6.48343">
        <ele>677.9</ele>
        <time>2016-07-08T12:56:24Z</time>
      </trkpt>
      <trkpt lat="43.33743" lon="-6.48342">
        <ele>676.4</ele>
        <time>2016-07-08T12:57:18Z</time>
      </trkpt>
      <trkpt lat="43.33751" lon="-6.48332">
        <ele>675.5</ele>
        <time>2016-07-08T12:58:00Z</time>
      </trkpt>
      <trkpt lat="43.33757" lon="-6.48324">
        <ele>674.4</ele>
        <time>2016-07-08T12:58:09Z</time>
      </trkpt>
      <trkpt lat="43.33764" lon="-6.48315">
        <ele>673.4</ele>
        <time>2016-07-08T12:58:18Z</time>
      </trkpt>
      <trkpt lat="43.33771" lon="-6.48306">
        <ele>671.9</ele>
        <time>2016-07-08T12:58:27Z</time>
      </trkpt>
      <trkpt lat="43.33779" lon="-6.48298">
        <ele>670.7</ele>
        <time>2016-07-08T12:58:36Z</time>
      </trkpt>
      <trkpt lat="43.33786" lon="-6.48289">
        <ele>668.9</ele>
        <time>2016-07-08T12:58:47Z</time>
      </trkpt>
      <trkpt lat="43.33795" lon="-6.48287">
        <ele>667</ele>
        <time>2016-07-08T12:59:07Z</time>
      </trkpt>
      <trkpt lat="43.33801" lon="-6.48278">
        <ele>665.4</ele>
        <time>2016-07-08T13:00:51Z</time>
      </trkpt>
      <trkpt lat="43.3381" lon="-6.48279">
        <ele>665.2</ele>
        <time>2016-07-08T13:01:20Z</time>
      </trkpt>
      <trkpt lat="43.33812" lon="-6.48266">
        <ele>664.4</ele>
        <time>2016-07-08T13:02:27Z</time>
      </trkpt>
      <trkpt lat="43.33813" lon="-6.48253">
        <ele>664</ele>
        <time>2016-07-08T13:02:38Z</time>
      </trkpt>
      <trkpt lat="43.33816" lon="-6.4824">
        <ele>663.4</ele>
        <time>2016-07-08T13:02:47Z</time>
      </trkpt>
      <trkpt lat="43.3382" lon="-6.48229">
        <ele>662.3</ele>
        <time>2016-07-08T13:02:56Z</time>
      </trkpt>
      <trkpt lat="43.33824" lon="-6.48217">
        <ele>660.7</ele>
        <time>2016-07-08T13:03:04Z</time>
      </trkpt>
      <trkpt lat="43.33828" lon="-6.48204">
        <ele>658.9</ele>
        <time>2016-07-08T13:03:14Z</time>
      </trkpt>
      <trkpt lat="43.33833" lon="-6.48193">
        <ele>658</ele>
        <time>2016-07-08T13:03:21Z</time>
      </trkpt>
      <trkpt lat="43.33839" lon="-6.48183">
        <ele>656.6</ele>
        <time>2016-07-08T13:03:29Z</time>
      </trkpt>
      <trkpt lat="43.33846" lon="-6.48174">
        <ele>655.6</ele>
        <time>2016-07-08T13:03:37Z</time>
      </trkpt>
      <trkpt lat="43.33852" lon="-6.48163">
        <ele>654.8</ele>
        <time>2016-07-08T13:03:46Z</time>
      </trkpt>
      <trkpt lat="43.33857" lon="-6.48152">
        <ele>653.6</ele>
        <time>2016-07-08T13:03:55Z</time>
      </trkpt>
      <trkpt lat="43.33864" lon="-6.48144">
        <ele>652.6</ele>
        <time>2016-07-08T13:04:03Z</time>
      </trkpt>
      <trkpt lat="43.3387" lon="-6.48133">
        <ele>651</ele>
        <time>2016-07-08T13:04:12Z</time>
      </trkpt>
      <trkpt lat="43.33875" lon="-6.48123">
        <ele>649.2</ele>
        <time>2016-07-08T13:04:22Z</time>
      </trkpt>
      <trkpt lat="43.33882" lon="-6.48114">
        <ele>647.4</ele>
        <time>2016-07-08T13:04:31Z</time>
      </trkpt>
      <trkpt lat="43.33888" lon="-6.48103">
        <ele>646.1</ele>
        <time>2016-07-08T13:04:39Z</time>
      </trkpt>
      <trkpt lat="43.33891" lon="-6.48091">
        <ele>644.6</ele>
        <time>2016-07-08T13:04:48Z</time>
      </trkpt>
      <trkpt lat="43.33896" lon="-6.48081">
        <ele>643.5</ele>
        <time>2016-07-08T13:04:56Z</time>
      </trkpt>
      <trkpt lat="43.33902" lon="-6.4807">
        <ele>642.3</ele>
        <time>2016-07-08T13:05:05Z</time>
      </trkpt>
      <trkpt lat="43.33909" lon="-6.48061">
        <ele>641.3</ele>
        <time>2016-07-08T13:05:14Z</time>
      </trkpt>
      <trkpt lat="43.33915" lon="-6.48051">
        <ele>640.4</ele>
        <time>2016-07-08T13:05:23Z</time>
      </trkpt>
      <trkpt lat="43.33924" lon="-6.48045">
        <ele>639.8</ele>
        <time>2016-07-08T13:05:30Z</time>
      </trkpt>
      <trkpt lat="43.33932" lon="-6.48039">
        <ele>639.4</ele>
        <time>2016-07-08T13:05:37Z</time>
      </trkpt>
      <trkpt lat="43.33942" lon="-6.48037">
        <ele>639</ele>
        <time>2016-07-08T13:05:45Z</time>
      </trkpt>
      <trkpt lat="43.33951" lon="-6.48042">
        <ele>638.9</ele>
        <time>2016-07-08T13:05:55Z</time>
      </trkpt>
      <trkpt lat="43.33959" lon="-6.48049">
        <ele>639.3</ele>
        <time>2016-07-08T13:06:04Z</time>
      </trkpt>
      <trkpt lat="43.33969" lon="-6.48049">
        <ele>639.6</ele>
        <time>2016-07-08T13:06:12Z</time>
      </trkpt>
      <trkpt lat="43.33978" lon="-6.48052">
        <ele>639.8</ele>
        <time>2016-07-08T13:06:22Z</time>
      </trkpt>
      <trkpt lat="43.33987" lon="-6.48056">
        <ele>641</ele>
        <time>2016-07-08T13:06:34Z</time>
      </trkpt>
      <trkpt lat="43.33996" lon="-6.4806">
        <ele>641.8</ele>
        <time>2016-07-08T13:06:44Z</time>
      </trkpt>
      <trkpt lat="43.34006" lon="-6.48061">
        <ele>642.8</ele>
        <time>2016-07-08T13:06:53Z</time>
      </trkpt>
      <trkpt lat="43.34015" lon="-6.4806">
        <ele>643.9</ele>
        <time>2016-07-08T13:07:02Z</time>
      </trkpt>
      <trkpt lat="43.34025" lon="-6.48056">
        <ele>647.3</ele>
        <time>2016-07-08T13:07:34Z</time>
      </trkpt>
      <trkpt lat="43.34034" lon="-6.48056">
        <ele>649.2</ele>
        <time>2016-07-08T13:07:57Z</time>
      </trkpt>
      <trkpt lat="43.34037" lon="-6.48044">
        <ele>652.3</ele>
        <time>2016-07-08T13:08:45Z</time>
      </trkpt>
      <trkpt lat="43.34034" lon="-6.48032">
        <ele>652.7</ele>
        <time>2016-07-08T13:09:34Z</time>
      </trkpt>
      <trkpt lat="43.34031" lon="-6.48019">
        <ele>653.8</ele>
        <time>2016-07-08T13:10:23Z</time>
      </trkpt>
      <trkpt lat="43.34027" lon="-6.48007">
        <ele>653.8</ele>
        <time>2016-07-08T13:10:34Z</time>
      </trkpt>
      <trkpt lat="43.34022" lon="-6.47996">
        <ele>654</ele>
        <time>2016-07-08T13:11:24Z</time>
      </trkpt>
      <trkpt lat="43.34014" lon="-6.48002">
        <ele>653.1</ele>
        <time>2016-07-08T13:13:26Z</time>
      </trkpt>
      <trkpt lat="43.34008" lon="-6.47993">
        <ele>652.6</ele>
        <time>2016-07-08T13:13:38Z</time>
      </trkpt>
      <trkpt lat="43.34006" lon="-6.4798">
        <ele>652.1</ele>
        <time>2016-07-08T13:13:49Z</time>
      </trkpt>
      <trkpt lat="43.34001" lon="-6.47969">
        <ele>652.3</ele>
        <time>2016-07-08T13:14:00Z</time>
      </trkpt>
      <trkpt lat="43.33997" lon="-6.47957">
        <ele>652.4</ele>
        <time>2016-07-08T13:14:13Z</time>
      </trkpt>
      <trkpt lat="43.33997" lon="-6.47943">
        <ele>652.5</ele>
        <time>2016-07-08T13:14:23Z</time>
      </trkpt>
      <trkpt lat="43.34003" lon="-6.47934">
        <ele>652.3</ele>
        <time>2016-07-08T13:14:38Z</time>
      </trkpt>
      <trkpt lat="43.34012" lon="-6.47932">
        <ele>653.8</ele>
        <time>2016-07-08T13:15:10Z</time>
      </trkpt>
      <trkpt lat="43.34022" lon="-6.47932">
        <ele>654.2</ele>
        <time>2016-07-08T13:15:22Z</time>
      </trkpt>
      <trkpt lat="43.34031" lon="-6.4793">
        <ele>654.8</ele>
        <time>2016-07-08T13:15:28Z</time>
      </trkpt>
      <trkpt lat="43.34023" lon="-6.47941">
        <ele>655.4</ele>
        <time>2016-07-08T13:15:40Z</time>
      </trkpt>
      <trkpt lat="43.34018" lon="-6.47953">
        <ele>655</ele>
        <time>2016-07-08T13:15:44Z</time>
      </trkpt>
      <trkpt lat="43.34012" lon="-6.47944">
        <ele>655.3</ele>
        <time>2016-07-08T13:16:04Z</time>
      </trkpt>
      <trkpt lat="43.34007" lon="-6.47933">
        <ele>653.8</ele>
        <time>2016-07-08T13:16:35Z</time>
      </trkpt>
      <trkpt lat="43.34013" lon="-6.47943">
        <ele>652</ele>
        <time>2016-07-08T13:17:00Z</time>
      </trkpt>
      <trkpt lat="43.34003" lon="-6.47945">
        <ele>652.4</ele>
        <time>2016-07-08T13:17:24Z</time>
      </trkpt>
      <trkpt lat="43.34019" lon="-6.47972">
        <ele>651</ele>
        <time>2016-07-08T13:17:44Z</time>
      </trkpt>
      <trkpt lat="43.34022" lon="-6.47942">
        <ele>651</ele>
        <time>2016-07-08T13:17:54Z</time>
      </trkpt>
      <trkpt lat="43.34011" lon="-6.47989">
        <ele>652.3</ele>
        <time>2016-07-08T13:18:13Z</time>
      </trkpt>
      <trkpt lat="43.34015" lon="-6.47974">
        <ele>652.4</ele>
        <time>2016-07-08T13:18:14Z</time>
      </trkpt>
      <trkpt lat="43.3402" lon="-6.47963">
        <ele>652.4</ele>
        <time>2016-07-08T13:18:16Z</time>
      </trkpt>
      <trkpt lat="43.34023" lon="-6.47976">
        <ele>652.3</ele>
        <time>2016-07-08T13:18:22Z</time>
      </trkpt>
      <trkpt lat="43.34021" lon="-6.47991">
        <ele>652.3</ele>
        <time>2016-07-08T13:18:26Z</time>
      </trkpt>
      <trkpt lat="43.34026" lon="-6.48002">
        <ele>653.6</ele>
        <time>2016-07-08T13:18:58Z</time>
      </trkpt>
      <trkpt lat="43.3403" lon="-6.48013">
        <ele>653.8</ele>
        <time>2016-07-08T13:19:10Z</time>
      </trkpt>
      <trkpt lat="43.34035" lon="-6.48024">
        <ele>654</ele>
        <time>2016-07-08T13:19:21Z</time>
      </trkpt>
      <trkpt lat="43.34038" lon="-6.48037">
        <ele>653.9</ele>
        <time>2016-07-08T13:19:32Z</time>
      </trkpt>
      <trkpt lat="43.3404" lon="-6.48049">
        <ele>653.7</ele>
        <time>2016-07-08T13:19:43Z</time>
      </trkpt>
      <trkpt lat="43.34032" lon="-6.48056">
        <ele>653.1</ele>
        <time>2016-07-08T13:20:24Z</time>
      </trkpt>
      <trkpt lat="43.34039" lon="-6.48065">
        <ele>651</ele>
        <time>2016-07-08T13:22:10Z</time>
      </trkpt>
      <trkpt lat="43.34032" lon="-6.48056">
        <ele>651.7</ele>
        <time>2016-07-08T13:22:37Z</time>
      </trkpt>
      <trkpt lat="43.34023" lon="-6.48058">
        <ele>649.9</ele>
        <time>2016-07-08T13:22:55Z</time>
      </trkpt>
      <trkpt lat="43.34016" lon="-6.48067">
        <ele>648</ele>
        <time>2016-07-08T13:23:07Z</time>
      </trkpt>
      <trkpt lat="43.34007" lon="-6.48069">
        <ele>646.2</ele>
        <time>2016-07-08T13:23:19Z</time>
      </trkpt>
      <trkpt lat="43.33998" lon="-6.48064">
        <ele>644.2</ele>
        <time>2016-07-08T13:23:30Z</time>
      </trkpt>
      <trkpt lat="43.3399" lon="-6.48058">
        <ele>642.2</ele>
        <time>2016-07-08T13:23:42Z</time>
      </trkpt>
      <trkpt lat="43.33982" lon="-6.48053">
        <ele>640.5</ele>
        <time>2016-07-08T13:23:53Z</time>
      </trkpt>
      <trkpt lat="43.33973" lon="-6.48051">
        <ele>639.4</ele>
        <time>2016-07-08T13:24:02Z</time>
      </trkpt>
      <trkpt lat="43.33963" lon="-6.48047">
        <ele>638.5</ele>
        <time>2016-07-08T13:24:11Z</time>
      </trkpt>
      <trkpt lat="43.33954" lon="-6.48041">
        <ele>637.6</ele>
        <time>2016-07-08T13:24:20Z</time>
      </trkpt>
      <trkpt lat="43.33946" lon="-6.48036">
        <ele>636.7</ele>
        <time>2016-07-08T13:24:28Z</time>
      </trkpt>
      <trkpt lat="43.33936" lon="-6.48039">
        <ele>635.9</ele>
        <time>2016-07-08T13:24:39Z</time>
      </trkpt>
      <trkpt lat="43.33927" lon="-6.48045">
        <ele>635.4</ele>
        <time>2016-07-08T13:24:52Z</time>
      </trkpt>
      <trkpt lat="43.33921" lon="-6.48054">
        <ele>635.5</ele>
        <time>2016-07-08T13:25:02Z</time>
      </trkpt>
      <trkpt lat="43.33915" lon="-6.48065">
        <ele>635.5</ele>
        <time>2016-07-08T13:25:12Z</time>
      </trkpt>
      <trkpt lat="43.33909" lon="-6.48076">
        <ele>636.5</ele>
        <time>2016-07-08T13:25:22Z</time>
      </trkpt>
      <trkpt lat="43.33903" lon="-6.48085">
        <ele>637</ele>
        <time>2016-07-08T13:25:33Z</time>
      </trkpt>
      <trkpt lat="43.33896" lon="-6.48094">
        <ele>637.6</ele>
        <time>2016-07-08T13:25:45Z</time>
      </trkpt>
      <trkpt lat="43.33888" lon="-6.481">
        <ele>638.6</ele>
        <time>2016-07-08T13:26:12Z</time>
      </trkpt>
      <trkpt lat="43.33883" lon="-6.48109">
        <ele>639</ele>
        <time>2016-07-08T13:26:26Z</time>
      </trkpt>
      <trkpt lat="43.33877" lon="-6.4812">
        <ele>640.3</ele>
        <time>2016-07-08T13:26:42Z</time>
      </trkpt>
      <trkpt lat="43.3387" lon="-6.48127">
        <ele>642.4</ele>
        <time>2016-07-08T13:26:57Z</time>
      </trkpt>
      <trkpt lat="43.33864" lon="-6.48138">
        <ele>643.7</ele>
        <time>2016-07-08T13:27:09Z</time>
      </trkpt>
      <trkpt lat="43.33858" lon="-6.48148">
        <ele>645</ele>
        <time>2016-07-08T13:27:18Z</time>
      </trkpt>
      <trkpt lat="43.33852" lon="-6.48157">
        <ele>645.7</ele>
        <time>2016-07-08T13:27:27Z</time>
      </trkpt>
      <trkpt lat="43.33847" lon="-6.48168">
        <ele>646.4</ele>
        <time>2016-07-08T13:27:37Z</time>
      </trkpt>
      <trkpt lat="43.33842" lon="-6.48179">
        <ele>647</ele>
        <time>2016-07-08T13:27:48Z</time>
      </trkpt>
      <trkpt lat="43.33835" lon="-6.48187">
        <ele>647.8</ele>
        <time>2016-07-08T13:27:57Z</time>
      </trkpt>
      <trkpt lat="43.3383" lon="-6.48199">
        <ele>648.9</ele>
        <time>2016-07-08T13:28:07Z</time>
      </trkpt>
      <trkpt lat="43.33826" lon="-6.4821">
        <ele>649.9</ele>
        <time>2016-07-08T13:28:19Z</time>
      </trkpt>
      <trkpt lat="43.33821" lon="-6.48221">
        <ele>651.3</ele>
        <time>2016-07-08T13:28:30Z</time>
      </trkpt>
      <trkpt lat="43.33815" lon="-6.4823">
        <ele>652.2</ele>
        <time>2016-07-08T13:28:41Z</time>
      </trkpt>
      <trkpt lat="43.33809" lon="-6.4824">
        <ele>653.7</ele>
        <time>2016-07-08T13:28:52Z</time>
      </trkpt>
      <trkpt lat="43.33804" lon="-6.48252">
        <ele>654.5</ele>
        <time>2016-07-08T13:29:02Z</time>
      </trkpt>
      <trkpt lat="43.338" lon="-6.48264">
        <ele>655.1</ele>
        <time>2016-07-08T13:29:13Z</time>
      </trkpt>
      <trkpt lat="43.33791" lon="-6.48266">
        <ele>655.4</ele>
        <time>2016-07-08T13:29:20Z</time>
      </trkpt>
      <trkpt lat="43.33792" lon="-6.48279">
        <ele>656.4</ele>
        <time>2016-07-08T13:29:43Z</time>
      </trkpt>
      <trkpt lat="43.33792" lon="-6.48291">
        <ele>655.9</ele>
        <time>2016-07-08T13:30:16Z</time>
      </trkpt>
      <trkpt lat="43.33789" lon="-6.48304">
        <ele>655.6</ele>
        <time>2016-07-08T13:30:25Z</time>
      </trkpt>
      <trkpt lat="43.33785" lon="-6.48316">
        <ele>655.5</ele>
        <time>2016-07-08T13:30:34Z</time>
      </trkpt>
      <trkpt lat="43.33781" lon="-6.48328">
        <ele>655.4</ele>
        <time>2016-07-08T13:30:43Z</time>
      </trkpt>
      <trkpt lat="43.33779" lon="-6.48341">
        <ele>654.8</ele>
        <time>2016-07-08T13:30:52Z</time>
      </trkpt>
      <trkpt lat="43.33776" lon="-6.48354">
        <ele>654.4</ele>
        <time>2016-07-08T13:31:01Z</time>
      </trkpt>
      <trkpt lat="43.33773" lon="-6.48366">
        <ele>654.1</ele>
        <time>2016-07-08T13:31:10Z</time>
      </trkpt>
      <trkpt lat="43.33769" lon="-6.48378">
        <ele>653.2</ele>
        <time>2016-07-08T13:31:22Z</time>
      </trkpt>
      <trkpt lat="43.33763" lon="-6.48387">
        <ele>652.3</ele>
        <time>2016-07-08T13:31:33Z</time>
      </trkpt>
      <trkpt lat="43.33757" lon="-6.48398">
        <ele>651.5</ele>
        <time>2016-07-08T13:31:42Z</time>
      </trkpt>
      <trkpt lat="43.33752" lon="-6.48409">
        <ele>650.9</ele>
        <time>2016-07-08T13:31:52Z</time>
      </trkpt>
      <trkpt lat="43.33746" lon="-6.48418">
        <ele>650.5</ele>
        <time>2016-07-08T13:32:01Z</time>
      </trkpt>
      <trkpt lat="43.3374" lon="-6.48427">
        <ele>650.2</ele>
        <time>2016-07-08T13:32:10Z</time>
      </trkpt>
      <trkpt lat="43.33731" lon="-6.48433">
        <ele>649.7</ele>
        <time>2016-07-08T13:32:19Z</time>
      </trkpt>
      <trkpt lat="43.33723" lon="-6.4844">
        <ele>649.1</ele>
        <time>2016-07-08T13:32:28Z</time>
      </trkpt>
      <trkpt lat="43.33715" lon="-6.48446">
        <ele>648.5</ele>
        <time>2016-07-08T13:32:37Z</time>
      </trkpt>
      <trkpt lat="43.33706" lon="-6.48449">
        <ele>648.1</ele>
        <time>2016-07-08T13:32:45Z</time>
      </trkpt>
      <trkpt lat="43.33696" lon="-6.48454">
        <ele>648.1</ele>
        <time>2016-07-08T13:32:54Z</time>
      </trkpt>
      <trkpt lat="43.33687" lon="-6.48456">
        <ele>647.8</ele>
        <time>2016-07-08T13:33:03Z</time>
      </trkpt>
      <trkpt lat="43.33678" lon="-6.48458">
        <ele>647.7</ele>
        <time>2016-07-08T13:33:10Z</time>
      </trkpt>
      <trkpt lat="43.33668" lon="-6.4846">
        <ele>647.8</ele>
        <time>2016-07-08T13:33:18Z</time>
      </trkpt>
      <trkpt lat="43.33659" lon="-6.48462">
        <ele>647</ele>
        <time>2016-07-08T13:33:25Z</time>
      </trkpt>
      <trkpt lat="43.33647" lon="-6.48464">
        <ele>647</ele>
        <time>2016-07-08T13:33:37Z</time>
      </trkpt>
      <trkpt lat="43.33636" lon="-6.48463">
        <ele>647</ele>
        <time>2016-07-08T13:33:45Z</time>
      </trkpt>
      <trkpt lat="43.33626" lon="-6.48465">
        <ele>646</ele>
        <time>2016-07-08T13:33:53Z</time>
      </trkpt>
      <trkpt lat="43.33616" lon="-6.48465">
        <ele>646.3</ele>
        <time>2016-07-08T13:34:01Z</time>
      </trkpt>
      <trkpt lat="43.33609" lon="-6.48474">
        <ele>645.8</ele>
        <time>2016-07-08T13:34:10Z</time>
      </trkpt>
      <trkpt lat="43.33613" lon="-6.48485">
        <ele>645.3</ele>
        <time>2016-07-08T13:34:24Z</time>
      </trkpt>
      <trkpt lat="43.3362" lon="-6.48494">
        <ele>645.7</ele>
        <time>2016-07-08T13:34:35Z</time>
      </trkpt>
      <trkpt lat="43.33628" lon="-6.48501">
        <ele>645.9</ele>
        <time>2016-07-08T13:34:44Z</time>
      </trkpt>
      <trkpt lat="43.33636" lon="-6.48507">
        <ele>645.9</ele>
        <time>2016-07-08T13:34:53Z</time>
      </trkpt>
      <trkpt lat="43.33643" lon="-6.48514">
        <ele>645.6</ele>
        <time>2016-07-08T13:35:01Z</time>
      </trkpt>
      <trkpt lat="43.33651" lon="-6.48521">
        <ele>645.3</ele>
        <time>2016-07-08T13:35:10Z</time>
      </trkpt>
      <trkpt lat="43.3366" lon="-6.48526">
        <ele>645</ele>
        <time>2016-07-08T13:35:19Z</time>
      </trkpt>
      <trkpt lat="43.33669" lon="-6.48532">
        <ele>644.6</ele>
        <time>2016-07-08T13:35:27Z</time>
      </trkpt>
      <trkpt lat="43.33678" lon="-6.48536">
        <ele>644.1</ele>
        <time>2016-07-08T13:35:35Z</time>
      </trkpt>
      <trkpt lat="43.33687" lon="-6.48539">
        <ele>643.6</ele>
        <time>2016-07-08T13:35:46Z</time>
      </trkpt>
      <trkpt lat="43.33695" lon="-6.48543">
        <ele>643.4</ele>
        <time>2016-07-08T13:35:53Z</time>
      </trkpt>
      <trkpt lat="43.33705" lon="-6.48547">
        <ele>643</ele>
        <time>2016-07-08T13:36:01Z</time>
      </trkpt>
      <trkpt lat="43.33714" lon="-6.4855">
        <ele>642.6</ele>
        <time>2016-07-08T13:36:07Z</time>
      </trkpt>
      <trkpt lat="43.33723" lon="-6.48552">
        <ele>642.2</ele>
        <time>2016-07-08T13:36:15Z</time>
      </trkpt>
      <trkpt lat="43.33731" lon="-6.48557">
        <ele>641.9</ele>
        <time>2016-07-08T13:36:22Z</time>
      </trkpt>
      <trkpt lat="43.3374" lon="-6.48561">
        <ele>641.7</ele>
        <time>2016-07-08T13:36:31Z</time>
      </trkpt>
      <trkpt lat="43.33748" lon="-6.48569">
        <ele>641.5</ele>
        <time>2016-07-08T13:36:41Z</time>
      </trkpt>
      <trkpt lat="43.33756" lon="-6.48575">
        <ele>641.6</ele>
        <time>2016-07-08T13:36:48Z</time>
      </trkpt>
      <trkpt lat="43.33764" lon="-6.48581">
        <ele>641.7</ele>
        <time>2016-07-08T13:36:58Z</time>
      </trkpt>
      <trkpt lat="43.33771" lon="-6.48588">
        <ele>641.9</ele>
        <time>2016-07-08T13:37:15Z</time>
      </trkpt>
      <trkpt lat="43.33779" lon="-6.48595">
        <ele>641.6</ele>
        <time>2016-07-08T13:37:30Z</time>
      </trkpt>
      <trkpt lat="43.33787" lon="-6.48603">
        <ele>641.2</ele>
        <time>2016-07-08T13:37:41Z</time>
      </trkpt>
      <trkpt lat="43.33796" lon="-6.48605">
        <ele>641.1</ele>
        <time>2016-07-08T13:37:55Z</time>
      </trkpt>
      <trkpt lat="43.33805" lon="-6.48608">
        <ele>640.8</ele>
        <time>2016-07-08T13:38:04Z</time>
      </trkpt>
      <trkpt lat="43.33814" lon="-6.48613">
        <ele>640.8</ele>
        <time>2016-07-08T13:38:11Z</time>
      </trkpt>
      <trkpt lat="43.33822" lon="-6.4862">
        <ele>641</ele>
        <time>2016-07-08T13:38:18Z</time>
      </trkpt>
      <trkpt lat="43.33829" lon="-6.48628">
        <ele>641.2</ele>
        <time>2016-07-08T13:38:26Z</time>
      </trkpt>
      <trkpt lat="43.33837" lon="-6.48636">
        <ele>641.2</ele>
        <time>2016-07-08T13:38:36Z</time>
      </trkpt>
      <trkpt lat="43.33843" lon="-6.48646">
        <ele>641.1</ele>
        <time>2016-07-08T13:38:44Z</time>
      </trkpt>
      <trkpt lat="43.33849" lon="-6.48656">
        <ele>641</ele>
        <time>2016-07-08T13:38:53Z</time>
      </trkpt>
      <trkpt lat="43.33854" lon="-6.48666">
        <ele>640.8</ele>
        <time>2016-07-08T13:39:01Z</time>
      </trkpt>
      <trkpt lat="43.3386" lon="-6.48677">
        <ele>640.7</ele>
        <time>2016-07-08T13:39:09Z</time>
      </trkpt>
      <trkpt lat="43.33865" lon="-6.48687">
        <ele>640.2</ele>
        <time>2016-07-08T13:39:18Z</time>
      </trkpt>
      <trkpt lat="43.33871" lon="-6.48697">
        <ele>639.9</ele>
        <time>2016-07-08T13:39:28Z</time>
      </trkpt>
      <trkpt lat="43.33878" lon="-6.48707">
        <ele>639.6</ele>
        <time>2016-07-08T13:39:36Z</time>
      </trkpt>
      <trkpt lat="43.33886" lon="-6.48715">
        <ele>639.7</ele>
        <time>2016-07-08T13:39:44Z</time>
      </trkpt>
      <trkpt lat="43.33892" lon="-6.48725">
        <ele>639.6</ele>
        <time>2016-07-08T13:39:52Z</time>
      </trkpt>
      <trkpt lat="43.33898" lon="-6.48735">
        <ele>639.5</ele>
        <time>2016-07-08T13:40:01Z</time>
      </trkpt>
      <trkpt lat="43.33902" lon="-6.48747">
        <ele>639.4</ele>
        <time>2016-07-08T13:40:11Z</time>
      </trkpt>
      <trkpt lat="43.33909" lon="-6.48758">
        <ele>639</ele>
        <time>2016-07-08T13:40:20Z</time>
      </trkpt>
      <trkpt lat="43.33912" lon="-6.48771">
        <ele>638.8</ele>
        <time>2016-07-08T13:40:30Z</time>
      </trkpt>
      <trkpt lat="43.33915" lon="-6.48784">
        <ele>638.2</ele>
        <time>2016-07-08T13:40:38Z</time>
      </trkpt>
      <trkpt lat="43.33918" lon="-6.48797">
        <ele>637.2</ele>
        <time>2016-07-08T13:40:47Z</time>
      </trkpt>
      <trkpt lat="43.33924" lon="-6.48808">
        <ele>636.6</ele>
        <time>2016-07-08T13:40:56Z</time>
      </trkpt>
      <trkpt lat="43.33931" lon="-6.48816">
        <ele>635.9</ele>
        <time>2016-07-08T13:41:05Z</time>
      </trkpt>
      <trkpt lat="43.33939" lon="-6.48821">
        <ele>635.4</ele>
        <time>2016-07-08T13:41:15Z</time>
      </trkpt>
      <trkpt lat="43.33949" lon="-6.48825">
        <ele>635.8</ele>
        <time>2016-07-08T13:41:26Z</time>
      </trkpt>
      <trkpt lat="43.33957" lon="-6.4883">
        <ele>636.5</ele>
        <time>2016-07-08T13:41:37Z</time>
      </trkpt>
      <trkpt lat="43.33965" lon="-6.48838">
        <ele>637.8</ele>
        <time>2016-07-08T13:41:46Z</time>
      </trkpt>
      <trkpt lat="43.33971" lon="-6.48849">
        <ele>638.7</ele>
        <time>2016-07-08T13:41:55Z</time>
      </trkpt>
      <trkpt lat="43.33976" lon="-6.48859">
        <ele>639.5</ele>
        <time>2016-07-08T13:42:08Z</time>
      </trkpt>
      <trkpt lat="43.3398" lon="-6.4887">
        <ele>640</ele>
        <time>2016-07-08T13:42:17Z</time>
      </trkpt>
      <trkpt lat="43.33983" lon="-6.48883">
        <ele>640.4</ele>
        <time>2016-07-08T13:42:28Z</time>
      </trkpt>
      <trkpt lat="43.33986" lon="-6.48895">
        <ele>640.6</ele>
        <time>2016-07-08T13:42:38Z</time>
      </trkpt>
      <trkpt lat="43.33989" lon="-6.48907">
        <ele>640.9</ele>
        <time>2016-07-08T13:42:49Z</time>
      </trkpt>
      <trkpt lat="43.33992" lon="-6.4892">
        <ele>640.9</ele>
        <time>2016-07-08T13:42:59Z</time>
      </trkpt>
      <trkpt lat="43.33994" lon="-6.48933">
        <ele>641.3</ele>
        <time>2016-07-08T13:43:10Z</time>
      </trkpt>
      <trkpt lat="43.33999" lon="-6.48944">
        <ele>641.8</ele>
        <time>2016-07-08T13:43:19Z</time>
      </trkpt>
      <trkpt lat="43.34004" lon="-6.48955">
        <ele>642</ele>
        <time>2016-07-08T13:43:27Z</time>
      </trkpt>
      <trkpt lat="43.34008" lon="-6.48966">
        <ele>642.4</ele>
        <time>2016-07-08T13:43:36Z</time>
      </trkpt>
      <trkpt lat="43.34015" lon="-6.48974">
        <ele>642.7</ele>
        <time>2016-07-08T13:43:44Z</time>
      </trkpt>
      <trkpt lat="43.34022" lon="-6.48984">
        <ele>643</ele>
        <time>2016-07-08T13:43:54Z</time>
      </trkpt>
      <trkpt lat="43.34026" lon="-6.48995">
        <ele>643.6</ele>
        <time>2016-07-08T13:44:04Z</time>
      </trkpt>
      <trkpt lat="43.34029" lon="-6.49007">
        <ele>643.9</ele>
        <time>2016-07-08T13:44:13Z</time>
      </trkpt>
      <trkpt lat="43.34035" lon="-6.49017">
        <ele>643.7</ele>
        <time>2016-07-08T13:44:21Z</time>
      </trkpt>
      <trkpt lat="43.3404" lon="-6.49028">
        <ele>643.6</ele>
        <time>2016-07-08T13:44:30Z</time>
      </trkpt>
      <trkpt lat="43.34046" lon="-6.49038">
        <ele>643.4</ele>
        <time>2016-07-08T13:44:42Z</time>
      </trkpt>
      <trkpt lat="43.34052" lon="-6.49048">
        <ele>643.5</ele>
        <time>2016-07-08T13:44:55Z</time>
      </trkpt>
      <trkpt lat="43.34061" lon="-6.49054">
        <ele>643.7</ele>
        <time>2016-07-08T13:45:05Z</time>
      </trkpt>
      <trkpt lat="43.3407" lon="-6.49057">
        <ele>643.8</ele>
        <time>2016-07-08T13:45:15Z</time>
      </trkpt>
      <trkpt lat="43.34078" lon="-6.49063">
        <ele>644.1</ele>
        <time>2016-07-08T13:45:25Z</time>
      </trkpt>
      <trkpt lat="43.34087" lon="-6.49071">
        <ele>644.2</ele>
        <time>2016-07-08T13:45:34Z</time>
      </trkpt>
      <trkpt lat="43.34094" lon="-6.49077">
        <ele>644</ele>
        <time>2016-07-08T13:45:42Z</time>
      </trkpt>
      <trkpt lat="43.34103" lon="-6.49081">
        <ele>643.7</ele>
        <time>2016-07-08T13:45:51Z</time>
      </trkpt>
      <trkpt lat="43.34112" lon="-6.49083">
        <ele>643.5</ele>
        <time>2016-07-08T13:46:00Z</time>
      </trkpt>
      <trkpt lat="43.34121" lon="-6.49088">
        <ele>643.5</ele>
        <time>2016-07-08T13:46:10Z</time>
      </trkpt>
      <trkpt lat="43.3413" lon="-6.49093">
        <ele>643.5</ele>
        <time>2016-07-08T13:46:20Z</time>
      </trkpt>
      <trkpt lat="43.34138" lon="-6.49099">
        <ele>643.7</ele>
        <time>2016-07-08T13:46:27Z</time>
      </trkpt>
      <trkpt lat="43.34147" lon="-6.49104">
        <ele>643.8</ele>
        <time>2016-07-08T13:46:34Z</time>
      </trkpt>
      <trkpt lat="43.34155" lon="-6.4911">
        <ele>644</ele>
        <time>2016-07-08T13:46:41Z</time>
      </trkpt>
      <trkpt lat="43.34163" lon="-6.49116">
        <ele>644.2</ele>
        <time>2016-07-08T13:46:49Z</time>
      </trkpt>
      <trkpt lat="43.34171" lon="-6.49121">
        <ele>644.3</ele>
        <time>2016-07-08T13:46:58Z</time>
      </trkpt>
      <trkpt lat="43.3418" lon="-6.49123">
        <ele>644.3</ele>
        <time>2016-07-08T13:47:07Z</time>
      </trkpt>
      <trkpt lat="43.3419" lon="-6.49124">
        <ele>642.9</ele>
        <time>2016-07-08T13:47:16Z</time>
      </trkpt>
      <trkpt lat="43.34199" lon="-6.49125">
        <ele>644.9</ele>
        <time>2016-07-08T13:47:23Z</time>
      </trkpt>
      <trkpt lat="43.34209" lon="-6.49129">
        <ele>643</ele>
        <time>2016-07-08T13:47:31Z</time>
      </trkpt>
      <trkpt lat="43.34218" lon="-6.49131">
        <ele>646.9</ele>
        <time>2016-07-08T13:47:40Z</time>
      </trkpt>
      <trkpt lat="43.34226" lon="-6.49137">
        <ele>646.4</ele>
        <time>2016-07-08T13:47:47Z</time>
      </trkpt>
      <trkpt lat="43.34234" lon="-6.49143">
        <ele>645.9</ele>
        <time>2016-07-08T13:47:56Z</time>
      </trkpt>
      <trkpt lat="43.34242" lon="-6.49152">
        <ele>644.2</ele>
        <time>2016-07-08T13:48:08Z</time>
      </trkpt>
      <trkpt lat="43.34249" lon="-6.4916">
        <ele>643.1</ele>
        <time>2016-07-08T13:48:18Z</time>
      </trkpt>
      <trkpt lat="43.34253" lon="-6.49171">
        <ele>642.1</ele>
        <time>2016-07-08T13:48:27Z</time>
      </trkpt>
      <trkpt lat="43.34257" lon="-6.49184">
        <ele>641.3</ele>
        <time>2016-07-08T13:48:35Z</time>
      </trkpt>
      <trkpt lat="43.34262" lon="-6.49196">
        <ele>640.6</ele>
        <time>2016-07-08T13:48:44Z</time>
      </trkpt>
      <trkpt lat="43.34266" lon="-6.49208">
        <ele>640</ele>
        <time>2016-07-08T13:48:52Z</time>
      </trkpt>
      <trkpt lat="43.3427" lon="-6.4922">
        <ele>639.5</ele>
        <time>2016-07-08T13:49:00Z</time>
      </trkpt>
      <trkpt lat="43.34275" lon="-6.49232">
        <ele>638.1</ele>
        <time>2016-07-08T13:49:07Z</time>
      </trkpt>
      <trkpt lat="43.34282" lon="-6.49242">
        <ele>637.8</ele>
        <time>2016-07-08T13:49:15Z</time>
      </trkpt>
      <trkpt lat="43.34284" lon="-6.49255">
        <ele>637.4</ele>
        <time>2016-07-08T13:49:26Z</time>
      </trkpt>
      <trkpt lat="43.34284" lon="-6.49267">
        <ele>636.9</ele>
        <time>2016-07-08T13:49:35Z</time>
      </trkpt>
      <trkpt lat="43.34286" lon="-6.4928">
        <ele>636.9</ele>
        <time>2016-07-08T13:49:42Z</time>
      </trkpt>
      <trkpt lat="43.34289" lon="-6.49292">
        <ele>636.9</ele>
        <time>2016-07-08T13:49:50Z</time>
      </trkpt>
      <trkpt lat="43.34289" lon="-6.49306">
        <ele>637.1</ele>
        <time>2016-07-08T13:49:59Z</time>
      </trkpt>
      <trkpt lat="43.34286" lon="-6.49318">
        <ele>637.4</ele>
        <time>2016-07-08T13:50:06Z</time>
      </trkpt>
      <trkpt lat="43.3428" lon="-6.49329">
        <ele>637.6</ele>
        <time>2016-07-08T13:50:15Z</time>
      </trkpt>
      <trkpt lat="43.34273" lon="-6.49336">
        <ele>637.8</ele>
        <time>2016-07-08T13:50:22Z</time>
      </trkpt>
      <trkpt lat="43.34265" lon="-6.49345">
        <ele>638.2</ele>
        <time>2016-07-08T13:50:31Z</time>
      </trkpt>
      <trkpt lat="43.3426" lon="-6.49357">
        <ele>638.6</ele>
        <time>2016-07-08T13:50:40Z</time>
      </trkpt>
      <trkpt lat="43.34254" lon="-6.49367">
        <ele>638.8</ele>
        <time>2016-07-08T13:50:50Z</time>
      </trkpt>
      <trkpt lat="43.34249" lon="-6.49377">
        <ele>638.7</ele>
        <time>2016-07-08T13:50:58Z</time>
      </trkpt>
      <trkpt lat="43.34245" lon="-6.49388">
        <ele>638.6</ele>
        <time>2016-07-08T13:51:07Z</time>
      </trkpt>
      <trkpt lat="43.3424" lon="-6.49399">
        <ele>639</ele>
        <time>2016-07-08T13:51:18Z</time>
      </trkpt>
      <trkpt lat="43.34232" lon="-6.49407">
        <ele>639.3</ele>
        <time>2016-07-08T13:51:26Z</time>
      </trkpt>
      <trkpt lat="43.34226" lon="-6.49418">
        <ele>639.4</ele>
        <time>2016-07-08T13:51:35Z</time>
      </trkpt>
      <trkpt lat="43.34224" lon="-6.4943">
        <ele>639.4</ele>
        <time>2016-07-08T13:51:44Z</time>
      </trkpt>
      <trkpt lat="43.34217" lon="-6.49441">
        <ele>639</ele>
        <time>2016-07-08T13:51:52Z</time>
      </trkpt>
      <trkpt lat="43.3421" lon="-6.4945">
        <ele>638.9</ele>
        <time>2016-07-08T13:51:59Z</time>
      </trkpt>
      <trkpt lat="43.34204" lon="-6.49459">
        <ele>638.8</ele>
        <time>2016-07-08T13:52:06Z</time>
      </trkpt>
      <trkpt lat="43.34196" lon="-6.49467">
        <ele>638.5</ele>
        <time>2016-07-08T13:52:14Z</time>
      </trkpt>
      <trkpt lat="43.34191" lon="-6.49479">
        <ele>638.8</ele>
        <time>2016-07-08T13:52:21Z</time>
      </trkpt>
      <trkpt lat="43.34188" lon="-6.49492">
        <ele>639</ele>
        <time>2016-07-08T13:52:30Z</time>
      </trkpt>
      <trkpt lat="43.34188" lon="-6.49505">
        <ele>638.5</ele>
        <time>2016-07-08T13:52:39Z</time>
      </trkpt>
      <trkpt lat="43.34189" lon="-6.49517">
        <ele>638.2</ele>
        <time>2016-07-08T13:52:48Z</time>
      </trkpt>
      <trkpt lat="43.3419" lon="-6.4953">
        <ele>638</ele>
        <time>2016-07-08T13:52:55Z</time>
      </trkpt>
      <trkpt lat="43.34189" lon="-6.49543">
        <ele>637.9</ele>
        <time>2016-07-08T13:53:02Z</time>
      </trkpt>
      <trkpt lat="43.34189" lon="-6.49557">
        <ele>637.9</ele>
        <time>2016-07-08T13:53:09Z</time>
      </trkpt>
      <trkpt lat="43.34188" lon="-6.49571">
        <ele>637.8</ele>
        <time>2016-07-08T13:53:16Z</time>
      </trkpt>
      <trkpt lat="43.34188" lon="-6.49583">
        <ele>637.9</ele>
        <time>2016-07-08T13:53:23Z</time>
      </trkpt>
      <trkpt lat="43.34189" lon="-6.49597">
        <ele>637.8</ele>
        <time>2016-07-08T13:53:31Z</time>
      </trkpt>
      <trkpt lat="43.34189" lon="-6.4961">
        <ele>637.2</ele>
        <time>2016-07-08T13:53:39Z</time>
      </trkpt>
      <trkpt lat="43.34191" lon="-6.49623">
        <ele>636.8</ele>
        <time>2016-07-08T13:53:47Z</time>
      </trkpt>
      <trkpt lat="43.3419" lon="-6.49636">
        <ele>636.3</ele>
        <time>2016-07-08T13:53:56Z</time>
      </trkpt>
      <trkpt lat="43.34192" lon="-6.49649">
        <ele>635.9</ele>
        <time>2016-07-08T13:54:06Z</time>
      </trkpt>
      <trkpt lat="43.34192" lon="-6.49663">
        <ele>635.2</ele>
        <time>2016-07-08T13:54:15Z</time>
      </trkpt>
      <trkpt lat="43.34195" lon="-6.49676">
        <ele>634.2</ele>
        <time>2016-07-08T13:54:26Z</time>
      </trkpt>
      <trkpt lat="43.34195" lon="-6.4969">
        <ele>633.4</ele>
        <time>2016-07-08T13:54:35Z</time>
      </trkpt>
      <trkpt lat="43.34192" lon="-6.49703">
        <ele>632.9</ele>
        <time>2016-07-08T13:54:43Z</time>
      </trkpt>
      <trkpt lat="43.34188" lon="-6.49715">
        <ele>632.2</ele>
        <time>2016-07-08T13:54:51Z</time>
      </trkpt>
      <trkpt lat="43.34183" lon="-6.49728">
        <ele>631.6</ele>
        <time>2016-07-08T13:54:59Z</time>
      </trkpt>
      <trkpt lat="43.34178" lon="-6.49738">
        <ele>631.3</ele>
        <time>2016-07-08T13:55:08Z</time>
      </trkpt>
      <trkpt lat="43.3417" lon="-6.49746">
        <ele>630.8</ele>
        <time>2016-07-08T13:55:23Z</time>
      </trkpt>
      <trkpt lat="43.34161" lon="-6.4975">
        <ele>630.7</ele>
        <time>2016-07-08T13:55:35Z</time>
      </trkpt>
      <trkpt lat="43.34151" lon="-6.49756">
        <ele>630.7</ele>
        <time>2016-07-08T13:55:45Z</time>
      </trkpt>
      <trkpt lat="43.34142" lon="-6.4976">
        <ele>630.7</ele>
        <time>2016-07-08T13:55:54Z</time>
      </trkpt>
      <trkpt lat="43.34132" lon="-6.4976">
        <ele>631</ele>
        <time>2016-07-08T13:56:02Z</time>
      </trkpt>
      <trkpt lat="43.34123" lon="-6.49758">
        <ele>631.1</ele>
        <time>2016-07-08T13:56:11Z</time>
      </trkpt>
      <trkpt lat="43.34114" lon="-6.49756">
        <ele>631.2</ele>
        <time>2016-07-08T13:56:19Z</time>
      </trkpt>
      <trkpt lat="43.34104" lon="-6.49753">
        <ele>631.8</ele>
        <time>2016-07-08T13:56:27Z</time>
      </trkpt>
      <trkpt lat="43.34095" lon="-6.49752">
        <ele>632.5</ele>
        <time>2016-07-08T13:56:35Z</time>
      </trkpt>
      <trkpt lat="43.34086" lon="-6.4975">
        <ele>633.1</ele>
        <time>2016-07-08T13:56:43Z</time>
      </trkpt>
      <trkpt lat="43.34076" lon="-6.49748">
        <ele>633.4</ele>
        <time>2016-07-08T13:56:52Z</time>
      </trkpt>
      <trkpt lat="43.34067" lon="-6.49745">
        <ele>633.8</ele>
        <time>2016-07-08T13:57:03Z</time>
      </trkpt>
      <trkpt lat="43.34057" lon="-6.49745">
        <ele>634.1</ele>
        <time>2016-07-08T13:57:12Z</time>
      </trkpt>
      <trkpt lat="43.34047" lon="-6.49743">
        <ele>634.8</ele>
        <time>2016-07-08T13:57:20Z</time>
      </trkpt>
      <trkpt lat="43.34037" lon="-6.49743">
        <ele>635.5</ele>
        <time>2016-07-08T13:57:28Z</time>
      </trkpt>
      <trkpt lat="43.34027" lon="-6.49744">
        <ele>636.4</ele>
        <time>2016-07-08T13:57:37Z</time>
      </trkpt>
      <trkpt lat="43.34018" lon="-6.49745">
        <ele>637.2</ele>
        <time>2016-07-08T13:57:45Z</time>
      </trkpt>
      <trkpt lat="43.34009" lon="-6.49745">
        <ele>638</ele>
        <time>2016-07-08T13:57:53Z</time>
      </trkpt>
      <trkpt lat="43.33999" lon="-6.49748">
        <ele>639.1</ele>
        <time>2016-07-08T13:58:03Z</time>
      </trkpt>
      <trkpt lat="43.33992" lon="-6.49755">
        <ele>642.1</ele>
        <time>2016-07-08T13:59:06Z</time>
      </trkpt>
      <trkpt lat="43.33986" lon="-6.49765">
        <ele>641.9</ele>
        <time>2016-07-08T13:59:15Z</time>
      </trkpt>
      <trkpt lat="43.33982" lon="-6.49776">
        <ele>641.5</ele>
        <time>2016-07-08T13:59:24Z</time>
      </trkpt>
      <trkpt lat="43.33976" lon="-6.49786">
        <ele>641</ele>
        <time>2016-07-08T13:59:33Z</time>
      </trkpt>
      <trkpt lat="43.33969" lon="-6.49794">
        <ele>640.3</ele>
        <time>2016-07-08T13:59:42Z</time>
      </trkpt>
      <trkpt lat="43.33963" lon="-6.49803">
        <ele>639.7</ele>
        <time>2016-07-08T13:59:50Z</time>
      </trkpt>
      <trkpt lat="43.33954" lon="-6.49809">
        <ele>639.1</ele>
        <time>2016-07-08T14:00:01Z</time>
      </trkpt>
      <trkpt lat="43.33944" lon="-6.49809">
        <ele>638.5</ele>
        <time>2016-07-08T14:00:09Z</time>
      </trkpt>
      <trkpt lat="43.33936" lon="-6.49816">
        <ele>637.8</ele>
        <time>2016-07-08T14:00:17Z</time>
      </trkpt>
      <trkpt lat="43.33928" lon="-6.49823">
        <ele>636.9</ele>
        <time>2016-07-08T14:00:26Z</time>
      </trkpt>
      <trkpt lat="43.3392" lon="-6.49829">
        <ele>636.3</ele>
        <time>2016-07-08T14:00:34Z</time>
      </trkpt>
      <trkpt lat="43.33911" lon="-6.49836">
        <ele>635.2</ele>
        <time>2016-07-08T14:00:43Z</time>
      </trkpt>
      <trkpt lat="43.33902" lon="-6.49843">
        <ele>634.4</ele>
        <time>2016-07-08T14:00:51Z</time>
      </trkpt>
      <trkpt lat="43.33894" lon="-6.4985">
        <ele>633.3</ele>
        <time>2016-07-08T14:01:00Z</time>
      </trkpt>
      <trkpt lat="43.33886" lon="-6.49856">
        <ele>632.8</ele>
        <time>2016-07-08T14:01:08Z</time>
      </trkpt>
      <trkpt lat="43.33878" lon="-6.49863">
        <ele>632.2</ele>
        <time>2016-07-08T14:01:16Z</time>
      </trkpt>
      <trkpt lat="43.3387" lon="-6.49868">
        <ele>631.8</ele>
        <time>2016-07-08T14:01:24Z</time>
      </trkpt>
      <trkpt lat="43.33862" lon="-6.49875">
        <ele>631.3</ele>
        <time>2016-07-08T14:01:32Z</time>
      </trkpt>
      <trkpt lat="43.33853" lon="-6.4988">
        <ele>630.3</ele>
        <time>2016-07-08T14:01:39Z</time>
      </trkpt>
      <trkpt lat="43.33845" lon="-6.49886">
        <ele>629.5</ele>
        <time>2016-07-08T14:01:47Z</time>
      </trkpt>
      <trkpt lat="43.33836" lon="-6.49892">
        <ele>628.9</ele>
        <time>2016-07-08T14:01:54Z</time>
      </trkpt>
      <trkpt lat="43.33828" lon="-6.49898">
        <ele>628.1</ele>
        <time>2016-07-08T14:02:03Z</time>
      </trkpt>
      <trkpt lat="43.3382" lon="-6.49907">
        <ele>627.5</ele>
        <time>2016-07-08T14:02:12Z</time>
      </trkpt>
      <trkpt lat="43.33813" lon="-6.49916">
        <ele>627.2</ele>
        <time>2016-07-08T14:02:21Z</time>
      </trkpt>
      <trkpt lat="43.33807" lon="-6.49927">
        <ele>627</ele>
        <time>2016-07-08T14:02:29Z</time>
      </trkpt>
      <trkpt lat="43.33801" lon="-6.49936">
        <ele>626.9</ele>
        <time>2016-07-08T14:02:36Z</time>
      </trkpt>
      <trkpt lat="43.33795" lon="-6.49946">
        <ele>626.5</ele>
        <time>2016-07-08T14:02:43Z</time>
      </trkpt>
      <trkpt lat="43.33789" lon="-6.49957">
        <ele>626</ele>
        <time>2016-07-08T14:02:51Z</time>
      </trkpt>
      <trkpt lat="43.33783" lon="-6.49966">
        <ele>625.5</ele>
        <time>2016-07-08T14:02:59Z</time>
      </trkpt>
      <trkpt lat="43.33776" lon="-6.49976">
        <ele>625</ele>
        <time>2016-07-08T14:03:07Z</time>
      </trkpt>
      <trkpt lat="43.33769" lon="-6.49986">
        <ele>624.6</ele>
        <time>2016-07-08T14:03:15Z</time>
      </trkpt>
      <trkpt lat="43.33763" lon="-6.49996">
        <ele>624.2</ele>
        <time>2016-07-08T14:03:23Z</time>
      </trkpt>
      <trkpt lat="43.33756" lon="-6.50006">
        <ele>624</ele>
        <time>2016-07-08T14:03:31Z</time>
      </trkpt>
      <trkpt lat="43.3375" lon="-6.50015">
        <ele>623.9</ele>
        <time>2016-07-08T14:03:39Z</time>
      </trkpt>
      <trkpt lat="43.33743" lon="-6.50023">
        <ele>623.1</ele>
        <time>2016-07-08T14:03:48Z</time>
      </trkpt>
      <trkpt lat="43.33738" lon="-6.50035">
        <ele>622.3</ele>
        <time>2016-07-08T14:03:58Z</time>
      </trkpt>
      <trkpt lat="43.33734" lon="-6.50046">
        <ele>621.7</ele>
        <time>2016-07-08T14:04:06Z</time>
      </trkpt>
      <trkpt lat="43.33729" lon="-6.50057">
        <ele>621.3</ele>
        <time>2016-07-08T14:04:15Z</time>
      </trkpt>
      <trkpt lat="43.33723" lon="-6.50069">
        <ele>620.9</ele>
        <time>2016-07-08T14:04:24Z</time>
      </trkpt>
      <trkpt lat="43.33719" lon="-6.50082">
        <ele>620.6</ele>
        <time>2016-07-08T14:04:33Z</time>
      </trkpt>
      <trkpt lat="43.33713" lon="-6.50093">
        <ele>620.4</ele>
        <time>2016-07-08T14:04:41Z</time>
      </trkpt>
      <trkpt lat="43.33707" lon="-6.50104">
        <ele>620</ele>
        <time>2016-07-08T14:04:49Z</time>
      </trkpt>
      <trkpt lat="43.33701" lon="-6.50115">
        <ele>619.1</ele>
        <time>2016-07-08T14:04:56Z</time>
      </trkpt>
      <trkpt lat="43.33695" lon="-6.50125">
        <ele>618.5</ele>
        <time>2016-07-08T14:05:03Z</time>
      </trkpt>
      <trkpt lat="43.33688" lon="-6.50134">
        <ele>618.1</ele>
        <time>2016-07-08T14:05:12Z</time>
      </trkpt>
      <trkpt lat="43.33682" lon="-6.50145">
        <ele>617.9</ele>
        <time>2016-07-08T14:05:21Z</time>
      </trkpt>
      <trkpt lat="43.33677" lon="-6.50156">
        <ele>617.6</ele>
        <time>2016-07-08T14:05:29Z</time>
      </trkpt>
      <trkpt lat="43.33672" lon="-6.50167">
        <ele>617.1</ele>
        <time>2016-07-08T14:05:37Z</time>
      </trkpt>
      <trkpt lat="43.33667" lon="-6.50178">
        <ele>616.6</ele>
        <time>2016-07-08T14:05:45Z</time>
      </trkpt>
      <trkpt lat="43.33664" lon="-6.5019">
        <ele>616.3</ele>
        <time>2016-07-08T14:05:53Z</time>
      </trkpt>
      <trkpt lat="43.33661" lon="-6.50202">
        <ele>615.9</ele>
        <time>2016-07-08T14:06:01Z</time>
      </trkpt>
      <trkpt lat="43.33661" lon="-6.50216">
        <ele>615.2</ele>
        <time>2016-07-08T14:06:11Z</time>
      </trkpt>
      <trkpt lat="43.33663" lon="-6.5023">
        <ele>614.6</ele>
        <time>2016-07-08T14:06:20Z</time>
      </trkpt>
      <trkpt lat="43.33664" lon="-6.50243">
        <ele>613.8</ele>
        <time>2016-07-08T14:06:29Z</time>
      </trkpt>
      <trkpt lat="43.33665" lon="-6.50256">
        <ele>612.8</ele>
        <time>2016-07-08T14:06:38Z</time>
      </trkpt>
      <trkpt lat="43.33666" lon="-6.5027">
        <ele>612.3</ele>
        <time>2016-07-08T14:06:46Z</time>
      </trkpt>
      <trkpt lat="43.33666" lon="-6.50282">
        <ele>609.6</ele>
        <time>2016-07-08T14:06:53Z</time>
      </trkpt>
      <trkpt lat="43.33665" lon="-6.50295">
        <ele>607.4</ele>
        <time>2016-07-08T14:07:01Z</time>
      </trkpt>
      <trkpt lat="43.33663" lon="-6.50307">
        <ele>609.8</ele>
        <time>2016-07-08T14:07:07Z</time>
      </trkpt>
      <trkpt lat="43.3366" lon="-6.50319">
        <ele>609.9</ele>
        <time>2016-07-08T14:07:15Z</time>
      </trkpt>
      <trkpt lat="43.33657" lon="-6.50332">
        <ele>607.8</ele>
        <time>2016-07-08T14:07:23Z</time>
      </trkpt>
      <trkpt lat="43.33655" lon="-6.50344">
        <ele>610.7</ele>
        <time>2016-07-08T14:07:31Z</time>
      </trkpt>
      <trkpt lat="43.33652" lon="-6.50357">
        <ele>609.1</ele>
        <time>2016-07-08T14:07:39Z</time>
      </trkpt>
      <trkpt lat="43.33653" lon="-6.50369">
        <ele>608.1</ele>
        <time>2016-07-08T14:07:49Z</time>
      </trkpt>
      <trkpt lat="43.33659" lon="-6.50379">
        <ele>606.1</ele>
        <time>2016-07-08T14:08:07Z</time>
      </trkpt>
      <trkpt lat="43.33663" lon="-6.50391">
        <ele>604.6</ele>
        <time>2016-07-08T14:08:22Z</time>
      </trkpt>
      <trkpt lat="43.3367" lon="-6.50401">
        <ele>604.1</ele>
        <time>2016-07-08T14:08:29Z</time>
      </trkpt>
      <trkpt lat="43.33677" lon="-6.5041">
        <ele>603.5</ele>
        <time>2016-07-08T14:08:36Z</time>
      </trkpt>
      <trkpt lat="43.33683" lon="-6.50421">
        <ele>602.7</ele>
        <time>2016-07-08T14:08:44Z</time>
      </trkpt>
      <trkpt lat="43.33689" lon="-6.50431">
        <ele>601.9</ele>
        <time>2016-07-08T14:08:52Z</time>
      </trkpt>
      <trkpt lat="43.33695" lon="-6.50442">
        <ele>601.2</ele>
        <time>2016-07-08T14:09:00Z</time>
      </trkpt>
      <trkpt lat="43.337" lon="-6.50453">
        <ele>600.4</ele>
        <time>2016-07-08T14:09:08Z</time>
      </trkpt>
      <trkpt lat="43.33703" lon="-6.50466">
        <ele>599.3</ele>
        <time>2016-07-08T14:09:19Z</time>
      </trkpt>
      <trkpt lat="43.33702" lon="-6.50479">
        <ele>598.1</ele>
        <time>2016-07-08T14:09:30Z</time>
      </trkpt>
      <trkpt lat="43.33703" lon="-6.50492">
        <ele>597.6</ele>
        <time>2016-07-08T14:09:37Z</time>
      </trkpt>
      <trkpt lat="43.33703" lon="-6.50505">
        <ele>597</ele>
        <time>2016-07-08T14:09:44Z</time>
      </trkpt>
      <trkpt lat="43.33702" lon="-6.50518">
        <ele>595.5</ele>
        <time>2016-07-08T14:09:53Z</time>
      </trkpt>
      <trkpt lat="43.337" lon="-6.50532">
        <ele>594.7</ele>
        <time>2016-07-08T14:10:01Z</time>
      </trkpt>
      <trkpt lat="43.33697" lon="-6.50544">
        <ele>594.3</ele>
        <time>2016-07-08T14:10:08Z</time>
      </trkpt>
      <trkpt lat="43.33696" lon="-6.50557">
        <ele>594.1</ele>
        <time>2016-07-08T14:10:16Z</time>
      </trkpt>
      <trkpt lat="43.33695" lon="-6.50571">
        <ele>593.8</ele>
        <time>2016-07-08T14:10:24Z</time>
      </trkpt>
      <trkpt lat="43.33694" lon="-6.50583">
        <ele>593.6</ele>
        <time>2016-07-08T14:10:31Z</time>
      </trkpt>
      <trkpt lat="43.33694" lon="-6.50597">
        <ele>593.5</ele>
        <time>2016-07-08T14:10:39Z</time>
      </trkpt>
      <trkpt lat="43.33693" lon="-6.5061">
        <ele>593.5</ele>
        <time>2016-07-08T14:10:47Z</time>
      </trkpt>
      <trkpt lat="43.33692" lon="-6.50623">
        <ele>593.4</ele>
        <time>2016-07-08T14:10:55Z</time>
      </trkpt>
      <trkpt lat="43.33692" lon="-6.50636">
        <ele>593.2</ele>
        <time>2016-07-08T14:11:03Z</time>
      </trkpt>
      <trkpt lat="43.33692" lon="-6.50649">
        <ele>592.8</ele>
        <time>2016-07-08T14:11:11Z</time>
      </trkpt>
      <trkpt lat="43.33693" lon="-6.50662">
        <ele>592.8</ele>
        <time>2016-07-08T14:11:19Z</time>
      </trkpt>
      <trkpt lat="43.33693" lon="-6.50675">
        <ele>592.8</ele>
        <time>2016-07-08T14:11:27Z</time>
      </trkpt>
      <trkpt lat="43.33695" lon="-6.50688">
        <ele>592.9</ele>
        <time>2016-07-08T14:11:35Z</time>
      </trkpt>
      <trkpt lat="43.33696" lon="-6.507">
        <ele>592.9</ele>
        <time>2016-07-08T14:11:43Z</time>
      </trkpt>
      <trkpt lat="43.33697" lon="-6.50714">
        <ele>592.9</ele>
        <time>2016-07-08T14:11:52Z</time>
      </trkpt>
      <trkpt lat="43.33697" lon="-6.50728">
        <ele>592.8</ele>
        <time>2016-07-08T14:12:01Z</time>
      </trkpt>
      <trkpt lat="43.33698" lon="-6.5074">
        <ele>593</ele>
        <time>2016-07-08T14:12:09Z</time>
      </trkpt>
      <trkpt lat="43.33699" lon="-6.50753">
        <ele>593</ele>
        <time>2016-07-08T14:12:17Z</time>
      </trkpt>
      <trkpt lat="43.33701" lon="-6.50765">
        <ele>592.8</ele>
        <time>2016-07-08T14:12:27Z</time>
      </trkpt>
      <trkpt lat="43.33702" lon="-6.50778">
        <ele>593.6</ele>
        <time>2016-07-08T14:14:54Z</time>
      </trkpt>
      <trkpt lat="43.33701" lon="-6.50792">
        <ele>593.8</ele>
        <time>2016-07-08T14:15:03Z</time>
      </trkpt>
      <trkpt lat="43.33701" lon="-6.50804">
        <ele>593.8</ele>
        <time>2016-07-08T14:15:11Z</time>
      </trkpt>
      <trkpt lat="43.33701" lon="-6.50818">
        <ele>593.7</ele>
        <time>2016-07-08T14:15:20Z</time>
      </trkpt>
      <trkpt lat="43.337" lon="-6.50831">
        <ele>593.9</ele>
        <time>2016-07-08T14:15:29Z</time>
      </trkpt>
      <trkpt lat="43.33698" lon="-6.50845">
        <ele>594.2</ele>
        <time>2016-07-08T14:15:38Z</time>
      </trkpt>
      <trkpt lat="43.33698" lon="-6.50858">
        <ele>594.8</ele>
        <time>2016-07-08T14:15:47Z</time>
      </trkpt>
      <trkpt lat="43.33698" lon="-6.5087">
        <ele>595.1</ele>
        <time>2016-07-08T14:15:56Z</time>
      </trkpt>
      <trkpt lat="43.33698" lon="-6.50884">
        <ele>595.6</ele>
        <time>2016-07-08T14:16:05Z</time>
      </trkpt>
      <trkpt lat="43.33701" lon="-6.50897">
        <ele>596.2</ele>
        <time>2016-07-08T14:16:15Z</time>
      </trkpt>
      <trkpt lat="43.33705" lon="-6.5091">
        <ele>596.7</ele>
        <time>2016-07-08T14:16:24Z</time>
      </trkpt>
      <trkpt lat="43.33709" lon="-6.50922">
        <ele>597.3</ele>
        <time>2016-07-08T14:16:33Z</time>
      </trkpt>
      <trkpt lat="43.33712" lon="-6.50935">
        <ele>598.1</ele>
        <time>2016-07-08T14:16:42Z</time>
      </trkpt>
      <trkpt lat="43.33716" lon="-6.50947">
        <ele>598.7</ele>
        <time>2016-07-08T14:16:51Z</time>
      </trkpt>
      <trkpt lat="43.33719" lon="-6.5096">
        <ele>599.4</ele>
        <time>2016-07-08T14:17:01Z</time>
      </trkpt>
      <trkpt lat="43.33724" lon="-6.50972">
        <ele>599.9</ele>
        <time>2016-07-08T14:17:10Z</time>
      </trkpt>
      <trkpt lat="43.33728" lon="-6.50984">
        <ele>600.7</ele>
        <time>2016-07-08T14:17:19Z</time>
      </trkpt>
      <trkpt lat="43.33728" lon="-6.50997">
        <ele>601.6</ele>
        <time>2016-07-08T14:17:27Z</time>
      </trkpt>
      <trkpt lat="43.33728" lon="-6.5101">
        <ele>602.2</ele>
        <time>2016-07-08T14:17:35Z</time>
      </trkpt>
      <trkpt lat="43.33727" lon="-6.51022">
        <ele>602.8</ele>
        <time>2016-07-08T14:17:43Z</time>
      </trkpt>
      <trkpt lat="43.33727" lon="-6.51036">
        <ele>603.2</ele>
        <time>2016-07-08T14:17:52Z</time>
      </trkpt>
      <trkpt lat="43.33727" lon="-6.5105">
        <ele>603.4</ele>
        <time>2016-07-08T14:18:01Z</time>
      </trkpt>
      <trkpt lat="43.33727" lon="-6.51063">
        <ele>603.9</ele>
        <time>2016-07-08T14:18:11Z</time>
      </trkpt>
      <trkpt lat="43.33726" lon="-6.51077">
        <ele>604.5</ele>
        <time>2016-07-08T14:18:21Z</time>
      </trkpt>
      <trkpt lat="43.33724" lon="-6.51089">
        <ele>604.9</ele>
        <time>2016-07-08T14:18:29Z</time>
      </trkpt>
      <trkpt lat="43.3372" lon="-6.51101">
        <ele>605.1</ele>
        <time>2016-07-08T14:18:36Z</time>
      </trkpt>
      <trkpt lat="43.33715" lon="-6.51114">
        <ele>605.2</ele>
        <time>2016-07-08T14:18:43Z</time>
      </trkpt>
      <trkpt lat="43.33713" lon="-6.51127">
        <ele>605</ele>
        <time>2016-07-08T14:18:50Z</time>
      </trkpt>
      <trkpt lat="43.33712" lon="-6.5114">
        <ele>604.7</ele>
        <time>2016-07-08T14:18:58Z</time>
      </trkpt>
      <trkpt lat="43.33712" lon="-6.51153">
        <ele>604.3</ele>
        <time>2016-07-08T14:19:06Z</time>
      </trkpt>
      <trkpt lat="43.33712" lon="-6.51167">
        <ele>603.9</ele>
        <time>2016-07-08T14:19:14Z</time>
      </trkpt>
      <trkpt lat="43.33713" lon="-6.5118">
        <ele>603.3</ele>
        <time>2016-07-08T14:19:22Z</time>
      </trkpt>
      <trkpt lat="43.33715" lon="-6.51193">
        <ele>602.8</ele>
        <time>2016-07-08T14:19:30Z</time>
      </trkpt>
      <trkpt lat="43.3372" lon="-6.51204">
        <ele>602.6</ele>
        <time>2016-07-08T14:19:37Z</time>
      </trkpt>
      <trkpt lat="43.33723" lon="-6.51217">
        <ele>602</ele>
        <time>2016-07-08T14:19:45Z</time>
      </trkpt>
      <trkpt lat="43.33726" lon="-6.5123">
        <ele>601.6</ele>
        <time>2016-07-08T14:19:53Z</time>
      </trkpt>
      <trkpt lat="43.3373" lon="-6.51242">
        <ele>601</ele>
        <time>2016-07-08T14:20:01Z</time>
      </trkpt>
      <trkpt lat="43.33733" lon="-6.51254">
        <ele>600.4</ele>
        <time>2016-07-08T14:20:09Z</time>
      </trkpt>
      <trkpt lat="43.33736" lon="-6.51267">
        <ele>599.8</ele>
        <time>2016-07-08T14:20:17Z</time>
      </trkpt>
      <trkpt lat="43.33739" lon="-6.51278">
        <ele>599.2</ele>
        <time>2016-07-08T14:20:24Z</time>
      </trkpt>
      <trkpt lat="43.33742" lon="-6.5129">
        <ele>598.4</ele>
        <time>2016-07-08T14:20:31Z</time>
      </trkpt>
      <trkpt lat="43.33746" lon="-6.51302">
        <ele>597.7</ele>
        <time>2016-07-08T14:20:39Z</time>
      </trkpt>
      <trkpt lat="43.3375" lon="-6.51315">
        <ele>594.4</ele>
        <time>2016-07-08T14:20:47Z</time>
      </trkpt>
      <trkpt lat="43.33753" lon="-6.51328">
        <ele>594.5</ele>
        <time>2016-07-08T14:20:55Z</time>
      </trkpt>
      <trkpt lat="43.33757" lon="-6.5134">
        <ele>598.6</ele>
        <time>2016-07-08T14:21:03Z</time>
      </trkpt>
      <trkpt lat="43.33761" lon="-6.51351">
        <ele>595.9</ele>
        <time>2016-07-08T14:21:11Z</time>
      </trkpt>
      <trkpt lat="43.33764" lon="-6.51363">
        <ele>594.7</ele>
        <time>2016-07-08T14:21:19Z</time>
      </trkpt>
      <trkpt lat="43.33768" lon="-6.51375">
        <ele>597.2</ele>
        <time>2016-07-08T14:21:27Z</time>
      </trkpt>
      <trkpt lat="43.33772" lon="-6.51388">
        <ele>594.7</ele>
        <time>2016-07-08T14:21:35Z</time>
      </trkpt>
      <trkpt lat="43.33777" lon="-6.51399">
        <ele>592.1</ele>
        <time>2016-07-08T14:21:44Z</time>
      </trkpt>
      <trkpt lat="43.33781" lon="-6.51411">
        <ele>592.5</ele>
        <time>2016-07-08T14:21:52Z</time>
      </trkpt>
      <trkpt lat="43.33784" lon="-6.51423">
        <ele>594.7</ele>
        <time>2016-07-08T14:22:00Z</time>
      </trkpt>
      <trkpt lat="43.33788" lon="-6.51435">
        <ele>595.9</ele>
        <time>2016-07-08T14:22:08Z</time>
      </trkpt>
      <trkpt lat="43.33791" lon="-6.51447">
        <ele>595.2</ele>
        <time>2016-07-08T14:22:16Z</time>
      </trkpt>
      <trkpt lat="43.33794" lon="-6.5146">
        <ele>595.2</ele>
        <time>2016-07-08T14:22:26Z</time>
      </trkpt>
      <trkpt lat="43.33797" lon="-6.51472">
        <ele>594.2</ele>
        <time>2016-07-08T14:22:51Z</time>
      </trkpt>
      <trkpt lat="43.33795" lon="-6.51485">
        <ele>593.9</ele>
        <time>2016-07-08T14:23:06Z</time>
      </trkpt>
      <trkpt lat="43.33799" lon="-6.51497">
        <ele>593.5</ele>
        <time>2016-07-08T14:23:15Z</time>
      </trkpt>
      <trkpt lat="43.33804" lon="-6.51508">
        <ele>593.3</ele>
        <time>2016-07-08T14:23:23Z</time>
      </trkpt>
      <trkpt lat="43.3381" lon="-6.51517">
        <ele>593.3</ele>
        <time>2016-07-08T14:23:32Z</time>
      </trkpt>
      <trkpt lat="43.33816" lon="-6.51527">
        <ele>593.3</ele>
        <time>2016-07-08T14:23:42Z</time>
      </trkpt>
      <trkpt lat="43.33822" lon="-6.51537">
        <ele>593.3</ele>
        <time>2016-07-08T14:23:50Z</time>
      </trkpt>
      <trkpt lat="43.33827" lon="-6.51547">
        <ele>593.3</ele>
        <time>2016-07-08T14:23:57Z</time>
      </trkpt>
      <trkpt lat="43.33832" lon="-6.51558">
        <ele>593.2</ele>
        <time>2016-07-08T14:24:05Z</time>
      </trkpt>
      <trkpt lat="43.33838" lon="-6.51568">
        <ele>593.2</ele>
        <time>2016-07-08T14:24:13Z</time>
      </trkpt>
      <trkpt lat="43.33842" lon="-6.51579">
        <ele>593.2</ele>
        <time>2016-07-08T14:24:21Z</time>
      </trkpt>
      <trkpt lat="43.33847" lon="-6.5159">
        <ele>593.2</ele>
        <time>2016-07-08T14:24:29Z</time>
      </trkpt>
      <trkpt lat="43.33853" lon="-6.51601">
        <ele>593.2</ele>
        <time>2016-07-08T14:24:37Z</time>
      </trkpt>
      <trkpt lat="43.33858" lon="-6.51612">
        <ele>593.1</ele>
        <time>2016-07-08T14:24:45Z</time>
      </trkpt>
      <trkpt lat="43.33863" lon="-6.51623">
        <ele>592.9</ele>
        <time>2016-07-08T14:24:53Z</time>
      </trkpt>
      <trkpt lat="43.33868" lon="-6.51635">
        <ele>592.6</ele>
        <time>2016-07-08T14:25:01Z</time>
      </trkpt>
      <trkpt lat="43.33873" lon="-6.51646">
        <ele>592.4</ele>
        <time>2016-07-08T14:25:09Z</time>
      </trkpt>
      <trkpt lat="43.33878" lon="-6.51658">
        <ele>592.6</ele>
        <time>2016-07-08T14:25:17Z</time>
      </trkpt>
      <trkpt lat="43.33883" lon="-6.51669">
        <ele>592.4</ele>
        <time>2016-07-08T14:25:25Z</time>
      </trkpt>
      <trkpt lat="43.33887" lon="-6.5168">
        <ele>592.1</ele>
        <time>2016-07-08T14:25:33Z</time>
      </trkpt>
      <trkpt lat="43.33892" lon="-6.51692">
        <ele>592</ele>
        <time>2016-07-08T14:25:41Z</time>
      </trkpt>
      <trkpt lat="43.33897" lon="-6.51703">
        <ele>592</ele>
        <time>2016-07-08T14:25:49Z</time>
      </trkpt>
      <trkpt lat="43.33902" lon="-6.51714">
        <ele>592</ele>
        <time>2016-07-08T14:25:57Z</time>
      </trkpt>
      <trkpt lat="43.33908" lon="-6.51725">
        <ele>592.3</ele>
        <time>2016-07-08T14:26:05Z</time>
      </trkpt>
      <trkpt lat="43.33913" lon="-6.51735">
        <ele>592.3</ele>
        <time>2016-07-08T14:26:14Z</time>
      </trkpt>
      <trkpt lat="43.33918" lon="-6.51746">
        <ele>592.3</ele>
        <time>2016-07-08T14:26:23Z</time>
      </trkpt>
      <trkpt lat="43.33925" lon="-6.51756">
        <ele>592.6</ele>
        <time>2016-07-08T14:26:32Z</time>
      </trkpt>
      <trkpt lat="43.33931" lon="-6.51766">
        <ele>592.9</ele>
        <time>2016-07-08T14:26:40Z</time>
      </trkpt>
      <trkpt lat="43.33937" lon="-6.51776">
        <ele>593.5</ele>
        <time>2016-07-08T14:26:50Z</time>
      </trkpt>
      <trkpt lat="43.33944" lon="-6.51784">
        <ele>593.9</ele>
        <time>2016-07-08T14:26:58Z</time>
      </trkpt>
      <trkpt lat="43.3395" lon="-6.51795">
        <ele>594.8</ele>
        <time>2016-07-08T14:27:31Z</time>
      </trkpt>
      <trkpt lat="43.33957" lon="-6.51804">
        <ele>595.1</ele>
        <time>2016-07-08T14:27:42Z</time>
      </trkpt>
      <trkpt lat="43.33964" lon="-6.51812">
        <ele>595.3</ele>
        <time>2016-07-08T14:27:50Z</time>
      </trkpt>
      <trkpt lat="43.33972" lon="-6.5182">
        <ele>595.6</ele>
        <time>2016-07-08T14:27:59Z</time>
      </trkpt>
      <trkpt lat="43.3398" lon="-6.51827">
        <ele>595.8</ele>
        <time>2016-07-08T14:28:07Z</time>
      </trkpt>
      <trkpt lat="43.33987" lon="-6.51835">
        <ele>596.3</ele>
        <time>2016-07-08T14:28:15Z</time>
      </trkpt>
      <trkpt lat="43.33993" lon="-6.51846">
        <ele>596.8</ele>
        <time>2016-07-08T14:28:23Z</time>
      </trkpt>
      <trkpt lat="43.33997" lon="-6.51858">
        <ele>597.1</ele>
        <time>2016-07-08T14:28:31Z</time>
      </trkpt>
      <trkpt lat="43.34002" lon="-6.51871">
        <ele>597.6</ele>
        <time>2016-07-08T14:28:39Z</time>
      </trkpt>
      <trkpt lat="43.34002" lon="-6.51883">
        <ele>598.3</ele>
        <time>2016-07-08T14:28:47Z</time>
      </trkpt>
      <trkpt lat="43.33998" lon="-6.51895">
        <ele>599</ele>
        <time>2016-07-08T14:28:54Z</time>
      </trkpt>
      <trkpt lat="43.33993" lon="-6.51905">
        <ele>599.8</ele>
        <time>2016-07-08T14:29:01Z</time>
      </trkpt>
      <trkpt lat="43.33987" lon="-6.51915">
        <ele>600.4</ele>
        <time>2016-07-08T14:29:08Z</time>
      </trkpt>
      <trkpt lat="43.3398" lon="-6.51924">
        <ele>600.8</ele>
        <time>2016-07-08T14:29:16Z</time>
      </trkpt>
      <trkpt lat="43.33973" lon="-6.51934">
        <ele>601.4</ele>
        <time>2016-07-08T14:29:30Z</time>
      </trkpt>
      <trkpt lat="43.33967" lon="-6.51943">
        <ele>601.9</ele>
        <time>2016-07-08T14:29:39Z</time>
      </trkpt>
      <trkpt lat="43.33961" lon="-6.51953">
        <ele>602.9</ele>
        <time>2016-07-08T14:29:48Z</time>
      </trkpt>
      <trkpt lat="43.33954" lon="-6.51963">
        <ele>603.7</ele>
        <time>2016-07-08T14:29:57Z</time>
      </trkpt>
      <trkpt lat="43.33948" lon="-6.51973">
        <ele>604.2</ele>
        <time>2016-07-08T14:30:06Z</time>
      </trkpt>
      <trkpt lat="43.3394" lon="-6.51983">
        <ele>605</ele>
        <time>2016-07-08T14:30:15Z</time>
      </trkpt>
      <trkpt lat="43.33934" lon="-6.51993">
        <ele>606</ele>
        <time>2016-07-08T14:30:24Z</time>
      </trkpt>
      <trkpt lat="43.33928" lon="-6.52003">
        <ele>607.1</ele>
        <time>2016-07-08T14:30:32Z</time>
      </trkpt>
      <trkpt lat="43.33921" lon="-6.52014">
        <ele>607.8</ele>
        <time>2016-07-08T14:30:41Z</time>
      </trkpt>
      <trkpt lat="43.33915" lon="-6.52024">
        <ele>608.4</ele>
        <time>2016-07-08T14:30:50Z</time>
      </trkpt>
      <trkpt lat="43.33909" lon="-6.52035">
        <ele>608.8</ele>
        <time>2016-07-08T14:30:58Z</time>
      </trkpt>
      <trkpt lat="43.33903" lon="-6.52044">
        <ele>609.5</ele>
        <time>2016-07-08T14:31:06Z</time>
      </trkpt>
      <trkpt lat="43.33897" lon="-6.52055">
        <ele>610.3</ele>
        <time>2016-07-08T14:31:16Z</time>
      </trkpt>
      <trkpt lat="43.33891" lon="-6.52065">
        <ele>611</ele>
        <time>2016-07-08T14:31:25Z</time>
      </trkpt>
      <trkpt lat="43.33884" lon="-6.52074">
        <ele>611.7</ele>
        <time>2016-07-08T14:31:34Z</time>
      </trkpt>
      <trkpt lat="43.33877" lon="-6.52083">
        <ele>612.4</ele>
        <time>2016-07-08T14:31:44Z</time>
      </trkpt>
      <trkpt lat="43.3387" lon="-6.52093">
        <ele>613.9</ele>
        <time>2016-07-08T14:32:03Z</time>
      </trkpt>
      <trkpt lat="43.33862" lon="-6.52101">
        <ele>614.3</ele>
        <time>2016-07-08T14:32:12Z</time>
      </trkpt>
      <trkpt lat="43.33855" lon="-6.52108">
        <ele>614.9</ele>
        <time>2016-07-08T14:32:20Z</time>
      </trkpt>
      <trkpt lat="43.33847" lon="-6.52115">
        <ele>615.5</ele>
        <time>2016-07-08T14:32:29Z</time>
      </trkpt>
      <trkpt lat="43.33838" lon="-6.5212">
        <ele>616.3</ele>
        <time>2016-07-08T14:32:37Z</time>
      </trkpt>
      <trkpt lat="43.33829" lon="-6.52126">
        <ele>617.1</ele>
        <time>2016-07-08T14:32:45Z</time>
      </trkpt>
      <trkpt lat="43.3382" lon="-6.52132">
        <ele>617.8</ele>
        <time>2016-07-08T14:32:53Z</time>
      </trkpt>
      <trkpt lat="43.33812" lon="-6.52137">
        <ele>618.7</ele>
        <time>2016-07-08T14:33:01Z</time>
      </trkpt>
      <trkpt lat="43.33803" lon="-6.52144">
        <ele>619.4</ele>
        <time>2016-07-08T14:33:10Z</time>
      </trkpt>
      <trkpt lat="43.33795" lon="-6.5215">
        <ele>620.2</ele>
        <time>2016-07-08T14:33:19Z</time>
      </trkpt>
      <trkpt lat="43.33786" lon="-6.52155">
        <ele>620.7</ele>
        <time>2016-07-08T14:33:28Z</time>
      </trkpt>
      <trkpt lat="43.33778" lon="-6.52162">
        <ele>621.3</ele>
        <time>2016-07-08T14:33:37Z</time>
      </trkpt>
      <trkpt lat="43.33769" lon="-6.52168">
        <ele>621.9</ele>
        <time>2016-07-08T14:33:45Z</time>
      </trkpt>
      <trkpt lat="43.33761" lon="-6.52176">
        <ele>622.3</ele>
        <time>2016-07-08T14:33:54Z</time>
      </trkpt>
      <trkpt lat="43.33755" lon="-6.52185">
        <ele>622.5</ele>
        <time>2016-07-08T14:34:03Z</time>
      </trkpt>
      <trkpt lat="43.33748" lon="-6.52194">
        <ele>622.7</ele>
        <time>2016-07-08T14:34:11Z</time>
      </trkpt>
      <trkpt lat="43.33742" lon="-6.52203">
        <ele>622.9</ele>
        <time>2016-07-08T14:34:19Z</time>
      </trkpt>
      <trkpt lat="43.33734" lon="-6.52211">
        <ele>623</ele>
        <time>2016-07-08T14:34:28Z</time>
      </trkpt>
      <trkpt lat="43.33727" lon="-6.5222">
        <ele>623</ele>
        <time>2016-07-08T14:34:36Z</time>
      </trkpt>
      <trkpt lat="43.3372" lon="-6.52229">
        <ele>623.1</ele>
        <time>2016-07-08T14:34:44Z</time>
      </trkpt>
      <trkpt lat="43.33715" lon="-6.52239">
        <ele>623</ele>
        <time>2016-07-08T14:34:52Z</time>
      </trkpt>
      <trkpt lat="43.33709" lon="-6.5225">
        <ele>622.4</ele>
        <time>2016-07-08T14:35:01Z</time>
      </trkpt>
      <trkpt lat="43.33704" lon="-6.52262">
        <ele>622</ele>
        <time>2016-07-08T14:35:10Z</time>
      </trkpt>
      <trkpt lat="43.33699" lon="-6.52273">
        <ele>621.6</ele>
        <time>2016-07-08T14:35:18Z</time>
      </trkpt>
      <trkpt lat="43.33693" lon="-6.52283">
        <ele>621</ele>
        <time>2016-07-08T14:35:26Z</time>
      </trkpt>
      <trkpt lat="43.33687" lon="-6.52294">
        <ele>620.4</ele>
        <time>2016-07-08T14:35:34Z</time>
      </trkpt>
      <trkpt lat="43.33682" lon="-6.52304">
        <ele>619.8</ele>
        <time>2016-07-08T14:35:42Z</time>
      </trkpt>
      <trkpt lat="43.33678" lon="-6.52316">
        <ele>618.9</ele>
        <time>2016-07-08T14:35:50Z</time>
      </trkpt>
      <trkpt lat="43.33676" lon="-6.52328">
        <ele>618.3</ele>
        <time>2016-07-08T14:35:58Z</time>
      </trkpt>
      <trkpt lat="43.33674" lon="-6.52341">
        <ele>617.7</ele>
        <time>2016-07-08T14:36:07Z</time>
      </trkpt>
      <trkpt lat="43.33674" lon="-6.52355">
        <ele>616.8</ele>
        <time>2016-07-08T14:36:17Z</time>
      </trkpt>
      <trkpt lat="43.33674" lon="-6.52368">
        <ele>616</ele>
        <time>2016-07-08T14:36:27Z</time>
      </trkpt>
      <trkpt lat="43.33674" lon="-6.52382">
        <ele>615.5</ele>
        <time>2016-07-08T14:36:35Z</time>
      </trkpt>
      <trkpt lat="43.33672" lon="-6.52396">
        <ele>615.1</ele>
        <time>2016-07-08T14:36:43Z</time>
      </trkpt>
      <trkpt lat="43.3367" lon="-6.52408">
        <ele>614.4</ele>
        <time>2016-07-08T14:36:51Z</time>
      </trkpt>
      <trkpt lat="43.33667" lon="-6.52421">
        <ele>613.7</ele>
        <time>2016-07-08T14:36:59Z</time>
      </trkpt>
      <trkpt lat="43.33665" lon="-6.52435">
        <ele>613.3</ele>
        <time>2016-07-08T14:37:07Z</time>
      </trkpt>
      <trkpt lat="43.33661" lon="-6.52446">
        <ele>612.5</ele>
        <time>2016-07-08T14:37:16Z</time>
      </trkpt>
      <trkpt lat="43.33658" lon="-6.52459">
        <ele>611.8</ele>
        <time>2016-07-08T14:37:25Z</time>
      </trkpt>
      <trkpt lat="43.33655" lon="-6.52471">
        <ele>611.3</ele>
        <time>2016-07-08T14:37:34Z</time>
      </trkpt>
      <trkpt lat="43.33653" lon="-6.52484">
        <ele>611.1</ele>
        <time>2016-07-08T14:37:43Z</time>
      </trkpt>
      <trkpt lat="43.3365" lon="-6.52496">
        <ele>610.1</ele>
        <time>2016-07-08T14:37:53Z</time>
      </trkpt>
      <trkpt lat="43.33648" lon="-6.52509">
        <ele>609.4</ele>
        <time>2016-07-08T14:38:03Z</time>
      </trkpt>
      <trkpt lat="43.33647" lon="-6.52522">
        <ele>609.1</ele>
        <time>2016-07-08T14:38:11Z</time>
      </trkpt>
      <trkpt lat="43.33646" lon="-6.52535">
        <ele>608.9</ele>
        <time>2016-07-08T14:38:19Z</time>
      </trkpt>
      <trkpt lat="43.33637" lon="-6.52542">
        <ele>608.1</ele>
        <time>2016-07-08T14:38:41Z</time>
      </trkpt>
      <trkpt lat="43.3363" lon="-6.52534">
        <ele>608.6</ele>
        <time>2016-07-08T14:39:17Z</time>
      </trkpt>
      <trkpt lat="43.33622" lon="-6.52529">
        <ele>608.4</ele>
        <time>2016-07-08T14:39:28Z</time>
      </trkpt>
      <trkpt lat="43.33613" lon="-6.52524">
        <ele>608</ele>
        <time>2016-07-08T14:39:30Z</time>
      </trkpt>
      <trkpt lat="43.33598" lon="-6.52512">
        <ele>608</ele>
        <time>2016-07-08T14:39:34Z</time>
      </trkpt>
      <trkpt lat="43.33611" lon="-6.52574">
        <ele>608</ele>
        <time>2016-07-08T14:40:05Z</time>
      </trkpt>
      <trkpt lat="43.3362" lon="-6.52578">
        <ele>608.9</ele>
        <time>2016-07-08T14:40:16Z</time>
      </trkpt>
      <trkpt lat="43.33625" lon="-6.52561">
        <ele>608.9</ele>
        <time>2016-07-08T14:40:36Z</time>
      </trkpt>
      <trkpt lat="43.33624" lon="-6.52545">
        <ele>609</ele>
        <time>2016-07-08T14:40:49Z</time>
      </trkpt>
      <trkpt lat="43.3361" lon="-6.52566">
        <ele>608</ele>
        <time>2016-07-08T14:41:38Z</time>
      </trkpt>
      <trkpt lat="43.33603" lon="-6.52576">
        <ele>608</ele>
        <time>2016-07-08T14:41:45Z</time>
      </trkpt>
      <trkpt lat="43.33612" lon="-6.52578">
        <ele>609</ele>
        <time>2016-07-08T14:42:09Z</time>
      </trkpt>
      <trkpt lat="43.33621" lon="-6.5257">
        <ele>608.9</ele>
        <time>2016-07-08T14:42:20Z</time>
      </trkpt>
      <trkpt lat="43.33621" lon="-6.52554">
        <ele>608.8</ele>
        <time>2016-07-08T14:42:23Z</time>
      </trkpt>
      <trkpt lat="43.33618" lon="-6.52541">
        <ele>608.7</ele>
        <time>2016-07-08T14:42:26Z</time>
      </trkpt>
      <trkpt lat="43.33616" lon="-6.52519">
        <ele>608</ele>
        <time>2016-07-08T14:42:33Z</time>
      </trkpt>
      <trkpt lat="43.33626" lon="-6.52521">
        <ele>608.3</ele>
        <time>2016-07-08T14:42:48Z</time>
      </trkpt>
      <trkpt lat="43.33626" lon="-6.52533">
        <ele>608.2</ele>
        <time>2016-07-08T14:43:01Z</time>
      </trkpt>
      <trkpt lat="43.33615" lon="-6.52527">
        <ele>608</ele>
        <time>2016-07-08T14:43:28Z</time>
      </trkpt>
      <trkpt lat="43.33628" lon="-6.52553">
        <ele>608.3</ele>
        <time>2016-07-08T14:43:38Z</time>
      </trkpt>
      <trkpt lat="43.3362" lon="-6.52539">
        <ele>608.3</ele>
        <time>2016-07-08T14:43:40Z</time>
      </trkpt>
      <trkpt lat="43.33632" lon="-6.52542">
        <ele>609</ele>
        <time>2016-07-08T14:44:59Z</time>
      </trkpt>
      <trkpt lat="43.3362" lon="-6.52542">
        <ele>609</ele>
        <time>2016-07-08T14:45:26Z</time>
      </trkpt>
      <trkpt lat="43.33636" lon="-6.52539">
        <ele>608</ele>
        <time>2016-07-08T14:45:55Z</time>
      </trkpt>
      <trkpt lat="43.33629" lon="-6.52529">
        <ele>608</ele>
        <time>2016-07-08T14:46:13Z</time>
      </trkpt>
      <trkpt lat="43.33632" lon="-6.52508">
        <ele>608</ele>
        <time>2016-07-08T14:47:11Z</time>
      </trkpt>
      <trkpt lat="43.33622" lon="-6.52513">
        <ele>608</ele>
        <time>2016-07-08T14:47:16Z</time>
      </trkpt>
      <trkpt lat="43.33611" lon="-6.52518">
        <ele>608</ele>
        <time>2016-07-08T14:47:24Z</time>
      </trkpt>
      <trkpt lat="43.33607" lon="-6.5253">
        <ele>608.7</ele>
        <time>2016-07-08T14:47:52Z</time>
      </trkpt>
      <trkpt lat="43.33615" lon="-6.52535">
        <ele>608</ele>
        <time>2016-07-08T14:48:36Z</time>
      </trkpt>
      <trkpt lat="43.33631" lon="-6.52549">
        <ele>608</ele>
        <time>2016-07-08T14:49:14Z</time>
      </trkpt>
      <trkpt lat="43.33631" lon="-6.52533">
        <ele>608</ele>
        <time>2016-07-08T14:50:32Z</time>
      </trkpt>
      <trkpt lat="43.33623" lon="-6.52542">
        <ele>608</ele>
        <time>2016-07-08T14:51:21Z</time>
      </trkpt>
      <trkpt lat="43.33632" lon="-6.5255">
        <ele>608.4</ele>
        <time>2016-07-08T14:51:28Z</time>
      </trkpt>
      <trkpt lat="43.33642" lon="-6.52546">
        <ele>608.4</ele>
        <time>2016-07-08T14:51:31Z</time>
      </trkpt>
      <trkpt lat="43.33651" lon="-6.52538">
        <ele>608.3</ele>
        <time>2016-07-08T14:51:42Z</time>
      </trkpt>
      <trkpt lat="43.33656" lon="-6.52528">
        <ele>608.1</ele>
        <time>2016-07-08T14:51:50Z</time>
      </trkpt>
      <trkpt lat="43.33665" lon="-6.52526">
        <ele>607</ele>
        <time>2016-07-08T14:52:03Z</time>
      </trkpt>
      <trkpt lat="43.33656" lon="-6.52526">
        <ele>608.4</ele>
        <time>2016-07-08T14:52:34Z</time>
      </trkpt>
      <trkpt lat="43.33647" lon="-6.52528">
        <ele>609.5</ele>
        <time>2016-07-08T14:52:46Z</time>
      </trkpt>
      <trkpt lat="43.33643" lon="-6.52535">
        <ele>607.8</ele>
        <time>2016-07-08T14:53:14Z</time>
      </trkpt>
    </trkseg>
  </trk>
</gpx>